<?xml version='1.0' encoding='UTF-8'?><gpx version="1.1" creator="JPX - https://github.com/jenetics/jpx" xmlns="http://www.topografix.com/GPX/1/1"><trk><trkseg><trkpt lat="44.4578293" lon="7.3738018"><ele>614.3333333333333</ele><time>2026-04-04T12:07:27.432Z</time></trkpt><trkpt lat="44.4577682" lon="7.3738709"><ele>614.6666666666666</ele><time>2026-04-04T12:07:32.397Z</time></trkpt><trkpt lat="44.4577975" lon="7.37397"><ele>615.0</ele><time>2026-04-04T12:07:34.52Z</time></trkpt><trkpt lat="44.457824" lon="7.3740601"><ele>615.3333333333334</ele><time>2026-04-04T12:07:38.519Z</time></trkpt><trkpt lat="44.4578132" lon="7.3741522"><ele>615.6666666666667</ele><time>2026-04-04T12:08:01.52Z</time></trkpt><trkpt lat="44.4577182" lon="7.3741743"><ele>616.0</ele><time>2026-04-04T12:08:04.52Z</time></trkpt><trkpt lat="44.4576403" lon="7.3741829"><ele>616.0</ele><time>2026-04-04T12:08:06.519Z</time></trkpt><trkpt lat="44.4575499" lon="7.3741985"><ele>616.0</ele><time>2026-04-04T12:08:08.519Z</time></trkpt><trkpt lat="44.4574589" lon="7.3742152"><ele>616.0</ele><time>2026-04-04T12:08:10.52Z</time></trkpt><trkpt lat="44.4573637" lon="7.374226"><ele>616.0</ele><time>2026-04-04T12:08:12.519Z</time></trkpt><trkpt lat="44.4572674" lon="7.3742403"><ele>616.0</ele><time>2026-04-04T12:08:14.52Z</time></trkpt><trkpt lat="44.4571698" lon="7.3742594"><ele>617.0</ele><time>2026-04-04T12:08:16.52Z</time></trkpt><trkpt lat="44.4570722" lon="7.3742762"><ele>618.0</ele><time>2026-04-04T12:08:18.52Z</time></trkpt><trkpt lat="44.4569753" lon="7.3742808"><ele>619.0</ele><time>2026-04-04T12:08:20.52Z</time></trkpt><trkpt lat="44.4568801" lon="7.3742997"><ele>620.0</ele><time>2026-04-04T12:08:22.52Z</time></trkpt><trkpt lat="44.456789" lon="7.3743144"><ele>621.0</ele><time>2026-04-04T12:08:24.519Z</time></trkpt><trkpt lat="44.4567161" lon="7.3743249"><ele>621.0</ele><time>2026-04-04T12:08:26.52Z</time></trkpt><trkpt lat="44.4566391" lon="7.3743371"><ele>621.0</ele><time>2026-04-04T12:08:29.518Z</time></trkpt><trkpt lat="44.4565708" lon="7.3743306"><ele>621.0</ele><time>2026-04-04T12:08:34.519Z</time></trkpt><trkpt lat="44.4565522" lon="7.374219"><ele>621.0</ele><time>2026-04-04T12:08:37.519Z</time></trkpt><trkpt lat="44.4565877" lon="7.3741323"><ele>621.0</ele><time>2026-04-04T12:08:39.52Z</time></trkpt><trkpt lat="44.4566296" lon="7.3740405"><ele>621.0</ele><time>2026-04-04T12:08:41.52Z</time></trkpt><trkpt lat="44.456673" lon="7.3739438"><ele>622.0</ele><time>2026-04-04T12:08:43.52Z</time></trkpt><trkpt lat="44.4567016" lon="7.3738508"><ele>623.0</ele><time>2026-04-04T12:08:45.52Z</time></trkpt><trkpt lat="44.4567206" lon="7.3737664"><ele>624.0</ele><time>2026-04-04T12:08:47.519Z</time></trkpt><trkpt lat="44.4567384" lon="7.373678"><ele>625.0</ele><time>2026-04-04T12:08:49.52Z</time></trkpt><trkpt lat="44.4567561" lon="7.3735598"><ele>626.0</ele><time>2026-04-04T12:08:52.518Z</time></trkpt><trkpt lat="44.4567896" lon="7.3734319"><ele>627.0</ele><time>2026-04-04T12:08:55.519Z</time></trkpt><trkpt lat="44.4568175" lon="7.3733341"><ele>627.0</ele><time>2026-04-04T12:08:57.52Z</time></trkpt><trkpt lat="44.4568364" lon="7.3732297"><ele>627.0</ele><time>2026-04-04T12:08:59.52Z</time></trkpt><trkpt lat="44.4568547" lon="7.3731191"><ele>627.0</ele><time>2026-04-04T12:09:01.52Z</time></trkpt><trkpt lat="44.4568676" lon="7.373004"><ele>627.0</ele><time>2026-04-04T12:09:03.519Z</time></trkpt><trkpt lat="44.4568831" lon="7.372894"><ele>627.0</ele><time>2026-04-04T12:09:05.52Z</time></trkpt><trkpt lat="44.4568973" lon="7.3727933"><ele>627.0</ele><time>2026-04-04T12:09:07.519Z</time></trkpt><trkpt lat="44.4568996" lon="7.3726876"><ele>628.0</ele><time>2026-04-04T12:09:09.52Z</time></trkpt><trkpt lat="44.4568954" lon="7.3725729"><ele>629.0</ele><time>2026-04-04T12:09:11.519Z</time></trkpt><trkpt lat="44.4568888" lon="7.3724584"><ele>630.0</ele><time>2026-04-04T12:09:13.519Z</time></trkpt><trkpt lat="44.4568741" lon="7.3723427"><ele>631.0</ele><time>2026-04-04T12:09:15.519Z</time></trkpt><trkpt lat="44.4568535" lon="7.3722441"><ele>632.0</ele><time>2026-04-04T12:09:17.519Z</time></trkpt><trkpt lat="44.4568489" lon="7.372141"><ele>633.0</ele><time>2026-04-04T12:09:20.519Z</time></trkpt><trkpt lat="44.456878" lon="7.372045"><ele>633.5</ele><time>2026-04-04T12:09:23.52Z</time></trkpt><trkpt lat="44.4569462" lon="7.3720224"><ele>634.0</ele><time>2026-04-04T12:09:25.518Z</time></trkpt><trkpt lat="44.457026" lon="7.3720443"><ele>634.5</ele><time>2026-04-04T12:09:27.519Z</time></trkpt><trkpt lat="44.4571105" lon="7.3720601"><ele>635.0</ele><time>2026-04-04T12:09:29.519Z</time></trkpt><trkpt lat="44.4571969" lon="7.3720624"><ele>635.5</ele><time>2026-04-04T12:09:31.52Z</time></trkpt><trkpt lat="44.4572826" lon="7.3720595"><ele>636.0</ele><time>2026-04-04T12:09:33.517Z</time></trkpt><trkpt lat="44.4573658" lon="7.3720548"><ele>633.0</ele><time>2026-04-04T12:09:35.518Z</time></trkpt><trkpt lat="44.4574475" lon="7.3720522"><ele>630.0</ele><time>2026-04-04T12:09:37.518Z</time></trkpt><trkpt lat="44.4575268" lon="7.3720487"><ele>627.0</ele><time>2026-04-04T12:09:39.519Z</time></trkpt><trkpt lat="44.457606" lon="7.3720465"><ele>624.0</ele><time>2026-04-04T12:09:41.518Z</time></trkpt><trkpt lat="44.457686" lon="7.3720484"><ele>621.0</ele><time>2026-04-04T12:09:43.519Z</time></trkpt><trkpt lat="44.4577624" lon="7.3720484"><ele>618.0</ele><time>2026-04-04T12:09:45.518Z</time></trkpt><trkpt lat="44.457837" lon="7.3720457"><ele>618.0000000000001</ele><time>2026-04-04T12:09:47.519Z</time></trkpt><trkpt lat="44.4579119" lon="7.3720445"><ele>618.0</ele><time>2026-04-04T12:09:49.519Z</time></trkpt><trkpt lat="44.4579846" lon="7.3720396"><ele>618.0</ele><time>2026-04-04T12:09:51.518Z</time></trkpt><trkpt lat="44.4580535" lon="7.3720394"><ele>618.0</ele><time>2026-04-04T12:09:53.519Z</time></trkpt><trkpt lat="44.4581176" lon="7.372034"><ele>618.0</ele><time>2026-04-04T12:09:55.517Z</time></trkpt><trkpt lat="44.4581906" lon="7.3720322"><ele>618.0000000000001</ele><time>2026-04-04T12:09:57.518Z</time></trkpt><trkpt lat="44.4582722" lon="7.3720361"><ele>618.0</ele><time>2026-04-04T12:09:59.519Z</time></trkpt><trkpt lat="44.4583556" lon="7.3720316"><ele>618.0000000000001</ele><time>2026-04-04T12:10:01.519Z</time></trkpt><trkpt lat="44.458439" lon="7.3720306"><ele>618.0</ele><time>2026-04-04T12:10:03.519Z</time></trkpt><trkpt lat="44.458519" lon="7.3720265"><ele>618.0</ele><time>2026-04-04T12:10:05.517Z</time></trkpt><trkpt lat="44.458595" lon="7.3720324"><ele>618.0</ele><time>2026-04-04T12:10:07.518Z</time></trkpt><trkpt lat="44.4586661" lon="7.3720312"><ele>618.0</ele><time>2026-04-04T12:10:09.519Z</time></trkpt><trkpt lat="44.4587354" lon="7.3720311"><ele>618.0000000000001</ele><time>2026-04-04T12:10:11.519Z</time></trkpt><trkpt lat="44.4588028" lon="7.3720277"><ele>618.0</ele><time>2026-04-04T12:10:13.519Z</time></trkpt><trkpt lat="44.4588687" lon="7.3720239"><ele>617.8333333333334</ele><time>2026-04-04T12:10:15.519Z</time></trkpt><trkpt lat="44.4589431" lon="7.3720184"><ele>617.6666666666666</ele><time>2026-04-04T12:10:17.518Z</time></trkpt><trkpt lat="44.4590206" lon="7.3720096"><ele>617.5</ele><time>2026-04-04T12:10:19.518Z</time></trkpt><trkpt lat="44.4591015" lon="7.3720024"><ele>617.3333333333333</ele><time>2026-04-04T12:10:21.518Z</time></trkpt><trkpt lat="44.4591798" lon="7.3720044"><ele>617.1666666666666</ele><time>2026-04-04T12:10:23.518Z</time></trkpt><trkpt lat="44.459254" lon="7.3720109"><ele>617.0</ele><time>2026-04-04T12:10:25.519Z</time></trkpt><trkpt lat="44.4593273" lon="7.3720084"><ele>617.0</ele><time>2026-04-04T12:10:27.519Z</time></trkpt><trkpt lat="44.4593909" lon="7.3719972"><ele>617.0</ele><time>2026-04-04T12:10:29.519Z</time></trkpt><trkpt lat="44.4594502" lon="7.3719078"><ele>617.0</ele><time>2026-04-04T12:10:32.519Z</time></trkpt><trkpt lat="44.4594824" lon="7.3718125"><ele>617.0</ele><time>2026-04-04T12:10:35.517Z</time></trkpt><trkpt lat="44.4595512" lon="7.3717807"><ele>617.0</ele><time>2026-04-04T12:16:41.517Z</time></trkpt><trkpt lat="44.4596275" lon="7.3717458"><ele>617.0</ele><time>2026-04-04T12:16:44.518Z</time></trkpt><trkpt lat="44.4596812" lon="7.3716411"><ele>617.2</ele><time>2026-04-04T12:16:47.517Z</time></trkpt><trkpt lat="44.4597491" lon="7.3716222"><ele>617.4000000000001</ele><time>2026-04-04T12:16:49.517Z</time></trkpt><trkpt lat="44.459832" lon="7.3716691"><ele>617.5999999999999</ele><time>2026-04-04T12:16:51.518Z</time></trkpt><trkpt lat="44.4599381" lon="7.3717094"><ele>617.8</ele><time>2026-04-04T12:16:53.516Z</time></trkpt><trkpt lat="44.460058" lon="7.3717351"><ele>618.0</ele><time>2026-04-04T12:16:55.518Z</time></trkpt><trkpt lat="44.4601224" lon="7.3717359"><ele>618.0</ele><time>2026-04-04T12:16:56.517Z</time></trkpt><trkpt lat="44.4601856" lon="7.3717393"><ele>618.0</ele><time>2026-04-04T12:16:57.517Z</time></trkpt><trkpt lat="44.460297" lon="7.3717376"><ele>618.0</ele><time>2026-04-04T12:16:59.516Z</time></trkpt><trkpt lat="44.4603893" lon="7.3717303"><ele>618.0</ele><time>2026-04-04T12:17:01.517Z</time></trkpt><trkpt lat="44.4604664" lon="7.3717305"><ele>618.0</ele><time>2026-04-04T12:17:03.517Z</time></trkpt><trkpt lat="44.4605207" lon="7.3716238"><ele>618.0</ele><time>2026-04-04T12:17:06.518Z</time></trkpt><trkpt lat="44.4605106" lon="7.3715021"><ele>617.6666666666666</ele><time>2026-04-04T12:17:08.518Z</time></trkpt><trkpt lat="44.4604895" lon="7.3713797"><ele>617.3333333333334</ele><time>2026-04-04T12:17:10.517Z</time></trkpt><trkpt lat="44.4604706" lon="7.3712595"><ele>617.0</ele><time>2026-04-04T12:17:12.516Z</time></trkpt><trkpt lat="44.4604694" lon="7.3711368"><ele>616.6666666666667</ele><time>2026-04-04T12:17:14.517Z</time></trkpt><trkpt lat="44.460468" lon="7.371014"><ele>616.3333333333334</ele><time>2026-04-04T12:17:16.516Z</time></trkpt><trkpt lat="44.4604661" lon="7.3708926"><ele>616.0</ele><time>2026-04-04T12:17:18.516Z</time></trkpt><trkpt lat="44.4604607" lon="7.3707675"><ele>616.0</ele><time>2026-04-04T12:17:20.516Z</time></trkpt><trkpt lat="44.4604444" lon="7.3706428"><ele>616.0</ele><time>2026-04-04T12:17:22.517Z</time></trkpt><trkpt lat="44.4604293" lon="7.3705062"><ele>616.0</ele><time>2026-04-04T12:17:24.517Z</time></trkpt><trkpt lat="44.4604088" lon="7.3703964"><ele>616.0</ele><time>2026-04-04T12:17:26.516Z</time></trkpt><trkpt lat="44.4603972" lon="7.3702662"><ele>616.0</ele><time>2026-04-04T12:17:28.517Z</time></trkpt><trkpt lat="44.4603896" lon="7.3701498"><ele>616.0</ele><time>2026-04-04T12:17:30.517Z</time></trkpt><trkpt lat="44.46039" lon="7.3700333"><ele>616.1666666666667</ele><time>2026-04-04T12:17:32.517Z</time></trkpt><trkpt lat="44.4603904" lon="7.3699151"><ele>616.3333333333334</ele><time>2026-04-04T12:17:34.516Z</time></trkpt><trkpt lat="44.4603909" lon="7.3697968"><ele>616.5</ele><time>2026-04-04T12:17:36.516Z</time></trkpt><trkpt lat="44.4603901" lon="7.3696793"><ele>616.6666666666666</ele><time>2026-04-04T12:17:38.516Z</time></trkpt><trkpt lat="44.4603836" lon="7.3695647"><ele>616.8333333333333</ele><time>2026-04-04T12:17:40.515Z</time></trkpt><trkpt lat="44.4603689" lon="7.3694663"><ele>617.0</ele><time>2026-04-04T12:17:43.517Z</time></trkpt><trkpt lat="44.4603722" lon="7.3693609"><ele>617.1666666666666</ele><time>2026-04-04T12:17:46.516Z</time></trkpt><trkpt lat="44.4603874" lon="7.3692751"><ele>617.3333333333333</ele><time>2026-04-04T12:17:48.517Z</time></trkpt><trkpt lat="44.4603961" lon="7.3691772"><ele>617.5</ele><time>2026-04-04T12:17:50.517Z</time></trkpt><trkpt lat="44.4603965" lon="7.3690729"><ele>617.6666666666666</ele><time>2026-04-04T12:17:52.516Z</time></trkpt><trkpt lat="44.4603919" lon="7.3689614"><ele>617.8333333333334</ele><time>2026-04-04T12:17:54.517Z</time></trkpt><trkpt lat="44.4603899" lon="7.3688483"><ele>618.0</ele><time>2026-04-04T12:17:56.517Z</time></trkpt><trkpt lat="44.460383" lon="7.3687342"><ele>618.0</ele><time>2026-04-04T12:17:58.517Z</time></trkpt><trkpt lat="44.4603804" lon="7.3686207"><ele>618.0</ele><time>2026-04-04T12:18:00.515Z</time></trkpt><trkpt lat="44.4603743" lon="7.3685068"><ele>618.0</ele><time>2026-04-04T12:18:02.517Z</time></trkpt><trkpt lat="44.4603728" lon="7.3683862"><ele>618.0</ele><time>2026-04-04T12:18:04.517Z</time></trkpt><trkpt lat="44.4603635" lon="7.3682616"><ele>618.0</ele><time>2026-04-04T12:18:06.515Z</time></trkpt><trkpt lat="44.4603657" lon="7.3681365"><ele>618.0</ele><time>2026-04-04T12:18:08.515Z</time></trkpt><trkpt lat="44.4603641" lon="7.3680073"><ele>617.8</ele><time>2026-04-04T12:18:10.516Z</time></trkpt><trkpt lat="44.4603593" lon="7.3678705"><ele>617.5999999999999</ele><time>2026-04-04T12:18:12.517Z</time></trkpt><trkpt lat="44.460347" lon="7.3677292"><ele>617.4000000000001</ele><time>2026-04-04T12:18:14.516Z</time></trkpt><trkpt lat="44.4603382" lon="7.3675929"><ele>617.2</ele><time>2026-04-04T12:18:16.516Z</time></trkpt><trkpt lat="44.4603307" lon="7.367461"><ele>617.0</ele><time>2026-04-04T12:18:18.516Z</time></trkpt><trkpt lat="44.4603295" lon="7.3673299"><ele>617.0</ele><time>2026-04-04T12:18:20.517Z</time></trkpt><trkpt lat="44.4603281" lon="7.3672086"><ele>617.0</ele><time>2026-04-04T12:18:22.517Z</time></trkpt><trkpt lat="44.4603251" lon="7.3670811"><ele>617.0</ele><time>2026-04-04T12:18:24.516Z</time></trkpt><trkpt lat="44.4603195" lon="7.3669526"><ele>617.0</ele><time>2026-04-04T12:18:26.517Z</time></trkpt><trkpt lat="44.4603111" lon="7.3668341"><ele>617.0</ele><time>2026-04-04T12:18:28.517Z</time></trkpt><trkpt lat="44.4603072" lon="7.366737"><ele>617.0</ele><time>2026-04-04T12:18:30.516Z</time></trkpt><trkpt lat="44.4603061" lon="7.3666439"><ele>617.1428571428572</ele><time>2026-04-04T12:18:32.515Z</time></trkpt><trkpt lat="44.4603019" lon="7.3665544"><ele>617.2857142857142</ele><time>2026-04-04T12:18:34.517Z</time></trkpt><trkpt lat="44.4602936" lon="7.3664466"><ele>617.4285714285714</ele><time>2026-04-04T12:18:37.517Z</time></trkpt><trkpt lat="44.4602374" lon="7.3663957"><ele>617.5714285714287</ele><time>2026-04-04T12:18:43.516Z</time></trkpt><trkpt lat="44.4601748" lon="7.3663505"><ele>617.7142857142858</ele><time>2026-04-04T12:18:48.517Z</time></trkpt><trkpt lat="44.4600976" lon="7.3663716"><ele>617.8571428571429</ele><time>2026-04-04T12:18:51.515Z</time></trkpt><trkpt lat="44.4600096" lon="7.3664082"><ele>618.0</ele><time>2026-04-04T12:18:54.516Z</time></trkpt><trkpt lat="44.4599433" lon="7.3664226"><ele>618.1428571428572</ele><time>2026-04-04T12:18:56.516Z</time></trkpt><trkpt lat="44.4598753" lon="7.3664239"><ele>618.2857142857143</ele><time>2026-04-04T12:18:58.517Z</time></trkpt><trkpt lat="44.4598062" lon="7.3664281"><ele>618.4285714285714</ele><time>2026-04-04T12:19:00.517Z</time></trkpt><trkpt lat="44.459738" lon="7.3664406"><ele>618.5714285714287</ele><time>2026-04-04T12:19:02.516Z</time></trkpt><trkpt lat="44.4596716" lon="7.3664566"><ele>618.7142857142858</ele><time>2026-04-04T12:19:04.517Z</time></trkpt><trkpt lat="44.459606" lon="7.3664697"><ele>618.8571428571429</ele><time>2026-04-04T12:19:06.515Z</time></trkpt><trkpt lat="44.4595373" lon="7.3664785"><ele>619.0</ele><time>2026-04-04T12:19:08.517Z</time></trkpt><trkpt lat="44.4594682" lon="7.3664974"><ele>619.2857142857142</ele><time>2026-04-04T12:19:10.516Z</time></trkpt><trkpt lat="44.4594009" lon="7.3665095"><ele>619.5714285714286</ele><time>2026-04-04T12:19:12.515Z</time></trkpt><trkpt lat="44.459332" lon="7.3665216"><ele>619.8571428571429</ele><time>2026-04-04T12:19:14.515Z</time></trkpt><trkpt lat="44.4592605" lon="7.366536"><ele>620.1428571428571</ele><time>2026-04-04T12:19:16.517Z</time></trkpt><trkpt lat="44.4591874" lon="7.3665507"><ele>620.4285714285714</ele><time>2026-04-04T12:19:18.517Z</time></trkpt><trkpt lat="44.4591146" lon="7.3665684"><ele>620.7142857142857</ele><time>2026-04-04T12:19:20.516Z</time></trkpt><trkpt lat="44.4590423" lon="7.3665898"><ele>621.0</ele><time>2026-04-04T12:19:22.516Z</time></trkpt><trkpt lat="44.4589692" lon="7.3666111"><ele>620.9999999999999</ele><time>2026-04-04T12:19:24.516Z</time></trkpt><trkpt lat="44.4588985" lon="7.3666309"><ele>621.0</ele><time>2026-04-04T12:19:26.516Z</time></trkpt><trkpt lat="44.4588288" lon="7.3666425"><ele>621.0</ele><time>2026-04-04T12:19:28.517Z</time></trkpt><trkpt lat="44.4587596" lon="7.366657"><ele>621.0</ele><time>2026-04-04T12:19:30.516Z</time></trkpt><trkpt lat="44.4586939" lon="7.3666762"><ele>621.0</ele><time>2026-04-04T12:19:32.516Z</time></trkpt><trkpt lat="44.4586314" lon="7.3666926"><ele>620.9999999999999</ele><time>2026-04-04T12:19:34.515Z</time></trkpt><trkpt lat="44.4585676" lon="7.3667045"><ele>621.0</ele><time>2026-04-04T12:19:36.517Z</time></trkpt><trkpt lat="44.4585007" lon="7.3667217"><ele>621.5</ele><time>2026-04-04T12:19:38.517Z</time></trkpt><trkpt lat="44.458432" lon="7.3667322"><ele>622.0</ele><time>2026-04-04T12:19:40.517Z</time></trkpt><trkpt lat="44.4583651" lon="7.3667465"><ele>622.5</ele><time>2026-04-04T12:19:42.516Z</time></trkpt><trkpt lat="44.4583019" lon="7.3667569"><ele>623.0</ele><time>2026-04-04T12:19:44.516Z</time></trkpt><trkpt lat="44.4582104" lon="7.3667463"><ele>623.5</ele><time>2026-04-04T12:19:47.517Z</time></trkpt><trkpt lat="44.4581639" lon="7.366651"><ele>624.0</ele><time>2026-04-04T12:19:50.517Z</time></trkpt><trkpt lat="44.4581604" lon="7.3665225"><ele>624.0</ele><time>2026-04-04T12:19:53.517Z</time></trkpt><trkpt lat="44.4581728" lon="7.366421"><ele>624.0</ele><time>2026-04-04T12:19:55.516Z</time></trkpt><trkpt lat="44.4581877" lon="7.3663099"><ele>624.0</ele><time>2026-04-04T12:19:57.517Z</time></trkpt><trkpt lat="44.4582067" lon="7.3661968"><ele>624.0</ele><time>2026-04-04T12:19:59.516Z</time></trkpt><trkpt lat="44.4582247" lon="7.3660759"><ele>624.0</ele><time>2026-04-04T12:20:01.517Z</time></trkpt><trkpt lat="44.4582419" lon="7.3659457"><ele>624.0</ele><time>2026-04-04T12:20:03.516Z</time></trkpt><trkpt lat="44.4582562" lon="7.3658122"><ele>624.0</ele><time>2026-04-04T12:20:05.516Z</time></trkpt><trkpt lat="44.4582725" lon="7.3656741"><ele>624.0</ele><time>2026-04-04T12:20:07.515Z</time></trkpt><trkpt lat="44.4582841" lon="7.3655353"><ele>624.0</ele><time>2026-04-04T12:20:09.517Z</time></trkpt><trkpt lat="44.458287" lon="7.3653948"><ele>624.0</ele><time>2026-04-04T12:20:11.517Z</time></trkpt><trkpt lat="44.458294" lon="7.3652507"><ele>624.0</ele><time>2026-04-04T12:20:13.517Z</time></trkpt><trkpt lat="44.4582897" lon="7.3651167"><ele>624.0</ele><time>2026-04-04T12:20:15.516Z</time></trkpt><trkpt lat="44.4582844" lon="7.3649867"><ele>624.0</ele><time>2026-04-04T12:20:17.516Z</time></trkpt><trkpt lat="44.4582772" lon="7.3648783"><ele>624.0</ele><time>2026-04-04T12:20:19.516Z</time></trkpt><trkpt lat="44.4582604" lon="7.3647556"><ele>624.0</ele><time>2026-04-04T12:20:21.516Z</time></trkpt><trkpt lat="44.4582496" lon="7.3646364"><ele>624.0</ele><time>2026-04-04T12:20:23.517Z</time></trkpt><trkpt lat="44.4582325" lon="7.3645141"><ele>624.0</ele><time>2026-04-04T12:20:25.517Z</time></trkpt><trkpt lat="44.4582043" lon="7.364396"><ele>623.8</ele><time>2026-04-04T12:20:27.516Z</time></trkpt><trkpt lat="44.458161" lon="7.3642834"><ele>623.5999999999999</ele><time>2026-04-04T12:20:29.515Z</time></trkpt><trkpt lat="44.4581154" lon="7.3641662"><ele>623.4</ele><time>2026-04-04T12:20:31.517Z</time></trkpt><trkpt lat="44.4580745" lon="7.3640464"><ele>623.1999999999999</ele><time>2026-04-04T12:20:33.517Z</time></trkpt><trkpt lat="44.4580429" lon="7.3639209"><ele>623.0</ele><time>2026-04-04T12:20:35.516Z</time></trkpt><trkpt lat="44.4580299" lon="7.3637979"><ele>623.0</ele><time>2026-04-04T12:20:37.517Z</time></trkpt><trkpt lat="44.458021" lon="7.3636757"><ele>623.0</ele><time>2026-04-04T12:20:39.517Z</time></trkpt><trkpt lat="44.4580126" lon="7.3635512"><ele>623.0</ele><time>2026-04-04T12:20:41.517Z</time></trkpt><trkpt lat="44.4580078" lon="7.3634244"><ele>623.0</ele><time>2026-04-04T12:20:43.517Z</time></trkpt><trkpt lat="44.4580033" lon="7.3632971"><ele>623.0</ele><time>2026-04-04T12:20:45.516Z</time></trkpt><trkpt lat="44.4580033" lon="7.3631746"><ele>623.0</ele><time>2026-04-04T12:20:47.517Z</time></trkpt><trkpt lat="44.4580043" lon="7.3630576"><ele>623.0</ele><time>2026-04-04T12:20:49.517Z</time></trkpt><trkpt lat="44.4580003" lon="7.3629351"><ele>623.0</ele><time>2026-04-04T12:20:51.517Z</time></trkpt><trkpt lat="44.4580015" lon="7.3628138"><ele>623.0</ele><time>2026-04-04T12:20:53.516Z</time></trkpt><trkpt lat="44.4580039" lon="7.3626913"><ele>623.0</ele><time>2026-04-04T12:20:55.517Z</time></trkpt><trkpt lat="44.458004" lon="7.3625687"><ele>623.0</ele><time>2026-04-04T12:20:57.516Z</time></trkpt><trkpt lat="44.4580057" lon="7.3624483"><ele>623.0</ele><time>2026-04-04T12:20:59.516Z</time></trkpt><trkpt lat="44.458009" lon="7.3623298"><ele>623.0</ele><time>2026-04-04T12:21:01.515Z</time></trkpt><trkpt lat="44.4580166" lon="7.3622131"><ele>623.0</ele><time>2026-04-04T12:21:03.515Z</time></trkpt><trkpt lat="44.4580244" lon="7.362096"><ele>623.0</ele><time>2026-04-04T12:21:05.515Z</time></trkpt><trkpt lat="44.458036" lon="7.3619803"><ele>623.0</ele><time>2026-04-04T12:21:07.515Z</time></trkpt><trkpt lat="44.4580498" lon="7.3618655"><ele>623.0</ele><time>2026-04-04T12:21:09.516Z</time></trkpt><trkpt lat="44.458069" lon="7.3617485"><ele>623.0</ele><time>2026-04-04T12:21:11.515Z</time></trkpt><trkpt lat="44.4580862" lon="7.361635"><ele>623.3333333333333</ele><time>2026-04-04T12:21:13.516Z</time></trkpt><trkpt lat="44.4581087" lon="7.3615241"><ele>623.6666666666666</ele><time>2026-04-04T12:21:15.516Z</time></trkpt><trkpt lat="44.4581282" lon="7.3614129"><ele>624.0</ele><time>2026-04-04T12:21:17.515Z</time></trkpt><trkpt lat="44.4581477" lon="7.3613022"><ele>624.3333333333334</ele><time>2026-04-04T12:21:19.516Z</time></trkpt><trkpt lat="44.4581657" lon="7.3611902"><ele>624.6666666666667</ele><time>2026-04-04T12:21:21.515Z</time></trkpt><trkpt lat="44.4581861" lon="7.3610666"><ele>625.0</ele><time>2026-04-04T12:21:23.516Z</time></trkpt><trkpt lat="44.4582006" lon="7.360958"><ele>625.0</ele><time>2026-04-04T12:21:25.516Z</time></trkpt><trkpt lat="44.4582158" lon="7.3608491"><ele>625.0</ele><time>2026-04-04T12:21:27.515Z</time></trkpt><trkpt lat="44.4582347" lon="7.3607393"><ele>625.0</ele><time>2026-04-04T12:21:29.516Z</time></trkpt><trkpt lat="44.4582585" lon="7.3606305"><ele>625.0</ele><time>2026-04-04T12:21:31.516Z</time></trkpt><trkpt lat="44.4582745" lon="7.3605197"><ele>625.0</ele><time>2026-04-04T12:21:33.516Z</time></trkpt><trkpt lat="44.4582939" lon="7.3604069"><ele>625.0</ele><time>2026-04-04T12:21:35.515Z</time></trkpt><trkpt lat="44.4583112" lon="7.3602914"><ele>625.1666666666667</ele><time>2026-04-04T12:21:37.514Z</time></trkpt><trkpt lat="44.4583264" lon="7.3601758"><ele>625.3333333333334</ele><time>2026-04-04T12:21:39.515Z</time></trkpt><trkpt lat="44.4583386" lon="7.3600602"><ele>625.5</ele><time>2026-04-04T12:21:41.515Z</time></trkpt><trkpt lat="44.458349" lon="7.3599465"><ele>625.6666666666666</ele><time>2026-04-04T12:21:43.516Z</time></trkpt><trkpt lat="44.4583572" lon="7.3598329"><ele>625.8333333333333</ele><time>2026-04-04T12:21:45.515Z</time></trkpt><trkpt lat="44.4583626" lon="7.3597231"><ele>626.0</ele><time>2026-04-04T12:21:47.516Z</time></trkpt><trkpt lat="44.4583682" lon="7.3596195"><ele>626.1428571428571</ele><time>2026-04-04T12:21:49.516Z</time></trkpt><trkpt lat="44.4583723" lon="7.3595227"><ele>626.2857142857143</ele><time>2026-04-04T12:21:51.515Z</time></trkpt><trkpt lat="44.4583718" lon="7.3594227"><ele>626.4285714285714</ele><time>2026-04-04T12:21:53.516Z</time></trkpt><trkpt lat="44.4583699" lon="7.35932"><ele>626.5714285714286</ele><time>2026-04-04T12:21:55.525Z</time></trkpt><trkpt lat="44.4583698" lon="7.359218"><ele>626.7142857142857</ele><time>2026-04-04T12:21:57.516Z</time></trkpt><trkpt lat="44.4583702" lon="7.3591077"><ele>626.8571428571429</ele><time>2026-04-04T12:21:59.516Z</time></trkpt><trkpt lat="44.458362" lon="7.359004"><ele>627.0</ele><time>2026-04-04T12:22:01.516Z</time></trkpt><trkpt lat="44.4583526" lon="7.3588907"><ele>627.0</ele><time>2026-04-04T12:22:03.516Z</time></trkpt><trkpt lat="44.4583348" lon="7.3587803"><ele>627.0</ele><time>2026-04-04T12:22:05.516Z</time></trkpt><trkpt lat="44.4583129" lon="7.3586714"><ele>627.0</ele><time>2026-04-04T12:22:07.516Z</time></trkpt><trkpt lat="44.4582867" lon="7.3585624"><ele>627.0</ele><time>2026-04-04T12:22:09.515Z</time></trkpt><trkpt lat="44.4582638" lon="7.3584489"><ele>627.0</ele><time>2026-04-04T12:22:11.516Z</time></trkpt><trkpt lat="44.4582407" lon="7.3583322"><ele>627.0</ele><time>2026-04-04T12:22:13.515Z</time></trkpt><trkpt lat="44.4582181" lon="7.3582142"><ele>627.0</ele><time>2026-04-04T12:22:15.515Z</time></trkpt><trkpt lat="44.4581992" lon="7.3580974"><ele>627.0</ele><time>2026-04-04T12:22:17.516Z</time></trkpt><trkpt lat="44.458187" lon="7.357982"><ele>627.0</ele><time>2026-04-04T12:22:19.514Z</time></trkpt><trkpt lat="44.4581788" lon="7.3578538"><ele>627.0</ele><time>2026-04-04T12:22:21.514Z</time></trkpt><trkpt lat="44.4581794" lon="7.3577386"><ele>627.0</ele><time>2026-04-04T12:22:23.515Z</time></trkpt><trkpt lat="44.4581868" lon="7.3576184"><ele>627.0</ele><time>2026-04-04T12:22:25.515Z</time></trkpt><trkpt lat="44.458198" lon="7.3574971"><ele>627.1666666666666</ele><time>2026-04-04T12:22:27.516Z</time></trkpt><trkpt lat="44.458208" lon="7.3573798"><ele>627.3333333333334</ele><time>2026-04-04T12:22:29.515Z</time></trkpt><trkpt lat="44.4582202" lon="7.3572856"><ele>627.5</ele><time>2026-04-04T12:22:31.132Z</time></trkpt><trkpt lat="44.4582297" lon="7.3571521"><ele>627.6666666666667</ele><time>2026-04-04T12:22:33.516Z</time></trkpt><trkpt lat="44.4582401" lon="7.3570461"><ele>627.8333333333334</ele><time>2026-04-04T12:22:35.515Z</time></trkpt><trkpt lat="44.4582491" lon="7.3569399"><ele>628.0</ele><time>2026-04-04T12:22:37.516Z</time></trkpt><trkpt lat="44.458263" lon="7.3568349"><ele>628.5714285714286</ele><time>2026-04-04T12:22:39.516Z</time></trkpt><trkpt lat="44.4582764" lon="7.3567308"><ele>629.1428571428571</ele><time>2026-04-04T12:22:41.516Z</time></trkpt><trkpt lat="44.4582885" lon="7.3566278"><ele>629.7142857142858</ele><time>2026-04-04T12:22:43.515Z</time></trkpt><trkpt lat="44.4582978" lon="7.3565293"><ele>630.2857142857142</ele><time>2026-04-04T12:22:45.515Z</time></trkpt><trkpt lat="44.4583092" lon="7.3564347"><ele>630.8571428571429</ele><time>2026-04-04T12:22:47.516Z</time></trkpt><trkpt lat="44.4583182" lon="7.3563388"><ele>631.4285714285714</ele><time>2026-04-04T12:22:49.516Z</time></trkpt><trkpt lat="44.4583301" lon="7.3562429"><ele>632.0</ele><time>2026-04-04T12:22:51.515Z</time></trkpt><trkpt lat="44.4583414" lon="7.356144"><ele>632.7142857142858</ele><time>2026-04-04T12:22:53.528Z</time></trkpt><trkpt lat="44.4583543" lon="7.3560438"><ele>633.4285714285714</ele><time>2026-04-04T12:22:55.516Z</time></trkpt><trkpt lat="44.4583725" lon="7.3559417"><ele>634.1428571428571</ele><time>2026-04-04T12:22:57.516Z</time></trkpt><trkpt lat="44.4583913" lon="7.3558418"><ele>634.8571428571429</ele><time>2026-04-04T12:22:59.515Z</time></trkpt><trkpt lat="44.4584016" lon="7.3557408"><ele>635.5714285714286</ele><time>2026-04-04T12:23:01.516Z</time></trkpt><trkpt lat="44.4584157" lon="7.3556441"><ele>636.2857142857143</ele><time>2026-04-04T12:23:03.515Z</time></trkpt><trkpt lat="44.4584338" lon="7.3555508"><ele>637.0</ele><time>2026-04-04T12:23:05.515Z</time></trkpt><trkpt lat="44.458452" lon="7.3554555"><ele>637.5</ele><time>2026-04-04T12:23:07.514Z</time></trkpt><trkpt lat="44.458466" lon="7.3553646"><ele>638.0</ele><time>2026-04-04T12:23:09.514Z</time></trkpt><trkpt lat="44.4584728" lon="7.3552657"><ele>638.5</ele><time>2026-04-04T12:23:11.515Z</time></trkpt><trkpt lat="44.4584849" lon="7.3551703"><ele>639.0</ele><time>2026-04-04T12:23:13.515Z</time></trkpt><trkpt lat="44.4584975" lon="7.3550774"><ele>639.5</ele><time>2026-04-04T12:23:15.516Z</time></trkpt><trkpt lat="44.4585231" lon="7.354948"><ele>640.0</ele><time>2026-04-04T12:23:18.516Z</time></trkpt><trkpt lat="44.4585354" lon="7.3548288"><ele>640.0</ele><time>2026-04-04T12:23:21.515Z</time></trkpt><trkpt lat="44.4585412" lon="7.354711"><ele>640.0</ele><time>2026-04-04T12:23:24.516Z</time></trkpt><trkpt lat="44.4585437" lon="7.3546018"><ele>640.0</ele><time>2026-04-04T12:23:27.515Z</time></trkpt><trkpt lat="44.4585489" lon="7.3544907"><ele>640.0</ele><time>2026-04-04T12:23:30.516Z</time></trkpt><trkpt lat="44.4585536" lon="7.3543747"><ele>640.0</ele><time>2026-04-04T12:23:33.516Z</time></trkpt><trkpt lat="44.4585569" lon="7.354248"><ele>640.0</ele><time>2026-04-04T12:23:36.514Z</time></trkpt><trkpt lat="44.4585625" lon="7.3541152"><ele>640.4285714285714</ele><time>2026-04-04T12:23:39.514Z</time></trkpt><trkpt lat="44.4585757" lon="7.3539863"><ele>640.8571428571429</ele><time>2026-04-04T12:23:42.516Z</time></trkpt><trkpt lat="44.4585827" lon="7.3538981"><ele>641.2857142857142</ele><time>2026-04-04T12:23:44.516Z</time></trkpt><trkpt lat="44.4585964" lon="7.353809"><ele>641.7142857142858</ele><time>2026-04-04T12:23:46.516Z</time></trkpt><trkpt lat="44.4586141" lon="7.3537195"><ele>642.1428571428572</ele><time>2026-04-04T12:23:48.516Z</time></trkpt><trkpt lat="44.4586333" lon="7.3536327"><ele>642.5714285714286</ele><time>2026-04-04T12:23:50.515Z</time></trkpt><trkpt lat="44.4586567" lon="7.3535444"><ele>643.0</ele><time>2026-04-04T12:23:52.516Z</time></trkpt><trkpt lat="44.4586824" lon="7.3534602"><ele>643.0</ele><time>2026-04-04T12:23:54.516Z</time></trkpt><trkpt lat="44.4587034" lon="7.3533753"><ele>643.0</ele><time>2026-04-04T12:23:56.516Z</time></trkpt><trkpt lat="44.4587249" lon="7.3532912"><ele>643.0</ele><time>2026-04-04T12:23:58.516Z</time></trkpt><trkpt lat="44.4587486" lon="7.3532082"><ele>643.0</ele><time>2026-04-04T12:24:00.514Z</time></trkpt><trkpt lat="44.4587708" lon="7.3531219"><ele>643.0</ele><time>2026-04-04T12:24:02.515Z</time></trkpt><trkpt lat="44.4587986" lon="7.353034"><ele>643.0</ele><time>2026-04-04T12:24:04.516Z</time></trkpt><trkpt lat="44.4588238" lon="7.3529364"><ele>643.0</ele><time>2026-04-04T12:24:06.516Z</time></trkpt><trkpt lat="44.4588369" lon="7.352833"><ele>643.0</ele><time>2026-04-04T12:24:08.516Z</time></trkpt><trkpt lat="44.4588481" lon="7.352723"><ele>643.0</ele><time>2026-04-04T12:24:10.516Z</time></trkpt><trkpt lat="44.4588637" lon="7.3526088"><ele>643.0</ele><time>2026-04-04T12:24:12.515Z</time></trkpt><trkpt lat="44.4588766" lon="7.352486"><ele>643.0</ele><time>2026-04-04T12:24:14.515Z</time></trkpt><trkpt lat="44.4588884" lon="7.3523775"><ele>643.0</ele><time>2026-04-04T12:24:16.514Z</time></trkpt><trkpt lat="44.4588996" lon="7.3522538"><ele>643.0</ele><time>2026-04-04T12:24:18.515Z</time></trkpt><trkpt lat="44.4589174" lon="7.3521333"><ele>642.8333333333334</ele><time>2026-04-04T12:24:20.516Z</time></trkpt><trkpt lat="44.458931" lon="7.352016"><ele>642.6666666666667</ele><time>2026-04-04T12:24:22.515Z</time></trkpt><trkpt lat="44.4589478" lon="7.3519058"><ele>642.5</ele><time>2026-04-04T12:24:24.515Z</time></trkpt><trkpt lat="44.4589574" lon="7.3518063"><ele>642.3333333333334</ele><time>2026-04-04T12:24:26.515Z</time></trkpt><trkpt lat="44.4589628" lon="7.3517149"><ele>642.1666666666666</ele><time>2026-04-04T12:24:28.515Z</time></trkpt><trkpt lat="44.458966" lon="7.3515882"><ele>642.0</ele><time>2026-04-04T12:24:31.514Z</time></trkpt><trkpt lat="44.458963" lon="7.3514778"><ele>642.0</ele><time>2026-04-04T12:24:34.514Z</time></trkpt><trkpt lat="44.4589647" lon="7.3513837"><ele>642.0</ele><time>2026-04-04T12:24:37.515Z</time></trkpt><trkpt lat="44.4589954" lon="7.3513056"><ele>642.0</ele><time>2026-04-04T12:24:40.515Z</time></trkpt><trkpt lat="44.4590685" lon="7.351302"><ele>642.0</ele><time>2026-04-04T12:24:42.514Z</time></trkpt><trkpt lat="44.4591673" lon="7.3513659"><ele>642.0</ele><time>2026-04-04T12:24:44.515Z</time></trkpt><trkpt lat="44.4592712" lon="7.3514414"><ele>642.0</ele><time>2026-04-04T12:24:46.515Z</time></trkpt><trkpt lat="44.4593304" lon="7.3514762"><ele>641.9999999999999</ele><time>2026-04-04T12:24:47.515Z</time></trkpt><trkpt lat="44.4593948" lon="7.3515084"><ele>642.0</ele><time>2026-04-04T12:24:48.515Z</time></trkpt><trkpt lat="44.4594621" lon="7.3515376"><ele>642.0</ele><time>2026-04-04T12:24:49.514Z</time></trkpt><trkpt lat="44.4595318" lon="7.3515607"><ele>642.0</ele><time>2026-04-04T12:24:50.514Z</time></trkpt><trkpt lat="44.4596013" lon="7.3515764"><ele>642.0</ele><time>2026-04-04T12:24:51.515Z</time></trkpt><trkpt lat="44.459667" lon="7.3515869"><ele>641.9999999999999</ele><time>2026-04-04T12:24:52.514Z</time></trkpt><trkpt lat="44.4597334" lon="7.3516007"><ele>642.0</ele><time>2026-04-04T12:24:53.515Z</time></trkpt><trkpt lat="44.4598" lon="7.3516168"><ele>640.8571428571428</ele><time>2026-04-04T12:24:54.514Z</time></trkpt><trkpt lat="44.4598688" lon="7.3516352"><ele>639.7142857142857</ele><time>2026-04-04T12:24:55.515Z</time></trkpt><trkpt lat="44.4599387" lon="7.3516553"><ele>638.5714285714286</ele><time>2026-04-04T12:24:56.514Z</time></trkpt><trkpt lat="44.4600109" lon="7.3516758"><ele>637.4285714285713</ele><time>2026-04-04T12:24:57.515Z</time></trkpt><trkpt lat="44.4600838" lon="7.3516998"><ele>636.2857142857142</ele><time>2026-04-04T12:24:58.514Z</time></trkpt><trkpt lat="44.4601562" lon="7.3517246"><ele>635.1428571428571</ele><time>2026-04-04T12:24:59.515Z</time></trkpt><trkpt lat="44.4602305" lon="7.3517504"><ele>634.0</ele><time>2026-04-04T12:25:00.515Z</time></trkpt><trkpt lat="44.4603014" lon="7.3517758"><ele>634.0</ele><time>2026-04-04T12:25:01.515Z</time></trkpt><trkpt lat="44.4603722" lon="7.3518014"><ele>634.0</ele><time>2026-04-04T12:25:02.515Z</time></trkpt><trkpt lat="44.4604437" lon="7.3518304"><ele>634.0</ele><time>2026-04-04T12:25:03.514Z</time></trkpt><trkpt lat="44.4605146" lon="7.3518568"><ele>634.0</ele><time>2026-04-04T12:25:04.514Z</time></trkpt><trkpt lat="44.4605868" lon="7.3518822"><ele>634.0</ele><time>2026-04-04T12:25:05.514Z</time></trkpt><trkpt lat="44.4606569" lon="7.351904"><ele>634.0</ele><time>2026-04-04T12:25:06.514Z</time></trkpt><trkpt lat="44.4607302" lon="7.3519249"><ele>634.0</ele><time>2026-04-04T12:25:07.515Z</time></trkpt><trkpt lat="44.4608045" lon="7.3519513"><ele>633.1666666666667</ele><time>2026-04-04T12:25:08.515Z</time></trkpt><trkpt lat="44.4608833" lon="7.3519814"><ele>632.3333333333334</ele><time>2026-04-04T12:25:09.515Z</time></trkpt><trkpt lat="44.4609632" lon="7.352011"><ele>631.5</ele><time>2026-04-04T12:25:10.514Z</time></trkpt><trkpt lat="44.4610437" lon="7.3520417"><ele>630.6666666666666</ele><time>2026-04-04T12:25:11.514Z</time></trkpt><trkpt lat="44.4611185" lon="7.3520648"><ele>629.8333333333333</ele><time>2026-04-04T12:25:12.515Z</time></trkpt><trkpt lat="44.4611879" lon="7.3520908"><ele>629.0</ele><time>2026-04-04T12:25:13.514Z</time></trkpt><trkpt lat="44.4612477" lon="7.3521225"><ele>628.2</ele><time>2026-04-04T12:25:14.515Z</time></trkpt><trkpt lat="44.4613375" lon="7.3522085"><ele>627.4</ele><time>2026-04-04T12:25:16.514Z</time></trkpt><trkpt lat="44.4613931" lon="7.3523071"><ele>626.6</ele><time>2026-04-04T12:25:18.514Z</time></trkpt><trkpt lat="44.461451" lon="7.3523449"><ele>625.8</ele><time>2026-04-04T12:25:20.515Z</time></trkpt><trkpt lat="44.461511" lon="7.3522714"><ele>625.0</ele><time>2026-04-04T12:25:22.514Z</time></trkpt><trkpt lat="44.4615381" lon="7.3521197"><ele>625.0000000000001</ele><time>2026-04-04T12:25:24.514Z</time></trkpt><trkpt lat="44.4615514" lon="7.3520264"><ele>625.0</ele><time>2026-04-04T12:25:25.515Z</time></trkpt><trkpt lat="44.4615671" lon="7.3519315"><ele>625.0</ele><time>2026-04-04T12:25:26.515Z</time></trkpt><trkpt lat="44.4615871" lon="7.3518341"><ele>625.0</ele><time>2026-04-04T12:25:27.515Z</time></trkpt><trkpt lat="44.4616069" lon="7.3517326"><ele>625.0</ele><time>2026-04-04T12:25:28.514Z</time></trkpt><trkpt lat="44.4616309" lon="7.3516362"><ele>625.0000000000001</ele><time>2026-04-04T12:25:29.515Z</time></trkpt><trkpt lat="44.4616505" lon="7.3515496"><ele>625.0</ele><time>2026-04-04T12:25:30.513Z</time></trkpt><trkpt lat="44.4616685" lon="7.35139"><ele>625.2</ele><time>2026-04-04T12:25:32.515Z</time></trkpt><trkpt lat="44.4616502" lon="7.351236"><ele>625.4</ele><time>2026-04-04T12:25:34.514Z</time></trkpt><trkpt lat="44.4616173" lon="7.3510866"><ele>625.6</ele><time>2026-04-04T12:25:36.513Z</time></trkpt><trkpt lat="44.4615834" lon="7.3509523"><ele>625.8</ele><time>2026-04-04T12:25:38.513Z</time></trkpt><trkpt lat="44.4615568" lon="7.3508272"><ele>626.0</ele><time>2026-04-04T12:25:40.514Z</time></trkpt><trkpt lat="44.4615493" lon="7.3507063"><ele>626.0</ele><time>2026-04-04T12:25:42.514Z</time></trkpt><trkpt lat="44.461555" lon="7.3505951"><ele>626.0</ele><time>2026-04-04T12:25:44.514Z</time></trkpt><trkpt lat="44.4615619" lon="7.3504948"><ele>626.0</ele><time>2026-04-04T12:25:46.514Z</time></trkpt><trkpt lat="44.4615668" lon="7.3503949"><ele>626.0</ele><time>2026-04-04T12:25:48.515Z</time></trkpt><trkpt lat="44.4615712" lon="7.3502942"><ele>626.0</ele><time>2026-04-04T12:25:50.514Z</time></trkpt><trkpt lat="44.4615713" lon="7.3501948"><ele>626.0</ele><time>2026-04-04T12:25:52.515Z</time></trkpt><trkpt lat="44.4615713" lon="7.3500977"><ele>626.0</ele><time>2026-04-04T12:25:54.514Z</time></trkpt><trkpt lat="44.4615738" lon="7.3500073"><ele>625.8</ele><time>2026-04-04T12:25:56.514Z</time></trkpt><trkpt lat="44.4615755" lon="7.3498873"><ele>625.6</ele><time>2026-04-04T12:25:59.514Z</time></trkpt><trkpt lat="44.4615797" lon="7.3497483"><ele>625.4</ele><time>2026-04-04T12:26:02.515Z</time></trkpt><trkpt lat="44.4615697" lon="7.349642"><ele>625.2</ele><time>2026-04-04T12:26:04.514Z</time></trkpt><trkpt lat="44.461545" lon="7.3495074"><ele>625.0</ele><time>2026-04-04T12:26:06.515Z</time></trkpt><trkpt lat="44.4615049" lon="7.3493727"><ele>624.8</ele><time>2026-04-04T12:26:08.515Z</time></trkpt><trkpt lat="44.4614547" lon="7.3492443"><ele>624.6</ele><time>2026-04-04T12:26:10.515Z</time></trkpt><trkpt lat="44.4613942" lon="7.3491244"><ele>624.4</ele><time>2026-04-04T12:26:12.515Z</time></trkpt><trkpt lat="44.4613241" lon="7.3490039"><ele>624.2</ele><time>2026-04-04T12:26:14.515Z</time></trkpt><trkpt lat="44.4612502" lon="7.3488855"><ele>624.0</ele><time>2026-04-04T12:26:16.514Z</time></trkpt><trkpt lat="44.4611781" lon="7.3487826"><ele>624.0</ele><time>2026-04-04T12:26:18.515Z</time></trkpt><trkpt lat="44.461104" lon="7.3486874"><ele>624.0</ele><time>2026-04-04T12:26:20.514Z</time></trkpt><trkpt lat="44.4610296" lon="7.3485934"><ele>624.0</ele><time>2026-04-04T12:26:22.515Z</time></trkpt><trkpt lat="44.460964" lon="7.3484918"><ele>624.0</ele><time>2026-04-04T12:26:24.515Z</time></trkpt><trkpt lat="44.4609047" lon="7.3483796"><ele>624.0</ele><time>2026-04-04T12:26:26.515Z</time></trkpt><trkpt lat="44.4608248" lon="7.3482833"><ele>624.0</ele><time>2026-04-04T12:26:28.515Z</time></trkpt><trkpt lat="44.4607616" lon="7.3482295"><ele>624.0</ele><time>2026-04-04T12:26:29.515Z</time></trkpt><trkpt lat="44.4606917" lon="7.3481753"><ele>624.0</ele><time>2026-04-04T12:26:30.515Z</time></trkpt><trkpt lat="44.4606159" lon="7.3481045"><ele>624.0</ele><time>2026-04-04T12:26:31.515Z</time></trkpt><trkpt lat="44.4605471" lon="7.3480267"><ele>624.0</ele><time>2026-04-04T12:26:32.515Z</time></trkpt><trkpt lat="44.46048" lon="7.3479494"><ele>624.0</ele><time>2026-04-04T12:26:33.513Z</time></trkpt><trkpt lat="44.4604152" lon="7.3478684"><ele>626.2857142857143</ele><time>2026-04-04T12:26:34.514Z</time></trkpt><trkpt lat="44.4603607" lon="7.3477856"><ele>628.5714285714286</ele><time>2026-04-04T12:26:35.515Z</time></trkpt><trkpt lat="44.4603127" lon="7.347698"><ele>630.8571428571429</ele><time>2026-04-04T12:26:36.515Z</time></trkpt><trkpt lat="44.4602756" lon="7.3476117"><ele>633.1428571428571</ele><time>2026-04-04T12:26:37.514Z</time></trkpt><trkpt lat="44.4602453" lon="7.3475158"><ele>635.4285714285714</ele><time>2026-04-04T12:26:38.514Z</time></trkpt><trkpt lat="44.4602188" lon="7.3474218"><ele>637.7142857142857</ele><time>2026-04-04T12:26:39.515Z</time></trkpt><trkpt lat="44.460194" lon="7.3473311"><ele>640.0</ele><time>2026-04-04T12:26:40.515Z</time></trkpt><trkpt lat="44.4601812" lon="7.3472381"><ele>640.5</ele><time>2026-04-04T12:26:41.513Z</time></trkpt><trkpt lat="44.4601576" lon="7.3470652"><ele>641.0</ele><time>2026-04-04T12:26:43.515Z</time></trkpt><trkpt lat="44.4601513" lon="7.3469752"><ele>641.5</ele><time>2026-04-04T12:26:44.514Z</time></trkpt><trkpt lat="44.4601527" lon="7.3468849"><ele>642.0</ele><time>2026-04-04T12:26:45.515Z</time></trkpt><trkpt lat="44.460155" lon="7.3467967"><ele>642.5</ele><time>2026-04-04T12:26:46.515Z</time></trkpt><trkpt lat="44.4601655" lon="7.3466462"><ele>643.0</ele><time>2026-04-04T12:26:48.515Z</time></trkpt><trkpt lat="44.4601778" lon="7.346498"><ele>644.0</ele><time>2026-04-04T12:26:50.514Z</time></trkpt><trkpt lat="44.4601877" lon="7.3463688"><ele>645.0</ele><time>2026-04-04T12:26:52.515Z</time></trkpt><trkpt lat="44.4601988" lon="7.3462249"><ele>646.0</ele><time>2026-04-04T12:26:54.514Z</time></trkpt><trkpt lat="44.4602048" lon="7.3460689"><ele>647.0</ele><time>2026-04-04T12:26:56.514Z</time></trkpt><trkpt lat="44.460208" lon="7.345905"><ele>648.0</ele><time>2026-04-04T12:26:58.515Z</time></trkpt><trkpt lat="44.4602183" lon="7.3457422"><ele>648.0</ele><time>2026-04-04T12:27:00.515Z</time></trkpt><trkpt lat="44.4602246" lon="7.3455728"><ele>648.0</ele><time>2026-04-04T12:27:02.513Z</time></trkpt><trkpt lat="44.4602315" lon="7.3454062"><ele>648.0</ele><time>2026-04-04T12:27:04.514Z</time></trkpt><trkpt lat="44.4602386" lon="7.3453174"><ele>648.0</ele><time>2026-04-04T12:27:05.513Z</time></trkpt><trkpt lat="44.4602581" lon="7.345233"><ele>648.0</ele><time>2026-04-04T12:27:06.514Z</time></trkpt><trkpt lat="44.4603024" lon="7.3450825"><ele>649.1666666666666</ele><time>2026-04-04T12:27:08.515Z</time></trkpt><trkpt lat="44.4603331" lon="7.3449304"><ele>650.3333333333334</ele><time>2026-04-04T12:27:10.514Z</time></trkpt><trkpt lat="44.4603592" lon="7.3447991"><ele>651.5</ele><time>2026-04-04T12:27:12.514Z</time></trkpt><trkpt lat="44.4603923" lon="7.3446623"><ele>652.6666666666667</ele><time>2026-04-04T12:27:14.515Z</time></trkpt><trkpt lat="44.4604028" lon="7.3445709"><ele>653.8333333333334</ele><time>2026-04-04T12:27:15.515Z</time></trkpt><trkpt lat="44.4604143" lon="7.3444829"><ele>655.0</ele><time>2026-04-04T12:27:16.514Z</time></trkpt><trkpt lat="44.4604439" lon="7.344316"><ele>646.6</ele><time>2026-04-04T12:27:18.514Z</time></trkpt><trkpt lat="44.4604567" lon="7.3441424"><ele>638.2</ele><time>2026-04-04T12:27:20.515Z</time></trkpt><trkpt lat="44.4604705" lon="7.3440561"><ele>629.8</ele><time>2026-04-04T12:27:21.515Z</time></trkpt><trkpt lat="44.4604748" lon="7.3439087"><ele>621.4</ele><time>2026-04-04T12:27:23.515Z</time></trkpt><trkpt lat="44.4604721" lon="7.343752"><ele>613.0</ele><time>2026-04-04T12:27:25.515Z</time></trkpt><trkpt lat="44.4604633" lon="7.3435832"><ele>613.8</ele><time>2026-04-04T12:27:27.513Z</time></trkpt><trkpt lat="44.4604493" lon="7.3434247"><ele>614.5999999999999</ele><time>2026-04-04T12:27:29.515Z</time></trkpt><trkpt lat="44.4604405" lon="7.3432683"><ele>615.4000000000001</ele><time>2026-04-04T12:27:31.515Z</time></trkpt><trkpt lat="44.4604438" lon="7.3431074"><ele>616.2</ele><time>2026-04-04T12:27:33.515Z</time></trkpt><trkpt lat="44.4604556" lon="7.3429633"><ele>617.0</ele><time>2026-04-04T12:27:35.514Z</time></trkpt><trkpt lat="44.4604693" lon="7.3428321"><ele>617.0</ele><time>2026-04-04T12:27:37.515Z</time></trkpt><trkpt lat="44.4604919" lon="7.3426797"><ele>617.0</ele><time>2026-04-04T12:27:39.514Z</time></trkpt><trkpt lat="44.4605196" lon="7.3425376"><ele>617.0</ele><time>2026-04-04T12:27:41.515Z</time></trkpt><trkpt lat="44.4605423" lon="7.3424074"><ele>617.0</ele><time>2026-04-04T12:27:43.514Z</time></trkpt><trkpt lat="44.4605666" lon="7.3422902"><ele>617.0</ele><time>2026-04-04T12:27:45.515Z</time></trkpt><trkpt lat="44.4605921" lon="7.3421752"><ele>619.2</ele><time>2026-04-04T12:27:47.515Z</time></trkpt><trkpt lat="44.460613" lon="7.342052"><ele>621.4000000000001</ele><time>2026-04-04T12:27:49.513Z</time></trkpt><trkpt lat="44.4606389" lon="7.341917"><ele>623.5999999999999</ele><time>2026-04-04T12:27:51.513Z</time></trkpt><trkpt lat="44.4606944" lon="7.3416891"><ele>625.8</ele><time>2026-04-04T12:27:55.513Z</time></trkpt><trkpt lat="44.4607131" lon="7.3416002"><ele>628.0</ele><time>2026-04-04T12:27:56.512Z</time></trkpt><trkpt lat="44.4607343" lon="7.341511"><ele>628.0</ele><time>2026-04-04T12:27:57.514Z</time></trkpt><trkpt lat="44.4607561" lon="7.3414247"><ele>628.0</ele><time>2026-04-04T12:27:58.514Z</time></trkpt><trkpt lat="44.4607979" lon="7.3412739"><ele>628.0</ele><time>2026-04-04T12:28:00.514Z</time></trkpt><trkpt lat="44.4608444" lon="7.3411453"><ele>628.0</ele><time>2026-04-04T12:28:02.513Z</time></trkpt><trkpt lat="44.4609031" lon="7.3410185"><ele>628.0</ele><time>2026-04-04T12:28:04.514Z</time></trkpt><trkpt lat="44.4609727" lon="7.3409141"><ele>626.8</ele><time>2026-04-04T12:28:06.514Z</time></trkpt><trkpt lat="44.4610468" lon="7.340817"><ele>625.5999999999999</ele><time>2026-04-04T12:28:08.513Z</time></trkpt><trkpt lat="44.4611291" lon="7.3407108"><ele>624.4000000000001</ele><time>2026-04-04T12:28:10.514Z</time></trkpt><trkpt lat="44.4612051" lon="7.3406086"><ele>623.2</ele><time>2026-04-04T12:28:12.514Z</time></trkpt><trkpt lat="44.4612693" lon="7.3405048"><ele>622.0</ele><time>2026-04-04T12:28:14.514Z</time></trkpt><trkpt lat="44.4613214" lon="7.3404046"><ele>622.0</ele><time>2026-04-04T12:28:16.513Z</time></trkpt><trkpt lat="44.4613653" lon="7.3403118"><ele>622.0</ele><time>2026-04-04T12:28:18.514Z</time></trkpt><trkpt lat="44.4614005" lon="7.3402218"><ele>622.0</ele><time>2026-04-04T12:28:20.513Z</time></trkpt><trkpt lat="44.4614231" lon="7.3401293"><ele>622.0</ele><time>2026-04-04T12:28:22.514Z</time></trkpt><trkpt lat="44.4614684" lon="7.3400171"><ele>622.0</ele><time>2026-04-04T12:28:25.514Z</time></trkpt><trkpt lat="44.4615316" lon="7.3399292"><ele>622.0</ele><time>2026-04-04T12:28:28.514Z</time></trkpt><trkpt lat="44.4615886" lon="7.3398587"><ele>622.0</ele><time>2026-04-04T12:28:31.514Z</time></trkpt><trkpt lat="44.461607" lon="7.3397715"><ele>622.0</ele><time>2026-04-04T12:28:34.514Z</time></trkpt><trkpt lat="44.4615796" lon="7.3396781"><ele>622.0</ele><time>2026-04-04T12:28:37.514Z</time></trkpt><trkpt lat="44.4615302" lon="7.3395977"><ele>622.0</ele><time>2026-04-04T12:28:41.514Z</time></trkpt><trkpt lat="44.4614541" lon="7.3395066"><ele>622.0</ele><time>2026-04-04T12:28:44.513Z</time></trkpt><trkpt lat="44.4613827" lon="7.3394587"><ele>622.0</ele><time>2026-04-04T12:28:46.513Z</time></trkpt><trkpt lat="44.461309" lon="7.3393841"><ele>629.4000000000001</ele><time>2026-04-04T12:28:48.513Z</time></trkpt><trkpt lat="44.4612505" lon="7.33921"><ele>636.8000000000001</ele><time>2026-04-04T12:28:50.513Z</time></trkpt><trkpt lat="44.461232" lon="7.3391137"><ele>644.2</ele><time>2026-04-04T12:28:51.512Z</time></trkpt><trkpt lat="44.4612227" lon="7.3390138"><ele>651.6</ele><time>2026-04-04T12:28:52.514Z</time></trkpt><trkpt lat="44.4612345" lon="7.3389072"><ele>659.0</ele><time>2026-04-04T12:28:53.514Z</time></trkpt><trkpt lat="44.4612628" lon="7.3387443"><ele>651.8000000000001</ele><time>2026-04-04T12:28:55.514Z</time></trkpt><trkpt lat="44.461284" lon="7.3385992"><ele>644.6</ele><time>2026-04-04T12:28:57.514Z</time></trkpt><trkpt lat="44.4613154" lon="7.3384475"><ele>637.4</ele><time>2026-04-04T12:28:59.513Z</time></trkpt><trkpt lat="44.4613747" lon="7.338296"><ele>630.2</ele><time>2026-04-04T12:29:01.512Z</time></trkpt><trkpt lat="44.4614075" lon="7.3382194"><ele>623.0</ele><time>2026-04-04T12:29:02.513Z</time></trkpt><trkpt lat="44.4614447" lon="7.3381424"><ele>623.0</ele><time>2026-04-04T12:29:03.513Z</time></trkpt><trkpt lat="44.4614934" lon="7.3380745"><ele>623.0</ele><time>2026-04-04T12:29:04.514Z</time></trkpt><trkpt lat="44.4615548" lon="7.337924"><ele>623.0</ele><time>2026-04-04T12:29:06.513Z</time></trkpt><trkpt lat="44.4616281" lon="7.3378409"><ele>623.0</ele><time>2026-04-04T12:29:07.513Z</time></trkpt><trkpt lat="44.4617005" lon="7.3377774"><ele>623.0</ele><time>2026-04-04T12:29:08.513Z</time></trkpt><trkpt lat="44.4617647" lon="7.3376912"><ele>626.3333333333333</ele><time>2026-04-04T12:29:09.514Z</time></trkpt><trkpt lat="44.461822" lon="7.337595"><ele>629.6666666666666</ele><time>2026-04-04T12:29:10.514Z</time></trkpt><trkpt lat="44.4618743" lon="7.3374999"><ele>633.0</ele><time>2026-04-04T12:29:11.513Z</time></trkpt><trkpt lat="44.4619298" lon="7.3374364"><ele>636.3333333333334</ele><time>2026-04-04T12:29:12.514Z</time></trkpt><trkpt lat="44.4620144" lon="7.3373213"><ele>639.6666666666667</ele><time>2026-04-04T12:29:14.514Z</time></trkpt><trkpt lat="44.4620592" lon="7.3372489"><ele>643.0</ele><time>2026-04-04T12:29:15.513Z</time></trkpt><trkpt lat="44.4620926" lon="7.3371732"><ele>639.4</ele><time>2026-04-04T12:29:16.514Z</time></trkpt><trkpt lat="44.462132" lon="7.3370894"><ele>635.8</ele><time>2026-04-04T12:29:17.514Z</time></trkpt><trkpt lat="44.4621648" lon="7.337007"><ele>632.2</ele><time>2026-04-04T12:29:18.514Z</time></trkpt><trkpt lat="44.4621829" lon="7.3368605"><ele>628.6</ele><time>2026-04-04T12:29:20.513Z</time></trkpt><trkpt lat="44.4622088" lon="7.336706"><ele>625.0</ele><time>2026-04-04T12:29:22.513Z</time></trkpt><trkpt lat="44.4622247" lon="7.336568"><ele>625.0</ele><time>2026-04-04T12:29:24.513Z</time></trkpt><trkpt lat="44.4622759" lon="7.3363893"><ele>625.0</ele><time>2026-04-04T12:29:26.514Z</time></trkpt><trkpt lat="44.4622981" lon="7.3362948"><ele>625.0</ele><time>2026-04-04T12:29:27.513Z</time></trkpt><trkpt lat="44.462333" lon="7.3361995"><ele>625.0</ele><time>2026-04-04T12:29:28.514Z</time></trkpt><trkpt lat="44.462375" lon="7.33605"><ele>625.0</ele><time>2026-04-04T12:29:30.513Z</time></trkpt><trkpt lat="44.4624363" lon="7.3359644"><ele>627.8</ele><time>2026-04-04T12:29:31.514Z</time></trkpt><trkpt lat="44.4625224" lon="7.3358391"><ele>630.6</ele><time>2026-04-04T12:29:33.514Z</time></trkpt><trkpt lat="44.4625784" lon="7.335707"><ele>633.4</ele><time>2026-04-04T12:29:35.513Z</time></trkpt><trkpt lat="44.4626257" lon="7.3355896"><ele>636.2</ele><time>2026-04-04T12:29:37.513Z</time></trkpt><trkpt lat="44.4626584" lon="7.3354848"><ele>639.0</ele><time>2026-04-04T12:29:39.513Z</time></trkpt><trkpt lat="44.4626974" lon="7.3353718"><ele>642.0</ele><time>2026-04-04T12:29:41.513Z</time></trkpt><trkpt lat="44.4627277" lon="7.3352752"><ele>645.0</ele><time>2026-04-04T12:29:43.514Z</time></trkpt><trkpt lat="44.4628032" lon="7.3351723"><ele>648.0</ele><time>2026-04-04T12:29:46.461Z</time></trkpt><trkpt lat="44.4628268" lon="7.3350297"><ele>651.0</ele><time>2026-04-04T12:29:48.514Z</time></trkpt><trkpt lat="44.4628608" lon="7.3349267"><ele>654.0</ele><time>2026-04-04T12:29:50.513Z</time></trkpt><trkpt lat="44.4628942" lon="7.334828"><ele>657.0</ele><time>2026-04-04T12:29:52.518Z</time></trkpt><trkpt lat="44.4629193" lon="7.3347293"><ele>659.0</ele><time>2026-04-04T12:29:54.483Z</time></trkpt><trkpt lat="44.462924" lon="7.3346271"><ele>661.0</ele><time>2026-04-04T12:29:56.514Z</time></trkpt><trkpt lat="44.4629262" lon="7.3345259"><ele>663.0</ele><time>2026-04-04T12:29:58.514Z</time></trkpt><trkpt lat="44.4629448" lon="7.3344249"><ele>665.0</ele><time>2026-04-04T12:30:00.513Z</time></trkpt><trkpt lat="44.462965" lon="7.3343168"><ele>667.0</ele><time>2026-04-04T12:30:02.514Z</time></trkpt><trkpt lat="44.4629829" lon="7.3342171"><ele>669.0</ele><time>2026-04-04T12:30:04.514Z</time></trkpt><trkpt lat="44.4629969" lon="7.3341071"><ele>661.6666666666666</ele><time>2026-04-04T12:30:06.514Z</time></trkpt><trkpt lat="44.4630059" lon="7.3340004"><ele>654.3333333333334</ele><time>2026-04-04T12:30:08.513Z</time></trkpt><trkpt lat="44.4630179" lon="7.3338926"><ele>647.0</ele><time>2026-04-04T12:30:10.514Z</time></trkpt><trkpt lat="44.4630271" lon="7.3337832"><ele>639.6666666666667</ele><time>2026-04-04T12:30:12.514Z</time></trkpt><trkpt lat="44.463043" lon="7.3336741"><ele>632.3333333333334</ele><time>2026-04-04T12:30:14.513Z</time></trkpt><trkpt lat="44.4630661" lon="7.3335664"><ele>625.0</ele><time>2026-04-04T12:30:16.513Z</time></trkpt><trkpt lat="44.4630896" lon="7.3334597"><ele>625.0</ele><time>2026-04-04T12:30:18.513Z</time></trkpt><trkpt lat="44.4631114" lon="7.3333513"><ele>625.0</ele><time>2026-04-04T12:30:20.513Z</time></trkpt><trkpt lat="44.4631444" lon="7.3332369"><ele>625.0</ele><time>2026-04-04T12:30:22.513Z</time></trkpt><trkpt lat="44.4631778" lon="7.3331074"><ele>625.0</ele><time>2026-04-04T12:30:24.512Z</time></trkpt><trkpt lat="44.4632145" lon="7.332973"><ele>625.0</ele><time>2026-04-04T12:30:26.513Z</time></trkpt><trkpt lat="44.4632489" lon="7.3328264"><ele>627.0</ele><time>2026-04-04T12:30:28.513Z</time></trkpt><trkpt lat="44.4632879" lon="7.3326718"><ele>629.0</ele><time>2026-04-04T12:30:30.514Z</time></trkpt><trkpt lat="44.4633345" lon="7.33252"><ele>631.0</ele><time>2026-04-04T12:30:32.514Z</time></trkpt><trkpt lat="44.4633878" lon="7.3323679"><ele>633.0</ele><time>2026-04-04T12:30:34.513Z</time></trkpt><trkpt lat="44.463418" lon="7.332289"><ele>635.0</ele><time>2026-04-04T12:30:35.513Z</time></trkpt><trkpt lat="44.463472" lon="7.3321462"><ele>636.0</ele><time>2026-04-04T12:30:37.514Z</time></trkpt><trkpt lat="44.4634816" lon="7.3320021"><ele>637.0</ele><time>2026-04-04T12:30:39.514Z</time></trkpt><trkpt lat="44.4634532" lon="7.3318801"><ele>638.0</ele><time>2026-04-04T12:30:41.514Z</time></trkpt><trkpt lat="44.4634555" lon="7.3317594"><ele>639.0</ele><time>2026-04-04T12:30:43.513Z</time></trkpt><trkpt lat="44.4634894" lon="7.3316454"><ele>640.0</ele><time>2026-04-04T12:30:45.513Z</time></trkpt><trkpt lat="44.4635298" lon="7.3315483"><ele>641.0</ele><time>2026-04-04T12:30:47.513Z</time></trkpt><trkpt lat="44.4635842" lon="7.3314671"><ele>641.0</ele><time>2026-04-04T12:30:49.514Z</time></trkpt><trkpt lat="44.4636496" lon="7.3314139"><ele>641.0</ele><time>2026-04-04T12:30:51.512Z</time></trkpt><trkpt lat="44.4637099" lon="7.3313604"><ele>641.0</ele><time>2026-04-04T12:30:53.513Z</time></trkpt><trkpt lat="44.4637635" lon="7.3313091"><ele>641.0</ele><time>2026-04-04T12:30:55.513Z</time></trkpt><trkpt lat="44.4638303" lon="7.3312368"><ele>641.0</ele><time>2026-04-04T12:30:58.514Z</time></trkpt><trkpt lat="44.463874" lon="7.331151"><ele>641.0</ele><time>2026-04-04T12:31:01.514Z</time></trkpt><trkpt lat="44.4639143" lon="7.3310647"><ele>641.0</ele><time>2026-04-04T12:31:04.513Z</time></trkpt><trkpt lat="44.4639471" lon="7.3309729"><ele>640.6666666666666</ele><time>2026-04-04T12:31:07.514Z</time></trkpt><trkpt lat="44.4639669" lon="7.3308721"><ele>640.3333333333333</ele><time>2026-04-04T12:31:10.513Z</time></trkpt><trkpt lat="44.4639979" lon="7.3307688"><ele>640.0</ele><time>2026-04-04T12:31:13.513Z</time></trkpt><trkpt lat="44.4640448" lon="7.3306688"><ele>639.6666666666666</ele><time>2026-04-04T12:31:16.513Z</time></trkpt><trkpt lat="44.4641001" lon="7.3305792"><ele>639.3333333333334</ele><time>2026-04-04T12:31:19.514Z</time></trkpt><trkpt lat="44.4641507" lon="7.3304723"><ele>639.0</ele><time>2026-04-04T12:31:22.513Z</time></trkpt><trkpt lat="44.4641885" lon="7.3303955"><ele>639.0000000000001</ele><time>2026-04-04T12:31:24.514Z</time></trkpt><trkpt lat="44.4642219" lon="7.3303103"><ele>639.0</ele><time>2026-04-04T12:31:26.513Z</time></trkpt><trkpt lat="44.4642455" lon="7.330217"><ele>639.0</ele><time>2026-04-04T12:31:28.513Z</time></trkpt><trkpt lat="44.4642747" lon="7.3301267"><ele>639.0</ele><time>2026-04-04T12:31:30.514Z</time></trkpt><trkpt lat="44.4642987" lon="7.3300358"><ele>639.0</ele><time>2026-04-04T12:31:32.513Z</time></trkpt><trkpt lat="44.4643182" lon="7.3299491"><ele>639.0000000000001</ele><time>2026-04-04T12:31:34.513Z</time></trkpt><trkpt lat="44.464353" lon="7.3298235"><ele>639.0</ele><time>2026-04-04T12:31:37.514Z</time></trkpt><trkpt lat="44.4643676" lon="7.3297295"><ele>639.6666666666666</ele><time>2026-04-04T12:31:39.513Z</time></trkpt><trkpt lat="44.4643718" lon="7.3296274"><ele>640.3333333333334</ele><time>2026-04-04T12:31:41.512Z</time></trkpt><trkpt lat="44.464371" lon="7.329528"><ele>641.0</ele><time>2026-04-04T12:31:43.513Z</time></trkpt><trkpt lat="44.46437" lon="7.3294289"><ele>641.6666666666667</ele><time>2026-04-04T12:31:45.513Z</time></trkpt><trkpt lat="44.4643633" lon="7.3293314"><ele>642.3333333333334</ele><time>2026-04-04T12:31:47.514Z</time></trkpt><trkpt lat="44.4643487" lon="7.3292113"><ele>643.0</ele><time>2026-04-04T12:31:50.512Z</time></trkpt><trkpt lat="44.4643444" lon="7.3290931"><ele>643.0</ele><time>2026-04-04T12:31:53.513Z</time></trkpt><trkpt lat="44.4643415" lon="7.3290023"><ele>643.0</ele><time>2026-04-04T12:31:55.513Z</time></trkpt><trkpt lat="44.4643434" lon="7.3289091"><ele>643.0</ele><time>2026-04-04T12:31:57.513Z</time></trkpt><trkpt lat="44.4643502" lon="7.3288154"><ele>643.0</ele><time>2026-04-04T12:31:59.513Z</time></trkpt><trkpt lat="44.4643628" lon="7.3287251"><ele>643.0</ele><time>2026-04-04T12:32:01.513Z</time></trkpt><trkpt lat="44.4643782" lon="7.3286372"><ele>643.0</ele><time>2026-04-04T12:32:03.513Z</time></trkpt><trkpt lat="44.4643937" lon="7.3285471"><ele>643.0</ele><time>2026-04-04T12:32:05.512Z</time></trkpt><trkpt lat="44.4644076" lon="7.3284493"><ele>643.1428571428571</ele><time>2026-04-04T12:32:07.513Z</time></trkpt><trkpt lat="44.4644214" lon="7.3283551"><ele>643.2857142857143</ele><time>2026-04-04T12:32:09.513Z</time></trkpt><trkpt lat="44.4644463" lon="7.3282679"><ele>643.4285714285714</ele><time>2026-04-04T12:32:11.513Z</time></trkpt><trkpt lat="44.4644637" lon="7.328173"><ele>643.5714285714286</ele><time>2026-04-04T12:32:13.512Z</time></trkpt><trkpt lat="44.4644769" lon="7.328074"><ele>643.7142857142858</ele><time>2026-04-04T12:32:15.513Z</time></trkpt><trkpt lat="44.4644812" lon="7.3279706"><ele>643.8571428571429</ele><time>2026-04-04T12:32:17.513Z</time></trkpt><trkpt lat="44.4644847" lon="7.327868"><ele>644.0</ele><time>2026-04-04T12:32:19.513Z</time></trkpt><trkpt lat="44.4644914" lon="7.3277695"><ele>644.1666666666666</ele><time>2026-04-04T12:32:21.513Z</time></trkpt><trkpt lat="44.4645022" lon="7.3276669"><ele>644.3333333333333</ele><time>2026-04-04T12:32:23.512Z</time></trkpt><trkpt lat="44.4645121" lon="7.3275612"><ele>644.5</ele><time>2026-04-04T12:32:25.513Z</time></trkpt><trkpt lat="44.4645251" lon="7.327453"><ele>644.6666666666666</ele><time>2026-04-04T12:32:27.512Z</time></trkpt><trkpt lat="44.4645327" lon="7.3273456"><ele>644.8333333333334</ele><time>2026-04-04T12:32:29.512Z</time></trkpt><trkpt lat="44.4645379" lon="7.327243"><ele>645.0</ele><time>2026-04-04T12:32:31.511Z</time></trkpt><trkpt lat="44.4645469" lon="7.3271403"><ele>645.5</ele><time>2026-04-04T12:32:33.512Z</time></trkpt><trkpt lat="44.4645572" lon="7.3270413"><ele>646.0</ele><time>2026-04-04T12:32:35.513Z</time></trkpt><trkpt lat="44.4645786" lon="7.3269378"><ele>646.5</ele><time>2026-04-04T12:32:37.512Z</time></trkpt><trkpt lat="44.4645889" lon="7.326828"><ele>647.0</ele><time>2026-04-04T12:32:39.513Z</time></trkpt><trkpt lat="44.4645931" lon="7.3267199"><ele>647.5</ele><time>2026-04-04T12:32:41.512Z</time></trkpt><trkpt lat="44.4645921" lon="7.3266154"><ele>648.0</ele><time>2026-04-04T12:32:43.512Z</time></trkpt><trkpt lat="44.4645756" lon="7.3264999"><ele>648.0</ele><time>2026-04-04T12:32:45.513Z</time></trkpt><trkpt lat="44.4645486" lon="7.3263847"><ele>648.0</ele><time>2026-04-04T12:32:47.513Z</time></trkpt><trkpt lat="44.4645157" lon="7.3262756"><ele>648.0</ele><time>2026-04-04T12:32:49.511Z</time></trkpt><trkpt lat="44.464465" lon="7.3261895"><ele>648.0</ele><time>2026-04-04T12:32:51.512Z</time></trkpt><trkpt lat="44.4644012" lon="7.3261436"><ele>648.0</ele><time>2026-04-04T12:32:53.512Z</time></trkpt><trkpt lat="44.4643219" lon="7.3261208"><ele>648.0</ele><time>2026-04-04T12:32:55.512Z</time></trkpt><trkpt lat="44.4642392" lon="7.3261046"><ele>648.0</ele><time>2026-04-04T12:32:57.512Z</time></trkpt><trkpt lat="44.464159" lon="7.3260762"><ele>648.0</ele><time>2026-04-04T12:32:59.511Z</time></trkpt><trkpt lat="44.4641019" lon="7.3260037"><ele>648.0</ele><time>2026-04-04T12:33:01.512Z</time></trkpt><trkpt lat="44.4640723" lon="7.3259016"><ele>648.0</ele><time>2026-04-04T12:33:03.513Z</time></trkpt><trkpt lat="44.4640558" lon="7.3257929"><ele>648.0</ele><time>2026-04-04T12:33:05.513Z</time></trkpt><trkpt lat="44.4640612" lon="7.3256745"><ele>648.0</ele><time>2026-04-04T12:33:07.512Z</time></trkpt><trkpt lat="44.4640886" lon="7.3255553"><ele>648.5</ele><time>2026-04-04T12:33:09.513Z</time></trkpt><trkpt lat="44.46413" lon="7.3254463"><ele>649.0</ele><time>2026-04-04T12:33:11.513Z</time></trkpt><trkpt lat="44.4641766" lon="7.3253522"><ele>649.5</ele><time>2026-04-04T12:33:13.512Z</time></trkpt><trkpt lat="44.4642266" lon="7.3252677"><ele>650.0</ele><time>2026-04-04T12:33:15.511Z</time></trkpt><trkpt lat="44.4642765" lon="7.3251923"><ele>650.5</ele><time>2026-04-04T12:33:17.513Z</time></trkpt><trkpt lat="44.464325" lon="7.3251144"><ele>651.0</ele><time>2026-04-04T12:33:19.512Z</time></trkpt><trkpt lat="44.4643725" lon="7.3250275"><ele>651.0</ele><time>2026-04-04T12:33:21.512Z</time></trkpt><trkpt lat="44.464416" lon="7.3249293"><ele>651.0</ele><time>2026-04-04T12:33:23.513Z</time></trkpt><trkpt lat="44.4644492" lon="7.3248189"><ele>651.0</ele><time>2026-04-04T12:33:25.513Z</time></trkpt><trkpt lat="44.4644799" lon="7.3247092"><ele>651.0</ele><time>2026-04-04T12:33:27.512Z</time></trkpt><trkpt lat="44.4645088" lon="7.3245964"><ele>651.0</ele><time>2026-04-04T12:33:29.512Z</time></trkpt><trkpt lat="44.4645385" lon="7.324483"><ele>651.0</ele><time>2026-04-04T12:33:31.513Z</time></trkpt><trkpt lat="44.4645715" lon="7.3243677"><ele>650.8</ele><time>2026-04-04T12:33:33.511Z</time></trkpt><trkpt lat="44.4646062" lon="7.3242489"><ele>650.5999999999999</ele><time>2026-04-04T12:33:35.512Z</time></trkpt><trkpt lat="44.4646427" lon="7.3241272"><ele>650.4</ele><time>2026-04-04T12:33:37.513Z</time></trkpt><trkpt lat="44.464685" lon="7.324013"><ele>650.2</ele><time>2026-04-04T12:33:39.513Z</time></trkpt><trkpt lat="44.464724" lon="7.3238895"><ele>650.0</ele><time>2026-04-04T12:33:41.512Z</time></trkpt><trkpt lat="44.4647598" lon="7.3237685"><ele>650.4</ele><time>2026-04-04T12:33:43.512Z</time></trkpt><trkpt lat="44.4647925" lon="7.3236448"><ele>650.8</ele><time>2026-04-04T12:33:45.513Z</time></trkpt><trkpt lat="44.4648243" lon="7.3235173"><ele>651.2</ele><time>2026-04-04T12:33:47.513Z</time></trkpt><trkpt lat="44.4648447" lon="7.3233835"><ele>651.6</ele><time>2026-04-04T12:33:49.512Z</time></trkpt><trkpt lat="44.4648724" lon="7.3232527"><ele>652.0</ele><time>2026-04-04T12:33:51.513Z</time></trkpt><trkpt lat="44.4649056" lon="7.3231204"><ele>652.4000000000001</ele><time>2026-04-04T12:33:53.513Z</time></trkpt><trkpt lat="44.4649369" lon="7.322983"><ele>652.8000000000001</ele><time>2026-04-04T12:33:55.513Z</time></trkpt><trkpt lat="44.4649683" lon="7.3228422"><ele>653.2</ele><time>2026-04-04T12:33:57.512Z</time></trkpt><trkpt lat="44.4650044" lon="7.3227115"><ele>653.6</ele><time>2026-04-04T12:33:59.512Z</time></trkpt><trkpt lat="44.4650437" lon="7.3225825"><ele>654.0</ele><time>2026-04-04T12:34:01.513Z</time></trkpt><trkpt lat="44.4650846" lon="7.3224535"><ele>654.0</ele><time>2026-04-04T12:34:03.512Z</time></trkpt><trkpt lat="44.4651143" lon="7.3223215"><ele>654.0</ele><time>2026-04-04T12:34:05.513Z</time></trkpt><trkpt lat="44.4651334" lon="7.3221888"><ele>654.0</ele><time>2026-04-04T12:34:07.512Z</time></trkpt><trkpt lat="44.465149" lon="7.3220553"><ele>654.0</ele><time>2026-04-04T12:34:09.512Z</time></trkpt><trkpt lat="44.4651629" lon="7.3219232"><ele>654.0</ele><time>2026-04-04T12:34:11.513Z</time></trkpt><trkpt lat="44.4651654" lon="7.3217937"><ele>654.8000000000001</ele><time>2026-04-04T12:34:13.512Z</time></trkpt><trkpt lat="44.4651734" lon="7.3216704"><ele>655.6</ele><time>2026-04-04T12:34:15.513Z</time></trkpt><trkpt lat="44.4651825" lon="7.3215513"><ele>656.4</ele><time>2026-04-04T12:34:17.513Z</time></trkpt><trkpt lat="44.4651859" lon="7.3214367"><ele>657.2</ele><time>2026-04-04T12:34:19.513Z</time></trkpt><trkpt lat="44.4651945" lon="7.3212862"><ele>658.0</ele><time>2026-04-04T12:34:22.513Z</time></trkpt><trkpt lat="44.4652052" lon="7.3211532"><ele>658.0</ele><time>2026-04-04T12:34:24.513Z</time></trkpt><trkpt lat="44.4652099" lon="7.3210358"><ele>658.0</ele><time>2026-04-04T12:34:26.513Z</time></trkpt><trkpt lat="44.4652143" lon="7.3209201"><ele>658.0</ele><time>2026-04-04T12:34:28.513Z</time></trkpt><trkpt lat="44.46522" lon="7.3208109"><ele>658.0</ele><time>2026-04-04T12:34:30.513Z</time></trkpt><trkpt lat="44.4652258" lon="7.3207066"><ele>658.0</ele><time>2026-04-04T12:34:32.46Z</time></trkpt><trkpt lat="44.4652213" lon="7.3205919"><ele>658.0</ele><time>2026-04-04T12:34:34.513Z</time></trkpt><trkpt lat="44.4652241" lon="7.3204763"><ele>657.5</ele><time>2026-04-04T12:34:36.506Z</time></trkpt><trkpt lat="44.4652207" lon="7.3203655"><ele>657.0</ele><time>2026-04-04T12:34:38.512Z</time></trkpt><trkpt lat="44.465214" lon="7.3202633"><ele>656.5</ele><time>2026-04-04T12:34:40.419Z</time></trkpt><trkpt lat="44.4652049" lon="7.3201513"><ele>656.0</ele><time>2026-04-04T12:34:42.513Z</time></trkpt><trkpt lat="44.4651969" lon="7.3200444"><ele>655.5</ele><time>2026-04-04T12:34:44.512Z</time></trkpt><trkpt lat="44.4651898" lon="7.3199246"><ele>655.0</ele><time>2026-04-04T12:34:46.513Z</time></trkpt><trkpt lat="44.4651814" lon="7.3197992"><ele>655.6</ele><time>2026-04-04T12:34:48.512Z</time></trkpt><trkpt lat="44.4651718" lon="7.3196765"><ele>656.2</ele><time>2026-04-04T12:34:50.513Z</time></trkpt><trkpt lat="44.4651608" lon="7.3195464"><ele>656.8</ele><time>2026-04-04T12:34:52.512Z</time></trkpt><trkpt lat="44.465144" lon="7.319409"><ele>657.4</ele><time>2026-04-04T12:34:54.513Z</time></trkpt><trkpt lat="44.4651307" lon="7.3192814"><ele>658.0</ele><time>2026-04-04T12:34:56.513Z</time></trkpt><trkpt lat="44.4651098" lon="7.319151"><ele>658.0</ele><time>2026-04-04T12:34:58.512Z</time></trkpt><trkpt lat="44.4650973" lon="7.3190264"><ele>658.0</ele><time>2026-04-04T12:35:00.513Z</time></trkpt><trkpt lat="44.4650762" lon="7.3189114"><ele>658.0</ele><time>2026-04-04T12:35:02.512Z</time></trkpt><trkpt lat="44.4650596" lon="7.3188007"><ele>658.0</ele><time>2026-04-04T12:35:04.512Z</time></trkpt><trkpt lat="44.4650455" lon="7.318694"><ele>658.0</ele><time>2026-04-04T12:35:06.513Z</time></trkpt><trkpt lat="44.4650482" lon="7.3185918"><ele>658.0</ele><time>2026-04-04T12:35:08.513Z</time></trkpt><trkpt lat="44.4650725" lon="7.3184893"><ele>658.1666666666667</ele><time>2026-04-04T12:35:10.512Z</time></trkpt><trkpt lat="44.4651068" lon="7.3183865"><ele>658.3333333333334</ele><time>2026-04-04T12:35:12.512Z</time></trkpt><trkpt lat="44.4651543" lon="7.3182971"><ele>658.5</ele><time>2026-04-04T12:35:14.513Z</time></trkpt><trkpt lat="44.4651994" lon="7.3182076"><ele>658.6666666666666</ele><time>2026-04-04T12:35:16.513Z</time></trkpt><trkpt lat="44.4652401" lon="7.3181171"><ele>658.8333333333333</ele><time>2026-04-04T12:35:18.512Z</time></trkpt><trkpt lat="44.4652767" lon="7.3180217"><ele>659.0</ele><time>2026-04-04T12:35:20.512Z</time></trkpt><trkpt lat="44.4653067" lon="7.317922"><ele>659.5</ele><time>2026-04-04T12:35:22.512Z</time></trkpt><trkpt lat="44.4653376" lon="7.3178172"><ele>660.0</ele><time>2026-04-04T12:35:24.512Z</time></trkpt><trkpt lat="44.465368" lon="7.3177106"><ele>660.5</ele><time>2026-04-04T12:35:26.513Z</time></trkpt><trkpt lat="44.4654007" lon="7.3176077"><ele>661.0</ele><time>2026-04-04T12:35:28.512Z</time></trkpt><trkpt lat="44.4654396" lon="7.3175089"><ele>661.5</ele><time>2026-04-04T12:35:30.511Z</time></trkpt><trkpt lat="44.4654906" lon="7.3174155"><ele>662.0</ele><time>2026-04-04T12:35:32.511Z</time></trkpt><trkpt lat="44.4655464" lon="7.3173327"><ele>662.2857142857143</ele><time>2026-04-04T12:35:34.511Z</time></trkpt><trkpt lat="44.4655978" lon="7.3172531"><ele>662.5714285714286</ele><time>2026-04-04T12:35:36.512Z</time></trkpt><trkpt lat="44.4656463" lon="7.3171754"><ele>662.8571428571429</ele><time>2026-04-04T12:35:38.512Z</time></trkpt><trkpt lat="44.4656862" lon="7.3170951"><ele>663.1428571428571</ele><time>2026-04-04T12:35:40.512Z</time></trkpt><trkpt lat="44.465726" lon="7.3170165"><ele>663.4285714285714</ele><time>2026-04-04T12:35:42.512Z</time></trkpt><trkpt lat="44.4657533" lon="7.3169277"><ele>663.7142857142857</ele><time>2026-04-04T12:35:44.512Z</time></trkpt><trkpt lat="44.465778" lon="7.3168432"><ele>664.0</ele><time>2026-04-04T12:35:46.511Z</time></trkpt><trkpt lat="44.465807" lon="7.3167348"><ele>664.0</ele><time>2026-04-04T12:35:49.512Z</time></trkpt><trkpt lat="44.4658407" lon="7.3166256"><ele>664.0</ele><time>2026-04-04T12:35:52.512Z</time></trkpt><trkpt lat="44.4658729" lon="7.3165188"><ele>664.0</ele><time>2026-04-04T12:35:55.511Z</time></trkpt><trkpt lat="44.4659065" lon="7.3164153"><ele>664.0</ele><time>2026-04-04T12:35:58.512Z</time></trkpt><trkpt lat="44.4659362" lon="7.316337"><ele>664.0</ele><time>2026-04-04T12:36:00.511Z</time></trkpt><trkpt lat="44.4659714" lon="7.3162525"><ele>664.0</ele><time>2026-04-04T12:36:02.512Z</time></trkpt><trkpt lat="44.4659964" lon="7.3161566"><ele>664.0</ele><time>2026-04-04T12:36:04.512Z</time></trkpt><trkpt lat="44.4660117" lon="7.3160599"><ele>664.0</ele><time>2026-04-04T12:36:06.51Z</time></trkpt><trkpt lat="44.4660185" lon="7.3159556"><ele>664.0</ele><time>2026-04-04T12:36:08.512Z</time></trkpt><trkpt lat="44.4660228" lon="7.3158482"><ele>664.0</ele><time>2026-04-04T12:36:10.512Z</time></trkpt><trkpt lat="44.4660269" lon="7.3157367"><ele>664.0</ele><time>2026-04-04T12:36:12.512Z</time></trkpt><trkpt lat="44.4660363" lon="7.315624"><ele>664.0</ele><time>2026-04-04T12:36:14.512Z</time></trkpt><trkpt lat="44.4660397" lon="7.31551"><ele>664.3333333333334</ele><time>2026-04-04T12:36:16.512Z</time></trkpt><trkpt lat="44.4660411" lon="7.3153955"><ele>664.6666666666667</ele><time>2026-04-04T12:36:18.512Z</time></trkpt><trkpt lat="44.4660463" lon="7.3152779"><ele>665.0</ele><time>2026-04-04T12:36:20.512Z</time></trkpt><trkpt lat="44.4660479" lon="7.315159"><ele>665.3333333333334</ele><time>2026-04-04T12:36:22.511Z</time></trkpt><trkpt lat="44.4660485" lon="7.3150408"><ele>665.6666666666666</ele><time>2026-04-04T12:36:24.511Z</time></trkpt><trkpt lat="44.4660482" lon="7.3149207"><ele>666.0</ele><time>2026-04-04T12:36:26.51Z</time></trkpt><trkpt lat="44.4660473" lon="7.3147996"><ele>666.5</ele><time>2026-04-04T12:36:28.511Z</time></trkpt><trkpt lat="44.4660457" lon="7.3146859"><ele>667.0</ele><time>2026-04-04T12:36:30.511Z</time></trkpt><trkpt lat="44.4660441" lon="7.3145801"><ele>667.5</ele><time>2026-04-04T12:36:32.511Z</time></trkpt><trkpt lat="44.4660432" lon="7.3144745"><ele>668.0</ele><time>2026-04-04T12:36:34.512Z</time></trkpt><trkpt lat="44.4660426" lon="7.3143686"><ele>668.5</ele><time>2026-04-04T12:36:36.512Z</time></trkpt><trkpt lat="44.4660408" lon="7.3142617"><ele>669.0</ele><time>2026-04-04T12:36:38.51Z</time></trkpt><trkpt lat="44.466041" lon="7.31416"><ele>669.0</ele><time>2026-04-04T12:36:40.511Z</time></trkpt><trkpt lat="44.4660461" lon="7.3140587"><ele>669.0</ele><time>2026-04-04T12:36:42.511Z</time></trkpt><trkpt lat="44.4660549" lon="7.3139551"><ele>669.0</ele><time>2026-04-04T12:36:44.511Z</time></trkpt><trkpt lat="44.4660666" lon="7.3138526"><ele>669.0</ele><time>2026-04-04T12:36:46.511Z</time></trkpt><trkpt lat="44.4660794" lon="7.3137519"><ele>669.0</ele><time>2026-04-04T12:36:48.512Z</time></trkpt><trkpt lat="44.4660949" lon="7.3136574"><ele>669.0</ele><time>2026-04-04T12:36:50.512Z</time></trkpt><trkpt lat="44.4661047" lon="7.3135588"><ele>669.0</ele><time>2026-04-04T12:36:52.512Z</time></trkpt><trkpt lat="44.4661085" lon="7.3134523"><ele>669.0</ele><time>2026-04-04T12:36:54.512Z</time></trkpt><trkpt lat="44.4661146" lon="7.3133421"><ele>669.0</ele><time>2026-04-04T12:36:56.511Z</time></trkpt><trkpt lat="44.4661039" lon="7.3132372"><ele>669.0</ele><time>2026-04-04T12:36:58.51Z</time></trkpt><trkpt lat="44.4660964" lon="7.3131314"><ele>669.0</ele><time>2026-04-04T12:37:00.512Z</time></trkpt><trkpt lat="44.4660938" lon="7.3130311"><ele>669.0</ele><time>2026-04-04T12:37:02.512Z</time></trkpt><trkpt lat="44.4660877" lon="7.3129271"><ele>669.0</ele><time>2026-04-04T12:37:04.512Z</time></trkpt><trkpt lat="44.4660788" lon="7.3128187"><ele>669.0</ele><time>2026-04-04T12:37:06.511Z</time></trkpt><trkpt lat="44.4660703" lon="7.3127083"><ele>669.0</ele><time>2026-04-04T12:37:08.511Z</time></trkpt><trkpt lat="44.4660638" lon="7.3125998"><ele>669.0</ele><time>2026-04-04T12:37:10.511Z</time></trkpt><trkpt lat="44.4660605" lon="7.3124921"><ele>669.0</ele><time>2026-04-04T12:37:12.512Z</time></trkpt><trkpt lat="44.4660508" lon="7.3123804"><ele>669.0</ele><time>2026-04-04T12:37:14.512Z</time></trkpt><trkpt lat="44.4660496" lon="7.3122668"><ele>669.0</ele><time>2026-04-04T12:37:16.512Z</time></trkpt><trkpt lat="44.4660505" lon="7.3121534"><ele>669.5</ele><time>2026-04-04T12:37:18.512Z</time></trkpt><trkpt lat="44.4660598" lon="7.3120376"><ele>670.0</ele><time>2026-04-04T12:37:20.51Z</time></trkpt><trkpt lat="44.4660566" lon="7.3119226"><ele>670.5</ele><time>2026-04-04T12:37:22.511Z</time></trkpt><trkpt lat="44.4660503" lon="7.3118079"><ele>671.0</ele><time>2026-04-04T12:37:24.512Z</time></trkpt><trkpt lat="44.4660464" lon="7.3116949"><ele>671.5</ele><time>2026-04-04T12:37:26.511Z</time></trkpt><trkpt lat="44.4660456" lon="7.3115823"><ele>672.0</ele><time>2026-04-04T12:37:28.511Z</time></trkpt><trkpt lat="44.4660475" lon="7.3114705"><ele>672.0</ele><time>2026-04-04T12:37:30.511Z</time></trkpt><trkpt lat="44.4660558" lon="7.3113552"><ele>672.0</ele><time>2026-04-04T12:37:32.512Z</time></trkpt><trkpt lat="44.4660608" lon="7.3112369"><ele>672.0</ele><time>2026-04-04T12:37:34.512Z</time></trkpt><trkpt lat="44.4660725" lon="7.311123"><ele>672.0</ele><time>2026-04-04T12:37:36.512Z</time></trkpt><trkpt lat="44.4660891" lon="7.3110111"><ele>672.0</ele><time>2026-04-04T12:37:38.511Z</time></trkpt><trkpt lat="44.4661126" lon="7.3109019"><ele>672.0</ele><time>2026-04-04T12:37:40.512Z</time></trkpt><trkpt lat="44.4661372" lon="7.3107912"><ele>672.0</ele><time>2026-04-04T12:37:42.512Z</time></trkpt><trkpt lat="44.4661641" lon="7.3106789"><ele>672.0</ele><time>2026-04-04T12:37:44.511Z</time></trkpt><trkpt lat="44.4661904" lon="7.3105685"><ele>672.0</ele><time>2026-04-04T12:37:46.511Z</time></trkpt><trkpt lat="44.4662165" lon="7.3104611"><ele>672.0</ele><time>2026-04-04T12:37:48.512Z</time></trkpt><trkpt lat="44.4662394" lon="7.3103488"><ele>672.0</ele><time>2026-04-04T12:37:50.511Z</time></trkpt><trkpt lat="44.466264" lon="7.3102411"><ele>672.0</ele><time>2026-04-04T12:37:52.511Z</time></trkpt><trkpt lat="44.4662898" lon="7.3101338"><ele>672.1428571428571</ele><time>2026-04-04T12:37:54.511Z</time></trkpt><trkpt lat="44.4663069" lon="7.3100231"><ele>672.2857142857142</ele><time>2026-04-04T12:37:56.512Z</time></trkpt><trkpt lat="44.4663157" lon="7.3099119"><ele>672.4285714285714</ele><time>2026-04-04T12:37:58.511Z</time></trkpt><trkpt lat="44.4663262" lon="7.3098094"><ele>672.5714285714286</ele><time>2026-04-04T12:38:00.512Z</time></trkpt><trkpt lat="44.4663392" lon="7.3097203"><ele>672.7142857142857</ele><time>2026-04-04T12:38:02.512Z</time></trkpt><trkpt lat="44.4663532" lon="7.3096238"><ele>672.8571428571429</ele><time>2026-04-04T12:38:04.511Z</time></trkpt><trkpt lat="44.466366" lon="7.3095139"><ele>673.0</ele><time>2026-04-04T12:38:06.512Z</time></trkpt><trkpt lat="44.4663832" lon="7.3093948"><ele>673.4</ele><time>2026-04-04T12:38:08.512Z</time></trkpt><trkpt lat="44.4664065" lon="7.309274"><ele>673.8</ele><time>2026-04-04T12:38:10.512Z</time></trkpt><trkpt lat="44.4664227" lon="7.3091492"><ele>674.2</ele><time>2026-04-04T12:38:12.511Z</time></trkpt><trkpt lat="44.4664408" lon="7.3090215"><ele>674.6</ele><time>2026-04-04T12:38:14.512Z</time></trkpt><trkpt lat="44.4664591" lon="7.3088867"><ele>675.0</ele><time>2026-04-04T12:38:16.51Z</time></trkpt><trkpt lat="44.4664761" lon="7.308744"><ele>675.0</ele><time>2026-04-04T12:38:18.512Z</time></trkpt><trkpt lat="44.4664944" lon="7.3085942"><ele>675.0</ele><time>2026-04-04T12:38:20.511Z</time></trkpt><trkpt lat="44.4665196" lon="7.308452"><ele>675.0</ele><time>2026-04-04T12:38:22.512Z</time></trkpt><trkpt lat="44.4665466" lon="7.3083044"><ele>675.0</ele><time>2026-04-04T12:38:24.51Z</time></trkpt><trkpt lat="44.4665731" lon="7.3081747"><ele>675.0</ele><time>2026-04-04T12:38:26.511Z</time></trkpt><trkpt lat="44.466597" lon="7.3080527"><ele>675.5</ele><time>2026-04-04T12:38:28.512Z</time></trkpt><trkpt lat="44.4666166" lon="7.3079404"><ele>676.0</ele><time>2026-04-04T12:38:30.511Z</time></trkpt><trkpt lat="44.4666446" lon="7.3078286"><ele>676.5</ele><time>2026-04-04T12:38:32.512Z</time></trkpt><trkpt lat="44.4666644" lon="7.3077111"><ele>677.0</ele><time>2026-04-04T12:38:34.511Z</time></trkpt><trkpt lat="44.466674" lon="7.3075815"><ele>677.5</ele><time>2026-04-04T12:38:36.511Z</time></trkpt><trkpt lat="44.4666762" lon="7.3074482"><ele>678.0</ele><time>2026-04-04T12:38:38.512Z</time></trkpt><trkpt lat="44.4666699" lon="7.3073008"><ele>678.5999999999999</ele><time>2026-04-04T12:38:40.512Z</time></trkpt><trkpt lat="44.4666708" lon="7.3071706"><ele>679.1999999999999</ele><time>2026-04-04T12:38:42.512Z</time></trkpt><trkpt lat="44.4666622" lon="7.3070397"><ele>679.8</ele><time>2026-04-04T12:38:44.512Z</time></trkpt><trkpt lat="44.466654" lon="7.3069112"><ele>680.4</ele><time>2026-04-04T12:38:46.512Z</time></trkpt><trkpt lat="44.4666476" lon="7.3067877"><ele>681.0</ele><time>2026-04-04T12:38:48.512Z</time></trkpt><trkpt lat="44.4666554" lon="7.3066661"><ele>681.0</ele><time>2026-04-04T12:38:50.512Z</time></trkpt><trkpt lat="44.4666668" lon="7.3065486"><ele>681.0</ele><time>2026-04-04T12:38:52.512Z</time></trkpt><trkpt lat="44.4666789" lon="7.3064219"><ele>681.0</ele><time>2026-04-04T12:38:54.511Z</time></trkpt><trkpt lat="44.4666914" lon="7.3063035"><ele>681.0</ele><time>2026-04-04T12:38:56.511Z</time></trkpt><trkpt lat="44.4667107" lon="7.3061861"><ele>681.0</ele><time>2026-04-04T12:38:58.511Z</time></trkpt><trkpt lat="44.4667269" lon="7.3060651"><ele>681.0</ele><time>2026-04-04T12:39:00.511Z</time></trkpt><trkpt lat="44.4667423" lon="7.3059447"><ele>681.1666666666666</ele><time>2026-04-04T12:39:02.51Z</time></trkpt><trkpt lat="44.4667616" lon="7.3058264"><ele>681.3333333333334</ele><time>2026-04-04T12:39:04.51Z</time></trkpt><trkpt lat="44.4667838" lon="7.3057117"><ele>681.5</ele><time>2026-04-04T12:39:06.51Z</time></trkpt><trkpt lat="44.4668042" lon="7.305598"><ele>681.6666666666667</ele><time>2026-04-04T12:39:08.511Z</time></trkpt><trkpt lat="44.4668225" lon="7.3054859"><ele>681.8333333333334</ele><time>2026-04-04T12:39:10.51Z</time></trkpt><trkpt lat="44.4668349" lon="7.3053662"><ele>682.0</ele><time>2026-04-04T12:39:12.511Z</time></trkpt><trkpt lat="44.4668507" lon="7.3052404"><ele>682.3333333333334</ele><time>2026-04-04T12:39:14.51Z</time></trkpt><trkpt lat="44.4668625" lon="7.3051198"><ele>682.6666666666667</ele><time>2026-04-04T12:39:16.511Z</time></trkpt><trkpt lat="44.4668728" lon="7.3049937"><ele>683.0</ele><time>2026-04-04T12:39:18.511Z</time></trkpt><trkpt lat="44.4668733" lon="7.3048683"><ele>683.3333333333334</ele><time>2026-04-04T12:39:20.51Z</time></trkpt><trkpt lat="44.4668715" lon="7.3047436"><ele>683.6666666666666</ele><time>2026-04-04T12:39:22.511Z</time></trkpt><trkpt lat="44.466862" lon="7.3046176"><ele>684.0</ele><time>2026-04-04T12:39:24.511Z</time></trkpt><trkpt lat="44.4668597" lon="7.3044888"><ele>684.5</ele><time>2026-04-04T12:39:26.511Z</time></trkpt><trkpt lat="44.4668698" lon="7.3043662"><ele>685.0</ele><time>2026-04-04T12:39:28.511Z</time></trkpt><trkpt lat="44.4668835" lon="7.3042473"><ele>685.5</ele><time>2026-04-04T12:39:30.511Z</time></trkpt><trkpt lat="44.4669096" lon="7.3041289"><ele>686.0</ele><time>2026-04-04T12:39:32.511Z</time></trkpt><trkpt lat="44.4669417" lon="7.3040128"><ele>686.5</ele><time>2026-04-04T12:39:34.511Z</time></trkpt><trkpt lat="44.4669736" lon="7.3038979"><ele>687.0</ele><time>2026-04-04T12:39:36.511Z</time></trkpt><trkpt lat="44.4670101" lon="7.3037845"><ele>687.1666666666666</ele><time>2026-04-04T12:39:38.51Z</time></trkpt><trkpt lat="44.4670547" lon="7.3036767"><ele>687.3333333333334</ele><time>2026-04-04T12:39:40.511Z</time></trkpt><trkpt lat="44.4670995" lon="7.3035679"><ele>687.5</ele><time>2026-04-04T12:39:42.51Z</time></trkpt><trkpt lat="44.4671429" lon="7.3034616"><ele>687.6666666666667</ele><time>2026-04-04T12:39:44.51Z</time></trkpt><trkpt lat="44.4671848" lon="7.3033557"><ele>687.8333333333334</ele><time>2026-04-04T12:39:46.511Z</time></trkpt><trkpt lat="44.4672371" lon="7.3032541"><ele>688.0</ele><time>2026-04-04T12:39:48.511Z</time></trkpt><trkpt lat="44.4672898" lon="7.3031472"><ele>688.0</ele><time>2026-04-04T12:39:50.511Z</time></trkpt><trkpt lat="44.4673411" lon="7.3030385"><ele>688.0</ele><time>2026-04-04T12:39:52.51Z</time></trkpt><trkpt lat="44.4673955" lon="7.3029301"><ele>688.0</ele><time>2026-04-04T12:39:54.51Z</time></trkpt><trkpt lat="44.4674521" lon="7.3028189"><ele>688.0</ele><time>2026-04-04T12:39:56.511Z</time></trkpt><trkpt lat="44.4675046" lon="7.3027103"><ele>688.0</ele><time>2026-04-04T12:39:58.511Z</time></trkpt><trkpt lat="44.4675644" lon="7.3026082"><ele>688.0</ele><time>2026-04-04T12:40:00.51Z</time></trkpt><trkpt lat="44.4676206" lon="7.3025045"><ele>688.0</ele><time>2026-04-04T12:40:02.511Z</time></trkpt><trkpt lat="44.4676742" lon="7.3024035"><ele>688.0</ele><time>2026-04-04T12:40:04.51Z</time></trkpt><trkpt lat="44.4677295" lon="7.3022992"><ele>688.0</ele><time>2026-04-04T12:40:06.511Z</time></trkpt><trkpt lat="44.4677887" lon="7.3021914"><ele>688.0</ele><time>2026-04-04T12:40:08.511Z</time></trkpt><trkpt lat="44.467848" lon="7.3020885"><ele>687.8</ele><time>2026-04-04T12:40:10.511Z</time></trkpt><trkpt lat="44.4679006" lon="7.3019812"><ele>687.5999999999999</ele><time>2026-04-04T12:40:12.511Z</time></trkpt><trkpt lat="44.4679495" lon="7.3018687"><ele>687.4000000000001</ele><time>2026-04-04T12:40:14.511Z</time></trkpt><trkpt lat="44.4679923" lon="7.3017546"><ele>687.2</ele><time>2026-04-04T12:40:16.511Z</time></trkpt><trkpt lat="44.4680282" lon="7.3016298"><ele>687.0</ele><time>2026-04-04T12:40:18.511Z</time></trkpt><trkpt lat="44.4680578" lon="7.3015036"><ele>687.0</ele><time>2026-04-04T12:40:20.511Z</time></trkpt><trkpt lat="44.4680896" lon="7.3013726"><ele>687.0</ele><time>2026-04-04T12:40:22.51Z</time></trkpt><trkpt lat="44.4681143" lon="7.3012444"><ele>687.0</ele><time>2026-04-04T12:40:24.51Z</time></trkpt><trkpt lat="44.4681403" lon="7.3011165"><ele>687.0</ele><time>2026-04-04T12:40:26.511Z</time></trkpt><trkpt lat="44.4681675" lon="7.3009807"><ele>687.0</ele><time>2026-04-04T12:40:28.51Z</time></trkpt><trkpt lat="44.4681946" lon="7.300847"><ele>687.0</ele><time>2026-04-04T12:40:30.511Z</time></trkpt><trkpt lat="44.4682203" lon="7.300722"><ele>687.0</ele><time>2026-04-04T12:40:32.511Z</time></trkpt><trkpt lat="44.4682482" lon="7.3005988"><ele>687.0</ele><time>2026-04-04T12:40:34.511Z</time></trkpt><trkpt lat="44.4682728" lon="7.3004755"><ele>687.0</ele><time>2026-04-04T12:40:36.511Z</time></trkpt><trkpt lat="44.4683031" lon="7.3003602"><ele>687.0</ele><time>2026-04-04T12:40:38.511Z</time></trkpt><trkpt lat="44.4683301" lon="7.3002431"><ele>688.0</ele><time>2026-04-04T12:40:40.511Z</time></trkpt><trkpt lat="44.4683621" lon="7.3001242"><ele>689.0</ele><time>2026-04-04T12:40:42.509Z</time></trkpt><trkpt lat="44.4683839" lon="7.299998"><ele>690.0</ele><time>2026-04-04T12:40:44.51Z</time></trkpt><trkpt lat="44.4684063" lon="7.2998738"><ele>691.0</ele><time>2026-04-04T12:40:46.51Z</time></trkpt><trkpt lat="44.4684377" lon="7.2997483"><ele>692.0</ele><time>2026-04-04T12:40:48.511Z</time></trkpt><trkpt lat="44.4684808" lon="7.2996419"><ele>692.3333333333333</ele><time>2026-04-04T12:40:50.511Z</time></trkpt><trkpt lat="44.4685349" lon="7.2995454"><ele>692.6666666666666</ele><time>2026-04-04T12:40:52.511Z</time></trkpt><trkpt lat="44.4685893" lon="7.2994544"><ele>693.0</ele><time>2026-04-04T12:40:54.511Z</time></trkpt><trkpt lat="44.4686479" lon="7.2993767"><ele>693.3333333333334</ele><time>2026-04-04T12:40:56.51Z</time></trkpt><trkpt lat="44.4687063" lon="7.2992987"><ele>693.6666666666667</ele><time>2026-04-04T12:40:58.51Z</time></trkpt><trkpt lat="44.4687662" lon="7.2992152"><ele>694.0</ele><time>2026-04-04T12:41:00.51Z</time></trkpt><trkpt lat="44.4688275" lon="7.2991419"><ele>694.0</ele><time>2026-04-04T12:41:02.511Z</time></trkpt><trkpt lat="44.468883" lon="7.299062"><ele>694.0</ele><time>2026-04-04T12:41:04.51Z</time></trkpt><trkpt lat="44.4689372" lon="7.298976"><ele>694.0</ele><time>2026-04-04T12:41:06.511Z</time></trkpt><trkpt lat="44.4690004" lon="7.298903"><ele>694.0</ele><time>2026-04-04T12:41:08.51Z</time></trkpt><trkpt lat="44.4690628" lon="7.2988436"><ele>694.0</ele><time>2026-04-04T12:41:10.511Z</time></trkpt><trkpt lat="44.4691342" lon="7.2987609"><ele>694.0</ele><time>2026-04-04T12:41:13.51Z</time></trkpt><trkpt lat="44.4691725" lon="7.2986868"><ele>695.5714285714286</ele><time>2026-04-04T12:41:15.51Z</time></trkpt><trkpt lat="44.469199" lon="7.2985999"><ele>697.1428571428571</ele><time>2026-04-04T12:41:17.511Z</time></trkpt><trkpt lat="44.4692193" lon="7.298515"><ele>698.7142857142857</ele><time>2026-04-04T12:41:19.511Z</time></trkpt><trkpt lat="44.4692386" lon="7.2984299"><ele>700.2857142857142</ele><time>2026-04-04T12:41:21.511Z</time></trkpt><trkpt lat="44.4692513" lon="7.2983425"><ele>701.8571428571429</ele><time>2026-04-04T12:41:23.511Z</time></trkpt><trkpt lat="44.4692656" lon="7.2982139"><ele>703.4285714285713</ele><time>2026-04-04T12:41:26.51Z</time></trkpt><trkpt lat="44.4692692" lon="7.2981245"><ele>705.0</ele><time>2026-04-04T12:41:28.51Z</time></trkpt><trkpt lat="44.4692775" lon="7.2980112"><ele>707.1666666666666</ele><time>2026-04-04T12:41:31.511Z</time></trkpt><trkpt lat="44.4692829" lon="7.297885"><ele>709.3333333333334</ele><time>2026-04-04T12:41:34.511Z</time></trkpt><trkpt lat="44.469289" lon="7.2977808"><ele>711.5</ele><time>2026-04-04T12:41:37.511Z</time></trkpt><trkpt lat="44.4692867" lon="7.2976779"><ele>713.6666666666667</ele><time>2026-04-04T12:41:40.51Z</time></trkpt><trkpt lat="44.4692852" lon="7.2975809"><ele>715.8333333333334</ele><time>2026-04-04T12:41:44.509Z</time></trkpt><trkpt lat="44.4692971" lon="7.2974816"><ele>718.0</ele><time>2026-04-04T12:41:47.51Z</time></trkpt><trkpt lat="44.4693204" lon="7.2973766"><ele>718.0</ele><time>2026-04-04T12:41:50.51Z</time></trkpt><trkpt lat="44.4693339" lon="7.2972803"><ele>718.0</ele><time>2026-04-04T12:41:54.51Z</time></trkpt><trkpt lat="44.4693469" lon="7.2971769"><ele>718.0</ele><time>2026-04-04T12:41:57.511Z</time></trkpt><trkpt lat="44.4693382" lon="7.2970658"><ele>718.0</ele><time>2026-04-04T12:42:00.511Z</time></trkpt><trkpt lat="44.4693182" lon="7.2969626"><ele>718.0</ele><time>2026-04-04T12:42:03.51Z</time></trkpt><trkpt lat="44.4692912" lon="7.2968641"><ele>718.0</ele><time>2026-04-04T12:42:06.51Z</time></trkpt><trkpt lat="44.4692659" lon="7.2967528"><ele>718.6666666666667</ele><time>2026-04-04T12:42:09.511Z</time></trkpt><trkpt lat="44.4692408" lon="7.2966397"><ele>719.3333333333334</ele><time>2026-04-04T12:42:12.511Z</time></trkpt><trkpt lat="44.4692131" lon="7.2965278"><ele>720.0</ele><time>2026-04-04T12:42:15.51Z</time></trkpt><trkpt lat="44.4691923" lon="7.2964218"><ele>720.6666666666666</ele><time>2026-04-04T12:42:18.51Z</time></trkpt><trkpt lat="44.4691718" lon="7.2963113"><ele>721.3333333333333</ele><time>2026-04-04T12:42:21.509Z</time></trkpt><trkpt lat="44.4691568" lon="7.2962041"><ele>722.0</ele><time>2026-04-04T12:42:24.51Z</time></trkpt><trkpt lat="44.4691518" lon="7.2961038"><ele>722.0</ele><time>2026-04-04T12:42:27.509Z</time></trkpt><trkpt lat="44.4691487" lon="7.2960006"><ele>722.0</ele><time>2026-04-04T12:42:30.51Z</time></trkpt><trkpt lat="44.4691515" lon="7.2959092"><ele>722.0</ele><time>2026-04-04T12:42:33.51Z</time></trkpt><trkpt lat="44.4691657" lon="7.2957829"><ele>722.0</ele><time>2026-04-04T12:42:36.509Z</time></trkpt><trkpt lat="44.469176" lon="7.2956791"><ele>722.0</ele><time>2026-04-04T12:42:38.509Z</time></trkpt><trkpt lat="44.469195" lon="7.2955801"><ele>722.0</ele><time>2026-04-04T12:42:40.509Z</time></trkpt><trkpt lat="44.4692139" lon="7.2954929"><ele>722.0</ele><time>2026-04-04T12:42:42.51Z</time></trkpt><trkpt lat="44.4692392" lon="7.2953938"><ele>722.7142857142858</ele><time>2026-04-04T12:42:45.51Z</time></trkpt><trkpt lat="44.4692698" lon="7.2952863"><ele>723.4285714285713</ele><time>2026-04-04T12:42:49.509Z</time></trkpt><trkpt lat="44.4692769" lon="7.295191"><ele>724.1428571428571</ele><time>2026-04-04T12:42:52.509Z</time></trkpt><trkpt lat="44.4692717" lon="7.2950898"><ele>724.8571428571429</ele><time>2026-04-04T12:42:55.509Z</time></trkpt><trkpt lat="44.4692537" lon="7.2949909"><ele>725.5714285714287</ele><time>2026-04-04T12:42:58.509Z</time></trkpt><trkpt lat="44.469227" lon="7.294893"><ele>726.2857142857142</ele><time>2026-04-04T12:43:01.51Z</time></trkpt><trkpt lat="44.4692088" lon="7.2947938"><ele>727.0</ele><time>2026-04-04T12:43:04.508Z</time></trkpt><trkpt lat="44.4691963" lon="7.2947011"><ele>727.3333333333334</ele><time>2026-04-04T12:43:07.509Z</time></trkpt><trkpt lat="44.4691801" lon="7.294598"><ele>727.6666666666667</ele><time>2026-04-04T12:43:10.509Z</time></trkpt><trkpt lat="44.4691669" lon="7.2944851"><ele>728.0</ele><time>2026-04-04T12:43:13.51Z</time></trkpt><trkpt lat="44.4691537" lon="7.2943652"><ele>728.3333333333334</ele><time>2026-04-04T12:43:16.51Z</time></trkpt><trkpt lat="44.4691438" lon="7.2942494"><ele>728.6666666666666</ele><time>2026-04-04T12:43:19.509Z</time></trkpt><trkpt lat="44.4691258" lon="7.2941272"><ele>729.0</ele><time>2026-04-04T12:43:22.51Z</time></trkpt><trkpt lat="44.4691074" lon="7.2940343"><ele>729.0</ele><time>2026-04-04T12:43:24.51Z</time></trkpt><trkpt lat="44.4690953" lon="7.2939315"><ele>729.0</ele><time>2026-04-04T12:43:26.509Z</time></trkpt><trkpt lat="44.4690838" lon="7.2938289"><ele>729.0</ele><time>2026-04-04T12:43:28.51Z</time></trkpt><trkpt lat="44.4690742" lon="7.2937347"><ele>729.0</ele><time>2026-04-04T12:43:30.51Z</time></trkpt><trkpt lat="44.4690524" lon="7.293613"><ele>729.0</ele><time>2026-04-04T12:43:33.51Z</time></trkpt><trkpt lat="44.4690207" lon="7.2935283"><ele>729.0</ele><time>2026-04-04T12:43:35.51Z</time></trkpt><trkpt lat="44.4689558" lon="7.2934566"><ele>729.0</ele><time>2026-04-04T12:43:38.51Z</time></trkpt><trkpt lat="44.468898" lon="7.2933888"><ele>729.0</ele><time>2026-04-04T12:43:41.51Z</time></trkpt><trkpt lat="44.4688208" lon="7.2933345"><ele>729.0</ele><time>2026-04-04T12:43:44.509Z</time></trkpt><trkpt lat="44.4687497" lon="7.2932849"><ele>729.0</ele><time>2026-04-04T12:43:48.51Z</time></trkpt><trkpt lat="44.4686832" lon="7.2932297"><ele>729.0</ele><time>2026-04-04T12:43:50.509Z</time></trkpt><trkpt lat="44.4686159" lon="7.2931613"><ele>729.0</ele><time>2026-04-04T12:43:52.51Z</time></trkpt><trkpt lat="44.4685482" lon="7.2930801"><ele>729.0</ele><time>2026-04-04T12:43:54.51Z</time></trkpt><trkpt lat="44.4684533" lon="7.2929787"><ele>729.0</ele><time>2026-04-04T12:43:56.509Z</time></trkpt><trkpt lat="44.4683759" lon="7.2928408"><ele>729.0</ele><time>2026-04-04T12:43:58.509Z</time></trkpt><trkpt lat="44.4683201" lon="7.2927216"><ele>729.0</ele><time>2026-04-04T12:44:00.509Z</time></trkpt><trkpt lat="44.4682674" lon="7.2926029"><ele>729.0</ele><time>2026-04-04T12:44:02.51Z</time></trkpt><trkpt lat="44.4682091" lon="7.2925025"><ele>729.0</ele><time>2026-04-04T12:44:04.51Z</time></trkpt><trkpt lat="44.4681556" lon="7.2924065"><ele>729.0</ele><time>2026-04-04T12:44:06.509Z</time></trkpt><trkpt lat="44.4681047" lon="7.2923154"><ele>729.0</ele><time>2026-04-04T12:44:08.509Z</time></trkpt><trkpt lat="44.4680601" lon="7.292234"><ele>729.0</ele><time>2026-04-04T12:44:10.51Z</time></trkpt><trkpt lat="44.4679757" lon="7.2921351"><ele>729.0</ele><time>2026-04-04T12:44:13.509Z</time></trkpt><trkpt lat="44.4679349" lon="7.2920394"><ele>729.0</ele><time>2026-04-04T12:44:15.51Z</time></trkpt><trkpt lat="44.4678702" lon="7.2919391"><ele>730.8333333333334</ele><time>2026-04-04T12:44:17.509Z</time></trkpt><trkpt lat="44.4678242" lon="7.2918786"><ele>732.6666666666666</ele><time>2026-04-04T12:44:18.509Z</time></trkpt><trkpt lat="44.4677862" lon="7.2918037"><ele>734.5</ele><time>2026-04-04T12:44:19.51Z</time></trkpt><trkpt lat="44.4677434" lon="7.2916393"><ele>736.3333333333333</ele><time>2026-04-04T12:44:21.508Z</time></trkpt><trkpt lat="44.4677258" lon="7.2915509"><ele>738.1666666666666</ele><time>2026-04-04T12:44:22.509Z</time></trkpt><trkpt lat="44.4676907" lon="7.291386"><ele>740.0</ele><time>2026-04-04T12:44:24.51Z</time></trkpt><trkpt lat="44.4676381" lon="7.291256"><ele>740.0</ele><time>2026-04-04T12:44:26.509Z</time></trkpt><trkpt lat="44.4675985" lon="7.291114"><ele>740.0</ele><time>2026-04-04T12:44:28.51Z</time></trkpt><trkpt lat="44.4675695" lon="7.2909707"><ele>740.0</ele><time>2026-04-04T12:44:30.509Z</time></trkpt><trkpt lat="44.4675433" lon="7.2908302"><ele>740.0</ele><time>2026-04-04T12:44:32.51Z</time></trkpt><trkpt lat="44.4675256" lon="7.290742"><ele>740.0</ele><time>2026-04-04T12:44:33.509Z</time></trkpt><trkpt lat="44.4675112" lon="7.2906515"><ele>738.2</ele><time>2026-04-04T12:44:34.51Z</time></trkpt><trkpt lat="44.4674648" lon="7.2905191"><ele>736.4</ele><time>2026-04-04T12:44:36.509Z</time></trkpt><trkpt lat="44.4674461" lon="7.2903793"><ele>734.5999999999999</ele><time>2026-04-04T12:44:38.51Z</time></trkpt><trkpt lat="44.4674479" lon="7.2902577"><ele>732.8</ele><time>2026-04-04T12:44:40.509Z</time></trkpt><trkpt lat="44.4674653" lon="7.2901269"><ele>731.0</ele><time>2026-04-04T12:44:42.51Z</time></trkpt><trkpt lat="44.4674852" lon="7.2899996"><ele>731.0</ele><time>2026-04-04T12:44:44.51Z</time></trkpt><trkpt lat="44.4674959" lon="7.2898783"><ele>731.0</ele><time>2026-04-04T12:44:46.51Z</time></trkpt><trkpt lat="44.4674921" lon="7.289755"><ele>731.0</ele><time>2026-04-04T12:44:48.51Z</time></trkpt><trkpt lat="44.4674468" lon="7.2896154"><ele>731.0</ele><time>2026-04-04T12:44:50.51Z</time></trkpt><trkpt lat="44.467383" lon="7.2894748"><ele>731.0</ele><time>2026-04-04T12:44:52.51Z</time></trkpt><trkpt lat="44.4673482" lon="7.289391"><ele>731.2857142857142</ele><time>2026-04-04T12:44:53.509Z</time></trkpt><trkpt lat="44.467316" lon="7.2893008"><ele>731.5714285714286</ele><time>2026-04-04T12:44:54.51Z</time></trkpt><trkpt lat="44.4672907" lon="7.2892095"><ele>731.8571428571429</ele><time>2026-04-04T12:44:55.51Z</time></trkpt><trkpt lat="44.4672721" lon="7.2891184"><ele>732.1428571428571</ele><time>2026-04-04T12:44:56.508Z</time></trkpt><trkpt lat="44.467256" lon="7.289031"><ele>732.4285714285714</ele><time>2026-04-04T12:44:57.51Z</time></trkpt><trkpt lat="44.4672684" lon="7.2889197"><ele>732.7142857142857</ele><time>2026-04-04T12:44:59.509Z</time></trkpt><trkpt lat="44.4673277" lon="7.2888747"><ele>733.0</ele><time>2026-04-04T12:45:00.509Z</time></trkpt><trkpt lat="44.4674349" lon="7.2887893"><ele>733.0</ele><time>2026-04-04T12:45:02.509Z</time></trkpt><trkpt lat="44.4675382" lon="7.288737"><ele>733.0</ele><time>2026-04-04T12:45:04.51Z</time></trkpt><trkpt lat="44.46762" lon="7.2887518"><ele>733.0</ele><time>2026-04-04T12:45:06.51Z</time></trkpt><trkpt lat="44.4677" lon="7.2887921"><ele>733.0</ele><time>2026-04-04T12:45:08.508Z</time></trkpt><trkpt lat="44.4677632" lon="7.2888627"><ele>733.0</ele><time>2026-04-04T12:45:11.51Z</time></trkpt><trkpt lat="44.4678211" lon="7.2889258"><ele>733.0</ele><time>2026-04-04T12:45:13.51Z</time></trkpt><trkpt lat="44.4679054" lon="7.2890088"><ele>734.5714285714286</ele><time>2026-04-04T12:45:16.51Z</time></trkpt><trkpt lat="44.4679619" lon="7.2890734"><ele>736.1428571428571</ele><time>2026-04-04T12:45:18.509Z</time></trkpt><trkpt lat="44.4680252" lon="7.2891691"><ele>737.7142857142858</ele><time>2026-04-04T12:45:21.509Z</time></trkpt><trkpt lat="44.4680709" lon="7.2892383"><ele>739.2857142857142</ele><time>2026-04-04T12:45:23.508Z</time></trkpt><trkpt lat="44.4681142" lon="7.2893056"><ele>740.8571428571429</ele><time>2026-04-04T12:45:25.51Z</time></trkpt><trkpt lat="44.4681555" lon="7.2893797"><ele>742.4285714285714</ele><time>2026-04-04T12:45:27.509Z</time></trkpt><trkpt lat="44.4681981" lon="7.2894668"><ele>744.0</ele><time>2026-04-04T12:45:29.509Z</time></trkpt><trkpt lat="44.4682466" lon="7.2895504"><ele>744.0000000000001</ele><time>2026-04-04T12:45:31.508Z</time></trkpt><trkpt lat="44.4682927" lon="7.2896337"><ele>744.0</ele><time>2026-04-04T12:45:33.509Z</time></trkpt><trkpt lat="44.4683399" lon="7.2897162"><ele>744.0</ele><time>2026-04-04T12:45:35.51Z</time></trkpt><trkpt lat="44.4683946" lon="7.2897884"><ele>744.0</ele><time>2026-04-04T12:45:37.508Z</time></trkpt><trkpt lat="44.4684504" lon="7.2898516"><ele>744.0</ele><time>2026-04-04T12:45:39.51Z</time></trkpt><trkpt lat="44.4685111" lon="7.2899067"><ele>744.0000000000001</ele><time>2026-04-04T12:45:41.51Z</time></trkpt><trkpt lat="44.4685844" lon="7.2899432"><ele>744.0</ele><time>2026-04-04T12:45:43.51Z</time></trkpt><trkpt lat="44.4686605" lon="7.289982"><ele>745.4285714285714</ele><time>2026-04-04T12:45:45.509Z</time></trkpt><trkpt lat="44.4687364" lon="7.2900235"><ele>746.8571428571429</ele><time>2026-04-04T12:45:47.51Z</time></trkpt><trkpt lat="44.4688069" lon="7.2900717"><ele>748.2857142857142</ele><time>2026-04-04T12:45:49.509Z</time></trkpt><trkpt lat="44.4688772" lon="7.2901233"><ele>749.7142857142858</ele><time>2026-04-04T12:45:51.51Z</time></trkpt><trkpt lat="44.4689404" lon="7.2901744"><ele>751.1428571428571</ele><time>2026-04-04T12:45:53.509Z</time></trkpt><trkpt lat="44.4690018" lon="7.2902241"><ele>752.5714285714286</ele><time>2026-04-04T12:45:55.51Z</time></trkpt><trkpt lat="44.4690576" lon="7.2902668"><ele>754.0</ele><time>2026-04-04T12:45:57.51Z</time></trkpt><trkpt lat="44.4691105" lon="7.290322"><ele>754.0</ele><time>2026-04-04T12:45:59.51Z</time></trkpt><trkpt lat="44.4691627" lon="7.2903911"><ele>754.0</ele><time>2026-04-04T12:46:01.508Z</time></trkpt><trkpt lat="44.4692366" lon="7.290474"><ele>754.0</ele><time>2026-04-04T12:46:03.51Z</time></trkpt><trkpt lat="44.4693072" lon="7.2905704"><ele>754.0</ele><time>2026-04-04T12:46:05.509Z</time></trkpt><trkpt lat="44.4693707" lon="7.2906606"><ele>754.0</ele><time>2026-04-04T12:46:07.509Z</time></trkpt><trkpt lat="44.4694309" lon="7.2907435"><ele>754.0</ele><time>2026-04-04T12:46:09.509Z</time></trkpt><trkpt lat="44.4694853" lon="7.2908157"><ele>754.6</ele><time>2026-04-04T12:46:11.508Z</time></trkpt><trkpt lat="44.4695383" lon="7.2908755"><ele>755.2</ele><time>2026-04-04T12:46:13.508Z</time></trkpt><trkpt lat="44.4696189" lon="7.2909236"><ele>755.8000000000001</ele><time>2026-04-04T12:46:16.508Z</time></trkpt><trkpt lat="44.4697011" lon="7.2909801"><ele>756.4000000000001</ele><time>2026-04-04T12:46:18.509Z</time></trkpt><trkpt lat="44.4697887" lon="7.2910741"><ele>757.0</ele><time>2026-04-04T12:46:20.508Z</time></trkpt><trkpt lat="44.4698619" lon="7.291156"><ele>757.0</ele><time>2026-04-04T12:46:22.508Z</time></trkpt><trkpt lat="44.4699332" lon="7.291267"><ele>757.0</ele><time>2026-04-04T12:46:24.509Z</time></trkpt><trkpt lat="44.4700307" lon="7.2913758"><ele>757.0</ele><time>2026-04-04T12:46:26.509Z</time></trkpt><trkpt lat="44.4701243" lon="7.29147"><ele>757.0</ele><time>2026-04-04T12:46:28.507Z</time></trkpt><trkpt lat="44.4702253" lon="7.2915464"><ele>754.2</ele><time>2026-04-04T12:46:30.508Z</time></trkpt><trkpt lat="44.4703212" lon="7.2916359"><ele>751.4000000000001</ele><time>2026-04-04T12:46:32.509Z</time></trkpt><trkpt lat="44.4704112" lon="7.2917324"><ele>748.5999999999999</ele><time>2026-04-04T12:46:34.508Z</time></trkpt><trkpt lat="44.470488" lon="7.2918364"><ele>745.8</ele><time>2026-04-04T12:46:36.509Z</time></trkpt><trkpt lat="44.4705524" lon="7.2919357"><ele>743.0</ele><time>2026-04-04T12:46:38.507Z</time></trkpt><trkpt lat="44.4706202" lon="7.2920277"><ele>743.0</ele><time>2026-04-04T12:46:40.508Z</time></trkpt><trkpt lat="44.470697" lon="7.2921181"><ele>743.0</ele><time>2026-04-04T12:46:42.509Z</time></trkpt><trkpt lat="44.4707786" lon="7.2922123"><ele>743.0</ele><time>2026-04-04T12:46:44.509Z</time></trkpt><trkpt lat="44.4708556" lon="7.2923102"><ele>743.0</ele><time>2026-04-04T12:46:46.507Z</time></trkpt><trkpt lat="44.4709362" lon="7.2924024"><ele>743.0</ele><time>2026-04-04T12:46:48.509Z</time></trkpt><trkpt lat="44.4710142" lon="7.2924739"><ele>740.0</ele><time>2026-04-04T12:46:50.509Z</time></trkpt><trkpt lat="44.4711128" lon="7.2924505"><ele>737.0</ele><time>2026-04-04T12:46:52.507Z</time></trkpt><trkpt lat="44.4712099" lon="7.2923523"><ele>734.0</ele><time>2026-04-04T12:46:54.508Z</time></trkpt><trkpt lat="44.4712633" lon="7.292299"><ele>731.0</ele><time>2026-04-04T12:46:55.509Z</time></trkpt><trkpt lat="44.4713324" lon="7.2922337"><ele>728.0</ele><time>2026-04-04T12:46:56.508Z</time></trkpt><trkpt lat="44.471406" lon="7.2921631"><ele>728.0</ele><time>2026-04-04T12:46:57.509Z</time></trkpt><trkpt lat="44.4714833" lon="7.2920987"><ele>728.0</ele><time>2026-04-04T12:46:58.508Z</time></trkpt><trkpt lat="44.4715861" lon="7.2920392"><ele>728.0</ele><time>2026-04-04T12:46:59.509Z</time></trkpt><trkpt lat="44.4716963" lon="7.2919898"><ele>728.0</ele><time>2026-04-04T12:47:00.509Z</time></trkpt><trkpt lat="44.471801" lon="7.291938"><ele>728.0</ele><time>2026-04-04T12:47:01.509Z</time></trkpt><trkpt lat="44.4718884" lon="7.2918917"><ele>728.0</ele><time>2026-04-04T12:47:02.509Z</time></trkpt><trkpt lat="44.4719818" lon="7.2918336"><ele>728.0</ele><time>2026-04-04T12:47:03.509Z</time></trkpt><trkpt lat="44.4720652" lon="7.2917707"><ele>728.0</ele><time>2026-04-04T12:47:04.508Z</time></trkpt><trkpt lat="44.4721496" lon="7.2916999"><ele>728.0</ele><time>2026-04-04T12:47:05.509Z</time></trkpt><trkpt lat="44.4722313" lon="7.2916255"><ele>728.0</ele><time>2026-04-04T12:47:06.507Z</time></trkpt><trkpt lat="44.4723205" lon="7.2915406"><ele>727.0</ele><time>2026-04-04T12:47:07.509Z</time></trkpt><trkpt lat="44.4724047" lon="7.2914526"><ele>726.0</ele><time>2026-04-04T12:47:08.509Z</time></trkpt><trkpt lat="44.4724976" lon="7.2913594"><ele>725.0</ele><time>2026-04-04T12:47:09.508Z</time></trkpt><trkpt lat="44.4725935" lon="7.2912715"><ele>724.0</ele><time>2026-04-04T12:47:10.508Z</time></trkpt><trkpt lat="44.4726836" lon="7.2911854"><ele>723.0</ele><time>2026-04-04T12:47:11.509Z</time></trkpt><trkpt lat="44.4727726" lon="7.2910936"><ele>723.0</ele><time>2026-04-04T12:47:12.509Z</time></trkpt><trkpt lat="44.4728648" lon="7.2909954"><ele>723.0</ele><time>2026-04-04T12:47:13.508Z</time></trkpt><trkpt lat="44.4729482" lon="7.2908955"><ele>723.0</ele><time>2026-04-04T12:47:14.509Z</time></trkpt><trkpt lat="44.4730201" lon="7.2907883"><ele>723.0</ele><time>2026-04-04T12:47:15.509Z</time></trkpt><trkpt lat="44.4730912" lon="7.2906739"><ele>723.0</ele><time>2026-04-04T12:47:16.507Z</time></trkpt><trkpt lat="44.4731462" lon="7.2905551"><ele>720.5999999999999</ele><time>2026-04-04T12:47:17.509Z</time></trkpt><trkpt lat="44.4731954" lon="7.2904363"><ele>718.1999999999999</ele><time>2026-04-04T12:47:18.508Z</time></trkpt><trkpt lat="44.4732395" lon="7.2903151"><ele>715.8</ele><time>2026-04-04T12:47:19.508Z</time></trkpt><trkpt lat="44.4732855" lon="7.290198"><ele>713.4</ele><time>2026-04-04T12:47:20.509Z</time></trkpt><trkpt lat="44.4733343" lon="7.2900881"><ele>711.0</ele><time>2026-04-04T12:47:21.508Z</time></trkpt><trkpt lat="44.473392" lon="7.289982"><ele>711.0</ele><time>2026-04-04T12:47:22.509Z</time></trkpt><trkpt lat="44.4734645" lon="7.2898818"><ele>711.0</ele><time>2026-04-04T12:47:23.508Z</time></trkpt><trkpt lat="44.4735315" lon="7.2897916"><ele>711.0</ele><time>2026-04-04T12:47:24.509Z</time></trkpt><trkpt lat="44.4735986" lon="7.2896963"><ele>711.0</ele><time>2026-04-04T12:47:25.509Z</time></trkpt><trkpt lat="44.4736627" lon="7.2895929"><ele>711.0</ele><time>2026-04-04T12:47:26.509Z</time></trkpt><trkpt lat="44.4737185" lon="7.2894808"><ele>711.1999999999999</ele><time>2026-04-04T12:47:27.508Z</time></trkpt><trkpt lat="44.4737745" lon="7.2893706"><ele>711.4</ele><time>2026-04-04T12:47:28.508Z</time></trkpt><trkpt lat="44.4738296" lon="7.2892561"><ele>711.6</ele><time>2026-04-04T12:47:29.509Z</time></trkpt><trkpt lat="44.473887" lon="7.2891452"><ele>711.8</ele><time>2026-04-04T12:47:30.507Z</time></trkpt><trkpt lat="44.4739375" lon="7.2890256"><ele>712.0</ele><time>2026-04-04T12:47:31.509Z</time></trkpt><trkpt lat="44.4739939" lon="7.2889165"><ele>712.0</ele><time>2026-04-04T12:47:32.509Z</time></trkpt><trkpt lat="44.4740474" lon="7.288806"><ele>712.0</ele><time>2026-04-04T12:47:33.508Z</time></trkpt><trkpt lat="44.4741025" lon="7.2886973"><ele>712.0</ele><time>2026-04-04T12:47:34.508Z</time></trkpt><trkpt lat="44.4741601" lon="7.2885893"><ele>712.0</ele><time>2026-04-04T12:47:35.509Z</time></trkpt><trkpt lat="44.4742142" lon="7.2884825"><ele>712.0</ele><time>2026-04-04T12:47:36.507Z</time></trkpt><trkpt lat="44.4742674" lon="7.2883751"><ele>712.0</ele><time>2026-04-04T12:47:37.508Z</time></trkpt><trkpt lat="44.4743219" lon="7.2882737"><ele>712.0</ele><time>2026-04-04T12:47:38.509Z</time></trkpt><trkpt lat="44.4743703" lon="7.288171"><ele>712.0</ele><time>2026-04-04T12:47:39.509Z</time></trkpt><trkpt lat="44.474423" lon="7.2880711"><ele>712.0</ele><time>2026-04-04T12:47:40.508Z</time></trkpt><trkpt lat="44.474477" lon="7.2879755"><ele>712.0</ele><time>2026-04-04T12:47:41.508Z</time></trkpt><trkpt lat="44.4745319" lon="7.2878859"><ele>712.0</ele><time>2026-04-04T12:47:42.508Z</time></trkpt><trkpt lat="44.4745837" lon="7.2877978"><ele>711.4285714285713</ele><time>2026-04-04T12:47:43.507Z</time></trkpt><trkpt lat="44.4746341" lon="7.2877128"><ele>710.8571428571429</ele><time>2026-04-04T12:47:44.508Z</time></trkpt><trkpt lat="44.4746782" lon="7.2876291"><ele>710.2857142857142</ele><time>2026-04-04T12:47:45.509Z</time></trkpt><trkpt lat="44.4747195" lon="7.2875499"><ele>709.7142857142857</ele><time>2026-04-04T12:47:46.508Z</time></trkpt><trkpt lat="44.4747563" lon="7.2874764"><ele>709.1428571428571</ele><time>2026-04-04T12:47:47.509Z</time></trkpt><trkpt lat="44.4747921" lon="7.2874037"><ele>708.5714285714286</ele><time>2026-04-04T12:47:48.509Z</time></trkpt><trkpt lat="44.4748303" lon="7.2873322"><ele>708.0</ele><time>2026-04-04T12:47:49.508Z</time></trkpt><trkpt lat="44.4749038" lon="7.2871956"><ele>708.0</ele><time>2026-04-04T12:47:51.509Z</time></trkpt><trkpt lat="44.4749485" lon="7.2871319"><ele>708.0</ele><time>2026-04-04T12:47:52.508Z</time></trkpt><trkpt lat="44.4750478" lon="7.28703"><ele>708.0</ele><time>2026-04-04T12:47:54.509Z</time></trkpt><trkpt lat="44.4751101" lon="7.2870062"><ele>708.0</ele><time>2026-04-04T12:47:55.509Z</time></trkpt><trkpt lat="44.4752278" lon="7.2870145"><ele>708.0</ele><time>2026-04-04T12:47:57.508Z</time></trkpt><trkpt lat="44.4753248" lon="7.2870916"><ele>708.0</ele><time>2026-04-04T12:47:59.509Z</time></trkpt><trkpt lat="44.4754188" lon="7.2871842"><ele>708.0</ele><time>2026-04-04T12:48:01.509Z</time></trkpt><trkpt lat="44.475508" lon="7.2872804"><ele>708.0</ele><time>2026-04-04T12:48:03.508Z</time></trkpt><trkpt lat="44.4755926" lon="7.2873681"><ele>708.0</ele><time>2026-04-04T12:48:05.508Z</time></trkpt><trkpt lat="44.4756739" lon="7.2874519"><ele>708.0</ele><time>2026-04-04T12:48:07.508Z</time></trkpt><trkpt lat="44.4757564" lon="7.2875335"><ele>705.8</ele><time>2026-04-04T12:48:09.508Z</time></trkpt><trkpt lat="44.4758382" lon="7.2876142"><ele>703.5999999999999</ele><time>2026-04-04T12:48:11.509Z</time></trkpt><trkpt lat="44.4759174" lon="7.2876826"><ele>701.4000000000001</ele><time>2026-04-04T12:48:13.509Z</time></trkpt><trkpt lat="44.475987" lon="7.2877636"><ele>699.2</ele><time>2026-04-04T12:48:15.509Z</time></trkpt><trkpt lat="44.4760595" lon="7.2878393"><ele>697.0</ele><time>2026-04-04T12:48:17.509Z</time></trkpt><trkpt lat="44.4761285" lon="7.2879114"><ele>697.0</ele><time>2026-04-04T12:48:19.509Z</time></trkpt><trkpt lat="44.4761974" lon="7.2879673"><ele>697.0</ele><time>2026-04-04T12:48:21.509Z</time></trkpt><trkpt lat="44.4762664" lon="7.2880171"><ele>697.0</ele><time>2026-04-04T12:48:23.509Z</time></trkpt><trkpt lat="44.4763348" lon="7.2880838"><ele>697.0</ele><time>2026-04-04T12:48:25.508Z</time></trkpt><trkpt lat="44.4764072" lon="7.2881456"><ele>697.0</ele><time>2026-04-04T12:48:27.508Z</time></trkpt><trkpt lat="44.4764907" lon="7.2881979"><ele>697.0</ele><time>2026-04-04T12:48:29.508Z</time></trkpt><trkpt lat="44.4765704" lon="7.2882387"><ele>697.1666666666667</ele><time>2026-04-04T12:48:31.509Z</time></trkpt><trkpt lat="44.4766522" lon="7.2882633"><ele>697.3333333333334</ele><time>2026-04-04T12:48:33.509Z</time></trkpt><trkpt lat="44.4767378" lon="7.2882865"><ele>697.5</ele><time>2026-04-04T12:48:35.509Z</time></trkpt><trkpt lat="44.4768075" lon="7.2883675"><ele>697.6666666666666</ele><time>2026-04-04T12:48:37.509Z</time></trkpt><trkpt lat="44.4768263" lon="7.2884984"><ele>697.8333333333333</ele><time>2026-04-04T12:48:39.508Z</time></trkpt><trkpt lat="44.4768131" lon="7.2886266"><ele>698.0</ele><time>2026-04-04T12:48:41.508Z</time></trkpt><trkpt lat="44.4767998" lon="7.2887507"><ele>698.0</ele><time>2026-04-04T12:48:43.509Z</time></trkpt><trkpt lat="44.4767825" lon="7.2888747"><ele>698.0</ele><time>2026-04-04T12:48:45.508Z</time></trkpt><trkpt lat="44.4767654" lon="7.2889987"><ele>698.0</ele><time>2026-04-04T12:48:47.508Z</time></trkpt><trkpt lat="44.4767477" lon="7.2891181"><ele>698.0</ele><time>2026-04-04T12:48:49.507Z</time></trkpt><trkpt lat="44.4767275" lon="7.2892384"><ele>698.0</ele><time>2026-04-04T12:48:51.508Z</time></trkpt><trkpt lat="44.4766995" lon="7.289341"><ele>698.0</ele><time>2026-04-04T12:48:53.508Z</time></trkpt><trkpt lat="44.4766914" lon="7.2894605"><ele>697.5999999999999</ele><time>2026-04-04T12:48:56.509Z</time></trkpt><trkpt lat="44.4767617" lon="7.289538"><ele>697.1999999999999</ele><time>2026-04-04T12:49:00.508Z</time></trkpt><trkpt lat="44.4768336" lon="7.2895329"><ele>696.8</ele><time>2026-04-04T12:49:02.509Z</time></trkpt><trkpt lat="44.4769127" lon="7.2895069"><ele>696.4</ele><time>2026-04-04T12:49:04.509Z</time></trkpt><trkpt lat="44.4770045" lon="7.2894437"><ele>696.0</ele><time>2026-04-04T12:49:06.509Z</time></trkpt><trkpt lat="44.4770913" lon="7.2893372"><ele>693.8333333333334</ele><time>2026-04-04T12:49:08.508Z</time></trkpt><trkpt lat="44.4771533" lon="7.2891789"><ele>691.6666666666666</ele><time>2026-04-04T12:49:10.508Z</time></trkpt><trkpt lat="44.4771785" lon="7.2890853"><ele>689.5</ele><time>2026-04-04T12:49:11.509Z</time></trkpt><trkpt lat="44.4772043" lon="7.2889811"><ele>687.3333333333333</ele><time>2026-04-04T12:49:12.509Z</time></trkpt><trkpt lat="44.4772293" lon="7.2888713"><ele>685.1666666666666</ele><time>2026-04-04T12:49:13.509Z</time></trkpt><trkpt lat="44.4772488" lon="7.2887574"><ele>683.0</ele><time>2026-04-04T12:49:14.509Z</time></trkpt><trkpt lat="44.477268" lon="7.2886424"><ele>683.0</ele><time>2026-04-04T12:49:15.509Z</time></trkpt><trkpt lat="44.4772903" lon="7.2885251"><ele>683.0</ele><time>2026-04-04T12:49:16.509Z</time></trkpt><trkpt lat="44.4773086" lon="7.2884046"><ele>683.0</ele><time>2026-04-04T12:49:17.508Z</time></trkpt><trkpt lat="44.4773277" lon="7.2882767"><ele>683.0</ele><time>2026-04-04T12:49:18.508Z</time></trkpt><trkpt lat="44.4773593" lon="7.288162"><ele>683.0</ele><time>2026-04-04T12:49:19.508Z</time></trkpt><trkpt lat="44.4773903" lon="7.2880514"><ele>683.0</ele><time>2026-04-04T12:49:20.508Z</time></trkpt><trkpt lat="44.4774303" lon="7.2879719"><ele>684.2</ele><time>2026-04-04T12:49:21.509Z</time></trkpt><trkpt lat="44.4774971" lon="7.28781"><ele>685.4</ele><time>2026-04-04T12:49:23.508Z</time></trkpt><trkpt lat="44.4775317" lon="7.2877159"><ele>686.6</ele><time>2026-04-04T12:49:24.509Z</time></trkpt><trkpt lat="44.4775829" lon="7.2875963"><ele>687.8000000000001</ele><time>2026-04-04T12:49:25.509Z</time></trkpt><trkpt lat="44.4776322" lon="7.2874613"><ele>689.0</ele><time>2026-04-04T12:49:26.508Z</time></trkpt><trkpt lat="44.4776758" lon="7.2873344"><ele>689.0</ele><time>2026-04-04T12:49:27.509Z</time></trkpt><trkpt lat="44.4777393" lon="7.2872686"><ele>689.0</ele><time>2026-04-04T12:49:28.509Z</time></trkpt><trkpt lat="44.4777806" lon="7.2871399"><ele>689.0</ele><time>2026-04-04T12:49:29.509Z</time></trkpt><trkpt lat="44.4778388" lon="7.2870403"><ele>689.0</ele><time>2026-04-04T12:49:30.509Z</time></trkpt><trkpt lat="44.4778929" lon="7.2869169"><ele>689.0</ele><time>2026-04-04T12:49:31.507Z</time></trkpt><trkpt lat="44.4779454" lon="7.28681"><ele>688.3333333333333</ele><time>2026-04-04T12:49:32.508Z</time></trkpt><trkpt lat="44.4779929" lon="7.2867087"><ele>687.6666666666666</ele><time>2026-04-04T12:49:33.509Z</time></trkpt><trkpt lat="44.478046" lon="7.2866039"><ele>687.0</ele><time>2026-04-04T12:49:34.508Z</time></trkpt><trkpt lat="44.478104" lon="7.286511"><ele>686.3333333333334</ele><time>2026-04-04T12:49:35.509Z</time></trkpt><trkpt lat="44.4781389" lon="7.2864194"><ele>685.6666666666667</ele><time>2026-04-04T12:49:36.509Z</time></trkpt><trkpt lat="44.4781675" lon="7.2863288"><ele>685.0</ele><time>2026-04-04T12:49:37.509Z</time></trkpt><trkpt lat="44.4781854" lon="7.2862291"><ele>685.0</ele><time>2026-04-04T12:49:38.509Z</time></trkpt><trkpt lat="44.478205" lon="7.2861423"><ele>685.0</ele><time>2026-04-04T12:49:39.509Z</time></trkpt><trkpt lat="44.4782297" lon="7.286059"><ele>685.0</ele><time>2026-04-04T12:49:40.508Z</time></trkpt><trkpt lat="44.4782797" lon="7.2859129"><ele>685.0</ele><time>2026-04-04T12:49:42.509Z</time></trkpt><trkpt lat="44.4783584" lon="7.2858123"><ele>685.0</ele><time>2026-04-04T12:49:44.507Z</time></trkpt><trkpt lat="44.4784618" lon="7.2858018"><ele>685.0</ele><time>2026-04-04T12:49:46.508Z</time></trkpt><trkpt lat="44.4785536" lon="7.2858231"><ele>685.0</ele><time>2026-04-04T12:49:48.509Z</time></trkpt><trkpt lat="44.4786492" lon="7.2858661"><ele>685.0</ele><time>2026-04-04T12:49:50.509Z</time></trkpt><trkpt lat="44.4787242" lon="7.2859162"><ele>685.0</ele><time>2026-04-04T12:49:52.508Z</time></trkpt><trkpt lat="44.4788108" lon="7.2859762"><ele>685.0</ele><time>2026-04-04T12:49:55.507Z</time></trkpt><trkpt lat="44.4788876" lon="7.2860264"><ele>684.1428571428571</ele><time>2026-04-04T12:49:58.509Z</time></trkpt><trkpt lat="44.4789495" lon="7.2860576"><ele>683.2857142857143</ele><time>2026-04-04T12:50:10.509Z</time></trkpt><trkpt lat="44.4789935" lon="7.2859928"><ele>682.4285714285714</ele><time>2026-04-04T12:50:12.509Z</time></trkpt><trkpt lat="44.4790436" lon="7.285883"><ele>681.5714285714286</ele><time>2026-04-04T12:50:15.509Z</time></trkpt><trkpt lat="44.4790892" lon="7.2858108"><ele>680.7142857142858</ele><time>2026-04-04T12:50:17.508Z</time></trkpt><trkpt lat="44.4791346" lon="7.2857372"><ele>679.8571428571429</ele><time>2026-04-04T12:50:19.509Z</time></trkpt><trkpt lat="44.4791871" lon="7.2856638"><ele>679.0</ele><time>2026-04-04T12:50:21.509Z</time></trkpt><trkpt lat="44.4792419" lon="7.2855901"><ele>679.0</ele><time>2026-04-04T12:50:23.509Z</time></trkpt><trkpt lat="44.4792941" lon="7.285514"><ele>679.0</ele><time>2026-04-04T12:50:25.508Z</time></trkpt><trkpt lat="44.4793452" lon="7.2854393"><ele>679.0</ele><time>2026-04-04T12:50:27.509Z</time></trkpt><trkpt lat="44.4793984" lon="7.2853608"><ele>679.0</ele><time>2026-04-04T12:50:29.509Z</time></trkpt><trkpt lat="44.4794537" lon="7.2852761"><ele>679.0</ele><time>2026-04-04T12:50:31.508Z</time></trkpt><trkpt lat="44.4795127" lon="7.2851894"><ele>679.0</ele><time>2026-04-04T12:50:33.509Z</time></trkpt><trkpt lat="44.4795743" lon="7.2851003"><ele>678.2</ele><time>2026-04-04T12:50:35.508Z</time></trkpt><trkpt lat="44.4796334" lon="7.2850106"><ele>677.4000000000001</ele><time>2026-04-04T12:50:37.509Z</time></trkpt><trkpt lat="44.4797017" lon="7.2849224"><ele>676.6</ele><time>2026-04-04T12:50:39.508Z</time></trkpt><trkpt lat="44.4797749" lon="7.2848451"><ele>675.8</ele><time>2026-04-04T12:50:41.507Z</time></trkpt><trkpt lat="44.4798531" lon="7.2847675"><ele>675.0</ele><time>2026-04-04T12:50:43.509Z</time></trkpt><trkpt lat="44.4799258" lon="7.2846868"><ele>675.0</ele><time>2026-04-04T12:50:45.509Z</time></trkpt><trkpt lat="44.4800061" lon="7.2846055"><ele>675.0</ele><time>2026-04-04T12:50:47.508Z</time></trkpt><trkpt lat="44.4800839" lon="7.2845325"><ele>675.0</ele><time>2026-04-04T12:50:49.509Z</time></trkpt><trkpt lat="44.4801564" lon="7.2844508"><ele>675.0</ele><time>2026-04-04T12:50:51.507Z</time></trkpt><trkpt lat="44.4802249" lon="7.2843596"><ele>675.0</ele><time>2026-04-04T12:50:53.508Z</time></trkpt><trkpt lat="44.480288" lon="7.2842634"><ele>675.0</ele><time>2026-04-04T12:50:55.507Z</time></trkpt><trkpt lat="44.4803443" lon="7.284158"><ele>675.0</ele><time>2026-04-04T12:50:57.508Z</time></trkpt><trkpt lat="44.4803947" lon="7.2840445"><ele>675.0</ele><time>2026-04-04T12:50:59.508Z</time></trkpt><trkpt lat="44.4804502" lon="7.2839243"><ele>675.0</ele><time>2026-04-04T12:51:01.506Z</time></trkpt><trkpt lat="44.480503" lon="7.2838133"><ele>675.0</ele><time>2026-04-04T12:51:03.508Z</time></trkpt><trkpt lat="44.4805568" lon="7.2836963"><ele>677.6</ele><time>2026-04-04T12:51:05.506Z</time></trkpt><trkpt lat="44.4806058" lon="7.2835753"><ele>680.2</ele><time>2026-04-04T12:51:07.507Z</time></trkpt><trkpt lat="44.4806529" lon="7.2834587"><ele>682.8</ele><time>2026-04-04T12:51:09.507Z</time></trkpt><trkpt lat="44.4807002" lon="7.2833469"><ele>685.4</ele><time>2026-04-04T12:51:11.508Z</time></trkpt><trkpt lat="44.4807513" lon="7.2832357"><ele>688.0</ele><time>2026-04-04T12:51:13.508Z</time></trkpt><trkpt lat="44.4808003" lon="7.2831252"><ele>686.5999999999999</ele><time>2026-04-04T12:51:15.508Z</time></trkpt><trkpt lat="44.4808506" lon="7.283013"><ele>685.1999999999999</ele><time>2026-04-04T12:51:17.508Z</time></trkpt><trkpt lat="44.4808944" lon="7.282898"><ele>683.8</ele><time>2026-04-04T12:51:19.507Z</time></trkpt><trkpt lat="44.4809329" lon="7.28278"><ele>682.4</ele><time>2026-04-04T12:51:21.508Z</time></trkpt><trkpt lat="44.4809674" lon="7.2826653"><ele>681.0</ele><time>2026-04-04T12:51:23.507Z</time></trkpt><trkpt lat="44.4809933" lon="7.2825538"><ele>681.0</ele><time>2026-04-04T12:51:25.506Z</time></trkpt><trkpt lat="44.4810098" lon="7.2824456"><ele>681.0</ele><time>2026-04-04T12:51:27.507Z</time></trkpt><trkpt lat="44.4810181" lon="7.2823251"><ele>681.0</ele><time>2026-04-04T12:51:29.507Z</time></trkpt><trkpt lat="44.4810164" lon="7.2822225"><ele>681.0</ele><time>2026-04-04T12:51:31.507Z</time></trkpt><trkpt lat="44.4810028" lon="7.2820687"><ele>681.0</ele><time>2026-04-04T12:51:33.506Z</time></trkpt><trkpt lat="44.4810164" lon="7.281963"><ele>681.0</ele><time>2026-04-04T12:51:35.515Z</time></trkpt><trkpt lat="44.4810479" lon="7.2818403"><ele>679.5999999999999</ele><time>2026-04-04T12:51:37.507Z</time></trkpt><trkpt lat="44.4811089" lon="7.2817404"><ele>678.2</ele><time>2026-04-04T12:51:39.506Z</time></trkpt><trkpt lat="44.4811874" lon="7.2816669"><ele>676.8</ele><time>2026-04-04T12:51:41.507Z</time></trkpt><trkpt lat="44.481273" lon="7.2816151"><ele>675.4000000000001</ele><time>2026-04-04T12:51:43.507Z</time></trkpt><trkpt lat="44.4813629" lon="7.2815793"><ele>674.0</ele><time>2026-04-04T12:51:45.508Z</time></trkpt><trkpt lat="44.4814506" lon="7.2815477"><ele>674.1666666666666</ele><time>2026-04-04T12:51:47.507Z</time></trkpt><trkpt lat="44.4815289" lon="7.2815227"><ele>674.3333333333333</ele><time>2026-04-04T12:51:49.508Z</time></trkpt><trkpt lat="44.4815955" lon="7.2814773"><ele>674.5</ele><time>2026-04-04T12:51:51.507Z</time></trkpt><trkpt lat="44.4816564" lon="7.2814352"><ele>674.6666666666666</ele><time>2026-04-04T12:51:53.508Z</time></trkpt><trkpt lat="44.4817264" lon="7.2813992"><ele>674.8333333333334</ele><time>2026-04-04T12:51:55.507Z</time></trkpt><trkpt lat="44.4817941" lon="7.2813421"><ele>675.0</ele><time>2026-04-04T12:51:57.508Z</time></trkpt><trkpt lat="44.4818615" lon="7.2812771"><ele>675.0</ele><time>2026-04-04T12:51:59.508Z</time></trkpt><trkpt lat="44.4819283" lon="7.2812087"><ele>675.0</ele><time>2026-04-04T12:52:01.507Z</time></trkpt><trkpt lat="44.4819925" lon="7.2811326"><ele>675.0</ele><time>2026-04-04T12:52:03.508Z</time></trkpt><trkpt lat="44.4820579" lon="7.2810559"><ele>675.0</ele><time>2026-04-04T12:52:05.508Z</time></trkpt><trkpt lat="44.48212" lon="7.2809749"><ele>675.0</ele><time>2026-04-04T12:52:07.507Z</time></trkpt><trkpt lat="44.4821718" lon="7.2808943"><ele>675.0</ele><time>2026-04-04T12:52:09.507Z</time></trkpt><trkpt lat="44.4822234" lon="7.2808191"><ele>676.7142857142857</ele><time>2026-04-04T12:52:11.508Z</time></trkpt><trkpt lat="44.482272" lon="7.2807388"><ele>678.4285714285714</ele><time>2026-04-04T12:52:13.508Z</time></trkpt><trkpt lat="44.4823206" lon="7.2806609"><ele>680.1428571428571</ele><time>2026-04-04T12:52:15.508Z</time></trkpt><trkpt lat="44.4823683" lon="7.2805878"><ele>681.8571428571429</ele><time>2026-04-04T12:52:17.507Z</time></trkpt><trkpt lat="44.4824134" lon="7.2805071"><ele>683.5714285714286</ele><time>2026-04-04T12:52:19.507Z</time></trkpt><trkpt lat="44.4824597" lon="7.2804199"><ele>685.2857142857143</ele><time>2026-04-04T12:52:21.508Z</time></trkpt><trkpt lat="44.4824949" lon="7.2803235"><ele>687.0</ele><time>2026-04-04T12:52:23.506Z</time></trkpt><trkpt lat="44.4825393" lon="7.2802284"><ele>687.0</ele><time>2026-04-04T12:52:25.507Z</time></trkpt><trkpt lat="44.4825783" lon="7.2801297"><ele>687.0</ele><time>2026-04-04T12:52:27.508Z</time></trkpt><trkpt lat="44.4826161" lon="7.28003"><ele>687.0</ele><time>2026-04-04T12:52:29.508Z</time></trkpt><trkpt lat="44.4826531" lon="7.2799326"><ele>687.0</ele><time>2026-04-04T12:52:31.508Z</time></trkpt><trkpt lat="44.4826875" lon="7.2798367"><ele>687.0</ele><time>2026-04-04T12:52:33.508Z</time></trkpt><trkpt lat="44.4827201" lon="7.2797449"><ele>687.0</ele><time>2026-04-04T12:52:35.507Z</time></trkpt><trkpt lat="44.4827522" lon="7.2796566"><ele>685.4285714285714</ele><time>2026-04-04T12:52:37.507Z</time></trkpt><trkpt lat="44.4827834" lon="7.2795653"><ele>683.8571428571428</ele><time>2026-04-04T12:52:39.508Z</time></trkpt><trkpt lat="44.4828154" lon="7.2794765"><ele>682.2857142857142</ele><time>2026-04-04T12:52:41.507Z</time></trkpt><trkpt lat="44.4828495" lon="7.279387"><ele>680.7142857142858</ele><time>2026-04-04T12:52:43.508Z</time></trkpt><trkpt lat="44.4828869" lon="7.2792951"><ele>679.1428571428571</ele><time>2026-04-04T12:52:45.507Z</time></trkpt><trkpt lat="44.4829196" lon="7.279202"><ele>677.5714285714286</ele><time>2026-04-04T12:52:47.507Z</time></trkpt><trkpt lat="44.4829512" lon="7.2791121"><ele>676.0</ele><time>2026-04-04T12:52:49.507Z</time></trkpt><trkpt lat="44.4829773" lon="7.279023"><ele>679.2857142857143</ele><time>2026-04-04T12:52:51.508Z</time></trkpt><trkpt lat="44.4830024" lon="7.2789364"><ele>682.5714285714286</ele><time>2026-04-04T12:52:53.508Z</time></trkpt><trkpt lat="44.4830281" lon="7.2788515"><ele>685.8571428571429</ele><time>2026-04-04T12:52:55.507Z</time></trkpt><trkpt lat="44.4830496" lon="7.2787643"><ele>689.1428571428571</ele><time>2026-04-04T12:52:57.507Z</time></trkpt><trkpt lat="44.4830753" lon="7.2786395"><ele>692.4285714285714</ele><time>2026-04-04T12:53:00.508Z</time></trkpt><trkpt lat="44.4830908" lon="7.2785536"><ele>695.7142857142857</ele><time>2026-04-04T12:53:02.508Z</time></trkpt><trkpt lat="44.4831118" lon="7.2784624"><ele>699.0</ele><time>2026-04-04T12:53:04.507Z</time></trkpt><trkpt lat="44.4831303" lon="7.2783742"><ele>699.0</ele><time>2026-04-04T12:53:06.508Z</time></trkpt><trkpt lat="44.4831499" lon="7.2782887"><ele>699.0</ele><time>2026-04-04T12:53:08.507Z</time></trkpt><trkpt lat="44.4831658" lon="7.2782004"><ele>699.0</ele><time>2026-04-04T12:53:10.507Z</time></trkpt><trkpt lat="44.483177" lon="7.2781103"><ele>699.0</ele><time>2026-04-04T12:53:12.508Z</time></trkpt><trkpt lat="44.4832041" lon="7.2779926"><ele>699.0</ele><time>2026-04-04T12:53:15.508Z</time></trkpt><trkpt lat="44.4832339" lon="7.2778833"><ele>699.0</ele><time>2026-04-04T12:53:18.508Z</time></trkpt><trkpt lat="44.4832756" lon="7.2777786"><ele>697.6666666666666</ele><time>2026-04-04T12:53:21.507Z</time></trkpt><trkpt lat="44.4833329" lon="7.277678"><ele>696.3333333333334</ele><time>2026-04-04T12:53:24.507Z</time></trkpt><trkpt lat="44.4834007" lon="7.277596"><ele>695.0</ele><time>2026-04-04T12:53:27.508Z</time></trkpt><trkpt lat="44.4834679" lon="7.2775229"><ele>693.6666666666667</ele><time>2026-04-04T12:53:30.508Z</time></trkpt><trkpt lat="44.4835438" lon="7.2774662"><ele>692.3333333333334</ele><time>2026-04-04T12:53:33.507Z</time></trkpt><trkpt lat="44.4836054" lon="7.2774082"><ele>691.0</ele><time>2026-04-04T12:53:36.507Z</time></trkpt><trkpt lat="44.4836607" lon="7.2773536"><ele>691.0</ele><time>2026-04-04T12:53:39.506Z</time></trkpt><trkpt lat="44.4837202" lon="7.2772943"><ele>691.0</ele><time>2026-04-04T12:53:42.508Z</time></trkpt><trkpt lat="44.483783" lon="7.2772313"><ele>691.0</ele><time>2026-04-04T12:53:45.508Z</time></trkpt><trkpt lat="44.4838394" lon="7.2771576"><ele>691.0</ele><time>2026-04-04T12:53:48.508Z</time></trkpt><trkpt lat="44.4838902" lon="7.2770671"><ele>691.0</ele><time>2026-04-04T12:53:51.508Z</time></trkpt><trkpt lat="44.4839329" lon="7.2769655"><ele>691.0</ele><time>2026-04-04T12:53:54.508Z</time></trkpt><trkpt lat="44.483971" lon="7.2768527"><ele>693.5</ele><time>2026-04-04T12:53:57.508Z</time></trkpt><trkpt lat="44.484008" lon="7.2767335"><ele>696.0</ele><time>2026-04-04T12:54:00.507Z</time></trkpt><trkpt lat="44.4840332" lon="7.2766511"><ele>698.5</ele><time>2026-04-04T12:54:02.507Z</time></trkpt><trkpt lat="44.4840542" lon="7.2765667"><ele>701.0</ele><time>2026-04-04T12:54:04.508Z</time></trkpt><trkpt lat="44.4840756" lon="7.2764829"><ele>703.5</ele><time>2026-04-04T12:54:06.507Z</time></trkpt><trkpt lat="44.4841105" lon="7.2763641"><ele>706.0</ele><time>2026-04-04T12:54:09.508Z</time></trkpt><trkpt lat="44.4841488" lon="7.2762425"><ele>706.0</ele><time>2026-04-04T12:54:12.507Z</time></trkpt><trkpt lat="44.4841738" lon="7.2761613"><ele>706.0</ele><time>2026-04-04T12:54:14.507Z</time></trkpt><trkpt lat="44.4842103" lon="7.2760482"><ele>706.0</ele><time>2026-04-04T12:54:17.508Z</time></trkpt><trkpt lat="44.4842345" lon="7.2759609"><ele>706.0</ele><time>2026-04-04T12:54:19.42Z</time></trkpt><trkpt lat="44.4842739" lon="7.2758444"><ele>706.0</ele><time>2026-04-04T12:54:22.508Z</time></trkpt><trkpt lat="44.4843087" lon="7.2757236"><ele>706.0</ele><time>2026-04-04T12:54:25.508Z</time></trkpt><trkpt lat="44.4843414" lon="7.275608"><ele>705.0</ele><time>2026-04-04T12:54:28.508Z</time></trkpt><trkpt lat="44.484374" lon="7.2754914"><ele>704.0</ele><time>2026-04-04T12:54:31.507Z</time></trkpt><trkpt lat="44.4844046" lon="7.275378"><ele>703.0</ele><time>2026-04-04T12:54:34.508Z</time></trkpt><trkpt lat="44.4844337" lon="7.2752686"><ele>702.0</ele><time>2026-04-04T12:54:37.508Z</time></trkpt><trkpt lat="44.4844588" lon="7.2751569"><ele>701.0</ele><time>2026-04-04T12:54:40.507Z</time></trkpt><trkpt lat="44.4844925" lon="7.2750385"><ele>700.0</ele><time>2026-04-04T12:54:43.507Z</time></trkpt><trkpt lat="44.4845355" lon="7.2749238"><ele>700.0</ele><time>2026-04-04T12:54:46.507Z</time></trkpt><trkpt lat="44.4845734" lon="7.2748043"><ele>700.0</ele><time>2026-04-04T12:54:49.518Z</time></trkpt><trkpt lat="44.484607" lon="7.2746815"><ele>700.0</ele><time>2026-04-04T12:54:52.506Z</time></trkpt><trkpt lat="44.4846299" lon="7.2745907"><ele>700.0</ele><time>2026-04-04T12:54:54.527Z</time></trkpt><trkpt lat="44.4846576" lon="7.2745055"><ele>700.0</ele><time>2026-04-04T12:54:56.506Z</time></trkpt><trkpt lat="44.4846829" lon="7.2744127"><ele>700.0</ele><time>2026-04-04T12:54:58.506Z</time></trkpt><trkpt lat="44.4847093" lon="7.2743177"><ele>702.2857142857143</ele><time>2026-04-04T12:55:00.506Z</time></trkpt><trkpt lat="44.484737" lon="7.2742212"><ele>704.5714285714286</ele><time>2026-04-04T12:55:02.506Z</time></trkpt><trkpt lat="44.4847675" lon="7.274126"><ele>706.8571428571429</ele><time>2026-04-04T12:55:04.54Z</time></trkpt><trkpt lat="44.4848027" lon="7.2739993"><ele>709.1428571428571</ele><time>2026-04-04T12:55:07.467Z</time></trkpt><trkpt lat="44.4848269" lon="7.2739128"><ele>711.4285714285714</ele><time>2026-04-04T12:55:09.505Z</time></trkpt><trkpt lat="44.4848524" lon="7.2738241"><ele>713.7142857142858</ele><time>2026-04-04T12:55:11.506Z</time></trkpt><trkpt lat="44.4848815" lon="7.2737377"><ele>716.0</ele><time>2026-04-04T12:55:13.488Z</time></trkpt><trkpt lat="44.4849052" lon="7.273649"><ele>716.0</ele><time>2026-04-04T12:55:15.507Z</time></trkpt><trkpt lat="44.4849284" lon="7.2735655"><ele>716.0</ele><time>2026-04-04T12:55:17.506Z</time></trkpt><trkpt lat="44.4849569" lon="7.2734595"><ele>716.0</ele><time>2026-04-04T12:55:20.506Z</time></trkpt><trkpt lat="44.4849826" lon="7.2733699"><ele>716.0</ele><time>2026-04-04T12:55:23.505Z</time></trkpt><trkpt lat="44.4850144" lon="7.27326"><ele>716.0</ele><time>2026-04-04T12:55:26.507Z</time></trkpt><trkpt lat="44.485048" lon="7.2731344"><ele>716.0</ele><time>2026-04-04T12:55:29.527Z</time></trkpt><trkpt lat="44.4850712" lon="7.2730512"><ele>716.1428571428572</ele><time>2026-04-04T12:55:31.506Z</time></trkpt><trkpt lat="44.4850972" lon="7.2729644"><ele>716.2857142857143</ele><time>2026-04-04T12:55:33.507Z</time></trkpt><trkpt lat="44.4851205" lon="7.2728763"><ele>716.4285714285714</ele><time>2026-04-04T12:55:35.506Z</time></trkpt><trkpt lat="44.4851409" lon="7.2727848"><ele>716.5714285714287</ele><time>2026-04-04T12:55:37.507Z</time></trkpt><trkpt lat="44.4851685" lon="7.2727007"><ele>716.7142857142857</ele><time>2026-04-04T12:55:39.505Z</time></trkpt><trkpt lat="44.4851981" lon="7.2726165"><ele>716.8571428571429</ele><time>2026-04-04T12:55:41.507Z</time></trkpt><trkpt lat="44.4852203" lon="7.2725319"><ele>717.0</ele><time>2026-04-04T12:55:43.507Z</time></trkpt><trkpt lat="44.4852421" lon="7.2724473"><ele>717.0</ele><time>2026-04-04T12:55:45.465Z</time></trkpt><trkpt lat="44.485269" lon="7.2723675"><ele>717.0</ele><time>2026-04-04T12:55:47.507Z</time></trkpt><trkpt lat="44.4852942" lon="7.2722838"><ele>717.0</ele><time>2026-04-04T12:55:49.507Z</time></trkpt><trkpt lat="44.4853192" lon="7.2722"><ele>717.0</ele><time>2026-04-04T12:55:51.505Z</time></trkpt><trkpt lat="44.4853425" lon="7.272109"><ele>717.0</ele><time>2026-04-04T12:55:53.506Z</time></trkpt><trkpt lat="44.4853709" lon="7.2720199"><ele>717.0</ele><time>2026-04-04T12:55:55.506Z</time></trkpt><trkpt lat="44.4854055" lon="7.2719306"><ele>717.0</ele><time>2026-04-04T12:55:57.506Z</time></trkpt><trkpt lat="44.4854388" lon="7.2718357"><ele>717.3333333333334</ele><time>2026-04-04T12:55:59.506Z</time></trkpt><trkpt lat="44.4854767" lon="7.2717426"><ele>717.6666666666666</ele><time>2026-04-04T12:56:01.507Z</time></trkpt><trkpt lat="44.4855143" lon="7.2716515"><ele>718.0</ele><time>2026-04-04T12:56:03.507Z</time></trkpt><trkpt lat="44.4855557" lon="7.271563"><ele>718.3333333333333</ele><time>2026-04-04T12:56:05.507Z</time></trkpt><trkpt lat="44.4855955" lon="7.2714723"><ele>718.6666666666666</ele><time>2026-04-04T12:56:07.506Z</time></trkpt><trkpt lat="44.4856377" lon="7.2713879"><ele>719.0</ele><time>2026-04-04T12:56:09.506Z</time></trkpt><trkpt lat="44.485677" lon="7.2712994"><ele>718.9999999999999</ele><time>2026-04-04T12:56:11.507Z</time></trkpt><trkpt lat="44.4857125" lon="7.2712129"><ele>719.0</ele><time>2026-04-04T12:56:13.407Z</time></trkpt><trkpt lat="44.4857563" lon="7.2711268"><ele>719.0</ele><time>2026-04-04T12:56:15.505Z</time></trkpt><trkpt lat="44.4857989" lon="7.271042"><ele>719.0</ele><time>2026-04-04T12:56:17.506Z</time></trkpt><trkpt lat="44.4858418" lon="7.270957"><ele>719.0</ele><time>2026-04-04T12:56:19.5Z</time></trkpt><trkpt lat="44.4858783" lon="7.2708702"><ele>718.9999999999999</ele><time>2026-04-04T12:56:21.505Z</time></trkpt><trkpt lat="44.4859198" lon="7.2707852"><ele>719.0</ele><time>2026-04-04T12:56:23.507Z</time></trkpt><trkpt lat="44.4859573" lon="7.2707049"><ele>718.9999999999999</ele><time>2026-04-04T12:56:25.507Z</time></trkpt><trkpt lat="44.4859959" lon="7.2706271"><ele>719.0</ele><time>2026-04-04T12:56:27.507Z</time></trkpt><trkpt lat="44.4860308" lon="7.2705494"><ele>719.0</ele><time>2026-04-04T12:56:29.506Z</time></trkpt><trkpt lat="44.4860659" lon="7.2704729"><ele>719.0</ele><time>2026-04-04T12:56:31.507Z</time></trkpt><trkpt lat="44.4860993" lon="7.2703949"><ele>719.0</ele><time>2026-04-04T12:56:33.506Z</time></trkpt><trkpt lat="44.4861354" lon="7.2703213"><ele>718.9999999999999</ele><time>2026-04-04T12:56:35.507Z</time></trkpt><trkpt lat="44.4861693" lon="7.270246"><ele>719.0</ele><time>2026-04-04T12:56:37.506Z</time></trkpt><trkpt lat="44.4862013" lon="7.2701683"><ele>718.9999999999999</ele><time>2026-04-04T12:56:39.506Z</time></trkpt><trkpt lat="44.4862572" lon="7.2700698"><ele>719.0</ele><time>2026-04-04T12:56:42.507Z</time></trkpt><trkpt lat="44.4863015" lon="7.269989"><ele>719.0</ele><time>2026-04-04T12:56:44.507Z</time></trkpt><trkpt lat="44.4863423" lon="7.2699136"><ele>719.0</ele><time>2026-04-04T12:56:46.447Z</time></trkpt><trkpt lat="44.4863868" lon="7.269841"><ele>719.0</ele><time>2026-04-04T12:56:48.505Z</time></trkpt><trkpt lat="44.4864309" lon="7.2697753"><ele>718.9999999999999</ele><time>2026-04-04T12:56:50.507Z</time></trkpt><trkpt lat="44.4864779" lon="7.2697094"><ele>719.0</ele><time>2026-04-04T12:56:52.529Z</time></trkpt><trkpt lat="44.4865223" lon="7.269646"><ele>720.2857142857142</ele><time>2026-04-04T12:56:54.51Z</time></trkpt><trkpt lat="44.4865887" lon="7.2695589"><ele>721.5714285714286</ele><time>2026-04-04T12:56:57.506Z</time></trkpt><trkpt lat="44.4866365" lon="7.2694974"><ele>722.8571428571429</ele><time>2026-04-04T12:56:59.505Z</time></trkpt><trkpt lat="44.4866909" lon="7.269442"><ele>724.1428571428571</ele><time>2026-04-04T12:57:01.506Z</time></trkpt><trkpt lat="44.4867444" lon="7.2693876"><ele>725.4285714285714</ele><time>2026-04-04T12:57:03.442Z</time></trkpt><trkpt lat="44.4867944" lon="7.2693267"><ele>726.7142857142857</ele><time>2026-04-04T12:57:05.506Z</time></trkpt><trkpt lat="44.4868645" lon="7.2692407"><ele>728.0</ele><time>2026-04-04T12:57:08.507Z</time></trkpt><trkpt lat="44.4869209" lon="7.2691511"><ele>728.0</ele><time>2026-04-04T12:57:11.507Z</time></trkpt><trkpt lat="44.4869521" lon="7.2690306"><ele>728.0</ele><time>2026-04-04T12:57:14.507Z</time></trkpt><trkpt lat="44.4869571" lon="7.2688986"><ele>728.0</ele><time>2026-04-04T12:57:17.506Z</time></trkpt><trkpt lat="44.4869606" lon="7.2688087"><ele>728.0</ele><time>2026-04-04T12:57:19.507Z</time></trkpt><trkpt lat="44.4869691" lon="7.2687191"><ele>728.0</ele><time>2026-04-04T12:57:21.507Z</time></trkpt><trkpt lat="44.4869769" lon="7.2685977"><ele>728.0</ele><time>2026-04-04T12:57:24.505Z</time></trkpt><trkpt lat="44.4869942" lon="7.2684764"><ele>728.2</ele><time>2026-04-04T12:57:27.506Z</time></trkpt><trkpt lat="44.4870059" lon="7.2683485"><ele>728.4</ele><time>2026-04-04T12:57:30.507Z</time></trkpt><trkpt lat="44.4870125" lon="7.2682192"><ele>728.6</ele><time>2026-04-04T12:57:33.507Z</time></trkpt><trkpt lat="44.4870155" lon="7.2680905"><ele>728.8000000000001</ele><time>2026-04-04T12:57:36.505Z</time></trkpt><trkpt lat="44.4870144" lon="7.2679629"><ele>729.0</ele><time>2026-04-04T12:57:39.507Z</time></trkpt><trkpt lat="44.4870077" lon="7.2678332"><ele>729.0</ele><time>2026-04-04T12:57:42.507Z</time></trkpt><trkpt lat="44.4869994" lon="7.2677453"><ele>729.0</ele><time>2026-04-04T12:57:44.506Z</time></trkpt><trkpt lat="44.4869969" lon="7.2676546"><ele>729.0</ele><time>2026-04-04T12:57:46.507Z</time></trkpt><trkpt lat="44.4869935" lon="7.2675639"><ele>729.0</ele><time>2026-04-04T12:57:48.507Z</time></trkpt><trkpt lat="44.4869882" lon="7.2674736"><ele>729.0</ele><time>2026-04-04T12:57:50.507Z</time></trkpt><trkpt lat="44.4869818" lon="7.2673761"><ele>729.0</ele><time>2026-04-04T12:57:52.507Z</time></trkpt><trkpt lat="44.4869757" lon="7.267275"><ele>729.0</ele><time>2026-04-04T12:57:54.507Z</time></trkpt><trkpt lat="44.4869681" lon="7.2671802"><ele>728.6666666666666</ele><time>2026-04-04T12:57:56.505Z</time></trkpt><trkpt lat="44.4869616" lon="7.2670912"><ele>728.3333333333334</ele><time>2026-04-04T12:57:58.506Z</time></trkpt><trkpt lat="44.4869577" lon="7.2670009"><ele>728.0</ele><time>2026-04-04T12:58:00.506Z</time></trkpt><trkpt lat="44.4869554" lon="7.2669102"><ele>727.6666666666667</ele><time>2026-04-04T12:58:02.507Z</time></trkpt><trkpt lat="44.4869531" lon="7.266779"><ele>727.3333333333334</ele><time>2026-04-04T12:58:05.506Z</time></trkpt><trkpt lat="44.4869729" lon="7.2666533"><ele>727.0</ele><time>2026-04-04T12:58:08.507Z</time></trkpt><trkpt lat="44.4869948" lon="7.2665275"><ele>728.8571428571428</ele><time>2026-04-04T12:58:11.507Z</time></trkpt><trkpt lat="44.4870121" lon="7.2664415"><ele>730.7142857142858</ele><time>2026-04-04T12:58:13.506Z</time></trkpt><trkpt lat="44.4870314" lon="7.2663552"><ele>732.5714285714286</ele><time>2026-04-04T12:58:15.506Z</time></trkpt><trkpt lat="44.4870478" lon="7.2662689"><ele>734.4285714285713</ele><time>2026-04-04T12:58:17.506Z</time></trkpt><trkpt lat="44.4870744" lon="7.2661869"><ele>736.2857142857142</ele><time>2026-04-04T12:58:19.506Z</time></trkpt><trkpt lat="44.4871089" lon="7.2661116"><ele>738.1428571428571</ele><time>2026-04-04T12:58:21.506Z</time></trkpt><trkpt lat="44.4871493" lon="7.2660421"><ele>740.0</ele><time>2026-04-04T12:58:23.506Z</time></trkpt><trkpt lat="44.4872144" lon="7.2659547"><ele>739.9999999999999</ele><time>2026-04-04T12:58:26.505Z</time></trkpt><trkpt lat="44.4872892" lon="7.2658774"><ele>740.0</ele><time>2026-04-04T12:58:29.506Z</time></trkpt><trkpt lat="44.4873524" lon="7.2658214"><ele>740.0</ele><time>2026-04-04T12:58:31.506Z</time></trkpt><trkpt lat="44.4874044" lon="7.2657664"><ele>740.0</ele><time>2026-04-04T12:58:33.505Z</time></trkpt><trkpt lat="44.487451" lon="7.2657069"><ele>740.0</ele><time>2026-04-04T12:58:35.506Z</time></trkpt><trkpt lat="44.4874971" lon="7.2656437"><ele>739.9999999999999</ele><time>2026-04-04T12:58:37.506Z</time></trkpt><trkpt lat="44.4875411" lon="7.2655799"><ele>740.0</ele><time>2026-04-04T12:58:39.505Z</time></trkpt><trkpt lat="44.4875858" lon="7.2655171"><ele>737.7142857142857</ele><time>2026-04-04T12:58:41.506Z</time></trkpt><trkpt lat="44.487626" lon="7.2654435"><ele>735.4285714285714</ele><time>2026-04-04T12:58:43.505Z</time></trkpt><trkpt lat="44.4876566" lon="7.2653579"><ele>733.1428571428571</ele><time>2026-04-04T12:58:45.506Z</time></trkpt><trkpt lat="44.4876791" lon="7.2652712"><ele>730.8571428571429</ele><time>2026-04-04T12:58:47.504Z</time></trkpt><trkpt lat="44.4876966" lon="7.2651839"><ele>728.5714285714286</ele><time>2026-04-04T12:58:49.506Z</time></trkpt><trkpt lat="44.4877129" lon="7.2650943"><ele>726.2857142857142</ele><time>2026-04-04T12:58:51.458Z</time></trkpt><trkpt lat="44.4877353" lon="7.2650041"><ele>724.0</ele><time>2026-04-04T12:58:53.506Z</time></trkpt><trkpt lat="44.4877573" lon="7.2649148"><ele>724.0</ele><time>2026-04-04T12:58:55.506Z</time></trkpt><trkpt lat="44.4877803" lon="7.2648244"><ele>724.0</ele><time>2026-04-04T12:58:57.505Z</time></trkpt><trkpt lat="44.4878059" lon="7.2647302"><ele>724.0</ele><time>2026-04-04T12:58:59.506Z</time></trkpt><trkpt lat="44.4878322" lon="7.2646352"><ele>724.0</ele><time>2026-04-04T12:59:01.505Z</time></trkpt><trkpt lat="44.4878565" lon="7.264537"><ele>724.0</ele><time>2026-04-04T12:59:03.506Z</time></trkpt><trkpt lat="44.4878821" lon="7.2644363"><ele>724.0</ele><time>2026-04-04T12:59:05.505Z</time></trkpt><trkpt lat="44.4879078" lon="7.2643357"><ele>724.0</ele><time>2026-04-04T12:59:07.505Z</time></trkpt><trkpt lat="44.4879331" lon="7.2642345"><ele>726.5714285714286</ele><time>2026-04-04T12:59:09.506Z</time></trkpt><trkpt lat="44.4879608" lon="7.2641341"><ele>729.1428571428571</ele><time>2026-04-04T12:59:11.506Z</time></trkpt><trkpt lat="44.4879831" lon="7.2640307"><ele>731.7142857142858</ele><time>2026-04-04T12:59:13.505Z</time></trkpt><trkpt lat="44.4880094" lon="7.2639373"><ele>734.2857142857142</ele><time>2026-04-04T12:59:15.409Z</time></trkpt><trkpt lat="44.488039" lon="7.2638493"><ele>736.8571428571429</ele><time>2026-04-04T12:59:17.466Z</time></trkpt><trkpt lat="44.4880645" lon="7.263765"><ele>739.4285714285714</ele><time>2026-04-04T12:59:19.505Z</time></trkpt><trkpt lat="44.4880871" lon="7.2636758"><ele>742.0</ele><time>2026-04-04T12:59:21.506Z</time></trkpt><trkpt lat="44.4881077" lon="7.2635812"><ele>742.0</ele><time>2026-04-04T12:59:23.506Z</time></trkpt><trkpt lat="44.488132" lon="7.2634837"><ele>742.0</ele><time>2026-04-04T12:59:25.511Z</time></trkpt><trkpt lat="44.4881606" lon="7.2633909"><ele>742.0</ele><time>2026-04-04T12:59:27.506Z</time></trkpt><trkpt lat="44.4881891" lon="7.2632999"><ele>742.0</ele><time>2026-04-04T12:59:29.506Z</time></trkpt><trkpt lat="44.4882158" lon="7.2632106"><ele>742.0</ele><time>2026-04-04T12:59:31.506Z</time></trkpt><trkpt lat="44.4882437" lon="7.2631171"><ele>742.0</ele><time>2026-04-04T12:59:34.505Z</time></trkpt><trkpt lat="44.4882629" lon="7.2630168"><ele>742.0</ele><time>2026-04-04T12:59:37.506Z</time></trkpt><trkpt lat="44.4882919" lon="7.2628901"><ele>741.2857142857143</ele><time>2026-04-04T12:59:40.504Z</time></trkpt><trkpt lat="44.4883156" lon="7.2628013"><ele>740.5714285714286</ele><time>2026-04-04T12:59:42.505Z</time></trkpt><trkpt lat="44.4883431" lon="7.2627078"><ele>739.8571428571429</ele><time>2026-04-04T12:59:44.506Z</time></trkpt><trkpt lat="44.4883699" lon="7.2626096"><ele>739.1428571428571</ele><time>2026-04-04T12:59:46.505Z</time></trkpt><trkpt lat="44.4883953" lon="7.2625089"><ele>738.4285714285714</ele><time>2026-04-04T12:59:48.504Z</time></trkpt><trkpt lat="44.4884223" lon="7.2624093"><ele>737.7142857142858</ele><time>2026-04-04T12:59:50.505Z</time></trkpt><trkpt lat="44.4884484" lon="7.2623071"><ele>737.0</ele><time>2026-04-04T12:59:52.505Z</time></trkpt><trkpt lat="44.4884758" lon="7.2622058"><ele>737.0</ele><time>2026-04-04T12:59:54.506Z</time></trkpt><trkpt lat="44.4884995" lon="7.2621031"><ele>737.0</ele><time>2026-04-04T12:59:56.506Z</time></trkpt><trkpt lat="44.4885205" lon="7.2620012"><ele>737.0</ele><time>2026-04-04T12:59:58.506Z</time></trkpt><trkpt lat="44.4885371" lon="7.2618953"><ele>737.0</ele><time>2026-04-04T13:00:00.505Z</time></trkpt><trkpt lat="44.488547" lon="7.2617891"><ele>737.0</ele><time>2026-04-04T13:00:02.506Z</time></trkpt><trkpt lat="44.4885559" lon="7.2616715"><ele>737.0</ele><time>2026-04-04T13:00:04.505Z</time></trkpt><trkpt lat="44.4885577" lon="7.2615661"><ele>737.0</ele><time>2026-04-04T13:00:06.506Z</time></trkpt><trkpt lat="44.4885575" lon="7.2614661"><ele>737.0</ele><time>2026-04-04T13:00:08.505Z</time></trkpt><trkpt lat="44.4885552" lon="7.2613771"><ele>737.0</ele><time>2026-04-04T13:00:10.506Z</time></trkpt><trkpt lat="44.4885414" lon="7.2612549"><ele>737.0</ele><time>2026-04-04T13:00:13.506Z</time></trkpt><trkpt lat="44.488523" lon="7.2611326"><ele>737.0</ele><time>2026-04-04T13:00:16.505Z</time></trkpt><trkpt lat="44.4885016" lon="7.2610385"><ele>737.0</ele><time>2026-04-04T13:00:18.505Z</time></trkpt><trkpt lat="44.4884776" lon="7.2609302"><ele>737.8333333333333</ele><time>2026-04-04T13:00:20.506Z</time></trkpt><trkpt lat="44.4884507" lon="7.2608312"><ele>738.6666666666666</ele><time>2026-04-04T13:00:22.506Z</time></trkpt><trkpt lat="44.4884286" lon="7.2607296"><ele>739.5</ele><time>2026-04-04T13:00:24.506Z</time></trkpt><trkpt lat="44.4884077" lon="7.2606304"><ele>740.3333333333334</ele><time>2026-04-04T13:00:26.446Z</time></trkpt><trkpt lat="44.488385" lon="7.2605269"><ele>741.1666666666667</ele><time>2026-04-04T13:00:28.506Z</time></trkpt><trkpt lat="44.4883637" lon="7.2604224"><ele>742.0</ele><time>2026-04-04T13:00:30.505Z</time></trkpt><trkpt lat="44.4883433" lon="7.2603188"><ele>743.1666666666667</ele><time>2026-04-04T13:00:32.506Z</time></trkpt><trkpt lat="44.4883187" lon="7.2602162"><ele>744.3333333333334</ele><time>2026-04-04T13:00:34.506Z</time></trkpt><trkpt lat="44.4882956" lon="7.2601125"><ele>745.5</ele><time>2026-04-04T13:00:36.504Z</time></trkpt><trkpt lat="44.4882724" lon="7.2600101"><ele>746.6666666666666</ele><time>2026-04-04T13:00:38.505Z</time></trkpt><trkpt lat="44.4882465" lon="7.2599064"><ele>747.8333333333333</ele><time>2026-04-04T13:00:40.506Z</time></trkpt><trkpt lat="44.4882274" lon="7.2597996"><ele>749.0</ele><time>2026-04-04T13:00:42.505Z</time></trkpt><trkpt lat="44.4882033" lon="7.2596981"><ele>749.1666666666666</ele><time>2026-04-04T13:00:44.423Z</time></trkpt><trkpt lat="44.4881728" lon="7.2595875"><ele>749.3333333333333</ele><time>2026-04-04T13:00:46.506Z</time></trkpt><trkpt lat="44.4881489" lon="7.2594784"><ele>749.5</ele><time>2026-04-04T13:00:48.505Z</time></trkpt><trkpt lat="44.4881247" lon="7.259366"><ele>749.6666666666666</ele><time>2026-04-04T13:00:50.486Z</time></trkpt><trkpt lat="44.4880994" lon="7.2592472"><ele>749.8333333333334</ele><time>2026-04-04T13:00:52.506Z</time></trkpt><trkpt lat="44.4880721" lon="7.2591353"><ele>750.0</ele><time>2026-04-04T13:00:54.506Z</time></trkpt><trkpt lat="44.4880502" lon="7.259031"><ele>749.8571428571429</ele><time>2026-04-04T13:00:56.505Z</time></trkpt><trkpt lat="44.4880269" lon="7.2589328"><ele>749.7142857142857</ele><time>2026-04-04T13:00:58.506Z</time></trkpt><trkpt lat="44.4880084" lon="7.2588425"><ele>749.5714285714286</ele><time>2026-04-04T13:01:00.505Z</time></trkpt><trkpt lat="44.4879828" lon="7.2587294"><ele>749.4285714285714</ele><time>2026-04-04T13:01:03.506Z</time></trkpt><trkpt lat="44.487965" lon="7.2586351"><ele>749.2857142857142</ele><time>2026-04-04T13:01:05.505Z</time></trkpt><trkpt lat="44.4879433" lon="7.2585403"><ele>749.1428571428571</ele><time>2026-04-04T13:01:07.506Z</time></trkpt><trkpt lat="44.4879214" lon="7.2584446"><ele>749.0</ele><time>2026-04-04T13:01:09.506Z</time></trkpt><trkpt lat="44.4879" lon="7.2583455"><ele>748.6666666666666</ele><time>2026-04-04T13:01:11.505Z</time></trkpt><trkpt lat="44.4878799" lon="7.2582469"><ele>748.3333333333333</ele><time>2026-04-04T13:01:13.505Z</time></trkpt><trkpt lat="44.4878648" lon="7.2581517"><ele>748.0</ele><time>2026-04-04T13:01:15.506Z</time></trkpt><trkpt lat="44.4878526" lon="7.2580285"><ele>747.6666666666666</ele><time>2026-04-04T13:01:18.506Z</time></trkpt><trkpt lat="44.4878631" lon="7.2579174"><ele>747.3333333333334</ele><time>2026-04-04T13:01:21.506Z</time></trkpt><trkpt lat="44.4878836" lon="7.2577894"><ele>747.0</ele><time>2026-04-04T13:01:24.506Z</time></trkpt><trkpt lat="44.4879028" lon="7.2576974"><ele>747.5714285714286</ele><time>2026-04-04T13:01:26.505Z</time></trkpt><trkpt lat="44.4879296" lon="7.2576075"><ele>748.1428571428571</ele><time>2026-04-04T13:01:28.505Z</time></trkpt><trkpt lat="44.4879586" lon="7.2575121"><ele>748.7142857142858</ele><time>2026-04-04T13:01:30.506Z</time></trkpt><trkpt lat="44.4879899" lon="7.2574182"><ele>749.2857142857142</ele><time>2026-04-04T13:01:32.504Z</time></trkpt><trkpt lat="44.4880241" lon="7.2573261"><ele>749.8571428571429</ele><time>2026-04-04T13:01:34.504Z</time></trkpt><trkpt lat="44.4880503" lon="7.2572311"><ele>750.4285714285714</ele><time>2026-04-04T13:01:36.504Z</time></trkpt><trkpt lat="44.4880815" lon="7.2571429"><ele>751.0</ele><time>2026-04-04T13:01:38.504Z</time></trkpt><trkpt lat="44.4881124" lon="7.2570573"><ele>751.4285714285714</ele><time>2026-04-04T13:01:40.505Z</time></trkpt><trkpt lat="44.4881349" lon="7.2569722"><ele>751.8571428571429</ele><time>2026-04-04T13:01:42.504Z</time></trkpt><trkpt lat="44.4881581" lon="7.2568871"><ele>752.2857142857142</ele><time>2026-04-04T13:01:44.503Z</time></trkpt><trkpt lat="44.4881831" lon="7.256804"><ele>752.7142857142858</ele><time>2026-04-04T13:01:46.505Z</time></trkpt><trkpt lat="44.4882061" lon="7.2567171"><ele>753.1428571428571</ele><time>2026-04-04T13:01:48.505Z</time></trkpt><trkpt lat="44.4882314" lon="7.2566296"><ele>753.5714285714286</ele><time>2026-04-04T13:01:50.504Z</time></trkpt><trkpt lat="44.4882592" lon="7.256545"><ele>754.0</ele><time>2026-04-04T13:01:52.505Z</time></trkpt><trkpt lat="44.4882863" lon="7.25646"><ele>754.3333333333334</ele><time>2026-04-04T13:01:54.505Z</time></trkpt><trkpt lat="44.4883127" lon="7.2563741"><ele>754.6666666666667</ele><time>2026-04-04T13:01:56.505Z</time></trkpt><trkpt lat="44.4883423" lon="7.256294"><ele>755.0</ele><time>2026-04-04T13:01:58.505Z</time></trkpt><trkpt lat="44.4883801" lon="7.25618"><ele>755.3333333333334</ele><time>2026-04-04T13:02:01.505Z</time></trkpt><trkpt lat="44.4884147" lon="7.2560825"><ele>755.6666666666666</ele><time>2026-04-04T13:02:04.503Z</time></trkpt><trkpt lat="44.4884551" lon="7.2559846"><ele>756.0</ele><time>2026-04-04T13:02:07.504Z</time></trkpt><trkpt lat="44.4884936" lon="7.2558828"><ele>756.0</ele><time>2026-04-04T13:02:10.504Z</time></trkpt><trkpt lat="44.4885341" lon="7.2557815"><ele>756.0</ele><time>2026-04-04T13:02:13.505Z</time></trkpt><trkpt lat="44.4885734" lon="7.2556751"><ele>756.0</ele><time>2026-04-04T13:02:16.505Z</time></trkpt><trkpt lat="44.4886137" lon="7.2555746"><ele>756.0</ele><time>2026-04-04T13:02:19.505Z</time></trkpt><trkpt lat="44.4886518" lon="7.2554889"><ele>756.0</ele><time>2026-04-04T13:02:22.505Z</time></trkpt><trkpt lat="44.4886932" lon="7.2554047"><ele>756.0</ele><time>2026-04-04T13:02:25.505Z</time></trkpt><trkpt lat="44.4887394" lon="7.2553097"><ele>756.1666666666666</ele><time>2026-04-04T13:02:28.504Z</time></trkpt><trkpt lat="44.4887916" lon="7.2552156"><ele>756.3333333333334</ele><time>2026-04-04T13:02:31.505Z</time></trkpt><trkpt lat="44.4888445" lon="7.2551232"><ele>756.5</ele><time>2026-04-04T13:02:34.504Z</time></trkpt><trkpt lat="44.4889072" lon="7.255039"><ele>756.6666666666667</ele><time>2026-04-04T13:02:37.504Z</time></trkpt><trkpt lat="44.4889607" lon="7.2549854"><ele>756.8333333333334</ele><time>2026-04-04T13:02:40.504Z</time></trkpt><trkpt lat="44.4890152" lon="7.2549155"><ele>757.0</ele><time>2026-04-04T13:02:43.505Z</time></trkpt><trkpt lat="44.4890706" lon="7.2548387"><ele>755.4285714285714</ele><time>2026-04-04T13:02:46.504Z</time></trkpt><trkpt lat="44.4891252" lon="7.2547789"><ele>753.8571428571428</ele><time>2026-04-04T13:02:49.504Z</time></trkpt><trkpt lat="44.4891917" lon="7.2547108"><ele>752.2857142857142</ele><time>2026-04-04T13:02:52.504Z</time></trkpt><trkpt lat="44.489247" lon="7.2546453"><ele>750.7142857142858</ele><time>2026-04-04T13:02:55.504Z</time></trkpt><trkpt lat="44.4892952" lon="7.2545879"><ele>749.1428571428571</ele><time>2026-04-04T13:02:58.505Z</time></trkpt><trkpt lat="44.4893516" lon="7.2545238"><ele>747.5714285714286</ele><time>2026-04-04T13:03:01.505Z</time></trkpt><trkpt lat="44.4894002" lon="7.2544577"><ele>746.0</ele><time>2026-04-04T13:03:04.504Z</time></trkpt><trkpt lat="44.4894499" lon="7.2544021"><ele>746.0</ele><time>2026-04-04T13:03:07.504Z</time></trkpt><trkpt lat="44.4895173" lon="7.2543408"><ele>746.0</ele><time>2026-04-04T13:03:10.505Z</time></trkpt><trkpt lat="44.4895782" lon="7.2542779"><ele>746.0</ele><time>2026-04-04T13:03:13.504Z</time></trkpt><trkpt lat="44.4896326" lon="7.254208"><ele>746.0</ele><time>2026-04-04T13:03:16.505Z</time></trkpt><trkpt lat="44.4896852" lon="7.2541421"><ele>746.0</ele><time>2026-04-04T13:03:19.505Z</time></trkpt><trkpt lat="44.4897336" lon="7.2540697"><ele>746.0</ele><time>2026-04-04T13:03:22.504Z</time></trkpt><trkpt lat="44.4897786" lon="7.2539821"><ele>746.0</ele><time>2026-04-04T13:03:25.505Z</time></trkpt><trkpt lat="44.4898276" lon="7.2539041"><ele>747.2857142857143</ele><time>2026-04-04T13:03:28.504Z</time></trkpt><trkpt lat="44.4898792" lon="7.2538429"><ele>748.5714285714287</ele><time>2026-04-04T13:03:31.504Z</time></trkpt><trkpt lat="44.4899368" lon="7.2537981"><ele>749.8571428571429</ele><time>2026-04-04T13:03:34.505Z</time></trkpt><trkpt lat="44.4899945" lon="7.2537561"><ele>751.1428571428571</ele><time>2026-04-04T13:03:37.504Z</time></trkpt><trkpt lat="44.4900543" lon="7.2537148"><ele>752.4285714285714</ele><time>2026-04-04T13:03:40.505Z</time></trkpt><trkpt lat="44.4901231" lon="7.2536945"><ele>753.7142857142857</ele><time>2026-04-04T13:03:43.505Z</time></trkpt><trkpt lat="44.4901963" lon="7.2536912"><ele>755.0</ele><time>2026-04-04T13:03:46.505Z</time></trkpt><trkpt lat="44.4902667" lon="7.2536988"><ele>755.0</ele><time>2026-04-04T13:03:49.505Z</time></trkpt><trkpt lat="44.4903445" lon="7.2537326"><ele>755.0</ele><time>2026-04-04T13:03:53.505Z</time></trkpt><trkpt lat="44.4904179" lon="7.2537569"><ele>755.0</ele><time>2026-04-04T13:03:57.505Z</time></trkpt><trkpt lat="44.4904865" lon="7.2537374"><ele>755.0</ele><time>2026-04-04T13:04:01.504Z</time></trkpt><trkpt lat="44.4905376" lon="7.2536852"><ele>755.0</ele><time>2026-04-04T13:04:04.504Z</time></trkpt><trkpt lat="44.490595" lon="7.2536268"><ele>755.0</ele><time>2026-04-04T13:04:07.505Z</time></trkpt><trkpt lat="44.4906512" lon="7.2535686"><ele>755.0</ele><time>2026-04-04T13:04:10.504Z</time></trkpt><trkpt lat="44.4907127" lon="7.2535157"><ele>757.1428571428571</ele><time>2026-04-04T13:04:13.504Z</time></trkpt><trkpt lat="44.4907753" lon="7.2534762"><ele>759.2857142857143</ele><time>2026-04-04T13:04:16.503Z</time></trkpt><trkpt lat="44.4908385" lon="7.2534283"><ele>761.4285714285714</ele><time>2026-04-04T13:04:19.505Z</time></trkpt><trkpt lat="44.4909021" lon="7.253374"><ele>763.5714285714286</ele><time>2026-04-04T13:04:22.505Z</time></trkpt><trkpt lat="44.4909623" lon="7.2533158"><ele>765.7142857142858</ele><time>2026-04-04T13:04:25.505Z</time></trkpt><trkpt lat="44.4910202" lon="7.25326"><ele>767.8571428571429</ele><time>2026-04-04T13:04:28.503Z</time></trkpt><trkpt lat="44.4910795" lon="7.2532127"><ele>770.0</ele><time>2026-04-04T13:04:31.504Z</time></trkpt><trkpt lat="44.4911367" lon="7.2531557"><ele>770.1428571428571</ele><time>2026-04-04T13:04:34.505Z</time></trkpt><trkpt lat="44.4911971" lon="7.2531031"><ele>770.2857142857142</ele><time>2026-04-04T13:04:37.504Z</time></trkpt><trkpt lat="44.4912575" lon="7.2530482"><ele>770.4285714285714</ele><time>2026-04-04T13:04:40.505Z</time></trkpt><trkpt lat="44.4913191" lon="7.2529984"><ele>770.5714285714286</ele><time>2026-04-04T13:04:43.505Z</time></trkpt><trkpt lat="44.4913781" lon="7.2529397"><ele>770.7142857142857</ele><time>2026-04-04T13:04:46.505Z</time></trkpt><trkpt lat="44.4914305" lon="7.2528767"><ele>770.8571428571429</ele><time>2026-04-04T13:04:49.505Z</time></trkpt><trkpt lat="44.4914927" lon="7.2528273"><ele>771.0</ele><time>2026-04-04T13:04:52.503Z</time></trkpt><trkpt lat="44.4915564" lon="7.2527885"><ele>771.0</ele><time>2026-04-04T13:04:55.503Z</time></trkpt><trkpt lat="44.4916301" lon="7.2527727"><ele>771.0</ele><time>2026-04-04T13:04:58.503Z</time></trkpt><trkpt lat="44.4917047" lon="7.2527523"><ele>771.0</ele><time>2026-04-04T13:05:01.504Z</time></trkpt><trkpt lat="44.4917805" lon="7.2527703"><ele>771.0</ele><time>2026-04-04T13:05:04.504Z</time></trkpt><trkpt lat="44.4918469" lon="7.2527731"><ele>771.0</ele><time>2026-04-04T13:05:07.504Z</time></trkpt><trkpt lat="44.4919167" lon="7.2527628"><ele>771.0</ele><time>2026-04-04T13:05:10.504Z</time></trkpt><trkpt lat="44.4919843" lon="7.2527376"><ele>771.0</ele><time>2026-04-04T13:05:13.503Z</time></trkpt><trkpt lat="44.492049" lon="7.2526999"><ele>773.7142857142858</ele><time>2026-04-04T13:05:16.504Z</time></trkpt><trkpt lat="44.4921085" lon="7.2526632"><ele>776.4285714285713</ele><time>2026-04-04T13:05:19.503Z</time></trkpt><trkpt lat="44.4921684" lon="7.2526178"><ele>779.1428571428571</ele><time>2026-04-04T13:05:22.504Z</time></trkpt><trkpt lat="44.4922403" lon="7.2525724"><ele>781.8571428571429</ele><time>2026-04-04T13:08:07.503Z</time></trkpt><trkpt lat="44.4923122" lon="7.2525249"><ele>784.5714285714287</ele><time>2026-04-04T13:08:11.503Z</time></trkpt><trkpt lat="44.4923839" lon="7.2524699"><ele>787.2857142857142</ele><time>2026-04-04T13:08:15.502Z</time></trkpt><trkpt lat="44.4924526" lon="7.2524274"><ele>790.0</ele><time>2026-04-04T13:08:19.502Z</time></trkpt><trkpt lat="44.4925245" lon="7.2524224"><ele>789.9999999999999</ele><time>2026-04-04T13:08:23.503Z</time></trkpt><trkpt lat="44.4925566" lon="7.2525026"><ele>790.0</ele><time>2026-04-04T13:08:26.502Z</time></trkpt><trkpt lat="44.4924966" lon="7.2525788"><ele>790.0</ele><time>2026-04-04T13:08:29.502Z</time></trkpt><trkpt lat="44.4924275" lon="7.2526259"><ele>790.0</ele><time>2026-04-04T13:08:32.502Z</time></trkpt><trkpt lat="44.4923597" lon="7.2526765"><ele>789.9999999999999</ele><time>2026-04-04T13:08:35.502Z</time></trkpt><trkpt lat="44.4922816" lon="7.2527556"><ele>790.0</ele><time>2026-04-04T13:08:38.503Z</time></trkpt><trkpt lat="44.492228" lon="7.2528058"><ele>790.0</ele><time>2026-04-04T13:08:40.503Z</time></trkpt><trkpt lat="44.4921798" lon="7.2528627"><ele>790.0</ele><time>2026-04-04T13:08:42.502Z</time></trkpt><trkpt lat="44.4921131" lon="7.2529378"><ele>790.0</ele><time>2026-04-04T13:08:45.502Z</time></trkpt><trkpt lat="44.4920589" lon="7.2529982"><ele>790.0</ele><time>2026-04-04T13:08:48.503Z</time></trkpt><trkpt lat="44.4920151" lon="7.253077"><ele>790.0</ele><time>2026-04-04T13:08:51.503Z</time></trkpt><trkpt lat="44.4919832" lon="7.2531766"><ele>790.0</ele><time>2026-04-04T13:08:54.501Z</time></trkpt><trkpt lat="44.4919554" lon="7.2532827"><ele>790.0</ele><time>2026-04-04T13:08:57.503Z</time></trkpt><trkpt lat="44.4919381" lon="7.2533965"><ele>791.3333333333333</ele><time>2026-04-04T13:09:00.503Z</time></trkpt><trkpt lat="44.491898" lon="7.2534849"><ele>792.6666666666666</ele><time>2026-04-04T13:09:03.502Z</time></trkpt><trkpt lat="44.4918513" lon="7.2535583"><ele>794.0</ele><time>2026-04-04T13:09:06.503Z</time></trkpt><trkpt lat="44.4917959" lon="7.2536334"><ele>795.3333333333333</ele><time>2026-04-04T13:09:09.502Z</time></trkpt><trkpt lat="44.4917326" lon="7.2537006"><ele>796.6666666666666</ele><time>2026-04-04T13:09:12.503Z</time></trkpt><trkpt lat="44.4916745" lon="7.2537681"><ele>798.0</ele><time>2026-04-04T13:09:15.503Z</time></trkpt><trkpt lat="44.4916045" lon="7.2538202"><ele>798.0</ele><time>2026-04-04T13:09:18.503Z</time></trkpt><trkpt lat="44.4915402" lon="7.2538477"><ele>798.0</ele><time>2026-04-04T13:09:21.503Z</time></trkpt><trkpt lat="44.4914736" lon="7.2538917"><ele>798.0</ele><time>2026-04-04T13:09:24.502Z</time></trkpt><trkpt lat="44.4914286" lon="7.2539828"><ele>798.0</ele><time>2026-04-04T13:09:27.502Z</time></trkpt><trkpt lat="44.4913898" lon="7.2540783"><ele>798.0</ele><time>2026-04-04T13:09:30.501Z</time></trkpt><trkpt lat="44.491348" lon="7.2541749"><ele>798.0</ele><time>2026-04-04T13:09:33.502Z</time></trkpt><trkpt lat="44.4913007" lon="7.2542641"><ele>798.3333333333334</ele><time>2026-04-04T13:09:36.503Z</time></trkpt><trkpt lat="44.4912555" lon="7.2543615"><ele>798.6666666666667</ele><time>2026-04-04T13:09:39.502Z</time></trkpt><trkpt lat="44.491208" lon="7.2544518"><ele>799.0</ele><time>2026-04-04T13:09:42.502Z</time></trkpt><trkpt lat="44.4911654" lon="7.2545446"><ele>799.3333333333334</ele><time>2026-04-04T13:09:45.502Z</time></trkpt><trkpt lat="44.4911322" lon="7.2546432"><ele>799.6666666666667</ele><time>2026-04-04T13:09:48.502Z</time></trkpt><trkpt lat="44.4911006" lon="7.2547385"><ele>800.0</ele><time>2026-04-04T13:09:51.502Z</time></trkpt><trkpt lat="44.4910719" lon="7.2548366"><ele>800.0000000000001</ele><time>2026-04-04T13:09:54.503Z</time></trkpt><trkpt lat="44.4910397" lon="7.2549287"><ele>800.0</ele><time>2026-04-04T13:09:57.502Z</time></trkpt><trkpt lat="44.4910241" lon="7.2550279"><ele>800.0</ele><time>2026-04-04T13:10:00.503Z</time></trkpt><trkpt lat="44.4910189" lon="7.2551294"><ele>800.0</ele><time>2026-04-04T13:10:03.503Z</time></trkpt><trkpt lat="44.4910279" lon="7.2552383"><ele>800.0000000000001</ele><time>2026-04-04T13:10:06.503Z</time></trkpt><trkpt lat="44.4910367" lon="7.2553469"><ele>800.0</ele><time>2026-04-04T13:10:09.503Z</time></trkpt><trkpt lat="44.4910586" lon="7.2554506"><ele>800.0000000000001</ele><time>2026-04-04T13:10:12.503Z</time></trkpt><trkpt lat="44.4910956" lon="7.2555469"><ele>800.0</ele><time>2026-04-04T13:10:15.503Z</time></trkpt><trkpt lat="44.4911337" lon="7.2556306"><ele>800.0</ele><time>2026-04-04T13:10:18.501Z</time></trkpt><trkpt lat="44.4911698" lon="7.2557105"><ele>800.0</ele><time>2026-04-04T13:10:21.503Z</time></trkpt><trkpt lat="44.4911861" lon="7.2558104"><ele>800.0</ele><time>2026-04-04T13:10:24.503Z</time></trkpt><trkpt lat="44.4912046" lon="7.2559114"><ele>800.0000000000001</ele><time>2026-04-04T13:10:27.502Z</time></trkpt><trkpt lat="44.4912358" lon="7.2560085"><ele>800.0</ele><time>2026-04-04T13:10:30.502Z</time></trkpt><trkpt lat="44.4912651" lon="7.2561103"><ele>802.0000000000001</ele><time>2026-04-04T13:10:33.502Z</time></trkpt><trkpt lat="44.4912587" lon="7.2562218"><ele>804.0</ele><time>2026-04-04T13:10:36.502Z</time></trkpt><trkpt lat="44.491223" lon="7.2563202"><ele>806.0</ele><time>2026-04-04T13:10:39.502Z</time></trkpt><trkpt lat="44.4911898" lon="7.2564276"><ele>808.0</ele><time>2026-04-04T13:10:42.503Z</time></trkpt><trkpt lat="44.4911651" lon="7.2565416"><ele>810.0000000000001</ele><time>2026-04-04T13:10:45.502Z</time></trkpt><trkpt lat="44.4911618" lon="7.2566529"><ele>812.0</ele><time>2026-04-04T13:10:48.502Z</time></trkpt><trkpt lat="44.4911644" lon="7.2567651"><ele>812.2857142857143</ele><time>2026-04-04T13:10:51.503Z</time></trkpt><trkpt lat="44.4911705" lon="7.2568737"><ele>812.5714285714286</ele><time>2026-04-04T13:10:54.5Z</time></trkpt><trkpt lat="44.4911862" lon="7.2569728"><ele>812.8571428571429</ele><time>2026-04-04T13:10:57.501Z</time></trkpt><trkpt lat="44.4912013" lon="7.2570626"><ele>813.1428571428571</ele><time>2026-04-04T13:11:00.502Z</time></trkpt><trkpt lat="44.4912087" lon="7.2571564"><ele>813.4285714285714</ele><time>2026-04-04T13:11:03.502Z</time></trkpt><trkpt lat="44.491224" lon="7.2572535"><ele>813.7142857142858</ele><time>2026-04-04T13:11:06.502Z</time></trkpt><trkpt lat="44.4912443" lon="7.257361"><ele>814.0</ele><time>2026-04-04T13:11:09.502Z</time></trkpt><trkpt lat="44.491257" lon="7.2574692"><ele>822.0000000000001</ele><time>2026-04-04T13:11:12.502Z</time></trkpt><trkpt lat="44.4912598" lon="7.2575709"><ele>830.0</ele><time>2026-04-04T13:11:15.501Z</time></trkpt><trkpt lat="44.491268" lon="7.2576722"><ele>838.0</ele><time>2026-04-04T13:11:18.501Z</time></trkpt><trkpt lat="44.491278" lon="7.2577733"><ele>846.0</ele><time>2026-04-04T13:11:21.502Z</time></trkpt><trkpt lat="44.4912967" lon="7.2578777"><ele>854.0</ele><time>2026-04-04T13:11:24.502Z</time></trkpt><trkpt lat="44.4913188" lon="7.2579827"><ele>862.0000000000001</ele><time>2026-04-04T13:11:27.502Z</time></trkpt><trkpt lat="44.4913308" lon="7.2580869"><ele>870.0</ele><time>2026-04-04T13:11:30.501Z</time></trkpt><trkpt lat="44.4913393" lon="7.258193"><ele>870.0</ele><time>2026-04-04T13:11:33.501Z</time></trkpt><trkpt lat="44.4913559" lon="7.258295"><ele>870.0</ele><time>2026-04-04T13:11:36.501Z</time></trkpt><trkpt lat="44.4913697" lon="7.2583923"><ele>870.0</ele><time>2026-04-04T13:11:39.501Z</time></trkpt><trkpt lat="44.4913804" lon="7.2584958"><ele>870.0</ele><time>2026-04-04T13:11:42.502Z</time></trkpt><trkpt lat="44.4914025" lon="7.2586016"><ele>870.0</ele><time>2026-04-04T13:11:45.502Z</time></trkpt><trkpt lat="44.4914246" lon="7.2587095"><ele>870.0</ele><time>2026-04-04T13:11:48.502Z</time></trkpt><trkpt lat="44.4914404" lon="7.2588186"><ele>870.0</ele><time>2026-04-04T13:11:51.502Z</time></trkpt><trkpt lat="44.4914525" lon="7.258927"><ele>870.0</ele><time>2026-04-04T13:11:54.501Z</time></trkpt><trkpt lat="44.4914716" lon="7.2590338"><ele>870.0</ele><time>2026-04-04T13:11:57.501Z</time></trkpt><trkpt lat="44.4914924" lon="7.2591428"><ele>870.0</ele><time>2026-04-04T13:12:00.5Z</time></trkpt><trkpt lat="44.4915145" lon="7.2592511"><ele>870.0</ele><time>2026-04-04T13:12:03.5Z</time></trkpt><trkpt lat="44.4915379" lon="7.2593575"><ele>870.0</ele><time>2026-04-04T13:12:06.502Z</time></trkpt><trkpt lat="44.4915702" lon="7.2594665"><ele>869.8333333333334</ele><time>2026-04-04T13:12:09.502Z</time></trkpt><trkpt lat="44.4916113" lon="7.2595733"><ele>869.6666666666667</ele><time>2026-04-04T13:12:12.5Z</time></trkpt><trkpt lat="44.4916572" lon="7.2596693"><ele>869.5</ele><time>2026-04-04T13:12:15.502Z</time></trkpt><trkpt lat="44.4917167" lon="7.2597478"><ele>869.3333333333334</ele><time>2026-04-04T13:12:18.502Z</time></trkpt><trkpt lat="44.4917744" lon="7.2598172"><ele>869.1666666666667</ele><time>2026-04-04T13:12:21.502Z</time></trkpt><trkpt lat="44.491831" lon="7.2598857"><ele>869.0</ele><time>2026-04-04T13:12:24.502Z</time></trkpt><trkpt lat="44.4918776" lon="7.2599645"><ele>866.5714285714286</ele><time>2026-04-04T13:12:27.502Z</time></trkpt><trkpt lat="44.4919214" lon="7.2600508"><ele>864.1428571428571</ele><time>2026-04-04T13:12:30.501Z</time></trkpt><trkpt lat="44.4919803" lon="7.2601172"><ele>861.7142857142857</ele><time>2026-04-04T13:12:33.502Z</time></trkpt><trkpt lat="44.4920351" lon="7.2601805"><ele>859.2857142857142</ele><time>2026-04-04T13:12:36.502Z</time></trkpt><trkpt lat="44.4920905" lon="7.2602355"><ele>856.8571428571429</ele><time>2026-04-04T13:12:39.501Z</time></trkpt><trkpt lat="44.4921504" lon="7.2602839"><ele>854.4285714285713</ele><time>2026-04-04T13:12:42.502Z</time></trkpt><trkpt lat="44.4922162" lon="7.26034"><ele>852.0</ele><time>2026-04-04T13:12:45.501Z</time></trkpt><trkpt lat="44.492262" lon="7.2604108"><ele>856.1428571428571</ele><time>2026-04-04T13:12:48.501Z</time></trkpt><trkpt lat="44.4923028" lon="7.2604978"><ele>860.2857142857142</ele><time>2026-04-04T13:12:52.502Z</time></trkpt><trkpt lat="44.4923488" lon="7.2605847"><ele>864.4285714285713</ele><time>2026-04-04T13:12:56.501Z</time></trkpt><trkpt lat="44.4923897" lon="7.2606528"><ele>868.5714285714286</ele><time>2026-04-04T13:12:59.5Z</time></trkpt><trkpt lat="44.4924516" lon="7.2607283"><ele>872.7142857142858</ele><time>2026-04-04T13:13:03.502Z</time></trkpt><trkpt lat="44.4925002" lon="7.2607929"><ele>876.8571428571428</ele><time>2026-04-04T13:13:06.502Z</time></trkpt><trkpt lat="44.4925476" lon="7.2608532"><ele>881.0</ele><time>2026-04-04T13:13:09.501Z</time></trkpt><trkpt lat="44.4925927" lon="7.2609203"><ele>881.0000000000001</ele><time>2026-04-04T13:13:12.502Z</time></trkpt><trkpt lat="44.4926493" lon="7.2610004"><ele>881.0</ele><time>2026-04-04T13:13:16.501Z</time></trkpt><trkpt lat="44.4926626" lon="7.2611052"><ele>881.0</ele><time>2026-04-04T13:13:20.502Z</time></trkpt><trkpt lat="44.4926455" lon="7.2612054"><ele>881.0</ele><time>2026-04-04T13:13:24.502Z</time></trkpt><trkpt lat="44.492634" lon="7.2613031"><ele>881.0000000000001</ele><time>2026-04-04T13:13:27.501Z</time></trkpt><trkpt lat="44.4926235" lon="7.2614024"><ele>881.0</ele><time>2026-04-04T13:13:30.502Z</time></trkpt><trkpt lat="44.4926231" lon="7.2615166"><ele>881.8571428571428</ele><time>2026-04-04T13:13:34.501Z</time></trkpt><trkpt lat="44.4926139" lon="7.2616093"><ele>882.7142857142858</ele><time>2026-04-04T13:13:37.501Z</time></trkpt><trkpt lat="44.4926099" lon="7.2617136"><ele>883.5714285714286</ele><time>2026-04-04T13:13:40.502Z</time></trkpt><trkpt lat="44.4925831" lon="7.2617996"><ele>884.4285714285713</ele><time>2026-04-04T13:13:43.502Z</time></trkpt><trkpt lat="44.4925255" lon="7.2618608"><ele>885.2857142857142</ele><time>2026-04-04T13:13:46.502Z</time></trkpt><trkpt lat="44.4924611" lon="7.2619131"><ele>886.1428571428571</ele><time>2026-04-04T13:13:49.5Z</time></trkpt><trkpt lat="44.4924075" lon="7.2619606"><ele>887.0</ele><time>2026-04-04T13:13:52.501Z</time></trkpt><trkpt lat="44.4923481" lon="7.2620004"><ele>886.9999999999999</ele><time>2026-04-04T13:13:55.501Z</time></trkpt><trkpt lat="44.4922798" lon="7.2620597"><ele>887.0</ele><time>2026-04-04T13:13:59.5Z</time></trkpt><trkpt lat="44.4922067" lon="7.2621067"><ele>887.0</ele><time>2026-04-04T13:14:03.501Z</time></trkpt><trkpt lat="44.4921534" lon="7.2621547"><ele>887.0</ele><time>2026-04-04T13:14:07.5Z</time></trkpt><trkpt lat="44.4921091" lon="7.2622429"><ele>887.0</ele><time>2026-04-04T13:14:11.5Z</time></trkpt><trkpt lat="44.4920637" lon="7.2623069"><ele>886.9999999999999</ele><time>2026-04-04T13:14:14.5Z</time></trkpt><trkpt lat="44.4920119" lon="7.2623585"><ele>887.0</ele><time>2026-04-04T13:14:17.499Z</time></trkpt><trkpt lat="44.4919414" lon="7.2624229"><ele>887.1428571428571</ele><time>2026-04-04T13:14:21.5Z</time></trkpt><trkpt lat="44.4918815" lon="7.2624682"><ele>887.2857142857142</ele><time>2026-04-04T13:14:24.5Z</time></trkpt><trkpt lat="44.4918088" lon="7.2625344"><ele>887.4285714285713</ele><time>2026-04-04T13:14:28.5Z</time></trkpt><trkpt lat="44.4917474" lon="7.262583"><ele>887.5714285714286</ele><time>2026-04-04T13:14:31.5Z</time></trkpt><trkpt lat="44.4916871" lon="7.2626313"><ele>887.7142857142858</ele><time>2026-04-04T13:14:34.499Z</time></trkpt><trkpt lat="44.491623" lon="7.2626968"><ele>887.8571428571428</ele><time>2026-04-04T13:14:38.501Z</time></trkpt><trkpt lat="44.491573" lon="7.2627621"><ele>888.0</ele><time>2026-04-04T13:14:41.501Z</time></trkpt><trkpt lat="44.4915313" lon="7.2628413"><ele>888.0</ele><time>2026-04-04T13:14:45.5Z</time></trkpt><trkpt lat="44.4915038" lon="7.2629394"><ele>888.0</ele><time>2026-04-04T13:14:49.501Z</time></trkpt><trkpt lat="44.4915081" lon="7.2630287"><ele>888.0</ele><time>2026-04-04T13:14:52.499Z</time></trkpt><trkpt lat="44.4914914" lon="7.2631408"><ele>888.0</ele><time>2026-04-04T13:14:56.5Z</time></trkpt><trkpt lat="44.4914584" lon="7.2632502"><ele>888.0</ele><time>2026-04-04T13:15:00.501Z</time></trkpt><trkpt lat="44.4914389" lon="7.2633395"><ele>888.0</ele><time>2026-04-04T13:15:03.501Z</time></trkpt><trkpt lat="44.491414" lon="7.2634281"><ele>888.0</ele><time>2026-04-04T13:15:06.5Z</time></trkpt><trkpt lat="44.4913911" lon="7.2635105"><ele>887.6666666666666</ele><time>2026-04-04T13:15:09.501Z</time></trkpt><trkpt lat="44.491361" lon="7.263616"><ele>887.3333333333333</ele><time>2026-04-04T13:15:13.5Z</time></trkpt><trkpt lat="44.491324" lon="7.2636878"><ele>887.0</ele><time>2026-04-04T13:15:16.5Z</time></trkpt><trkpt lat="44.4912753" lon="7.2637802"><ele>886.6666666666666</ele><time>2026-04-04T13:15:20.501Z</time></trkpt><trkpt lat="44.4912526" lon="7.263894"><ele>886.3333333333333</ele><time>2026-04-04T13:15:24.501Z</time></trkpt><trkpt lat="44.4912485" lon="7.2640105"><ele>886.0</ele><time>2026-04-04T13:15:28.5Z</time></trkpt><trkpt lat="44.4912389" lon="7.264122"><ele>885.9999999999999</ele><time>2026-04-04T13:15:32.5Z</time></trkpt><trkpt lat="44.4912162" lon="7.2642359"><ele>886.0</ele><time>2026-04-04T13:15:36.501Z</time></trkpt><trkpt lat="44.4911996" lon="7.2643232"><ele>886.0</ele><time>2026-04-04T13:15:39.5Z</time></trkpt><trkpt lat="44.4911688" lon="7.2644285"><ele>886.0</ele><time>2026-04-04T13:15:43.501Z</time></trkpt><trkpt lat="44.4911933" lon="7.2645271"><ele>885.9999999999999</ele><time>2026-04-04T13:15:47.5Z</time></trkpt><trkpt lat="44.4912642" lon="7.2645072"><ele>886.0</ele><time>2026-04-04T13:15:50.501Z</time></trkpt><trkpt lat="44.491338" lon="7.2644647"><ele>892.1666666666666</ele><time>2026-04-04T13:15:54.5Z</time></trkpt><trkpt lat="44.4914092" lon="7.2644339"><ele>898.3333333333333</ele><time>2026-04-04T13:15:58.499Z</time></trkpt><trkpt lat="44.4914857" lon="7.2644121"><ele>904.5</ele><time>2026-04-04T13:16:02.501Z</time></trkpt><trkpt lat="44.491556" lon="7.2643769"><ele>910.6666666666667</ele><time>2026-04-04T13:16:06.501Z</time></trkpt><trkpt lat="44.491629" lon="7.2643314"><ele>916.8333333333334</ele><time>2026-04-04T13:16:10.5Z</time></trkpt><trkpt lat="44.4917058" lon="7.2642942"><ele>923.0</ele><time>2026-04-04T13:16:14.5Z</time></trkpt><trkpt lat="44.4917745" lon="7.2642705"><ele>923.0000000000001</ele><time>2026-04-04T13:16:18.5Z</time></trkpt><trkpt lat="44.4918532" lon="7.2642402"><ele>923.0</ele><time>2026-04-04T13:16:22.501Z</time></trkpt><trkpt lat="44.4919184" lon="7.2642283"><ele>923.0</ele><time>2026-04-04T13:16:25.501Z</time></trkpt><trkpt lat="44.4920033" lon="7.2642069"><ele>923.0</ele><time>2026-04-04T13:16:29.5Z</time></trkpt><trkpt lat="44.4920837" lon="7.2642038"><ele>923.0000000000001</ele><time>2026-04-04T13:16:33.501Z</time></trkpt><trkpt lat="44.492156" lon="7.2641957"><ele>923.0</ele><time>2026-04-04T13:16:37.501Z</time></trkpt><trkpt lat="44.4922354" lon="7.2641878"><ele>925.1428571428571</ele><time>2026-04-04T13:16:41.501Z</time></trkpt><trkpt lat="44.4923106" lon="7.2641897"><ele>927.2857142857143</ele><time>2026-04-04T13:16:45.501Z</time></trkpt><trkpt lat="44.4923852" lon="7.2641835"><ele>929.4285714285714</ele><time>2026-04-04T13:16:49.499Z</time></trkpt><trkpt lat="44.4924561" lon="7.2641736"><ele>931.5714285714286</ele><time>2026-04-04T13:16:53.5Z</time></trkpt><trkpt lat="44.4925187" lon="7.2641138"><ele>933.7142857142858</ele><time>2026-04-04T13:16:57.5Z</time></trkpt><trkpt lat="44.4925751" lon="7.2640737"><ele>935.8571428571429</ele><time>2026-04-04T13:17:00.499Z</time></trkpt><trkpt lat="44.4926532" lon="7.2640441"><ele>938.0</ele><time>2026-04-04T13:17:04.5Z</time></trkpt><trkpt lat="44.4927353" lon="7.2640249"><ele>938.0</ele><time>2026-04-04T13:17:08.499Z</time></trkpt><trkpt lat="44.4928056" lon="7.2640337"><ele>938.0</ele><time>2026-04-04T13:17:11.5Z</time></trkpt><trkpt lat="44.4928703" lon="7.2640427"><ele>938.0</ele><time>2026-04-04T13:17:14.5Z</time></trkpt><trkpt lat="44.4929491" lon="7.2640567"><ele>938.0</ele><time>2026-04-04T13:17:18.499Z</time></trkpt><trkpt lat="44.4930201" lon="7.2640698"><ele>938.0</ele><time>2026-04-04T13:17:22.499Z</time></trkpt><trkpt lat="44.4930499" lon="7.2639874"><ele>938.0</ele><time>2026-04-04T13:17:26.5Z</time></trkpt><trkpt lat="44.4929916" lon="7.263943"><ele>938.0</ele><time>2026-04-04T13:17:29.5Z</time></trkpt><trkpt lat="44.4929239" lon="7.2638805"><ele>939.0</ele><time>2026-04-04T13:17:33.499Z</time></trkpt><trkpt lat="44.4928528" lon="7.2638213"><ele>940.0</ele><time>2026-04-04T13:17:37.5Z</time></trkpt><trkpt lat="44.4928019" lon="7.2637664"><ele>941.0</ele><time>2026-04-04T13:17:40.499Z</time></trkpt><trkpt lat="44.4927335" lon="7.2637082"><ele>942.0</ele><time>2026-04-04T13:17:44.5Z</time></trkpt><trkpt lat="44.4926684" lon="7.2636623"><ele>943.0</ele><time>2026-04-04T13:17:48.5Z</time></trkpt><trkpt lat="44.4926505" lon="7.2635693"><ele>944.0</ele><time>2026-04-04T13:17:52.5Z</time></trkpt><trkpt lat="44.4926165" lon="7.2634844"><ele>945.0</ele><time>2026-04-04T13:17:57.5Z</time></trkpt><trkpt lat="44.4925367" lon="7.2634913"><ele>945.0</ele><time>2026-04-04T13:18:01.5Z</time></trkpt><trkpt lat="44.4924679" lon="7.2634919"><ele>945.0</ele><time>2026-04-04T13:18:04.499Z</time></trkpt><trkpt lat="44.492401" lon="7.2635194"><ele>945.0</ele><time>2026-04-04T13:18:07.409Z</time></trkpt><trkpt lat="44.4923516" lon="7.2635836"><ele>945.0</ele><time>2026-04-04T13:18:10.5Z</time></trkpt><trkpt lat="44.4922832" lon="7.2636468"><ele>945.0</ele><time>2026-04-04T13:18:13.499Z</time></trkpt><trkpt lat="44.4922194" lon="7.2636494"><ele>945.0</ele><time>2026-04-04T13:19:20.5Z</time></trkpt><trkpt lat="44.4921939" lon="7.2637303"><ele>945.0</ele><time>2026-04-04T13:19:35.498Z</time></trkpt><trkpt lat="44.4921554" lon="7.2638137"><ele>945.0</ele><time>2026-04-04T13:19:58.499Z</time></trkpt><trkpt lat="44.4921972" lon="7.2637459"><ele>945.0</ele><time>2026-04-04T13:26:16.498Z</time></trkpt><trkpt lat="44.4922482" lon="7.2636734"><ele>945.0</ele><time>2026-04-04T13:26:20.497Z</time></trkpt><trkpt lat="44.4923043" lon="7.2636193"><ele>945.0</ele><time>2026-04-04T13:26:22.498Z</time></trkpt><trkpt lat="44.4923652" lon="7.2635584"><ele>945.0</ele><time>2026-04-04T13:26:24.498Z</time></trkpt><trkpt lat="44.4924229" lon="7.2635166"><ele>945.0</ele><time>2026-04-04T13:26:27.498Z</time></trkpt><trkpt lat="44.4924944" lon="7.2635014"><ele>945.0</ele><time>2026-04-04T13:26:30.498Z</time></trkpt><trkpt lat="44.4925731" lon="7.2635164"><ele>945.0</ele><time>2026-04-04T13:26:34.497Z</time></trkpt><trkpt lat="44.4926358" lon="7.2635493"><ele>945.0</ele><time>2026-04-04T13:26:39.497Z</time></trkpt><trkpt lat="44.4926417" lon="7.2636492"><ele>945.0</ele><time>2026-04-04T13:26:45.497Z</time></trkpt><trkpt lat="44.4926803" lon="7.2637208"><ele>945.0</ele><time>2026-04-04T13:26:52.423Z</time></trkpt><trkpt lat="44.4927479" lon="7.2637421"><ele>945.0</ele><time>2026-04-04T13:26:56.518Z</time></trkpt><trkpt lat="44.4928153" lon="7.2637828"><ele>945.0</ele><time>2026-04-04T13:27:01.501Z</time></trkpt><trkpt lat="44.4928774" lon="7.2638329"><ele>945.0</ele><time>2026-04-04T13:27:06.526Z</time></trkpt><trkpt lat="44.4929509" lon="7.2639003"><ele>945.5</ele><time>2026-04-04T13:27:10.498Z</time></trkpt><trkpt lat="44.4930258" lon="7.2639714"><ele>946.0</ele><time>2026-04-04T13:27:13.498Z</time></trkpt><trkpt lat="44.4931112" lon="7.2640452"><ele>946.5</ele><time>2026-04-04T13:27:16.45Z</time></trkpt><trkpt lat="44.493165" lon="7.2640988"><ele>947.0</ele><time>2026-04-04T13:27:18.498Z</time></trkpt><trkpt lat="44.4932346" lon="7.2641217"><ele>947.5</ele><time>2026-04-04T13:27:21.497Z</time></trkpt><trkpt lat="44.4933014" lon="7.2641688"><ele>948.0</ele><time>2026-04-04T13:27:25.498Z</time></trkpt><trkpt lat="44.4933669" lon="7.264199"><ele>947.9999999999999</ele><time>2026-04-04T13:27:29.497Z</time></trkpt><trkpt lat="44.4934427" lon="7.2642113"><ele>948.0</ele><time>2026-04-04T13:27:34.497Z</time></trkpt><trkpt lat="44.4935065" lon="7.2642539"><ele>947.9999999999999</ele><time>2026-04-04T13:27:38.496Z</time></trkpt><trkpt lat="44.4935853" lon="7.2642847"><ele>947.9999999999999</ele><time>2026-04-04T13:27:42.497Z</time></trkpt><trkpt lat="44.4936531" lon="7.2643035"><ele>948.0</ele><time>2026-04-04T13:27:45.496Z</time></trkpt><trkpt lat="44.493728" lon="7.2642932"><ele>947.9999999999999</ele><time>2026-04-04T13:27:49.497Z</time></trkpt><trkpt lat="44.4937987" lon="7.2642719"><ele>947.9999999999999</ele><time>2026-04-04T13:27:53.497Z</time></trkpt><trkpt lat="44.4938773" lon="7.2642499"><ele>949.8571428571427</ele><time>2026-04-04T13:27:57.497Z</time></trkpt><trkpt lat="44.4939557" lon="7.2642368"><ele>951.7142857142857</ele><time>2026-04-04T13:28:01.497Z</time></trkpt><trkpt lat="44.4940392" lon="7.2642203"><ele>953.5714285714284</ele><time>2026-04-04T13:28:05.496Z</time></trkpt><trkpt lat="44.4941045" lon="7.2642167"><ele>955.4285714285713</ele><time>2026-04-04T13:28:08.496Z</time></trkpt><trkpt lat="44.4941693" lon="7.264207"><ele>957.2857142857142</ele><time>2026-04-04T13:28:11.497Z</time></trkpt><trkpt lat="44.4942331" lon="7.2641893"><ele>959.1428571428571</ele><time>2026-04-04T13:28:14.496Z</time></trkpt><trkpt lat="44.4943127" lon="7.2641648"><ele>961.0</ele><time>2026-04-04T13:28:18.495Z</time></trkpt><trkpt lat="44.4943751" lon="7.2641411"><ele>960.9999999999999</ele><time>2026-04-04T13:28:21.497Z</time></trkpt><trkpt lat="44.4944552" lon="7.2641078"><ele>961.0</ele><time>2026-04-04T13:28:25.496Z</time></trkpt><trkpt lat="44.4945344" lon="7.2641026"><ele>961.0</ele><time>2026-04-04T13:28:29.496Z</time></trkpt><trkpt lat="44.4946175" lon="7.2641125"><ele>961.0</ele><time>2026-04-04T13:28:33.497Z</time></trkpt><trkpt lat="44.4946972" lon="7.2641321"><ele>960.9999999999999</ele><time>2026-04-04T13:28:37.497Z</time></trkpt><trkpt lat="44.4947737" lon="7.2641499"><ele>961.0</ele><time>2026-04-04T13:28:41.496Z</time></trkpt><trkpt lat="44.4948494" lon="7.2641307"><ele>962.1428571428571</ele><time>2026-04-04T13:28:45.496Z</time></trkpt><trkpt lat="44.494916" lon="7.2640731"><ele>963.2857142857142</ele><time>2026-04-04T13:28:49.497Z</time></trkpt><trkpt lat="44.4949715" lon="7.2640208"><ele>964.4285714285713</ele><time>2026-04-04T13:28:52.497Z</time></trkpt><trkpt lat="44.4950148" lon="7.2639563"><ele>965.5714285714284</ele><time>2026-04-04T13:28:55.497Z</time></trkpt><trkpt lat="44.4950842" lon="7.263927"><ele>966.7142857142857</ele><time>2026-04-04T13:28:59.496Z</time></trkpt><trkpt lat="44.4951694" lon="7.2638994"><ele>967.8571428571427</ele><time>2026-04-04T13:29:03.496Z</time></trkpt><trkpt lat="44.4952453" lon="7.2638984"><ele>968.9999999999999</ele><time>2026-04-04T13:29:06.496Z</time></trkpt><trkpt lat="44.4953178" lon="7.263912"><ele>971.142857142857</ele><time>2026-04-04T13:29:10.496Z</time></trkpt><trkpt lat="44.4953852" lon="7.2639185"><ele>973.2857142857142</ele><time>2026-04-04T13:29:14.496Z</time></trkpt><trkpt lat="44.4954495" lon="7.2639194"><ele>975.4285714285714</ele><time>2026-04-04T13:29:17.495Z</time></trkpt><trkpt lat="44.4955144" lon="7.2639219"><ele>977.5714285714286</ele><time>2026-04-04T13:29:20.497Z</time></trkpt><trkpt lat="44.4955865" lon="7.2639398"><ele>979.7142857142858</ele><time>2026-04-04T13:29:24.497Z</time></trkpt><trkpt lat="44.4956504" lon="7.2639498"><ele>981.857142857143</ele><time>2026-04-04T13:29:27.496Z</time></trkpt><trkpt lat="44.4957222" lon="7.2639762"><ele>984.0000000000001</ele><time>2026-04-04T13:29:30.497Z</time></trkpt><trkpt lat="44.4957951" lon="7.2640192"><ele>984.0000000000001</ele><time>2026-04-04T13:29:34.496Z</time></trkpt><trkpt lat="44.4958598" lon="7.2640495"><ele>984.0</ele><time>2026-04-04T13:29:38.496Z</time></trkpt><trkpt lat="44.4959246" lon="7.2640828"><ele>984.0000000000001</ele><time>2026-04-04T13:29:42.497Z</time></trkpt><trkpt lat="44.4959867" lon="7.2641287"><ele>984.0000000000001</ele><time>2026-04-04T13:29:46.496Z</time></trkpt><trkpt lat="44.4960383" lon="7.2641816"><ele>984.0</ele><time>2026-04-04T13:29:49.496Z</time></trkpt><trkpt lat="44.4961024" lon="7.2642236"><ele>984.0000000000001</ele><time>2026-04-04T13:29:53.497Z</time></trkpt><trkpt lat="44.4961661" lon="7.2642716"><ele>984.0000000000001</ele><time>2026-04-04T13:29:57.496Z</time></trkpt><trkpt lat="44.496248" lon="7.2642835"><ele>984.0</ele><time>2026-04-04T13:30:01.496Z</time></trkpt><trkpt lat="44.4962601" lon="7.2641896"><ele>984.0</ele><time>2026-04-04T13:30:05.496Z</time></trkpt><trkpt lat="44.4962155" lon="7.2641098"><ele>984.0</ele><time>2026-04-04T13:30:11.497Z</time></trkpt><trkpt lat="44.4961578" lon="7.2640667"><ele>984.0</ele><time>2026-04-04T13:30:15.497Z</time></trkpt><trkpt lat="44.4961123" lon="7.2639808"><ele>984.0</ele><time>2026-04-04T13:30:19.496Z</time></trkpt><trkpt lat="44.4960541" lon="7.2638793"><ele>984.0</ele><time>2026-04-04T13:30:22.497Z</time></trkpt><trkpt lat="44.4959896" lon="7.2638141"><ele>987.8333333333334</ele><time>2026-04-04T13:30:24.496Z</time></trkpt><trkpt lat="44.4959257" lon="7.2637511"><ele>991.6666666666667</ele><time>2026-04-04T13:30:28.497Z</time></trkpt><trkpt lat="44.4958863" lon="7.2636805"><ele>995.5</ele><time>2026-04-04T13:30:32.497Z</time></trkpt><trkpt lat="44.4958192" lon="7.2636364"><ele>999.3333333333334</ele><time>2026-04-04T13:30:36.496Z</time></trkpt><trkpt lat="44.4957576" lon="7.2636098"><ele>1003.1666666666667</ele><time>2026-04-04T13:30:39.496Z</time></trkpt><trkpt lat="44.4956727" lon="7.2635988"><ele>1007.0</ele><time>2026-04-04T13:30:43.496Z</time></trkpt><trkpt lat="44.4955831" lon="7.263545"><ele>1007.0000000000001</ele><time>2026-04-04T13:30:49.496Z</time></trkpt><trkpt lat="44.4955128" lon="7.263485"><ele>1007.0</ele><time>2026-04-04T13:30:52.495Z</time></trkpt><trkpt lat="44.4954327" lon="7.263456"><ele>1007.0</ele><time>2026-04-04T13:30:56.497Z</time></trkpt><trkpt lat="44.4953592" lon="7.2634312"><ele>1007.0</ele><time>2026-04-04T13:31:00.497Z</time></trkpt><trkpt lat="44.4952904" lon="7.2633923"><ele>1007.0000000000001</ele><time>2026-04-04T13:31:04.496Z</time></trkpt><trkpt lat="44.4952317" lon="7.2633339"><ele>1007.0</ele><time>2026-04-04T13:31:08.496Z</time></trkpt><trkpt lat="44.4951988" lon="7.2632544"><ele>1007.0</ele><time>2026-04-04T13:31:12.496Z</time></trkpt><trkpt lat="44.4952462" lon="7.2631876"><ele>1007.0</ele><time>2026-04-04T13:31:17.497Z</time></trkpt><trkpt lat="44.4953247" lon="7.2631944"><ele>1007.0</ele><time>2026-04-04T13:31:21.496Z</time></trkpt><trkpt lat="44.4954007" lon="7.2631708"><ele>1007.0</ele><time>2026-04-04T13:31:25.496Z</time></trkpt><trkpt lat="44.4954754" lon="7.2631585"><ele>1007.0</ele><time>2026-04-04T13:31:29.495Z</time></trkpt><trkpt lat="44.4955442" lon="7.2631324"><ele>1007.0</ele><time>2026-04-04T13:31:33.497Z</time></trkpt><trkpt lat="44.4956196" lon="7.2631312"><ele>1007.0</ele><time>2026-04-04T13:31:37.497Z</time></trkpt><trkpt lat="44.4956944" lon="7.263131"><ele>1007.0000000000001</ele><time>2026-04-04T13:31:41.497Z</time></trkpt><trkpt lat="44.4957746" lon="7.2631402"><ele>1007.0</ele><time>2026-04-04T13:31:45.495Z</time></trkpt><trkpt lat="44.49585" lon="7.2631788"><ele>1007.0</ele><time>2026-04-04T13:31:49.496Z</time></trkpt><trkpt lat="44.495926" lon="7.2631995"><ele>1007.0</ele><time>2026-04-04T13:31:53.496Z</time></trkpt><trkpt lat="44.4960036" lon="7.2632089"><ele>1007.0000000000001</ele><time>2026-04-04T13:31:57.496Z</time></trkpt><trkpt lat="44.4960743" lon="7.2632052"><ele>1007.0</ele><time>2026-04-04T13:32:01.496Z</time></trkpt><trkpt lat="44.496132" lon="7.263142"><ele>1010.0</ele><time>2026-04-04T13:32:06.495Z</time></trkpt><trkpt lat="44.4961316" lon="7.2630435"><ele>1013.0</ele><time>2026-04-04T13:32:10.496Z</time></trkpt><trkpt lat="44.4961114" lon="7.2629593"><ele>1016.0</ele><time>2026-04-04T13:32:13.495Z</time></trkpt><trkpt lat="44.4960494" lon="7.262928"><ele>1019.0</ele><time>2026-04-04T13:32:16.496Z</time></trkpt><trkpt lat="44.495971" lon="7.2629087"><ele>1022.0</ele><time>2026-04-04T13:32:20.495Z</time></trkpt><trkpt lat="44.4958988" lon="7.262857"><ele>1025.0</ele><time>2026-04-04T13:32:24.495Z</time></trkpt><trkpt lat="44.495841" lon="7.2628218"><ele>1028.0</ele><time>2026-04-04T13:32:27.496Z</time></trkpt><trkpt lat="44.4957803" lon="7.2627936"><ele>1028.0</ele><time>2026-04-04T13:32:30.496Z</time></trkpt><trkpt lat="44.4957086" lon="7.2627418"><ele>1028.0</ele><time>2026-04-04T13:32:34.495Z</time></trkpt><trkpt lat="44.4956458" lon="7.2626747"><ele>1028.0</ele><time>2026-04-04T13:33:07.496Z</time></trkpt><trkpt lat="44.4956725" lon="7.262579"><ele>1028.0</ele><time>2026-04-04T13:33:11.496Z</time></trkpt><trkpt lat="44.4957359" lon="7.262547"><ele>1028.0</ele><time>2026-04-04T13:33:15.496Z</time></trkpt><trkpt lat="44.4958075" lon="7.2625568"><ele>1028.0</ele><time>2026-04-04T13:33:19.496Z</time></trkpt><trkpt lat="44.4958781" lon="7.2625838"><ele>1028.0</ele><time>2026-04-04T13:33:23.496Z</time></trkpt><trkpt lat="44.4959441" lon="7.2626058"><ele>1028.0</ele><time>2026-04-04T13:33:27.496Z</time></trkpt><trkpt lat="44.496015" lon="7.2626221"><ele>1028.0</ele><time>2026-04-04T13:33:31.495Z</time></trkpt><trkpt lat="44.4960858" lon="7.2626112"><ele>1028.0</ele><time>2026-04-04T13:33:35.496Z</time></trkpt><trkpt lat="44.4961489" lon="7.2625465"><ele>1028.0</ele><time>2026-04-04T13:33:39.494Z</time></trkpt><trkpt lat="44.4962067" lon="7.2624696"><ele>1028.0</ele><time>2026-04-04T13:33:43.496Z</time></trkpt><trkpt lat="44.4962618" lon="7.2624232"><ele>1028.0</ele><time>2026-04-04T13:33:46.496Z</time></trkpt><trkpt lat="44.4963352" lon="7.2623932"><ele>1028.0</ele><time>2026-04-04T13:33:50.496Z</time></trkpt><trkpt lat="44.4963987" lon="7.2623974"><ele>1030.142857142857</ele><time>2026-04-04T13:33:53.496Z</time></trkpt><trkpt lat="44.4964647" lon="7.2624067"><ele>1032.2857142857142</ele><time>2026-04-04T13:33:56.495Z</time></trkpt><trkpt lat="44.4965355" lon="7.2624298"><ele>1034.4285714285716</ele><time>2026-04-04T13:33:59.496Z</time></trkpt><trkpt lat="44.4966036" lon="7.2624317"><ele>1036.5714285714284</ele><time>2026-04-04T13:34:02.496Z</time></trkpt><trkpt lat="44.496674" lon="7.2624548"><ele>1038.7142857142858</ele><time>2026-04-04T13:34:05.496Z</time></trkpt><trkpt lat="44.4967477" lon="7.2624705"><ele>1040.857142857143</ele><time>2026-04-04T13:34:08.496Z</time></trkpt><trkpt lat="44.4968122" lon="7.2624834"><ele>1043.0</ele><time>2026-04-04T13:34:11.496Z</time></trkpt><trkpt lat="44.4968772" lon="7.2625024"><ele>1043.0</ele><time>2026-04-04T13:34:14.495Z</time></trkpt><trkpt lat="44.4969438" lon="7.2625347"><ele>1043.0</ele><time>2026-04-04T13:34:17.495Z</time></trkpt><trkpt lat="44.4970197" lon="7.2625612"><ele>1043.0</ele><time>2026-04-04T13:34:21.496Z</time></trkpt><trkpt lat="44.4970885" lon="7.2625971"><ele>1043.0</ele><time>2026-04-04T13:34:25.496Z</time></trkpt><trkpt lat="44.4971558" lon="7.2626116"><ele>1043.0</ele><time>2026-04-04T13:34:28.496Z</time></trkpt><trkpt lat="44.4972316" lon="7.2626268"><ele>1043.0</ele><time>2026-04-04T13:34:31.496Z</time></trkpt><trkpt lat="44.4973047" lon="7.2626379"><ele>1043.0</ele><time>2026-04-04T13:34:34.495Z</time></trkpt><trkpt lat="44.4973786" lon="7.2626484"><ele>1044.7142857142858</ele><time>2026-04-04T13:34:38.496Z</time></trkpt><trkpt lat="44.4974451" lon="7.2626536"><ele>1046.4285714285716</ele><time>2026-04-04T13:34:42.495Z</time></trkpt><trkpt lat="44.4975091" lon="7.2626805"><ele>1048.142857142857</ele><time>2026-04-04T13:34:45.496Z</time></trkpt><trkpt lat="44.4975745" lon="7.262697"><ele>1049.857142857143</ele><time>2026-04-04T13:34:48.494Z</time></trkpt><trkpt lat="44.4976607" lon="7.2627119"><ele>1051.5714285714287</ele><time>2026-04-04T13:34:52.495Z</time></trkpt><trkpt lat="44.4977276" lon="7.2627159"><ele>1053.2857142857142</ele><time>2026-04-04T13:34:55.496Z</time></trkpt><trkpt lat="44.4977964" lon="7.2627252"><ele>1055.0</ele><time>2026-04-04T13:34:59.495Z</time></trkpt><trkpt lat="44.4978606" lon="7.2627413"><ele>1057.142857142857</ele><time>2026-04-04T13:35:02.495Z</time></trkpt><trkpt lat="44.4979262" lon="7.2627549"><ele>1059.2857142857144</ele><time>2026-04-04T13:35:05.495Z</time></trkpt><trkpt lat="44.4979946" lon="7.262758"><ele>1061.4285714285716</ele><time>2026-04-04T13:35:08.495Z</time></trkpt><trkpt lat="44.4980717" lon="7.2627736"><ele>1063.5714285714287</ele><time>2026-04-04T13:35:12.495Z</time></trkpt><trkpt lat="44.498155" lon="7.2627969"><ele>1065.7142857142858</ele><time>2026-04-04T13:35:16.496Z</time></trkpt><trkpt lat="44.4982164" lon="7.2628194"><ele>1067.857142857143</ele><time>2026-04-04T13:35:19.495Z</time></trkpt><trkpt lat="44.4982892" lon="7.2628444"><ele>1070.0</ele><time>2026-04-04T13:35:22.495Z</time></trkpt><trkpt lat="44.4983628" lon="7.2628677"><ele>1070.0</ele><time>2026-04-04T13:35:26.496Z</time></trkpt><trkpt lat="44.4984306" lon="7.2628685"><ele>1070.0</ele><time>2026-04-04T13:35:29.496Z</time></trkpt><trkpt lat="44.4985121" lon="7.2628699"><ele>1070.0</ele><time>2026-04-04T13:35:33.494Z</time></trkpt><trkpt lat="44.4985888" lon="7.2628709"><ele>1070.0</ele><time>2026-04-04T13:35:37.495Z</time></trkpt><trkpt lat="44.4986683" lon="7.2629044"><ele>1070.0</ele><time>2026-04-04T13:35:41.495Z</time></trkpt><trkpt lat="44.4987243" lon="7.2629451"><ele>1070.0</ele><time>2026-04-04T13:35:44.495Z</time></trkpt><trkpt lat="44.4987745" lon="7.2629997"><ele>1070.0</ele><time>2026-04-04T13:35:47.495Z</time></trkpt><trkpt lat="44.4988254" lon="7.2630674"><ele>1070.8333333333335</ele><time>2026-04-04T13:35:50.494Z</time></trkpt><trkpt lat="44.4988777" lon="7.26315"><ele>1071.6666666666667</ele><time>2026-04-04T13:35:54.495Z</time></trkpt><trkpt lat="44.4989373" lon="7.2632054"><ele>1072.5</ele><time>2026-04-04T13:35:57.495Z</time></trkpt><trkpt lat="44.4990069" lon="7.2632427"><ele>1073.3333333333333</ele><time>2026-04-04T13:36:00.494Z</time></trkpt><trkpt lat="44.4990741" lon="7.2632818"><ele>1074.1666666666665</ele><time>2026-04-04T13:36:04.494Z</time></trkpt><trkpt lat="44.4991356" lon="7.2633239"><ele>1075.0</ele><time>2026-04-04T13:36:07.495Z</time></trkpt><trkpt lat="44.4992153" lon="7.2633636"><ele>1075.0000000000002</ele><time>2026-04-04T13:36:11.495Z</time></trkpt><trkpt lat="44.4992805" lon="7.263406"><ele>1075.0</ele><time>2026-04-04T13:36:15.495Z</time></trkpt><trkpt lat="44.4993194" lon="7.2634827"><ele>1075.0</ele><time>2026-04-04T13:36:18.495Z</time></trkpt><trkpt lat="44.4993398" lon="7.2635773"><ele>1075.0</ele><time>2026-04-04T13:36:21.494Z</time></trkpt><trkpt lat="44.4993356" lon="7.2636933"><ele>1075.0</ele><time>2026-04-04T13:36:25.495Z</time></trkpt><trkpt lat="44.4993292" lon="7.2637913"><ele>1075.0000000000002</ele><time>2026-04-04T13:36:28.495Z</time></trkpt><trkpt lat="44.4992981" lon="7.2638936"><ele>1075.0</ele><time>2026-04-04T13:36:32.495Z</time></trkpt><trkpt lat="44.4993005" lon="7.2639983"><ele>1075.0000000000002</ele><time>2026-04-04T13:36:36.494Z</time></trkpt><trkpt lat="44.4992859" lon="7.2641022"><ele>1075.0</ele><time>2026-04-04T13:36:39.495Z</time></trkpt><trkpt lat="44.4992656" lon="7.2641962"><ele>1075.0</ele><time>2026-04-04T13:36:42.495Z</time></trkpt><trkpt lat="44.4992833" lon="7.2643067"><ele>1075.0</ele><time>2026-04-04T13:36:46.494Z</time></trkpt><trkpt lat="44.4992737" lon="7.264394"><ele>1075.0</ele><time>2026-04-04T13:36:49.495Z</time></trkpt><trkpt lat="44.4992476" lon="7.264483"><ele>1075.0000000000002</ele><time>2026-04-04T13:36:52.495Z</time></trkpt><trkpt lat="44.4992167" lon="7.2645675"><ele>1075.0</ele><time>2026-04-04T13:36:55.494Z</time></trkpt><trkpt lat="44.4991898" lon="7.2646743"><ele>1075.0</ele><time>2026-04-04T13:36:59.495Z</time></trkpt><trkpt lat="44.499165" lon="7.2647782"><ele>1075.0</ele><time>2026-04-04T13:37:03.495Z</time></trkpt><trkpt lat="44.4991523" lon="7.2648881"><ele>1075.0</ele><time>2026-04-04T13:37:07.494Z</time></trkpt><trkpt lat="44.4991796" lon="7.2649964"><ele>1075.0</ele><time>2026-04-04T13:37:11.495Z</time></trkpt><trkpt lat="44.4992361" lon="7.2650652"><ele>1075.0</ele><time>2026-04-04T13:37:15.494Z</time></trkpt><trkpt lat="44.4993136" lon="7.2650702"><ele>1075.0</ele><time>2026-04-04T13:37:19.494Z</time></trkpt><trkpt lat="44.4993742" lon="7.2650448"><ele>1074.8333333333333</ele><time>2026-04-04T13:37:22.494Z</time></trkpt><trkpt lat="44.4994467" lon="7.2650123"><ele>1074.6666666666665</ele><time>2026-04-04T13:37:26.495Z</time></trkpt><trkpt lat="44.4995257" lon="7.2649808"><ele>1074.5</ele><time>2026-04-04T13:37:30.495Z</time></trkpt><trkpt lat="44.4996009" lon="7.264964"><ele>1074.3333333333333</ele><time>2026-04-04T13:37:34.495Z</time></trkpt><trkpt lat="44.4996765" lon="7.2649562"><ele>1074.1666666666667</ele><time>2026-04-04T13:37:38.493Z</time></trkpt><trkpt lat="44.4997557" lon="7.2649659"><ele>1074.0</ele><time>2026-04-04T13:37:42.495Z</time></trkpt><trkpt lat="44.499836" lon="7.2649629"><ele>1077.5714285714284</ele><time>2026-04-04T13:37:46.494Z</time></trkpt><trkpt lat="44.4999001" lon="7.2649662"><ele>1081.142857142857</ele><time>2026-04-04T13:37:49.495Z</time></trkpt><trkpt lat="44.4999813" lon="7.2649668"><ele>1084.7142857142858</ele><time>2026-04-04T13:37:53.493Z</time></trkpt><trkpt lat="44.5000482" lon="7.2649705"><ele>1088.2857142857142</ele><time>2026-04-04T13:37:57.495Z</time></trkpt><trkpt lat="44.5001173" lon="7.2649955"><ele>1091.857142857143</ele><time>2026-04-04T13:38:45.494Z</time></trkpt><trkpt lat="44.5001868" lon="7.2649775"><ele>1095.4285714285713</ele><time>2026-04-04T13:38:48.495Z</time></trkpt><trkpt lat="44.5002536" lon="7.2649673"><ele>1099.0</ele><time>2026-04-04T13:38:51.495Z</time></trkpt><trkpt lat="44.5003361" lon="7.2649605"><ele>1100.857142857143</ele><time>2026-04-04T13:38:55.495Z</time></trkpt><trkpt lat="44.5004197" lon="7.2649616"><ele>1102.7142857142858</ele><time>2026-04-04T13:38:59.495Z</time></trkpt><trkpt lat="44.5005033" lon="7.2649714"><ele>1104.5714285714284</ele><time>2026-04-04T13:39:03.494Z</time></trkpt><trkpt lat="44.5005664" lon="7.2649809"><ele>1106.4285714285716</ele><time>2026-04-04T13:39:06.495Z</time></trkpt><trkpt lat="44.5006396" lon="7.2650215"><ele>1108.2857142857142</ele><time>2026-04-04T13:39:10.493Z</time></trkpt><trkpt lat="44.5007038" lon="7.2650594"><ele>1110.142857142857</ele><time>2026-04-04T13:39:13.494Z</time></trkpt><trkpt lat="44.5007686" lon="7.2650867"><ele>1112.0</ele><time>2026-04-04T13:39:16.495Z</time></trkpt><trkpt lat="44.5008365" lon="7.265105"><ele>1112.0</ele><time>2026-04-04T13:39:19.449Z</time></trkpt><trkpt lat="44.5009025" lon="7.2651266"><ele>1112.0</ele><time>2026-04-04T13:39:22.495Z</time></trkpt><trkpt lat="44.5009736" lon="7.2651677"><ele>1112.0</ele><time>2026-04-04T13:39:25.495Z</time></trkpt><trkpt lat="44.5010344" lon="7.2651948"><ele>1112.0</ele><time>2026-04-04T13:39:28.467Z</time></trkpt><trkpt lat="44.5011073" lon="7.2652272"><ele>1112.0</ele><time>2026-04-04T13:39:32.494Z</time></trkpt><trkpt lat="44.5011824" lon="7.2652868"><ele>1112.0</ele><time>2026-04-04T13:39:35.446Z</time></trkpt><trkpt lat="44.5012246" lon="7.2653874"><ele>1112.0</ele><time>2026-04-04T13:39:38.494Z</time></trkpt><trkpt lat="44.501245" lon="7.2655036"><ele>1112.0</ele><time>2026-04-04T13:39:42.494Z</time></trkpt><trkpt lat="44.5012477" lon="7.2656049"><ele>1112.0</ele><time>2026-04-04T13:39:45.494Z</time></trkpt><trkpt lat="44.5012505" lon="7.2657092"><ele>1112.0</ele><time>2026-04-04T13:39:48.494Z</time></trkpt><trkpt lat="44.5012448" lon="7.2658092"><ele>1112.0</ele><time>2026-04-04T13:39:52.493Z</time></trkpt><trkpt lat="44.5012416" lon="7.2659065"><ele>1112.0</ele><time>2026-04-04T13:39:57.494Z</time></trkpt><trkpt lat="44.5012739" lon="7.2659904"><ele>1112.0</ele><time>2026-04-04T13:40:01.504Z</time></trkpt><trkpt lat="44.5013347" lon="7.2660344"><ele>1113.3333333333335</ele><time>2026-04-04T13:40:05.494Z</time></trkpt><trkpt lat="44.5013966" lon="7.2660721"><ele>1114.6666666666667</ele><time>2026-04-04T13:40:09.493Z</time></trkpt><trkpt lat="44.5014479" lon="7.2661519"><ele>1116.0</ele><time>2026-04-04T13:40:13.494Z</time></trkpt><trkpt lat="44.5015036" lon="7.2662404"><ele>1117.3333333333333</ele><time>2026-04-04T13:40:16.38Z</time></trkpt><trkpt lat="44.501576" lon="7.2663129"><ele>1118.6666666666665</ele><time>2026-04-04T13:40:18.493Z</time></trkpt><trkpt lat="44.5016385" lon="7.266359"><ele>1120.0</ele><time>2026-04-04T13:40:20.494Z</time></trkpt><trkpt lat="44.5017023" lon="7.2663814"><ele>1120.0</ele><time>2026-04-04T13:40:22.494Z</time></trkpt><trkpt lat="44.5017688" lon="7.2664394"><ele>1120.0</ele><time>2026-04-04T13:40:25.492Z</time></trkpt><trkpt lat="44.5018371" lon="7.2665204"><ele>1120.0</ele><time>2026-04-04T13:40:28.493Z</time></trkpt><trkpt lat="44.5018901" lon="7.2665884"><ele>1120.0</ele><time>2026-04-04T13:40:31.494Z</time></trkpt><trkpt lat="44.5019069" lon="7.2666976"><ele>1120.0</ele><time>2026-04-04T13:40:35.493Z</time></trkpt><trkpt lat="44.5019192" lon="7.2668005"><ele>1120.0</ele><time>2026-04-04T13:40:38.493Z</time></trkpt><trkpt lat="44.5019046" lon="7.2668961"><ele>1118.0</ele><time>2026-04-04T13:40:42.493Z</time></trkpt><trkpt lat="44.5018895" lon="7.2670002"><ele>1116.0</ele><time>2026-04-04T13:40:45.493Z</time></trkpt><trkpt lat="44.5018656" lon="7.2670858"><ele>1114.0</ele><time>2026-04-04T13:40:48.492Z</time></trkpt><trkpt lat="44.5018333" lon="7.2672037"><ele>1112.0</ele><time>2026-04-04T13:40:51.494Z</time></trkpt><trkpt lat="44.5018069" lon="7.2673005"><ele>1110.0</ele><time>2026-04-04T13:40:54.494Z</time></trkpt><trkpt lat="44.5017924" lon="7.2673981"><ele>1108.0</ele><time>2026-04-04T13:40:57.494Z</time></trkpt><trkpt lat="44.5017473" lon="7.2674919"><ele>1108.0</ele><time>2026-04-04T13:41:00.492Z</time></trkpt><trkpt lat="44.5017221" lon="7.2675873"><ele>1108.0</ele><time>2026-04-04T13:41:04.494Z</time></trkpt><trkpt lat="44.5016953" lon="7.2676754"><ele>1108.0</ele><time>2026-04-04T13:41:09.493Z</time></trkpt><trkpt lat="44.5016627" lon="7.2677716"><ele>1108.0</ele><time>2026-04-04T13:41:12.493Z</time></trkpt><trkpt lat="44.5016368" lon="7.2678618"><ele>1108.0</ele><time>2026-04-04T13:41:15.494Z</time></trkpt><trkpt lat="44.5016258" lon="7.2679702"><ele>1108.0</ele><time>2026-04-04T13:41:19.492Z</time></trkpt><trkpt lat="44.5016331" lon="7.2680629"><ele>1108.0</ele><time>2026-04-04T13:41:23.494Z</time></trkpt><trkpt lat="44.5016473" lon="7.2681635"><ele>1108.142857142857</ele><time>2026-04-04T13:41:28.493Z</time></trkpt><trkpt lat="44.5016711" lon="7.2682494"><ele>1108.2857142857142</ele><time>2026-04-04T13:41:33.494Z</time></trkpt><trkpt lat="44.5016949" lon="7.2683432"><ele>1108.4285714285713</ele><time>2026-04-04T13:41:38.494Z</time></trkpt><trkpt lat="44.5017037" lon="7.2684354"><ele>1108.5714285714284</ele><time>2026-04-04T13:41:42.494Z</time></trkpt><trkpt lat="44.5017005" lon="7.2685328"><ele>1108.7142857142858</ele><time>2026-04-04T13:41:46.445Z</time></trkpt><trkpt lat="44.5016731" lon="7.2686629"><ele>1108.8571428571427</ele><time>2026-04-04T13:41:50.494Z</time></trkpt><trkpt lat="44.5016444" lon="7.268766"><ele>1109.0</ele><time>2026-04-04T13:41:54.493Z</time></trkpt><trkpt lat="44.5016381" lon="7.2688636"><ele>1108.9999999999998</ele><time>2026-04-04T13:41:58.493Z</time></trkpt><trkpt lat="44.5016453" lon="7.2689541"><ele>1109.0</ele><time>2026-04-04T13:42:02.493Z</time></trkpt><trkpt lat="44.5016579" lon="7.2690592"><ele>1109.0</ele><time>2026-04-04T13:42:06.494Z</time></trkpt><trkpt lat="44.5016669" lon="7.2691627"><ele>1109.0</ele><time>2026-04-04T13:42:10.494Z</time></trkpt><trkpt lat="44.5016695" lon="7.2692663"><ele>1109.0</ele><time>2026-04-04T13:42:14.494Z</time></trkpt><trkpt lat="44.5016625" lon="7.2693691"><ele>1108.9999999999998</ele><time>2026-04-04T13:42:19.493Z</time></trkpt><trkpt lat="44.50172" lon="7.2694328"><ele>1109.0</ele><time>2026-04-04T13:43:21.494Z</time></trkpt><trkpt lat="44.5016719" lon="7.2693754"><ele>1108.9999999999998</ele><time>2026-04-04T13:46:06.493Z</time></trkpt><trkpt lat="44.5016413" lon="7.269291"><ele>1109.0</ele><time>2026-04-04T13:46:21.493Z</time></trkpt><trkpt lat="44.501645" lon="7.2691964"><ele>1109.0</ele><time>2026-04-04T13:46:53.493Z</time></trkpt><trkpt lat="44.5016346" lon="7.2690858"><ele>1109.0</ele><time>2026-04-04T13:46:56.492Z</time></trkpt><trkpt lat="44.5016327" lon="7.2689839"><ele>1109.0</ele><time>2026-04-04T13:47:05.493Z</time></trkpt><trkpt lat="44.5016228" lon="7.2688939"><ele>1108.9999999999998</ele><time>2026-04-04T13:47:08.492Z</time></trkpt><trkpt lat="44.5016229" lon="7.2688033"><ele>1109.0</ele><time>2026-04-04T13:47:11.491Z</time></trkpt><trkpt lat="44.501637" lon="7.2687167"><ele>1109.0</ele><time>2026-04-04T13:47:14.491Z</time></trkpt><trkpt lat="44.5016572" lon="7.2686209"><ele>1109.0</ele><time>2026-04-04T13:47:17.492Z</time></trkpt><trkpt lat="44.5016763" lon="7.2685136"><ele>1109.0</ele><time>2026-04-04T13:47:20.492Z</time></trkpt><trkpt lat="44.5016821" lon="7.2684092"><ele>1109.0</ele><time>2026-04-04T13:47:23.492Z</time></trkpt><trkpt lat="44.5016787" lon="7.2683196"><ele>1109.0</ele><time>2026-04-04T13:47:26.492Z</time></trkpt><trkpt lat="44.5016512" lon="7.268222"><ele>1109.0</ele><time>2026-04-04T13:47:29.491Z</time></trkpt><trkpt lat="44.5016266" lon="7.2680984"><ele>1108.8333333333335</ele><time>2026-04-04T13:47:32.492Z</time></trkpt><trkpt lat="44.501613" lon="7.2679909"><ele>1108.6666666666667</ele><time>2026-04-04T13:47:35.492Z</time></trkpt><trkpt lat="44.5016182" lon="7.2678767"><ele>1108.5</ele><time>2026-04-04T13:47:38.491Z</time></trkpt><trkpt lat="44.5016541" lon="7.2677443"><ele>1108.3333333333333</ele><time>2026-04-04T13:47:40.491Z</time></trkpt><trkpt lat="44.5016997" lon="7.2676004"><ele>1108.1666666666665</ele><time>2026-04-04T13:47:42.49Z</time></trkpt><trkpt lat="44.5017376" lon="7.2675281"><ele>1108.0</ele><time>2026-04-04T13:47:43.492Z</time></trkpt><trkpt lat="44.5017817" lon="7.2673705"><ele>1108.0</ele><time>2026-04-04T13:47:45.492Z</time></trkpt><trkpt lat="44.5018129" lon="7.2671895"><ele>1108.0</ele><time>2026-04-04T13:47:47.49Z</time></trkpt><trkpt lat="44.5018308" lon="7.2670884"><ele>1108.0</ele><time>2026-04-04T13:47:48.492Z</time></trkpt><trkpt lat="44.5018433" lon="7.2669913"><ele>1108.0</ele><time>2026-04-04T13:47:49.492Z</time></trkpt><trkpt lat="44.5018746" lon="7.2668162"><ele>1108.0</ele><time>2026-04-04T13:47:51.492Z</time></trkpt><trkpt lat="44.5018355" lon="7.2666434"><ele>1108.0</ele><time>2026-04-04T13:47:53.492Z</time></trkpt><trkpt lat="44.5017709" lon="7.2665293"><ele>1108.0</ele><time>2026-04-04T13:47:55.492Z</time></trkpt><trkpt lat="44.5017101" lon="7.2664809"><ele>1108.0</ele><time>2026-04-04T13:47:56.491Z</time></trkpt><trkpt lat="44.501622" lon="7.2664096"><ele>1108.0</ele><time>2026-04-04T13:47:58.491Z</time></trkpt><trkpt lat="44.5015524" lon="7.266348"><ele>1108.0</ele><time>2026-04-04T13:48:00.491Z</time></trkpt><trkpt lat="44.5015021" lon="7.2662876"><ele>1108.0</ele><time>2026-04-04T13:48:02.491Z</time></trkpt><trkpt lat="44.5014522" lon="7.2662027"><ele>1110.0</ele><time>2026-04-04T13:48:05.492Z</time></trkpt><trkpt lat="44.5014092" lon="7.2661173"><ele>1112.0</ele><time>2026-04-04T13:48:08.492Z</time></trkpt><trkpt lat="44.5013382" lon="7.2660423"><ele>1114.0</ele><time>2026-04-04T13:48:11.492Z</time></trkpt><trkpt lat="44.5012874" lon="7.2659811"><ele>1116.0</ele><time>2026-04-04T13:48:13.491Z</time></trkpt><trkpt lat="44.5012453" lon="7.2658783"><ele>1118.0</ele><time>2026-04-04T13:48:15.492Z</time></trkpt><trkpt lat="44.5012256" lon="7.2657338"><ele>1120.0</ele><time>2026-04-04T13:48:17.492Z</time></trkpt><trkpt lat="44.5012088" lon="7.2656306"><ele>1118.4</ele><time>2026-04-04T13:48:18.491Z</time></trkpt><trkpt lat="44.5011984" lon="7.2655392"><ele>1116.8</ele><time>2026-04-04T13:48:19.492Z</time></trkpt><trkpt lat="44.5011702" lon="7.2653787"><ele>1115.2</ele><time>2026-04-04T13:48:21.492Z</time></trkpt><trkpt lat="44.5011068" lon="7.2652719"><ele>1113.6</ele><time>2026-04-04T13:48:23.492Z</time></trkpt><trkpt lat="44.5010063" lon="7.2652142"><ele>1112.0</ele><time>2026-04-04T13:48:25.491Z</time></trkpt><trkpt lat="44.5009142" lon="7.2651657"><ele>1112.0</ele><time>2026-04-04T13:48:27.491Z</time></trkpt><trkpt lat="44.5008093" lon="7.2651115"><ele>1112.0</ele><time>2026-04-04T13:48:29.491Z</time></trkpt><trkpt lat="44.500698" lon="7.2650759"><ele>1112.0</ele><time>2026-04-04T13:48:31.492Z</time></trkpt><trkpt lat="44.500592" lon="7.2650514"><ele>1112.0</ele><time>2026-04-04T13:48:33.492Z</time></trkpt><trkpt lat="44.5004767" lon="7.2650294"><ele>1109.8333333333335</ele><time>2026-04-04T13:48:35.492Z</time></trkpt><trkpt lat="44.5004127" lon="7.2650185"><ele>1107.6666666666667</ele><time>2026-04-04T13:48:36.492Z</time></trkpt><trkpt lat="44.5003496" lon="7.2650174"><ele>1105.5</ele><time>2026-04-04T13:48:37.491Z</time></trkpt><trkpt lat="44.5002362" lon="7.265008"><ele>1103.3333333333333</ele><time>2026-04-04T13:48:39.492Z</time></trkpt><trkpt lat="44.5001344" lon="7.2650212"><ele>1101.1666666666665</ele><time>2026-04-04T13:48:41.492Z</time></trkpt><trkpt lat="44.5000441" lon="7.2650255"><ele>1099.0</ele><time>2026-04-04T13:48:43.492Z</time></trkpt><trkpt lat="44.4999556" lon="7.2650088"><ele>1099.0</ele><time>2026-04-04T13:48:45.492Z</time></trkpt><trkpt lat="44.4998436" lon="7.2650084"><ele>1099.0</ele><time>2026-04-04T13:48:47.492Z</time></trkpt><trkpt lat="44.4997451" lon="7.2650083"><ele>1099.0</ele><time>2026-04-04T13:48:49.491Z</time></trkpt><trkpt lat="44.499649" lon="7.265011"><ele>1099.0</ele><time>2026-04-04T13:48:51.491Z</time></trkpt><trkpt lat="44.4995616" lon="7.2650207"><ele>1099.0</ele><time>2026-04-04T13:48:53.492Z</time></trkpt><trkpt lat="44.4994749" lon="7.2650431"><ele>1095.5714285714287</ele><time>2026-04-04T13:48:55.492Z</time></trkpt><trkpt lat="44.4994039" lon="7.2650707"><ele>1092.142857142857</ele><time>2026-04-04T13:48:57.492Z</time></trkpt><trkpt lat="44.4993311" lon="7.2650995"><ele>1088.7142857142858</ele><time>2026-04-04T13:48:59.491Z</time></trkpt><trkpt lat="44.4992617" lon="7.2650984"><ele>1085.2857142857142</ele><time>2026-04-04T13:49:01.49Z</time></trkpt><trkpt lat="44.4992068" lon="7.2650504"><ele>1081.857142857143</ele><time>2026-04-04T13:49:03.49Z</time></trkpt><trkpt lat="44.499164" lon="7.2649285"><ele>1078.4285714285716</ele><time>2026-04-04T13:49:06.491Z</time></trkpt><trkpt lat="44.4991488" lon="7.2648382"><ele>1075.0</ele><time>2026-04-04T13:49:08.491Z</time></trkpt><trkpt lat="44.4991457" lon="7.2647299"><ele>1075.0</ele><time>2026-04-04T13:49:10.491Z</time></trkpt><trkpt lat="44.4991538" lon="7.2645812"><ele>1075.0</ele><time>2026-04-04T13:49:12.491Z</time></trkpt><trkpt lat="44.4991743" lon="7.2644291"><ele>1075.0</ele><time>2026-04-04T13:49:14.492Z</time></trkpt><trkpt lat="44.4992163" lon="7.2643231"><ele>1075.0</ele><time>2026-04-04T13:49:16.492Z</time></trkpt><trkpt lat="44.4992612" lon="7.2642062"><ele>1075.0</ele><time>2026-04-04T13:49:18.491Z</time></trkpt><trkpt lat="44.4992816" lon="7.2640707"><ele>1075.0</ele><time>2026-04-04T13:49:20.491Z</time></trkpt><trkpt lat="44.4992805" lon="7.2639464"><ele>1075.0</ele><time>2026-04-04T13:49:22.491Z</time></trkpt><trkpt lat="44.4992618" lon="7.2638087"><ele>1075.0</ele><time>2026-04-04T13:49:24.491Z</time></trkpt><trkpt lat="44.4992656" lon="7.2636551"><ele>1075.0</ele><time>2026-04-04T13:49:26.492Z</time></trkpt><trkpt lat="44.4992585" lon="7.2635158"><ele>1075.0</ele><time>2026-04-04T13:49:28.491Z</time></trkpt><trkpt lat="44.4992238" lon="7.2634098"><ele>1075.0</ele><time>2026-04-04T13:49:30.491Z</time></trkpt><trkpt lat="44.4991313" lon="7.2633476"><ele>1075.0</ele><time>2026-04-04T13:49:32.492Z</time></trkpt><trkpt lat="44.499068" lon="7.2633114"><ele>1075.0</ele><time>2026-04-04T13:49:33.49Z</time></trkpt><trkpt lat="44.4989977" lon="7.2632759"><ele>1075.0</ele><time>2026-04-04T13:49:34.492Z</time></trkpt><trkpt lat="44.4989161" lon="7.2632042"><ele>1075.0</ele><time>2026-04-04T13:49:35.492Z</time></trkpt><trkpt lat="44.4988614" lon="7.2631415"><ele>1075.0</ele><time>2026-04-04T13:49:36.492Z</time></trkpt><trkpt lat="44.4987811" lon="7.2630529"><ele>1074.1666666666665</ele><time>2026-04-04T13:49:38.49Z</time></trkpt><trkpt lat="44.4987137" lon="7.2629735"><ele>1073.3333333333333</ele><time>2026-04-04T13:49:40.492Z</time></trkpt><trkpt lat="44.4986341" lon="7.2629712"><ele>1072.5</ele><time>2026-04-04T13:50:42.492Z</time></trkpt><trkpt lat="44.4985523" lon="7.2629411"><ele>1071.6666666666667</ele><time>2026-04-04T13:50:45.491Z</time></trkpt><trkpt lat="44.4984736" lon="7.2629191"><ele>1070.8333333333335</ele><time>2026-04-04T13:50:54.491Z</time></trkpt><trkpt lat="44.4983981" lon="7.2629174"><ele>1070.0</ele><time>2026-04-04T13:50:56.49Z</time></trkpt><trkpt lat="44.498298" lon="7.2629146"><ele>1070.0</ele><time>2026-04-04T13:50:58.49Z</time></trkpt><trkpt lat="44.4981743" lon="7.2628736"><ele>1070.0</ele><time>2026-04-04T13:51:00.491Z</time></trkpt><trkpt lat="44.4980778" lon="7.2628413"><ele>1070.0</ele><time>2026-04-04T13:51:02.491Z</time></trkpt><trkpt lat="44.4979725" lon="7.2628062"><ele>1070.0</ele><time>2026-04-04T13:51:04.49Z</time></trkpt><trkpt lat="44.4979041" lon="7.2627848"><ele>1070.0</ele><time>2026-04-04T13:51:05.49Z</time></trkpt><trkpt lat="44.4978254" lon="7.2627829"><ele>1067.5</ele><time>2026-04-04T13:51:06.49Z</time></trkpt><trkpt lat="44.4977444" lon="7.2627703"><ele>1065.0</ele><time>2026-04-04T13:51:07.491Z</time></trkpt><trkpt lat="44.4976761" lon="7.2627621"><ele>1062.5</ele><time>2026-04-04T13:51:08.491Z</time></trkpt><trkpt lat="44.4975962" lon="7.2627462"><ele>1060.0</ele><time>2026-04-04T13:51:09.491Z</time></trkpt><trkpt lat="44.4975118" lon="7.2627286"><ele>1057.5</ele><time>2026-04-04T13:51:10.49Z</time></trkpt><trkpt lat="44.4974363" lon="7.2627117"><ele>1055.0</ele><time>2026-04-04T13:51:11.489Z</time></trkpt><trkpt lat="44.4973595" lon="7.2626936"><ele>1055.0</ele><time>2026-04-04T13:51:12.49Z</time></trkpt><trkpt lat="44.4972843" lon="7.2626853"><ele>1055.0</ele><time>2026-04-04T13:51:13.491Z</time></trkpt><trkpt lat="44.4972102" lon="7.2626659"><ele>1055.0</ele><time>2026-04-04T13:51:14.491Z</time></trkpt><trkpt lat="44.4971298" lon="7.2626353"><ele>1055.0</ele><time>2026-04-04T13:51:15.491Z</time></trkpt><trkpt lat="44.4970207" lon="7.262613"><ele>1055.0</ele><time>2026-04-04T13:51:17.49Z</time></trkpt><trkpt lat="44.4969013" lon="7.2625667"><ele>1052.6</ele><time>2026-04-04T13:51:19.491Z</time></trkpt><trkpt lat="44.4967789" lon="7.2625196"><ele>1050.2</ele><time>2026-04-04T13:51:21.49Z</time></trkpt><trkpt lat="44.4966661" lon="7.262494"><ele>1047.8</ele><time>2026-04-04T13:51:23.49Z</time></trkpt><trkpt lat="44.4965595" lon="7.2624795"><ele>1045.4</ele><time>2026-04-04T13:51:25.491Z</time></trkpt><trkpt lat="44.4964628" lon="7.2624624"><ele>1043.0</ele><time>2026-04-04T13:51:27.49Z</time></trkpt><trkpt lat="44.4963492" lon="7.2624549"><ele>1040.0</ele><time>2026-04-04T13:51:29.49Z</time></trkpt><trkpt lat="44.4962405" lon="7.2624797"><ele>1037.0</ele><time>2026-04-04T13:51:31.491Z</time></trkpt><trkpt lat="44.4961488" lon="7.2625472"><ele>1034.0</ele><time>2026-04-04T13:51:33.491Z</time></trkpt><trkpt lat="44.4960532" lon="7.2626164"><ele>1031.0</ele><time>2026-04-04T13:51:35.491Z</time></trkpt><trkpt lat="44.4959881" lon="7.2626192"><ele>1028.0</ele><time>2026-04-04T13:51:36.491Z</time></trkpt><trkpt lat="44.4959243" lon="7.262616"><ele>1028.0</ele><time>2026-04-04T13:51:37.49Z</time></trkpt><trkpt lat="44.4958103" lon="7.2625849"><ele>1028.0</ele><time>2026-04-04T13:51:39.49Z</time></trkpt><trkpt lat="44.4957241" lon="7.2625789"><ele>1028.0</ele><time>2026-04-04T13:51:41.491Z</time></trkpt><trkpt lat="44.4956722" lon="7.2626785"><ele>1028.0</ele><time>2026-04-04T13:51:44.491Z</time></trkpt><trkpt lat="44.4957198" lon="7.2627525"><ele>1028.0</ele><time>2026-04-04T13:51:46.49Z</time></trkpt><trkpt lat="44.4957858" lon="7.2628085"><ele>1028.0</ele><time>2026-04-04T13:51:48.491Z</time></trkpt><trkpt lat="44.4958731" lon="7.2628621"><ele>1028.0</ele><time>2026-04-04T13:51:50.491Z</time></trkpt><trkpt lat="44.4959682" lon="7.2629194"><ele>1028.0</ele><time>2026-04-04T13:51:52.49Z</time></trkpt><trkpt lat="44.4960565" lon="7.2629522"><ele>1028.0</ele><time>2026-04-04T13:51:54.491Z</time></trkpt><trkpt lat="44.4961298" lon="7.263022"><ele>1028.0</ele><time>2026-04-04T13:51:56.49Z</time></trkpt><trkpt lat="44.4961617" lon="7.2631359"><ele>1028.0</ele><time>2026-04-04T13:51:58.49Z</time></trkpt><trkpt lat="44.4961095" lon="7.2632115"><ele>1028.0</ele><time>2026-04-04T13:52:00.489Z</time></trkpt><trkpt lat="44.4960443" lon="7.2632212"><ele>1024.5</ele><time>2026-04-04T13:52:01.49Z</time></trkpt><trkpt lat="44.4959775" lon="7.2632424"><ele>1021.0</ele><time>2026-04-04T13:52:02.491Z</time></trkpt><trkpt lat="44.4958435" lon="7.2632195"><ele>1017.5</ele><time>2026-04-04T13:52:04.49Z</time></trkpt><trkpt lat="44.4957743" lon="7.2631978"><ele>1014.0</ele><time>2026-04-04T13:52:05.491Z</time></trkpt><trkpt lat="44.4957054" lon="7.2631785"><ele>1010.5000000000001</ele><time>2026-04-04T13:52:06.49Z</time></trkpt><trkpt lat="44.4956221" lon="7.2631754"><ele>1007.0</ele><time>2026-04-04T13:52:07.489Z</time></trkpt><trkpt lat="44.4955415" lon="7.2631799"><ele>1007.0</ele><time>2026-04-04T13:52:08.489Z</time></trkpt><trkpt lat="44.4954723" lon="7.2631974"><ele>1007.0</ele><time>2026-04-04T13:52:09.49Z</time></trkpt><trkpt lat="44.4954091" lon="7.2632104"><ele>1007.0</ele><time>2026-04-04T13:52:10.491Z</time></trkpt><trkpt lat="44.495313" lon="7.2632179"><ele>1007.0</ele><time>2026-04-04T13:52:12.491Z</time></trkpt><trkpt lat="44.4952405" lon="7.2631984"><ele>1007.0</ele><time>2026-04-04T13:52:14.491Z</time></trkpt><trkpt lat="44.495224" lon="7.2632844"><ele>1007.0</ele><time>2026-04-04T13:52:16.491Z</time></trkpt><trkpt lat="44.4952812" lon="7.263354"><ele>1007.0</ele><time>2026-04-04T13:52:18.491Z</time></trkpt><trkpt lat="44.4953992" lon="7.263425"><ele>1007.0000000000001</ele><time>2026-04-04T13:52:20.49Z</time></trkpt><trkpt lat="44.4954743" lon="7.2634629"><ele>1007.0</ele><time>2026-04-04T13:52:21.491Z</time></trkpt><trkpt lat="44.4955447" lon="7.2634917"><ele>1007.0</ele><time>2026-04-04T13:52:22.491Z</time></trkpt><trkpt lat="44.4956244" lon="7.2635215"><ele>1007.0</ele><time>2026-04-04T13:52:23.491Z</time></trkpt><trkpt lat="44.4957013" lon="7.2635643"><ele>1007.0000000000001</ele><time>2026-04-04T13:52:24.491Z</time></trkpt><trkpt lat="44.4957916" lon="7.263629"><ele>1007.0</ele><time>2026-04-04T13:52:25.491Z</time></trkpt><trkpt lat="44.4958741" lon="7.2636911"><ele>1007.0000000000001</ele><time>2026-04-04T13:52:26.491Z</time></trkpt><trkpt lat="44.4959329" lon="7.2637638"><ele>1007.0</ele><time>2026-04-04T13:52:27.491Z</time></trkpt><trkpt lat="44.4960074" lon="7.2638434"><ele>1007.0</ele><time>2026-04-04T13:52:28.489Z</time></trkpt><trkpt lat="44.4960747" lon="7.2639393"><ele>1007.0</ele><time>2026-04-04T13:52:29.489Z</time></trkpt><trkpt lat="44.4961259" lon="7.2640142"><ele>1007.0000000000001</ele><time>2026-04-04T13:52:30.491Z</time></trkpt><trkpt lat="44.4961774" lon="7.2640782"><ele>1007.0</ele><time>2026-04-04T13:52:31.49Z</time></trkpt><trkpt lat="44.4962513" lon="7.2641645"><ele>1004.3333333333334</ele><time>2026-04-04T13:52:33.491Z</time></trkpt><trkpt lat="44.4962768" lon="7.2642634"><ele>1001.6666666666667</ele><time>2026-04-04T13:52:35.491Z</time></trkpt><trkpt lat="44.4961843" lon="7.2642619"><ele>999.0</ele><time>2026-04-04T13:52:37.491Z</time></trkpt><trkpt lat="44.4960774" lon="7.2642185"><ele>996.3333333333333</ele><time>2026-04-04T13:52:39.491Z</time></trkpt><trkpt lat="44.4960102" lon="7.2641914"><ele>993.6666666666666</ele><time>2026-04-04T13:52:40.491Z</time></trkpt><trkpt lat="44.4959323" lon="7.2641591"><ele>991.0</ele><time>2026-04-04T13:52:41.49Z</time></trkpt><trkpt lat="44.4958421" lon="7.2641033"><ele>991.4</ele><time>2026-04-04T13:52:42.491Z</time></trkpt><trkpt lat="44.4957575" lon="7.2640599"><ele>991.8</ele><time>2026-04-04T13:52:43.49Z</time></trkpt><trkpt lat="44.4956736" lon="7.264021"><ele>992.1999999999999</ele><time>2026-04-04T13:52:44.491Z</time></trkpt><trkpt lat="44.4955851" lon="7.2639794"><ele>992.5999999999999</ele><time>2026-04-04T13:52:45.49Z</time></trkpt><trkpt lat="44.4954954" lon="7.2639561"><ele>993.0</ele><time>2026-04-04T13:52:46.49Z</time></trkpt><trkpt lat="44.4954023" lon="7.2639449"><ele>993.0</ele><time>2026-04-04T13:52:47.49Z</time></trkpt><trkpt lat="44.4953079" lon="7.2639425"><ele>993.0</ele><time>2026-04-04T13:52:48.49Z</time></trkpt><trkpt lat="44.4952431" lon="7.2639398"><ele>993.0</ele><time>2026-04-04T13:52:49.49Z</time></trkpt><trkpt lat="44.4951609" lon="7.2639417"><ele>993.0</ele><time>2026-04-04T13:52:50.491Z</time></trkpt><trkpt lat="44.4950847" lon="7.2639661"><ele>993.0</ele><time>2026-04-04T13:52:51.49Z</time></trkpt><trkpt lat="44.4950265" lon="7.2640001"><ele>993.0</ele><time>2026-04-04T13:52:52.491Z</time></trkpt><trkpt lat="44.4949682" lon="7.2640414"><ele>993.0</ele><time>2026-04-04T13:52:53.49Z</time></trkpt><trkpt lat="44.4948951" lon="7.2641084"><ele>988.2</ele><time>2026-04-04T13:52:55.49Z</time></trkpt><trkpt lat="44.4947956" lon="7.2641395"><ele>983.4</ele><time>2026-04-04T13:52:57.491Z</time></trkpt><trkpt lat="44.4946783" lon="7.2641214"><ele>978.6000000000001</ele><time>2026-04-04T13:52:59.49Z</time></trkpt><trkpt lat="44.4945523" lon="7.2641043"><ele>973.8000000000001</ele><time>2026-04-04T13:53:01.49Z</time></trkpt><trkpt lat="44.4944835" lon="7.2641076"><ele>969.0</ele><time>2026-04-04T13:53:02.491Z</time></trkpt><trkpt lat="44.4944117" lon="7.2641268"><ele>967.6666666666666</ele><time>2026-04-04T13:53:03.49Z</time></trkpt><trkpt lat="44.4943334" lon="7.2641554"><ele>966.3333333333333</ele><time>2026-04-04T13:53:04.49Z</time></trkpt><trkpt lat="44.4942454" lon="7.2641853"><ele>965.0</ele><time>2026-04-04T13:53:05.491Z</time></trkpt><trkpt lat="44.4941585" lon="7.2642086"><ele>963.6666666666666</ele><time>2026-04-04T13:53:06.49Z</time></trkpt><trkpt lat="44.494075" lon="7.2642267"><ele>962.3333333333333</ele><time>2026-04-04T13:53:07.491Z</time></trkpt><trkpt lat="44.4939858" lon="7.2642385"><ele>961.0</ele><time>2026-04-04T13:53:08.49Z</time></trkpt><trkpt lat="44.4939037" lon="7.2642602"><ele>960.9999999999999</ele><time>2026-04-04T13:53:09.489Z</time></trkpt><trkpt lat="44.4938248" lon="7.2642798"><ele>961.0</ele><time>2026-04-04T13:53:10.491Z</time></trkpt><trkpt lat="44.4937311" lon="7.2643017"><ele>961.0</ele><time>2026-04-04T13:53:11.491Z</time></trkpt><trkpt lat="44.4936299" lon="7.2643141"><ele>961.0</ele><time>2026-04-04T13:53:13.491Z</time></trkpt><trkpt lat="44.4935531" lon="7.2642962"><ele>960.9999999999999</ele><time>2026-04-04T13:53:15.49Z</time></trkpt><trkpt lat="44.4934737" lon="7.2642576"><ele>961.0</ele><time>2026-04-04T13:53:18.491Z</time></trkpt><trkpt lat="44.4933754" lon="7.2642225"><ele>958.8333333333333</ele><time>2026-04-04T13:53:38.491Z</time></trkpt><trkpt lat="44.493276" lon="7.2641544"><ele>956.6666666666666</ele><time>2026-04-04T13:53:40.491Z</time></trkpt><trkpt lat="44.4932151" lon="7.2641245"><ele>954.5</ele><time>2026-04-04T13:53:41.49Z</time></trkpt><trkpt lat="44.4931015" lon="7.2640855"><ele>952.3333333333333</ele><time>2026-04-04T13:53:43.491Z</time></trkpt><trkpt lat="44.4930335" lon="7.26407"><ele>950.1666666666666</ele><time>2026-04-04T13:53:44.491Z</time></trkpt><trkpt lat="44.4929645" lon="7.2640611"><ele>948.0</ele><time>2026-04-04T13:53:45.491Z</time></trkpt><trkpt lat="44.4928944" lon="7.2640462"><ele>945.5</ele><time>2026-04-04T13:53:46.491Z</time></trkpt><trkpt lat="44.4927753" lon="7.2640335"><ele>943.0</ele><time>2026-04-04T13:53:48.491Z</time></trkpt><trkpt lat="44.4926551" lon="7.2640632"><ele>940.5</ele><time>2026-04-04T13:53:50.49Z</time></trkpt><trkpt lat="44.492551" lon="7.2641314"><ele>938.0</ele><time>2026-04-04T13:53:52.49Z</time></trkpt><trkpt lat="44.4924641" lon="7.264193"><ele>938.0</ele><time>2026-04-04T13:53:54.49Z</time></trkpt><trkpt lat="44.4923364" lon="7.2641998"><ele>938.0</ele><time>2026-04-04T13:53:56.491Z</time></trkpt><trkpt lat="44.4922567" lon="7.264206"><ele>938.0</ele><time>2026-04-04T13:53:57.491Z</time></trkpt><trkpt lat="44.4921684" lon="7.2642122"><ele>938.0</ele><time>2026-04-04T13:53:58.491Z</time></trkpt><trkpt lat="44.4920771" lon="7.2642188"><ele>938.0</ele><time>2026-04-04T13:53:59.49Z</time></trkpt><trkpt lat="44.4919903" lon="7.2642266"><ele>935.5000000000001</ele><time>2026-04-04T13:54:00.491Z</time></trkpt><trkpt lat="44.4919014" lon="7.264247"><ele>933.0</ele><time>2026-04-04T13:54:01.491Z</time></trkpt><trkpt lat="44.4918094" lon="7.264272"><ele>930.5</ele><time>2026-04-04T13:54:02.49Z</time></trkpt><trkpt lat="44.4917219" lon="7.2642996"><ele>928.0</ele><time>2026-04-04T13:54:03.49Z</time></trkpt><trkpt lat="44.4916449" lon="7.2643359"><ele>925.5000000000001</ele><time>2026-04-04T13:54:04.491Z</time></trkpt><trkpt lat="44.4915764" lon="7.2643742"><ele>923.0</ele><time>2026-04-04T13:54:05.491Z</time></trkpt><trkpt lat="44.4915074" lon="7.2644079"><ele>923.0000000000001</ele><time>2026-04-04T13:54:06.491Z</time></trkpt><trkpt lat="44.4914457" lon="7.2644355"><ele>923.0</ele><time>2026-04-04T13:54:07.49Z</time></trkpt><trkpt lat="44.4913407" lon="7.2644736"><ele>923.0</ele><time>2026-04-04T13:54:09.49Z</time></trkpt><trkpt lat="44.4912635" lon="7.2645154"><ele>923.0</ele><time>2026-04-04T13:54:11.491Z</time></trkpt><trkpt lat="44.4912001" lon="7.2644892"><ele>923.0000000000001</ele><time>2026-04-04T13:54:13.49Z</time></trkpt><trkpt lat="44.4911888" lon="7.2643846"><ele>923.0</ele><time>2026-04-04T13:54:15.491Z</time></trkpt><trkpt lat="44.4912078" lon="7.2642298"><ele>922.1666666666667</ele><time>2026-04-04T13:54:17.491Z</time></trkpt><trkpt lat="44.4912231" lon="7.2641373"><ele>921.3333333333334</ele><time>2026-04-04T13:54:18.491Z</time></trkpt><trkpt lat="44.4912322" lon="7.2640296"><ele>920.5</ele><time>2026-04-04T13:54:19.49Z</time></trkpt><trkpt lat="44.4912405" lon="7.2639315"><ele>919.6666666666667</ele><time>2026-04-04T13:54:20.49Z</time></trkpt><trkpt lat="44.4912619" lon="7.2638296"><ele>918.8333333333334</ele><time>2026-04-04T13:54:21.49Z</time></trkpt><trkpt lat="44.4913051" lon="7.2637277"><ele>918.0</ele><time>2026-04-04T13:54:22.491Z</time></trkpt><trkpt lat="44.4913441" lon="7.2636053"><ele>918.0</ele><time>2026-04-04T13:54:23.491Z</time></trkpt><trkpt lat="44.4913762" lon="7.263492"><ele>918.0</ele><time>2026-04-04T13:54:24.49Z</time></trkpt><trkpt lat="44.4914104" lon="7.2633904"><ele>918.0</ele><time>2026-04-04T13:54:25.491Z</time></trkpt><trkpt lat="44.4914415" lon="7.2632861"><ele>918.0</ele><time>2026-04-04T13:54:26.491Z</time></trkpt><trkpt lat="44.4914676" lon="7.263165"><ele>918.0</ele><time>2026-04-04T13:54:27.49Z</time></trkpt><trkpt lat="44.4914756" lon="7.2630552"><ele>918.0</ele><time>2026-04-04T13:54:28.491Z</time></trkpt><trkpt lat="44.4914895" lon="7.2629673"><ele>913.0</ele><time>2026-04-04T13:54:29.491Z</time></trkpt><trkpt lat="44.491515" lon="7.2628803"><ele>908.0</ele><time>2026-04-04T13:54:30.49Z</time></trkpt><trkpt lat="44.4915585" lon="7.2627993"><ele>903.0</ele><time>2026-04-04T13:54:31.49Z</time></trkpt><trkpt lat="44.4916185" lon="7.2627237"><ele>898.0</ele><time>2026-04-04T13:54:32.49Z</time></trkpt><trkpt lat="44.4916891" lon="7.262649"><ele>893.0</ele><time>2026-04-04T13:54:33.49Z</time></trkpt><trkpt lat="44.4917694" lon="7.2625826"><ele>888.0</ele><time>2026-04-04T13:54:34.49Z</time></trkpt><trkpt lat="44.4918554" lon="7.2625139"><ele>888.0</ele><time>2026-04-04T13:54:35.489Z</time></trkpt><trkpt lat="44.4919391" lon="7.2624448"><ele>888.0</ele><time>2026-04-04T13:54:36.491Z</time></trkpt><trkpt lat="44.4920113" lon="7.2623806"><ele>888.0</ele><time>2026-04-04T13:54:37.491Z</time></trkpt><trkpt lat="44.4920733" lon="7.2623158"><ele>888.0</ele><time>2026-04-04T13:54:38.491Z</time></trkpt><trkpt lat="44.4921268" lon="7.2622391"><ele>888.0</ele><time>2026-04-04T13:54:39.491Z</time></trkpt><trkpt lat="44.4921824" lon="7.2621733"><ele>888.0</ele><time>2026-04-04T13:54:40.491Z</time></trkpt><trkpt lat="44.4922478" lon="7.2621084"><ele>887.8333333333334</ele><time>2026-04-04T13:54:41.491Z</time></trkpt><trkpt lat="44.4923243" lon="7.2620432"><ele>887.6666666666667</ele><time>2026-04-04T13:54:42.491Z</time></trkpt><trkpt lat="44.4923964" lon="7.261988"><ele>887.5</ele><time>2026-04-04T13:54:43.49Z</time></trkpt><trkpt lat="44.4924578" lon="7.261932"><ele>887.3333333333334</ele><time>2026-04-04T13:54:44.491Z</time></trkpt><trkpt lat="44.4925115" lon="7.2618819"><ele>887.1666666666667</ele><time>2026-04-04T13:54:45.49Z</time></trkpt><trkpt lat="44.492581" lon="7.2617505"><ele>887.0</ele><time>2026-04-04T13:54:47.491Z</time></trkpt><trkpt lat="44.4926355" lon="7.2615867"><ele>885.8</ele><time>2026-04-04T13:54:49.491Z</time></trkpt><trkpt lat="44.4925946" lon="7.2614394"><ele>884.6</ele><time>2026-04-04T13:54:50.491Z</time></trkpt><trkpt lat="44.4925851" lon="7.2613032"><ele>883.3999999999999</ele><time>2026-04-04T13:54:51.49Z</time></trkpt><trkpt lat="44.4925893" lon="7.2611915"><ele>882.1999999999999</ele><time>2026-04-04T13:54:52.491Z</time></trkpt><trkpt lat="44.4925955" lon="7.2610825"><ele>881.0</ele><time>2026-04-04T13:54:53.491Z</time></trkpt><trkpt lat="44.4925523" lon="7.2609797"><ele>881.0000000000001</ele><time>2026-04-04T13:54:54.489Z</time></trkpt><trkpt lat="44.4924963" lon="7.2608722"><ele>881.0</ele><time>2026-04-04T13:54:55.49Z</time></trkpt><trkpt lat="44.49246" lon="7.2607971"><ele>881.0</ele><time>2026-04-04T13:54:56.491Z</time></trkpt><trkpt lat="44.4923925" lon="7.2607041"><ele>881.0</ele><time>2026-04-04T13:54:57.489Z</time></trkpt><trkpt lat="44.4923241" lon="7.2606277"><ele>881.0000000000001</ele><time>2026-04-04T13:54:58.489Z</time></trkpt><trkpt lat="44.4922619" lon="7.2605436"><ele>881.0</ele><time>2026-04-04T13:54:59.491Z</time></trkpt><trkpt lat="44.4922258" lon="7.2604438"><ele>885.3333333333334</ele><time>2026-04-04T13:55:00.491Z</time></trkpt><trkpt lat="44.4921569" lon="7.2603577"><ele>889.6666666666667</ele><time>2026-04-04T13:55:01.491Z</time></trkpt><trkpt lat="44.4920897" lon="7.2602805"><ele>894.0</ele><time>2026-04-04T13:55:02.491Z</time></trkpt><trkpt lat="44.4920283" lon="7.2602126"><ele>898.3333333333333</ele><time>2026-04-04T13:55:03.491Z</time></trkpt><trkpt lat="44.4919678" lon="7.2601407"><ele>902.6666666666666</ele><time>2026-04-04T13:55:04.49Z</time></trkpt><trkpt lat="44.4919126" lon="7.2600509"><ele>907.0</ele><time>2026-04-04T13:55:05.49Z</time></trkpt><trkpt lat="44.4918595" lon="7.2599479"><ele>900.6666666666666</ele><time>2026-04-04T13:55:06.491Z</time></trkpt><trkpt lat="44.4918008" lon="7.2598563"><ele>894.3333333333333</ele><time>2026-04-04T13:55:07.49Z</time></trkpt><trkpt lat="44.4917372" lon="7.2597787"><ele>888.0</ele><time>2026-04-04T13:55:08.49Z</time></trkpt><trkpt lat="44.4916823" lon="7.2596941"><ele>881.6666666666667</ele><time>2026-04-04T13:55:09.491Z</time></trkpt><trkpt lat="44.4916295" lon="7.2595916"><ele>875.3333333333334</ele><time>2026-04-04T13:55:10.49Z</time></trkpt><trkpt lat="44.4915793" lon="7.2594862"><ele>869.0</ele><time>2026-04-04T13:55:11.491Z</time></trkpt><trkpt lat="44.4915393" lon="7.2593725"><ele>869.0</ele><time>2026-04-04T13:55:12.49Z</time></trkpt><trkpt lat="44.4915065" lon="7.2592532"><ele>869.0000000000001</ele><time>2026-04-04T13:55:13.49Z</time></trkpt><trkpt lat="44.4914743" lon="7.2591187"><ele>869.0000000000001</ele><time>2026-04-04T13:55:14.49Z</time></trkpt><trkpt lat="44.4914492" lon="7.2589936"><ele>869.0</ele><time>2026-04-04T13:55:15.49Z</time></trkpt><trkpt lat="44.4914251" lon="7.2588637"><ele>869.0</ele><time>2026-04-04T13:55:16.49Z</time></trkpt><trkpt lat="44.4914057" lon="7.2587324"><ele>869.2</ele><time>2026-04-04T13:55:17.49Z</time></trkpt><trkpt lat="44.4913848" lon="7.2585918"><ele>869.4000000000001</ele><time>2026-04-04T13:55:18.491Z</time></trkpt><trkpt lat="44.4913612" lon="7.2584564"><ele>869.6</ele><time>2026-04-04T13:55:19.49Z</time></trkpt><trkpt lat="44.49134" lon="7.25832"><ele>869.8</ele><time>2026-04-04T13:55:20.491Z</time></trkpt><trkpt lat="44.4913179" lon="7.2581865"><ele>870.0</ele><time>2026-04-04T13:55:21.491Z</time></trkpt><trkpt lat="44.4912993" lon="7.2580469"><ele>870.2</ele><time>2026-04-04T13:55:22.491Z</time></trkpt><trkpt lat="44.4912782" lon="7.2578973"><ele>870.4</ele><time>2026-04-04T13:55:23.49Z</time></trkpt><trkpt lat="44.4912594" lon="7.2577406"><ele>870.5999999999999</ele><time>2026-04-04T13:55:24.491Z</time></trkpt><trkpt lat="44.4912436" lon="7.257581"><ele>870.8</ele><time>2026-04-04T13:55:25.491Z</time></trkpt><trkpt lat="44.491231" lon="7.2574296"><ele>871.0</ele><time>2026-04-04T13:55:26.49Z</time></trkpt><trkpt lat="44.4912174" lon="7.2572859"><ele>859.5999999999999</ele><time>2026-04-04T13:55:27.489Z</time></trkpt><trkpt lat="44.4912008" lon="7.2571511"><ele>848.1999999999999</ele><time>2026-04-04T13:55:28.49Z</time></trkpt><trkpt lat="44.4911858" lon="7.2570139"><ele>836.8</ele><time>2026-04-04T13:55:29.489Z</time></trkpt><trkpt lat="44.4911729" lon="7.2568778"><ele>825.4000000000001</ele><time>2026-04-04T13:55:30.489Z</time></trkpt><trkpt lat="44.4911667" lon="7.2567489"><ele>814.0</ele><time>2026-04-04T13:55:31.49Z</time></trkpt><trkpt lat="44.491165" lon="7.2566244"><ele>813.9999999999999</ele><time>2026-04-04T13:55:32.49Z</time></trkpt><trkpt lat="44.4911702" lon="7.2565077"><ele>814.0</ele><time>2026-04-04T13:55:33.489Z</time></trkpt><trkpt lat="44.4911924" lon="7.2563872"><ele>814.0</ele><time>2026-04-04T13:55:34.49Z</time></trkpt><trkpt lat="44.4912222" lon="7.2562778"><ele>814.0</ele><time>2026-04-04T13:55:35.489Z</time></trkpt><trkpt lat="44.491236" lon="7.2561685"><ele>813.9999999999999</ele><time>2026-04-04T13:55:36.489Z</time></trkpt><trkpt lat="44.4912289" lon="7.2560644"><ele>814.0</ele><time>2026-04-04T13:55:37.49Z</time></trkpt><trkpt lat="44.4912189" lon="7.2559604"><ele>813.6666666666666</ele><time>2026-04-04T13:55:38.49Z</time></trkpt><trkpt lat="44.4911892" lon="7.2558466"><ele>813.3333333333333</ele><time>2026-04-04T13:55:39.488Z</time></trkpt><trkpt lat="44.4911613" lon="7.2557281"><ele>813.0</ele><time>2026-04-04T13:55:40.49Z</time></trkpt><trkpt lat="44.4911308" lon="7.2556158"><ele>812.6666666666667</ele><time>2026-04-04T13:55:41.489Z</time></trkpt><trkpt lat="44.4911029" lon="7.2555155"><ele>812.3333333333334</ele><time>2026-04-04T13:55:42.49Z</time></trkpt><trkpt lat="44.491077" lon="7.2554163"><ele>812.0</ele><time>2026-04-04T13:55:43.49Z</time></trkpt><trkpt lat="44.4910597" lon="7.2553129"><ele>810.2857142857143</ele><time>2026-04-04T13:55:44.489Z</time></trkpt><trkpt lat="44.4910526" lon="7.2552163"><ele>808.5714285714286</ele><time>2026-04-04T13:55:45.49Z</time></trkpt><trkpt lat="44.4910515" lon="7.2551248"><ele>806.8571428571429</ele><time>2026-04-04T13:55:46.49Z</time></trkpt><trkpt lat="44.4910603" lon="7.2550278"><ele>805.1428571428571</ele><time>2026-04-04T13:55:47.49Z</time></trkpt><trkpt lat="44.4910794" lon="7.2549254"><ele>803.4285714285714</ele><time>2026-04-04T13:55:48.49Z</time></trkpt><trkpt lat="44.4911085" lon="7.2548207"><ele>801.7142857142858</ele><time>2026-04-04T13:55:49.489Z</time></trkpt><trkpt lat="44.4911402" lon="7.2547125"><ele>800.0</ele><time>2026-04-04T13:55:50.489Z</time></trkpt><trkpt lat="44.49118" lon="7.2546066"><ele>796.2</ele><time>2026-04-04T13:55:51.489Z</time></trkpt><trkpt lat="44.4912282" lon="7.2545001"><ele>792.4</ele><time>2026-04-04T13:55:52.489Z</time></trkpt><trkpt lat="44.4912838" lon="7.254383"><ele>788.5999999999999</ele><time>2026-04-04T13:55:53.489Z</time></trkpt><trkpt lat="44.4913379" lon="7.2542623"><ele>784.8</ele><time>2026-04-04T13:55:54.489Z</time></trkpt><trkpt lat="44.4913881" lon="7.2541542"><ele>781.0</ele><time>2026-04-04T13:55:55.489Z</time></trkpt><trkpt lat="44.4914286" lon="7.2540607"><ele>784.4</ele><time>2026-04-04T13:55:56.49Z</time></trkpt><trkpt lat="44.491486" lon="7.2539288"><ele>787.8</ele><time>2026-04-04T13:55:58.489Z</time></trkpt><trkpt lat="44.4915846" lon="7.2538456"><ele>791.1999999999999</ele><time>2026-04-04T13:56:00.489Z</time></trkpt><trkpt lat="44.4916473" lon="7.2538056"><ele>794.5999999999999</ele><time>2026-04-04T13:56:01.489Z</time></trkpt><trkpt lat="44.4917156" lon="7.2537509"><ele>798.0</ele><time>2026-04-04T13:56:02.49Z</time></trkpt><trkpt lat="44.4917742" lon="7.2536771"><ele>798.0</ele><time>2026-04-04T13:56:03.49Z</time></trkpt><trkpt lat="44.4918317" lon="7.2535926"><ele>798.0</ele><time>2026-04-04T13:56:04.489Z</time></trkpt><trkpt lat="44.4918799" lon="7.2535184"><ele>798.0</ele><time>2026-04-04T13:56:05.49Z</time></trkpt><trkpt lat="44.4919293" lon="7.2534402"><ele>798.0</ele><time>2026-04-04T13:56:06.489Z</time></trkpt><trkpt lat="44.4919739" lon="7.2532773"><ele>798.0</ele><time>2026-04-04T13:56:08.489Z</time></trkpt><trkpt lat="44.4920121" lon="7.2531202"><ele>796.4</ele><time>2026-04-04T13:56:10.489Z</time></trkpt><trkpt lat="44.4920905" lon="7.2529764"><ele>794.8</ele><time>2026-04-04T13:56:12.489Z</time></trkpt><trkpt lat="44.492146" lon="7.252914"><ele>793.2</ele><time>2026-04-04T13:56:13.489Z</time></trkpt><trkpt lat="44.4922159" lon="7.2528581"><ele>791.6</ele><time>2026-04-04T13:56:14.489Z</time></trkpt><trkpt lat="44.4922863" lon="7.2527908"><ele>790.0</ele><time>2026-04-04T13:56:15.49Z</time></trkpt><trkpt lat="44.4923505" lon="7.2527131"><ele>789.9999999999999</ele><time>2026-04-04T13:56:16.49Z</time></trkpt><trkpt lat="44.4924042" lon="7.252652"><ele>790.0</ele><time>2026-04-04T13:56:17.49Z</time></trkpt><trkpt lat="44.492498" lon="7.2525935"><ele>790.0</ele><time>2026-04-04T13:56:19.49Z</time></trkpt><trkpt lat="44.4925701" lon="7.252545"><ele>790.0</ele><time>2026-04-04T13:56:22.49Z</time></trkpt><trkpt lat="44.4925382" lon="7.2524554"><ele>789.9999999999999</ele><time>2026-04-04T13:56:25.49Z</time></trkpt><trkpt lat="44.4924429" lon="7.2525106"><ele>790.0</ele><time>2026-04-04T13:56:27.49Z</time></trkpt><trkpt lat="44.4923813" lon="7.2525396"><ele>789.9999999999999</ele><time>2026-04-04T13:56:28.488Z</time></trkpt><trkpt lat="44.4923111" lon="7.2525752"><ele>790.0</ele><time>2026-04-04T13:56:29.489Z</time></trkpt><trkpt lat="44.4922346" lon="7.2526182"><ele>790.0</ele><time>2026-04-04T13:56:30.49Z</time></trkpt><trkpt lat="44.4921552" lon="7.2526656"><ele>790.0</ele><time>2026-04-04T13:56:31.49Z</time></trkpt><trkpt lat="44.4920715" lon="7.2527075"><ele>789.9999999999999</ele><time>2026-04-04T13:56:32.49Z</time></trkpt><trkpt lat="44.4919861" lon="7.2527497"><ele>790.0</ele><time>2026-04-04T13:56:33.489Z</time></trkpt><trkpt lat="44.4918892" lon="7.2527576"><ele>786.8333333333333</ele><time>2026-04-04T13:56:34.49Z</time></trkpt><trkpt lat="44.4917977" lon="7.2527625"><ele>783.6666666666666</ele><time>2026-04-04T13:56:35.49Z</time></trkpt><trkpt lat="44.4917191" lon="7.252768"><ele>780.5</ele><time>2026-04-04T13:56:36.49Z</time></trkpt><trkpt lat="44.4916468" lon="7.2527841"><ele>777.3333333333333</ele><time>2026-04-04T13:56:37.489Z</time></trkpt><trkpt lat="44.4915774" lon="7.2528058"><ele>774.1666666666666</ele><time>2026-04-04T13:56:38.489Z</time></trkpt><trkpt lat="44.4915065" lon="7.2528439"><ele>771.0</ele><time>2026-04-04T13:56:39.49Z</time></trkpt><trkpt lat="44.4914371" lon="7.2528984"><ele>771.0</ele><time>2026-04-04T13:56:40.489Z</time></trkpt><trkpt lat="44.4913681" lon="7.252969"><ele>771.0</ele><time>2026-04-04T13:56:41.49Z</time></trkpt><trkpt lat="44.4912913" lon="7.2530387"><ele>771.0</ele><time>2026-04-04T13:56:42.489Z</time></trkpt><trkpt lat="44.4912084" lon="7.2531091"><ele>771.0</ele><time>2026-04-04T13:56:43.489Z</time></trkpt><trkpt lat="44.4911219" lon="7.2531853"><ele>771.0</ele><time>2026-04-04T13:56:44.489Z</time></trkpt><trkpt lat="44.49104" lon="7.2532538"><ele>770.8333333333334</ele><time>2026-04-04T13:56:45.49Z</time></trkpt><trkpt lat="44.4909605" lon="7.2533174"><ele>770.6666666666667</ele><time>2026-04-04T13:56:46.489Z</time></trkpt><trkpt lat="44.4908859" lon="7.2533794"><ele>770.5</ele><time>2026-04-04T13:56:47.489Z</time></trkpt><trkpt lat="44.4908174" lon="7.2534361"><ele>770.3333333333334</ele><time>2026-04-04T13:56:48.49Z</time></trkpt><trkpt lat="44.4907555" lon="7.2534892"><ele>770.1666666666667</ele><time>2026-04-04T13:56:49.489Z</time></trkpt><trkpt lat="44.4906568" lon="7.2535743"><ele>770.0</ele><time>2026-04-04T13:56:51.49Z</time></trkpt><trkpt lat="44.4905731" lon="7.2536513"><ele>770.0</ele><time>2026-04-04T13:56:53.489Z</time></trkpt><trkpt lat="44.4904992" lon="7.2537118"><ele>770.0</ele><time>2026-04-04T13:56:55.49Z</time></trkpt><trkpt lat="44.4904017" lon="7.2537243"><ele>770.0</ele><time>2026-04-04T13:56:57.49Z</time></trkpt><trkpt lat="44.4902924" lon="7.2536757"><ele>770.0</ele><time>2026-04-04T13:56:59.49Z</time></trkpt><trkpt lat="44.4901733" lon="7.2536635"><ele>770.0</ele><time>2026-04-04T13:57:01.49Z</time></trkpt><trkpt lat="44.4901107" lon="7.253695"><ele>768.4</ele><time>2026-04-04T13:57:02.49Z</time></trkpt><trkpt lat="44.4900515" lon="7.2537368"><ele>766.8</ele><time>2026-04-04T13:57:03.49Z</time></trkpt><trkpt lat="44.4899915" lon="7.2537772"><ele>765.2</ele><time>2026-04-04T13:57:04.489Z</time></trkpt><trkpt lat="44.4898954" lon="7.2538861"><ele>763.6</ele><time>2026-04-04T13:57:06.488Z</time></trkpt><trkpt lat="44.4898168" lon="7.2540123"><ele>762.0</ele><time>2026-04-04T13:57:08.49Z</time></trkpt><trkpt lat="44.4897397" lon="7.2541273"><ele>762.0</ele><time>2026-04-04T13:57:10.489Z</time></trkpt><trkpt lat="44.4896509" lon="7.2542496"><ele>762.0</ele><time>2026-04-04T13:57:12.49Z</time></trkpt><trkpt lat="44.489602" lon="7.2543191"><ele>762.0</ele><time>2026-04-04T13:57:13.49Z</time></trkpt><trkpt lat="44.4895426" lon="7.2543762"><ele>762.0</ele><time>2026-04-04T13:57:14.49Z</time></trkpt><trkpt lat="44.4894834" lon="7.2544314"><ele>762.0</ele><time>2026-04-04T13:57:15.49Z</time></trkpt><trkpt lat="44.4894259" lon="7.2544937"><ele>762.0</ele><time>2026-04-04T13:57:16.489Z</time></trkpt><trkpt lat="44.4893685" lon="7.2545582"><ele>761.0</ele><time>2026-04-04T13:57:17.49Z</time></trkpt><trkpt lat="44.4893143" lon="7.2546172"><ele>760.0</ele><time>2026-04-04T13:57:18.49Z</time></trkpt><trkpt lat="44.489212" lon="7.2547205"><ele>759.0</ele><time>2026-04-04T13:57:20.49Z</time></trkpt><trkpt lat="44.4891611" lon="7.2547751"><ele>758.0</ele><time>2026-04-04T13:57:21.488Z</time></trkpt><trkpt lat="44.4891089" lon="7.2548338"><ele>757.0</ele><time>2026-04-04T13:57:22.49Z</time></trkpt><trkpt lat="44.4890016" lon="7.2549303"><ele>757.0</ele><time>2026-04-04T13:57:24.489Z</time></trkpt><trkpt lat="44.4889467" lon="7.2549861"><ele>757.0</ele><time>2026-04-04T13:57:25.49Z</time></trkpt><trkpt lat="44.4888938" lon="7.2550585"><ele>757.0</ele><time>2026-04-04T13:57:26.49Z</time></trkpt><trkpt lat="44.4888502" lon="7.2551294"><ele>757.0</ele><time>2026-04-04T13:57:27.489Z</time></trkpt><trkpt lat="44.4888009" lon="7.255209"><ele>757.0</ele><time>2026-04-04T13:57:28.49Z</time></trkpt><trkpt lat="44.4887627" lon="7.2552807"><ele>757.0</ele><time>2026-04-04T13:57:29.49Z</time></trkpt><trkpt lat="44.4887095" lon="7.2553766"><ele>757.0</ele><time>2026-04-04T13:57:30.49Z</time></trkpt><trkpt lat="44.4886721" lon="7.2554632"><ele>757.0</ele><time>2026-04-04T13:57:31.49Z</time></trkpt><trkpt lat="44.4886183" lon="7.2555701"><ele>757.0</ele><time>2026-04-04T13:57:32.489Z</time></trkpt><trkpt lat="44.4885759" lon="7.2556687"><ele>757.0</ele><time>2026-04-04T13:57:33.489Z</time></trkpt><trkpt lat="44.4885335" lon="7.2557706"><ele>757.0</ele><time>2026-04-04T13:57:34.49Z</time></trkpt><trkpt lat="44.488484" lon="7.2558767"><ele>757.0</ele><time>2026-04-04T13:57:35.49Z</time></trkpt><trkpt lat="44.488438" lon="7.2559823"><ele>757.0</ele><time>2026-04-04T13:57:36.489Z</time></trkpt><trkpt lat="44.4883968" lon="7.2560898"><ele>756.8333333333334</ele><time>2026-04-04T13:57:37.49Z</time></trkpt><trkpt lat="44.488361" lon="7.2562017"><ele>756.6666666666667</ele><time>2026-04-04T13:57:38.489Z</time></trkpt><trkpt lat="44.4883232" lon="7.2563119"><ele>756.5</ele><time>2026-04-04T13:57:39.489Z</time></trkpt><trkpt lat="44.4882808" lon="7.256418"><ele>756.3333333333334</ele><time>2026-04-04T13:57:40.49Z</time></trkpt><trkpt lat="44.4882405" lon="7.2565258"><ele>756.1666666666666</ele><time>2026-04-04T13:57:41.488Z</time></trkpt><trkpt lat="44.4882065" lon="7.2566317"><ele>756.0</ele><time>2026-04-04T13:57:42.49Z</time></trkpt><trkpt lat="44.4881675" lon="7.2567386"><ele>755.6666666666666</ele><time>2026-04-04T13:57:43.49Z</time></trkpt><trkpt lat="44.4881331" lon="7.2568499"><ele>755.3333333333334</ele><time>2026-04-04T13:57:44.49Z</time></trkpt><trkpt lat="44.4881004" lon="7.2569567"><ele>755.0</ele><time>2026-04-04T13:57:45.489Z</time></trkpt><trkpt lat="44.4880653" lon="7.2570616"><ele>754.6666666666667</ele><time>2026-04-04T13:57:46.49Z</time></trkpt><trkpt lat="44.4880347" lon="7.25717"><ele>754.3333333333334</ele><time>2026-04-04T13:57:47.489Z</time></trkpt><trkpt lat="44.4879998" lon="7.2572753"><ele>754.0</ele><time>2026-04-04T13:57:48.49Z</time></trkpt><trkpt lat="44.4879678" lon="7.2573805"><ele>753.5714285714286</ele><time>2026-04-04T13:57:49.489Z</time></trkpt><trkpt lat="44.4879371" lon="7.2574851"><ele>753.1428571428571</ele><time>2026-04-04T13:57:50.488Z</time></trkpt><trkpt lat="44.4879055" lon="7.2575789"><ele>752.7142857142858</ele><time>2026-04-04T13:57:51.489Z</time></trkpt><trkpt lat="44.4878774" lon="7.2576743"><ele>752.2857142857142</ele><time>2026-04-04T13:57:52.489Z</time></trkpt><trkpt lat="44.487856" lon="7.2577674"><ele>751.8571428571429</ele><time>2026-04-04T13:57:53.49Z</time></trkpt><trkpt lat="44.487841" lon="7.2578617"><ele>751.4285714285714</ele><time>2026-04-04T13:57:54.489Z</time></trkpt><trkpt lat="44.4878384" lon="7.2579568"><ele>751.0</ele><time>2026-04-04T13:57:55.489Z</time></trkpt><trkpt lat="44.4878379" lon="7.2580485"><ele>750.6666666666667</ele><time>2026-04-04T13:57:56.49Z</time></trkpt><trkpt lat="44.4878439" lon="7.2581404"><ele>750.3333333333334</ele><time>2026-04-04T13:57:57.49Z</time></trkpt><trkpt lat="44.4878709" lon="7.2583169"><ele>750.0</ele><time>2026-04-04T13:57:59.488Z</time></trkpt><trkpt lat="44.4878865" lon="7.2584051"><ele>749.6666666666666</ele><time>2026-04-04T13:58:00.49Z</time></trkpt><trkpt lat="44.4879045" lon="7.2584939"><ele>749.3333333333333</ele><time>2026-04-04T13:58:01.49Z</time></trkpt><trkpt lat="44.4879242" lon="7.258584"><ele>749.0</ele><time>2026-04-04T13:58:02.49Z</time></trkpt><trkpt lat="44.4879455" lon="7.2586777"><ele>749.0</ele><time>2026-04-04T13:58:03.489Z</time></trkpt><trkpt lat="44.4879665" lon="7.2587697"><ele>749.0</ele><time>2026-04-04T13:58:04.49Z</time></trkpt><trkpt lat="44.487991" lon="7.2588642"><ele>749.0</ele><time>2026-04-04T13:58:05.49Z</time></trkpt><trkpt lat="44.4880105" lon="7.258961"><ele>749.0</ele><time>2026-04-04T13:58:06.489Z</time></trkpt><trkpt lat="44.4880307" lon="7.2590579"><ele>749.0</ele><time>2026-04-04T13:58:07.49Z</time></trkpt><trkpt lat="44.4880511" lon="7.2591519"><ele>749.0</ele><time>2026-04-04T13:58:08.49Z</time></trkpt><trkpt lat="44.4880724" lon="7.2592475"><ele>749.0</ele><time>2026-04-04T13:58:09.49Z</time></trkpt><trkpt lat="44.4880956" lon="7.2593471"><ele>749.0</ele><time>2026-04-04T13:58:10.489Z</time></trkpt><trkpt lat="44.4881193" lon="7.259439"><ele>749.0</ele><time>2026-04-04T13:58:11.489Z</time></trkpt><trkpt lat="44.4881445" lon="7.2595371"><ele>749.0</ele><time>2026-04-04T13:58:12.489Z</time></trkpt><trkpt lat="44.4881663" lon="7.2596325"><ele>749.0</ele><time>2026-04-04T13:58:13.49Z</time></trkpt><trkpt lat="44.4881874" lon="7.2597282"><ele>749.0</ele><time>2026-04-04T13:58:14.489Z</time></trkpt><trkpt lat="44.4882091" lon="7.259825"><ele>749.0</ele><time>2026-04-04T13:58:15.49Z</time></trkpt><trkpt lat="44.4882304" lon="7.2599231"><ele>749.0</ele><time>2026-04-04T13:58:16.49Z</time></trkpt><trkpt lat="44.4882508" lon="7.2600234"><ele>749.0</ele><time>2026-04-04T13:58:17.49Z</time></trkpt><trkpt lat="44.4882723" lon="7.2601251"><ele>749.0</ele><time>2026-04-04T13:58:18.49Z</time></trkpt><trkpt lat="44.4882946" lon="7.2602255"><ele>749.0</ele><time>2026-04-04T13:58:19.49Z</time></trkpt><trkpt lat="44.4883182" lon="7.2603285"><ele>749.0</ele><time>2026-04-04T13:58:20.489Z</time></trkpt><trkpt lat="44.4883417" lon="7.2604263"><ele>749.0</ele><time>2026-04-04T13:58:21.488Z</time></trkpt><trkpt lat="44.4883649" lon="7.2605209"><ele>749.0</ele><time>2026-04-04T13:58:22.49Z</time></trkpt><trkpt lat="44.4883898" lon="7.2606192"><ele>749.0</ele><time>2026-04-04T13:58:23.489Z</time></trkpt><trkpt lat="44.4884118" lon="7.2607124"><ele>748.0</ele><time>2026-04-04T13:58:24.49Z</time></trkpt><trkpt lat="44.4884337" lon="7.2608038"><ele>747.0</ele><time>2026-04-04T13:58:25.489Z</time></trkpt><trkpt lat="44.4884546" lon="7.2608941"><ele>746.0</ele><time>2026-04-04T13:58:26.49Z</time></trkpt><trkpt lat="44.4884758" lon="7.2609813"><ele>745.0</ele><time>2026-04-04T13:58:27.49Z</time></trkpt><trkpt lat="44.4884972" lon="7.2610694"><ele>744.0</ele><time>2026-04-04T13:58:28.49Z</time></trkpt><trkpt lat="44.4885183" lon="7.2611546"><ele>743.0</ele><time>2026-04-04T13:58:29.489Z</time></trkpt><trkpt lat="44.4885319" lon="7.2612417"><ele>742.0</ele><time>2026-04-04T13:58:30.489Z</time></trkpt><trkpt lat="44.4885405" lon="7.2613323"><ele>742.0</ele><time>2026-04-04T13:58:31.489Z</time></trkpt><trkpt lat="44.4885496" lon="7.2614212"><ele>742.0</ele><time>2026-04-04T13:58:32.489Z</time></trkpt><trkpt lat="44.4885527" lon="7.2615103"><ele>742.0</ele><time>2026-04-04T13:58:33.49Z</time></trkpt><trkpt lat="44.4885538" lon="7.2616809"><ele>742.0</ele><time>2026-04-04T13:58:35.489Z</time></trkpt><trkpt lat="44.4885424" lon="7.2618504"><ele>742.0</ele><time>2026-04-04T13:58:37.489Z</time></trkpt><trkpt lat="44.4885323" lon="7.2619379"><ele>742.0</ele><time>2026-04-04T13:58:38.488Z</time></trkpt><trkpt lat="44.48852" lon="7.2620251"><ele>741.0</ele><time>2026-04-04T13:58:39.489Z</time></trkpt><trkpt lat="44.4884842" lon="7.2621966"><ele>740.0</ele><time>2026-04-04T13:58:41.489Z</time></trkpt><trkpt lat="44.4884465" lon="7.2623634"><ele>739.0</ele><time>2026-04-04T13:58:43.49Z</time></trkpt><trkpt lat="44.4884231" lon="7.2624461"><ele>738.0</ele><time>2026-04-04T13:58:44.489Z</time></trkpt><trkpt lat="44.4883823" lon="7.2626055"><ele>737.0</ele><time>2026-04-04T13:58:46.49Z</time></trkpt><trkpt lat="44.488342" lon="7.2627616"><ele>736.5</ele><time>2026-04-04T13:58:48.489Z</time></trkpt><trkpt lat="44.4883009" lon="7.2629141"><ele>736.0</ele><time>2026-04-04T13:58:50.49Z</time></trkpt><trkpt lat="44.4882586" lon="7.2630666"><ele>735.5</ele><time>2026-04-04T13:58:52.49Z</time></trkpt><trkpt lat="44.4882206" lon="7.2632144"><ele>735.0</ele><time>2026-04-04T13:58:54.488Z</time></trkpt><trkpt lat="44.4881859" lon="7.2633549"><ele>736.75</ele><time>2026-04-04T13:58:56.489Z</time></trkpt><trkpt lat="44.4881415" lon="7.2634998"><ele>738.5</ele><time>2026-04-04T13:58:58.489Z</time></trkpt><trkpt lat="44.4881043" lon="7.2636543"><ele>740.25</ele><time>2026-04-04T13:59:00.49Z</time></trkpt><trkpt lat="44.4880671" lon="7.2638092"><ele>742.0</ele><time>2026-04-04T13:59:02.489Z</time></trkpt><trkpt lat="44.4880231" lon="7.2639647"><ele>746.25</ele><time>2026-04-04T13:59:04.489Z</time></trkpt><trkpt lat="44.4879798" lon="7.2641218"><ele>750.5</ele><time>2026-04-04T13:59:06.49Z</time></trkpt><trkpt lat="44.4879326" lon="7.2642788"><ele>754.75</ele><time>2026-04-04T13:59:08.488Z</time></trkpt><trkpt lat="44.4878892" lon="7.2644404"><ele>759.0</ele><time>2026-04-04T13:59:10.49Z</time></trkpt><trkpt lat="44.4878488" lon="7.2645977"><ele>752.0</ele><time>2026-04-04T13:59:12.49Z</time></trkpt><trkpt lat="44.4878061" lon="7.2647539"><ele>745.0</ele><time>2026-04-04T13:59:14.489Z</time></trkpt><trkpt lat="44.4877659" lon="7.2649135"><ele>738.0</ele><time>2026-04-04T13:59:16.49Z</time></trkpt><trkpt lat="44.4877245" lon="7.2650783"><ele>731.0</ele><time>2026-04-04T13:59:18.49Z</time></trkpt><trkpt lat="44.487704" lon="7.2651632"><ele>724.0</ele><time>2026-04-04T13:59:19.49Z</time></trkpt><trkpt lat="44.487681" lon="7.2652507"><ele>724.0</ele><time>2026-04-04T13:59:20.49Z</time></trkpt><trkpt lat="44.4876575" lon="7.2653404"><ele>724.0</ele><time>2026-04-04T13:59:21.489Z</time></trkpt><trkpt lat="44.4876298" lon="7.265427"><ele>724.0</ele><time>2026-04-04T13:59:22.49Z</time></trkpt><trkpt lat="44.4875925" lon="7.2655089"><ele>724.0</ele><time>2026-04-04T13:59:23.489Z</time></trkpt><trkpt lat="44.4875446" lon="7.2655804"><ele>724.0</ele><time>2026-04-04T13:59:24.489Z</time></trkpt><trkpt lat="44.4874898" lon="7.2656458"><ele>724.0</ele><time>2026-04-04T13:59:25.489Z</time></trkpt><trkpt lat="44.4874324" lon="7.2657048"><ele>724.0</ele><time>2026-04-04T13:59:26.49Z</time></trkpt><trkpt lat="44.4873739" lon="7.2657605"><ele>722.4285714285714</ele><time>2026-04-04T13:59:27.49Z</time></trkpt><trkpt lat="44.487319" lon="7.2658163"><ele>720.8571428571429</ele><time>2026-04-04T13:59:28.489Z</time></trkpt><trkpt lat="44.4872635" lon="7.2658756"><ele>719.2857142857142</ele><time>2026-04-04T13:59:29.49Z</time></trkpt><trkpt lat="44.4872087" lon="7.2659372"><ele>717.7142857142858</ele><time>2026-04-04T13:59:30.489Z</time></trkpt><trkpt lat="44.4871574" lon="7.2660046"><ele>716.1428571428572</ele><time>2026-04-04T13:59:31.489Z</time></trkpt><trkpt lat="44.4871135" lon="7.2660761"><ele>714.5714285714286</ele><time>2026-04-04T13:59:32.489Z</time></trkpt><trkpt lat="44.4870761" lon="7.2661523"><ele>713.0</ele><time>2026-04-04T13:59:33.49Z</time></trkpt><trkpt lat="44.4870467" lon="7.2662339"><ele>713.0</ele><time>2026-04-04T13:59:34.49Z</time></trkpt><trkpt lat="44.4870218" lon="7.2663224"><ele>713.0</ele><time>2026-04-04T13:59:35.489Z</time></trkpt><trkpt lat="44.4869975" lon="7.2664137"><ele>713.0</ele><time>2026-04-04T13:59:36.489Z</time></trkpt><trkpt lat="44.4869802" lon="7.266502"><ele>713.0</ele><time>2026-04-04T13:59:37.489Z</time></trkpt><trkpt lat="44.4869623" lon="7.2665957"><ele>713.0</ele><time>2026-04-04T13:59:38.488Z</time></trkpt><trkpt lat="44.4869525" lon="7.2666904"><ele>713.0</ele><time>2026-04-04T13:59:39.489Z</time></trkpt><trkpt lat="44.4869479" lon="7.2667891"><ele>713.0</ele><time>2026-04-04T13:59:40.489Z</time></trkpt><trkpt lat="44.486943" lon="7.2668882"><ele>715.3333333333333</ele><time>2026-04-04T13:59:41.489Z</time></trkpt><trkpt lat="44.4869409" lon="7.2669926"><ele>717.6666666666666</ele><time>2026-04-04T13:59:42.49Z</time></trkpt><trkpt lat="44.4869461" lon="7.2670997"><ele>720.0</ele><time>2026-04-04T13:59:43.489Z</time></trkpt><trkpt lat="44.4869537" lon="7.2672091"><ele>722.3333333333334</ele><time>2026-04-04T13:59:44.488Z</time></trkpt><trkpt lat="44.4869658" lon="7.26732"><ele>724.6666666666667</ele><time>2026-04-04T13:59:45.49Z</time></trkpt><trkpt lat="44.4869759" lon="7.267434"><ele>727.0</ele><time>2026-04-04T13:59:46.49Z</time></trkpt><trkpt lat="44.4869847" lon="7.2675502"><ele>727.3333333333334</ele><time>2026-04-04T13:59:47.489Z</time></trkpt><trkpt lat="44.4869924" lon="7.2676702"><ele>727.6666666666667</ele><time>2026-04-04T13:59:48.489Z</time></trkpt><trkpt lat="44.4870035" lon="7.2677913"><ele>728.0</ele><time>2026-04-04T13:59:49.489Z</time></trkpt><trkpt lat="44.4870132" lon="7.2679089"><ele>728.3333333333334</ele><time>2026-04-04T13:59:50.49Z</time></trkpt><trkpt lat="44.4870194" lon="7.2680279"><ele>728.6666666666666</ele><time>2026-04-04T13:59:51.488Z</time></trkpt><trkpt lat="44.4870228" lon="7.2681474"><ele>729.0</ele><time>2026-04-04T13:59:52.488Z</time></trkpt><trkpt lat="44.4870206" lon="7.2682711"><ele>728.8333333333334</ele><time>2026-04-04T13:59:53.489Z</time></trkpt><trkpt lat="44.4870147" lon="7.2683942"><ele>728.6666666666666</ele><time>2026-04-04T13:59:54.49Z</time></trkpt><trkpt lat="44.4870055" lon="7.2685201"><ele>728.5</ele><time>2026-04-04T13:59:55.49Z</time></trkpt><trkpt lat="44.4869913" lon="7.2686475"><ele>728.3333333333333</ele><time>2026-04-04T13:59:56.489Z</time></trkpt><trkpt lat="44.4869776" lon="7.2687748"><ele>728.1666666666666</ele><time>2026-04-04T13:59:57.488Z</time></trkpt><trkpt lat="44.4869676" lon="7.2688945"><ele>728.0</ele><time>2026-04-04T13:59:58.489Z</time></trkpt><trkpt lat="44.4869616" lon="7.269008"><ele>728.0</ele><time>2026-04-04T13:59:59.49Z</time></trkpt><trkpt lat="44.4869369" lon="7.2691169"><ele>728.0</ele><time>2026-04-04T14:00:00.489Z</time></trkpt><trkpt lat="44.4868853" lon="7.2692131"><ele>728.0</ele><time>2026-04-04T14:00:01.49Z</time></trkpt><trkpt lat="44.486818" lon="7.2692998"><ele>728.0</ele><time>2026-04-04T14:00:02.488Z</time></trkpt><trkpt lat="44.4867455" lon="7.2693814"><ele>728.0</ele><time>2026-04-04T14:00:03.49Z</time></trkpt><trkpt lat="44.4866718" lon="7.2694593"><ele>728.0</ele><time>2026-04-04T14:00:04.49Z</time></trkpt><trkpt lat="44.4865996" lon="7.269545"><ele>728.0</ele><time>2026-04-04T14:00:05.489Z</time></trkpt><trkpt lat="44.4865313" lon="7.2696356"><ele>728.0</ele><time>2026-04-04T14:00:06.489Z</time></trkpt><trkpt lat="44.4864619" lon="7.2697277"><ele>728.0</ele><time>2026-04-04T14:00:07.488Z</time></trkpt><trkpt lat="44.4863997" lon="7.2698222"><ele>728.0</ele><time>2026-04-04T14:00:08.489Z</time></trkpt><trkpt lat="44.4863374" lon="7.2699207"><ele>728.0</ele><time>2026-04-04T14:00:09.489Z</time></trkpt><trkpt lat="44.4862789" lon="7.2700172"><ele>726.2</ele><time>2026-04-04T14:00:10.49Z</time></trkpt><trkpt lat="44.486221" lon="7.2701198"><ele>724.4</ele><time>2026-04-04T14:00:11.489Z</time></trkpt><trkpt lat="44.4861662" lon="7.270226"><ele>722.6</ele><time>2026-04-04T14:00:12.49Z</time></trkpt><trkpt lat="44.4861126" lon="7.270336"><ele>720.8000000000001</ele><time>2026-04-04T14:00:13.49Z</time></trkpt><trkpt lat="44.4860619" lon="7.2704398"><ele>719.0</ele><time>2026-04-04T14:00:14.49Z</time></trkpt><trkpt lat="44.4860123" lon="7.270542"><ele>719.0</ele><time>2026-04-04T14:00:15.49Z</time></trkpt><trkpt lat="44.4859698" lon="7.2706445"><ele>719.0</ele><time>2026-04-04T14:00:16.488Z</time></trkpt><trkpt lat="44.4859242" lon="7.2707448"><ele>719.0</ele><time>2026-04-04T14:00:17.489Z</time></trkpt><trkpt lat="44.4858792" lon="7.2708471"><ele>719.0</ele><time>2026-04-04T14:00:18.488Z</time></trkpt><trkpt lat="44.4858352" lon="7.2709467"><ele>719.0</ele><time>2026-04-04T14:00:19.489Z</time></trkpt><trkpt lat="44.48579" lon="7.2710421"><ele>719.0</ele><time>2026-04-04T14:00:20.489Z</time></trkpt><trkpt lat="44.4857438" lon="7.2711387"><ele>719.0</ele><time>2026-04-04T14:00:21.487Z</time></trkpt><trkpt lat="44.485694" lon="7.2712394"><ele>719.0</ele><time>2026-04-04T14:00:22.488Z</time></trkpt><trkpt lat="44.4856459" lon="7.2713392"><ele>719.0</ele><time>2026-04-04T14:00:23.489Z</time></trkpt><trkpt lat="44.4856003" lon="7.2714331"><ele>719.0</ele><time>2026-04-04T14:00:24.488Z</time></trkpt><trkpt lat="44.4855561" lon="7.27153"><ele>719.0</ele><time>2026-04-04T14:00:25.489Z</time></trkpt><trkpt lat="44.4855143" lon="7.271631"><ele>719.0</ele><time>2026-04-04T14:00:26.489Z</time></trkpt><trkpt lat="44.4854758" lon="7.2717301"><ele>718.7142857142857</ele><time>2026-04-04T14:00:27.488Z</time></trkpt><trkpt lat="44.4854387" lon="7.271827"><ele>718.4285714285714</ele><time>2026-04-04T14:00:28.489Z</time></trkpt><trkpt lat="44.4854015" lon="7.2719185"><ele>718.1428571428571</ele><time>2026-04-04T14:00:29.489Z</time></trkpt><trkpt lat="44.4853691" lon="7.2720147"><ele>717.8571428571429</ele><time>2026-04-04T14:00:30.488Z</time></trkpt><trkpt lat="44.4853426" lon="7.2721117"><ele>717.5714285714286</ele><time>2026-04-04T14:00:31.489Z</time></trkpt><trkpt lat="44.4853181" lon="7.2722056"><ele>717.2857142857142</ele><time>2026-04-04T14:00:32.488Z</time></trkpt><trkpt lat="44.4852941" lon="7.2722986"><ele>717.0</ele><time>2026-04-04T14:00:33.489Z</time></trkpt><trkpt lat="44.4852704" lon="7.2723893"><ele>717.0</ele><time>2026-04-04T14:00:34.487Z</time></trkpt><trkpt lat="44.4852433" lon="7.2724798"><ele>717.0</ele><time>2026-04-04T14:00:35.489Z</time></trkpt><trkpt lat="44.4852165" lon="7.272573"><ele>717.0</ele><time>2026-04-04T14:00:36.488Z</time></trkpt><trkpt lat="44.4851936" lon="7.2726627"><ele>717.0</ele><time>2026-04-04T14:00:37.488Z</time></trkpt><trkpt lat="44.4851651" lon="7.2727517"><ele>717.0</ele><time>2026-04-04T14:00:38.488Z</time></trkpt><trkpt lat="44.4851353" lon="7.2728385"><ele>717.0</ele><time>2026-04-04T14:00:39.489Z</time></trkpt><trkpt lat="44.485106" lon="7.2729232"><ele>717.0</ele><time>2026-04-04T14:00:40.489Z</time></trkpt><trkpt lat="44.4850777" lon="7.2730105"><ele>717.0</ele><time>2026-04-04T14:00:41.487Z</time></trkpt><trkpt lat="44.4850529" lon="7.2730954"><ele>717.0</ele><time>2026-04-04T14:00:42.488Z</time></trkpt><trkpt lat="44.4850297" lon="7.2731801"><ele>717.0</ele><time>2026-04-04T14:00:43.489Z</time></trkpt><trkpt lat="44.4849844" lon="7.2733447"><ele>717.0</ele><time>2026-04-04T14:00:45.488Z</time></trkpt><trkpt lat="44.4849593" lon="7.2734289"><ele>717.0</ele><time>2026-04-04T14:00:46.489Z</time></trkpt><trkpt lat="44.484933" lon="7.2735194"><ele>717.0</ele><time>2026-04-04T14:00:47.488Z</time></trkpt><trkpt lat="44.4849049" lon="7.2736079"><ele>717.0</ele><time>2026-04-04T14:00:48.488Z</time></trkpt><trkpt lat="44.4848775" lon="7.2736996"><ele>717.0</ele><time>2026-04-04T14:00:49.489Z</time></trkpt><trkpt lat="44.4848509" lon="7.273794"><ele>717.0</ele><time>2026-04-04T14:00:50.488Z</time></trkpt><trkpt lat="44.4848239" lon="7.273884"><ele>717.0</ele><time>2026-04-04T14:00:51.489Z</time></trkpt><trkpt lat="44.4847966" lon="7.2739754"><ele>717.0</ele><time>2026-04-04T14:00:52.488Z</time></trkpt><trkpt lat="44.484769" lon="7.2740699"><ele>717.0</ele><time>2026-04-04T14:00:53.488Z</time></trkpt><trkpt lat="44.4847422" lon="7.2741653"><ele>717.0</ele><time>2026-04-04T14:00:54.489Z</time></trkpt><trkpt lat="44.4847185" lon="7.2742596"><ele>717.0</ele><time>2026-04-04T14:00:55.488Z</time></trkpt><trkpt lat="44.4846904" lon="7.274352"><ele>717.0</ele><time>2026-04-04T14:00:56.489Z</time></trkpt><trkpt lat="44.4846643" lon="7.2744457"><ele>717.0</ele><time>2026-04-04T14:00:57.489Z</time></trkpt><trkpt lat="44.4846392" lon="7.2745393"><ele>717.0</ele><time>2026-04-04T14:00:58.489Z</time></trkpt><trkpt lat="44.4846108" lon="7.2746334"><ele>717.0</ele><time>2026-04-04T14:00:59.488Z</time></trkpt><trkpt lat="44.4845825" lon="7.2747268"><ele>717.0</ele><time>2026-04-04T14:01:00.489Z</time></trkpt><trkpt lat="44.4845566" lon="7.2748199"><ele>717.0</ele><time>2026-04-04T14:01:01.489Z</time></trkpt><trkpt lat="44.4845283" lon="7.2749149"><ele>714.5714285714286</ele><time>2026-04-04T14:01:02.488Z</time></trkpt><trkpt lat="44.4845011" lon="7.2750101"><ele>712.1428571428571</ele><time>2026-04-04T14:01:03.488Z</time></trkpt><trkpt lat="44.4844731" lon="7.2751068"><ele>709.7142857142858</ele><time>2026-04-04T14:01:04.489Z</time></trkpt><trkpt lat="44.484442" lon="7.2751984"><ele>707.2857142857142</ele><time>2026-04-04T14:01:05.488Z</time></trkpt><trkpt lat="44.4844151" lon="7.2752927"><ele>704.8571428571429</ele><time>2026-04-04T14:01:06.488Z</time></trkpt><trkpt lat="44.4843907" lon="7.2753868"><ele>702.4285714285714</ele><time>2026-04-04T14:01:07.489Z</time></trkpt><trkpt lat="44.4843651" lon="7.2754757"><ele>700.0</ele><time>2026-04-04T14:01:08.488Z</time></trkpt><trkpt lat="44.484336" lon="7.2755662"><ele>700.8571428571429</ele><time>2026-04-04T14:01:09.489Z</time></trkpt><trkpt lat="44.4843117" lon="7.2756572"><ele>701.7142857142858</ele><time>2026-04-04T14:01:10.489Z</time></trkpt><trkpt lat="44.4842871" lon="7.2757443"><ele>702.5714285714286</ele><time>2026-04-04T14:01:11.489Z</time></trkpt><trkpt lat="44.4842634" lon="7.2758356"><ele>703.4285714285714</ele><time>2026-04-04T14:01:12.488Z</time></trkpt><trkpt lat="44.4842394" lon="7.2759284"><ele>704.2857142857143</ele><time>2026-04-04T14:01:13.487Z</time></trkpt><trkpt lat="44.4842131" lon="7.2760219"><ele>705.1428571428571</ele><time>2026-04-04T14:01:14.489Z</time></trkpt><trkpt lat="44.4841858" lon="7.2761157"><ele>706.0</ele><time>2026-04-04T14:01:15.489Z</time></trkpt><trkpt lat="44.484159" lon="7.2762129"><ele>706.0</ele><time>2026-04-04T14:01:16.488Z</time></trkpt><trkpt lat="44.4841333" lon="7.2763086"><ele>706.0</ele><time>2026-04-04T14:01:17.489Z</time></trkpt><trkpt lat="44.4841051" lon="7.2764083"><ele>706.0</ele><time>2026-04-04T14:01:18.488Z</time></trkpt><trkpt lat="44.4840737" lon="7.2765128"><ele>706.0</ele><time>2026-04-04T14:01:19.488Z</time></trkpt><trkpt lat="44.4840472" lon="7.2766246"><ele>706.0</ele><time>2026-04-04T14:01:20.488Z</time></trkpt><trkpt lat="44.4840204" lon="7.2767457"><ele>706.0</ele><time>2026-04-04T14:01:21.488Z</time></trkpt><trkpt lat="44.4839864" lon="7.2768653"><ele>706.8</ele><time>2026-04-04T14:01:22.489Z</time></trkpt><trkpt lat="44.4839435" lon="7.2769866"><ele>707.5999999999999</ele><time>2026-04-04T14:01:23.489Z</time></trkpt><trkpt lat="44.4838923" lon="7.2771049"><ele>708.4</ele><time>2026-04-04T14:01:24.488Z</time></trkpt><trkpt lat="44.4838263" lon="7.2772149"><ele>709.2</ele><time>2026-04-04T14:01:25.489Z</time></trkpt><trkpt lat="44.4837485" lon="7.2773107"><ele>710.0</ele><time>2026-04-04T14:01:26.489Z</time></trkpt><trkpt lat="44.4836623" lon="7.2773906"><ele>706.2</ele><time>2026-04-04T14:01:27.488Z</time></trkpt><trkpt lat="44.4835767" lon="7.2774777"><ele>702.4</ele><time>2026-04-04T14:01:28.488Z</time></trkpt><trkpt lat="44.4834987" lon="7.2775573"><ele>698.5999999999999</ele><time>2026-04-04T14:01:29.489Z</time></trkpt><trkpt lat="44.483424" lon="7.2776317"><ele>694.8</ele><time>2026-04-04T14:01:30.489Z</time></trkpt><trkpt lat="44.4833548" lon="7.2777197"><ele>691.0</ele><time>2026-04-04T14:01:31.489Z</time></trkpt><trkpt lat="44.4832979" lon="7.2778264"><ele>691.0</ele><time>2026-04-04T14:01:32.489Z</time></trkpt><trkpt lat="44.4832549" lon="7.2779499"><ele>691.0</ele><time>2026-04-04T14:01:33.488Z</time></trkpt><trkpt lat="44.4832172" lon="7.2780742"><ele>691.0</ele><time>2026-04-04T14:01:34.489Z</time></trkpt><trkpt lat="44.4831887" lon="7.2782089"><ele>691.0</ele><time>2026-04-04T14:01:35.489Z</time></trkpt><trkpt lat="44.4831611" lon="7.2783505"><ele>691.0</ele><time>2026-04-04T14:01:36.488Z</time></trkpt><trkpt lat="44.4831307" lon="7.2784959"><ele>692.5999999999999</ele><time>2026-04-04T14:01:37.489Z</time></trkpt><trkpt lat="44.4831005" lon="7.2786447"><ele>694.2</ele><time>2026-04-04T14:01:38.488Z</time></trkpt><trkpt lat="44.4830715" lon="7.278792"><ele>695.8</ele><time>2026-04-04T14:01:39.488Z</time></trkpt><trkpt lat="44.4830308" lon="7.2789422"><ele>697.4000000000001</ele><time>2026-04-04T14:01:40.488Z</time></trkpt><trkpt lat="44.4829863" lon="7.2790845"><ele>699.0</ele><time>2026-04-04T14:01:41.489Z</time></trkpt><trkpt lat="44.4829344" lon="7.2792223"><ele>696.6</ele><time>2026-04-04T14:01:42.489Z</time></trkpt><trkpt lat="44.4828815" lon="7.2793577"><ele>694.2</ele><time>2026-04-04T14:01:43.488Z</time></trkpt><trkpt lat="44.4828271" lon="7.2794966"><ele>691.8000000000001</ele><time>2026-04-04T14:01:44.487Z</time></trkpt><trkpt lat="44.4827708" lon="7.2796289"><ele>689.4000000000001</ele><time>2026-04-04T14:01:45.488Z</time></trkpt><trkpt lat="44.4827234" lon="7.2797665"><ele>687.0</ele><time>2026-04-04T14:01:46.488Z</time></trkpt><trkpt lat="44.4826728" lon="7.279901"><ele>687.0</ele><time>2026-04-04T14:01:47.488Z</time></trkpt><trkpt lat="44.4826236" lon="7.2800361"><ele>687.0</ele><time>2026-04-04T14:01:48.488Z</time></trkpt><trkpt lat="44.4825746" lon="7.2801687"><ele>687.0</ele><time>2026-04-04T14:01:49.489Z</time></trkpt><trkpt lat="44.4825224" lon="7.2802929"><ele>687.0</ele><time>2026-04-04T14:01:50.487Z</time></trkpt><trkpt lat="44.4824724" lon="7.2804162"><ele>687.0</ele><time>2026-04-04T14:01:51.489Z</time></trkpt><trkpt lat="44.4824174" lon="7.2805328"><ele>684.6</ele><time>2026-04-04T14:01:52.489Z</time></trkpt><trkpt lat="44.4823537" lon="7.2806372"><ele>682.2</ele><time>2026-04-04T14:01:53.488Z</time></trkpt><trkpt lat="44.4822883" lon="7.2807392"><ele>679.8</ele><time>2026-04-04T14:01:54.488Z</time></trkpt><trkpt lat="44.4822256" lon="7.2808364"><ele>677.4</ele><time>2026-04-04T14:01:55.488Z</time></trkpt><trkpt lat="44.4821599" lon="7.2809318"><ele>675.0</ele><time>2026-04-04T14:01:56.488Z</time></trkpt><trkpt lat="44.4820935" lon="7.2810255"><ele>675.0</ele><time>2026-04-04T14:01:57.489Z</time></trkpt><trkpt lat="44.4820275" lon="7.2811171"><ele>675.0</ele><time>2026-04-04T14:01:58.489Z</time></trkpt><trkpt lat="44.4819557" lon="7.2811958"><ele>675.0</ele><time>2026-04-04T14:01:59.489Z</time></trkpt><trkpt lat="44.4818832" lon="7.2812737"><ele>675.0</ele><time>2026-04-04T14:02:00.488Z</time></trkpt><trkpt lat="44.481815" lon="7.2813499"><ele>675.0</ele><time>2026-04-04T14:02:01.489Z</time></trkpt><trkpt lat="44.4817454" lon="7.2814146"><ele>675.0</ele><time>2026-04-04T14:02:02.489Z</time></trkpt><trkpt lat="44.4816739" lon="7.281466"><ele>674.8333333333334</ele><time>2026-04-04T14:02:03.489Z</time></trkpt><trkpt lat="44.4816004" lon="7.2815033"><ele>674.6666666666666</ele><time>2026-04-04T14:02:04.488Z</time></trkpt><trkpt lat="44.481521" lon="7.2815377"><ele>674.5</ele><time>2026-04-04T14:02:05.488Z</time></trkpt><trkpt lat="44.4814378" lon="7.2815731"><ele>674.3333333333333</ele><time>2026-04-04T14:02:06.488Z</time></trkpt><trkpt lat="44.4813521" lon="7.2815974"><ele>674.1666666666666</ele><time>2026-04-04T14:02:07.489Z</time></trkpt><trkpt lat="44.4812721" lon="7.2816175"><ele>674.0</ele><time>2026-04-04T14:02:08.488Z</time></trkpt><trkpt lat="44.4812012" lon="7.2816593"><ele>674.0</ele><time>2026-04-04T14:02:09.489Z</time></trkpt><trkpt lat="44.4811393" lon="7.2817264"><ele>674.0</ele><time>2026-04-04T14:02:10.489Z</time></trkpt><trkpt lat="44.4810914" lon="7.2818102"><ele>674.0</ele><time>2026-04-04T14:02:11.489Z</time></trkpt><trkpt lat="44.4810593" lon="7.2819044"><ele>674.0</ele><time>2026-04-04T14:02:12.487Z</time></trkpt><trkpt lat="44.481041" lon="7.2820091"><ele>674.0</ele><time>2026-04-04T14:02:13.489Z</time></trkpt><trkpt lat="44.4810331" lon="7.2821109"><ele>674.0</ele><time>2026-04-04T14:02:14.488Z</time></trkpt><trkpt lat="44.4810234" lon="7.2822183"><ele>675.1666666666666</ele><time>2026-04-04T14:02:15.489Z</time></trkpt><trkpt lat="44.481022" lon="7.2823252"><ele>676.3333333333333</ele><time>2026-04-04T14:02:16.489Z</time></trkpt><trkpt lat="44.481016" lon="7.2824313"><ele>677.5</ele><time>2026-04-04T14:02:17.488Z</time></trkpt><trkpt lat="44.4810077" lon="7.2825361"><ele>678.6666666666666</ele><time>2026-04-04T14:02:18.488Z</time></trkpt><trkpt lat="44.480997" lon="7.2826397"><ele>679.8333333333334</ele><time>2026-04-04T14:02:19.489Z</time></trkpt><trkpt lat="44.4809788" lon="7.2827409"><ele>681.0</ele><time>2026-04-04T14:02:20.487Z</time></trkpt><trkpt lat="44.48095" lon="7.2828433"><ele>681.0</ele><time>2026-04-04T14:02:21.488Z</time></trkpt><trkpt lat="44.4809194" lon="7.2829422"><ele>681.0</ele><time>2026-04-04T14:02:22.489Z</time></trkpt><trkpt lat="44.480876" lon="7.2830339"><ele>681.0</ele><time>2026-04-04T14:02:23.489Z</time></trkpt><trkpt lat="44.480829" lon="7.2831284"><ele>681.0</ele><time>2026-04-04T14:02:24.489Z</time></trkpt><trkpt lat="44.4807844" lon="7.2832251"><ele>681.0</ele><time>2026-04-04T14:02:25.488Z</time></trkpt><trkpt lat="44.4807385" lon="7.2833264"><ele>681.0</ele><time>2026-04-04T14:02:26.488Z</time></trkpt><trkpt lat="44.4806975" lon="7.2834289"><ele>680.0</ele><time>2026-04-04T14:02:27.489Z</time></trkpt><trkpt lat="44.4806549" lon="7.2835258"><ele>679.0</ele><time>2026-04-04T14:02:28.489Z</time></trkpt><trkpt lat="44.4806127" lon="7.2836285"><ele>678.0</ele><time>2026-04-04T14:02:29.488Z</time></trkpt><trkpt lat="44.4805614" lon="7.2837287"><ele>677.0</ele><time>2026-04-04T14:02:30.488Z</time></trkpt><trkpt lat="44.4805228" lon="7.2838328"><ele>676.0</ele><time>2026-04-04T14:02:31.488Z</time></trkpt><trkpt lat="44.4804743" lon="7.2839374"><ele>675.0</ele><time>2026-04-04T14:02:32.489Z</time></trkpt><trkpt lat="44.4804246" lon="7.2840341"><ele>675.0</ele><time>2026-04-04T14:02:33.487Z</time></trkpt><trkpt lat="44.4803742" lon="7.2841317"><ele>675.0</ele><time>2026-04-04T14:02:34.488Z</time></trkpt><trkpt lat="44.4803264" lon="7.28423"><ele>675.0</ele><time>2026-04-04T14:02:35.489Z</time></trkpt><trkpt lat="44.4802787" lon="7.2843231"><ele>675.0</ele><time>2026-04-04T14:02:36.488Z</time></trkpt><trkpt lat="44.480209" lon="7.2844045"><ele>675.0</ele><time>2026-04-04T14:02:37.488Z</time></trkpt><trkpt lat="44.4801427" lon="7.28448"><ele>675.0</ele><time>2026-04-04T14:02:38.489Z</time></trkpt><trkpt lat="44.480072" lon="7.2845526"><ele>675.0</ele><time>2026-04-04T14:02:39.489Z</time></trkpt><trkpt lat="44.4800011" lon="7.2846249"><ele>675.0</ele><time>2026-04-04T14:02:40.487Z</time></trkpt><trkpt lat="44.4799339" lon="7.2846964"><ele>675.0</ele><time>2026-04-04T14:02:41.489Z</time></trkpt><trkpt lat="44.4798672" lon="7.28477"><ele>675.0</ele><time>2026-04-04T14:02:42.489Z</time></trkpt><trkpt lat="44.4797982" lon="7.2848408"><ele>675.0</ele><time>2026-04-04T14:02:43.487Z</time></trkpt><trkpt lat="44.4797331" lon="7.2849109"><ele>675.0</ele><time>2026-04-04T14:02:44.489Z</time></trkpt><trkpt lat="44.4796747" lon="7.2849826"><ele>675.6666666666666</ele><time>2026-04-04T14:02:45.489Z</time></trkpt><trkpt lat="44.4796144" lon="7.2850554"><ele>676.3333333333334</ele><time>2026-04-04T14:02:46.488Z</time></trkpt><trkpt lat="44.4795551" lon="7.2851239"><ele>677.0</ele><time>2026-04-04T14:02:47.489Z</time></trkpt><trkpt lat="44.4794964" lon="7.285198"><ele>677.6666666666667</ele><time>2026-04-04T14:02:48.489Z</time></trkpt><trkpt lat="44.4794425" lon="7.2852752"><ele>678.3333333333334</ele><time>2026-04-04T14:02:49.489Z</time></trkpt><trkpt lat="44.4793831" lon="7.2853546"><ele>679.0</ele><time>2026-04-04T14:02:50.488Z</time></trkpt><trkpt lat="44.4793326" lon="7.2854296"><ele>679.0</ele><time>2026-04-04T14:02:51.489Z</time></trkpt><trkpt lat="44.4792757" lon="7.28551"><ele>679.0</ele><time>2026-04-04T14:02:52.489Z</time></trkpt><trkpt lat="44.4792246" lon="7.2855872"><ele>679.0</ele><time>2026-04-04T14:02:53.488Z</time></trkpt><trkpt lat="44.47917" lon="7.2856684"><ele>679.0</ele><time>2026-04-04T14:02:54.488Z</time></trkpt><trkpt lat="44.4791165" lon="7.2857488"><ele>679.0</ele><time>2026-04-04T14:02:55.489Z</time></trkpt><trkpt lat="44.4790689" lon="7.2858205"><ele>679.0</ele><time>2026-04-04T14:02:56.489Z</time></trkpt><trkpt lat="44.4790004" lon="7.2859375"><ele>678.0</ele><time>2026-04-04T14:02:58.487Z</time></trkpt><trkpt lat="44.4789476" lon="7.2860189"><ele>677.0</ele><time>2026-04-04T14:03:00.489Z</time></trkpt><trkpt lat="44.478869" lon="7.2860365"><ele>676.0</ele><time>2026-04-04T14:03:03.488Z</time></trkpt><trkpt lat="44.4788112" lon="7.2859974"><ele>675.0</ele><time>2026-04-04T14:03:05.488Z</time></trkpt><trkpt lat="44.4787586" lon="7.2859338"><ele>674.0</ele><time>2026-04-04T14:03:08.489Z</time></trkpt><trkpt lat="44.4786919" lon="7.2858917"><ele>673.0</ele><time>2026-04-04T14:03:11.489Z</time></trkpt><trkpt lat="44.4786092" lon="7.2858454"><ele>675.0</ele><time>2026-04-04T14:03:14.487Z</time></trkpt><trkpt lat="44.4785501" lon="7.2858073"><ele>677.0</ele><time>2026-04-04T14:03:16.489Z</time></trkpt><trkpt lat="44.4784865" lon="7.2857762"><ele>679.0</ele><time>2026-04-04T14:03:18.488Z</time></trkpt><trkpt lat="44.4783942" lon="7.285796"><ele>681.0</ele><time>2026-04-04T14:03:21.489Z</time></trkpt><trkpt lat="44.4783143" lon="7.2858688"><ele>683.0</ele><time>2026-04-04T14:03:24.489Z</time></trkpt><trkpt lat="44.4782763" lon="7.2859466"><ele>685.0</ele><time>2026-04-04T14:03:26.489Z</time></trkpt><trkpt lat="44.4782462" lon="7.2860286"><ele>685.0</ele><time>2026-04-04T14:03:28.487Z</time></trkpt><trkpt lat="44.478209" lon="7.2861475"><ele>685.0</ele><time>2026-04-04T14:03:31.488Z</time></trkpt><trkpt lat="44.4781911" lon="7.2862367"><ele>685.0</ele><time>2026-04-04T14:03:33.489Z</time></trkpt><trkpt lat="44.4781675" lon="7.2863344"><ele>685.0</ele><time>2026-04-04T14:03:35.487Z</time></trkpt><trkpt lat="44.4781327" lon="7.286419"><ele>685.0</ele><time>2026-04-04T14:03:37.488Z</time></trkpt><trkpt lat="44.4780904" lon="7.2865015"><ele>685.0</ele><time>2026-04-04T14:03:39.488Z</time></trkpt><trkpt lat="44.4780282" lon="7.2866004"><ele>686.5</ele><time>2026-04-04T14:03:42.488Z</time></trkpt><trkpt lat="44.4779832" lon="7.2866652"><ele>688.0</ele><time>2026-04-04T14:03:44.488Z</time></trkpt><trkpt lat="44.4779359" lon="7.2867314"><ele>689.5</ele><time>2026-04-04T14:03:46.496Z</time></trkpt><trkpt lat="44.4778866" lon="7.2868216"><ele>691.0</ele><time>2026-04-04T14:03:49.402Z</time></trkpt><trkpt lat="44.4778369" lon="7.286916"><ele>692.5</ele><time>2026-04-04T14:03:52.488Z</time></trkpt><trkpt lat="44.4777939" lon="7.28702"><ele>694.0</ele><time>2026-04-04T14:03:55.488Z</time></trkpt><trkpt lat="44.4777495" lon="7.2871266"><ele>694.0</ele><time>2026-04-04T14:03:58.488Z</time></trkpt><trkpt lat="44.4777227" lon="7.2872437"><ele>694.0</ele><time>2026-04-04T14:04:01.489Z</time></trkpt><trkpt lat="44.4776792" lon="7.2873273"><ele>694.0</ele><time>2026-04-04T14:04:04.489Z</time></trkpt><trkpt lat="44.4776358" lon="7.2874261"><ele>694.0</ele><time>2026-04-04T14:04:07.488Z</time></trkpt><trkpt lat="44.4775917" lon="7.287531"><ele>694.0</ele><time>2026-04-04T14:04:10.489Z</time></trkpt><trkpt lat="44.4775466" lon="7.2876328"><ele>694.0</ele><time>2026-04-04T14:04:13.487Z</time></trkpt><trkpt lat="44.4775044" lon="7.2877328"><ele>693.1666666666667</ele><time>2026-04-04T14:04:16.488Z</time></trkpt><trkpt lat="44.4774638" lon="7.2878347"><ele>692.3333333333334</ele><time>2026-04-04T14:04:19.488Z</time></trkpt><trkpt lat="44.4774132" lon="7.2879264"><ele>691.5</ele><time>2026-04-04T14:04:22.489Z</time></trkpt><trkpt lat="44.4773778" lon="7.288039"><ele>690.6666666666666</ele><time>2026-04-04T14:04:26.489Z</time></trkpt><trkpt lat="44.4773465" lon="7.2881555"><ele>689.8333333333333</ele><time>2026-04-04T14:04:29.488Z</time></trkpt><trkpt lat="44.4773052" lon="7.2882657"><ele>689.0</ele><time>2026-04-04T14:04:32.487Z</time></trkpt><trkpt lat="44.4772885" lon="7.2883797"><ele>688.0</ele><time>2026-04-04T14:04:35.488Z</time></trkpt><trkpt lat="44.4772756" lon="7.2884665"><ele>687.0</ele><time>2026-04-04T14:04:37.488Z</time></trkpt><trkpt lat="44.4772542" lon="7.2885928"><ele>686.0</ele><time>2026-04-04T14:04:40.489Z</time></trkpt><trkpt lat="44.4772406" lon="7.2887191"><ele>685.0</ele><time>2026-04-04T14:04:43.489Z</time></trkpt><trkpt lat="44.4772161" lon="7.2888608"><ele>684.0</ele><time>2026-04-04T14:04:46.498Z</time></trkpt><trkpt lat="44.4772001" lon="7.288987"><ele>683.0</ele><time>2026-04-04T14:04:49.487Z</time></trkpt><trkpt lat="44.4771702" lon="7.2891122"><ele>682.1666666666666</ele><time>2026-04-04T14:04:52.515Z</time></trkpt><trkpt lat="44.4771404" lon="7.2892295"><ele>681.3333333333333</ele><time>2026-04-04T14:04:55.488Z</time></trkpt><trkpt lat="44.4770882" lon="7.2893299"><ele>680.5</ele><time>2026-04-04T14:04:58.347Z</time></trkpt><trkpt lat="44.477014" lon="7.2894015"><ele>679.6666666666666</ele><time>2026-04-04T14:05:01.491Z</time></trkpt><trkpt lat="44.4769408" lon="7.2894549"><ele>678.8333333333334</ele><time>2026-04-04T14:05:04.488Z</time></trkpt><trkpt lat="44.4768641" lon="7.2894864"><ele>678.0</ele><time>2026-04-04T14:05:07.488Z</time></trkpt><trkpt lat="44.4767743" lon="7.2894815"><ele>680.1666666666666</ele><time>2026-04-04T14:05:10.487Z</time></trkpt><trkpt lat="44.4766902" lon="7.289462"><ele>682.3333333333334</ele><time>2026-04-04T14:05:13.486Z</time></trkpt><trkpt lat="44.4766236" lon="7.2895556"><ele>684.5</ele><time>2026-04-04T14:05:16.487Z</time></trkpt><trkpt lat="44.4765942" lon="7.2896464"><ele>686.6666666666667</ele><time>2026-04-04T14:05:18.488Z</time></trkpt><trkpt lat="44.4765616" lon="7.289732"><ele>688.8333333333334</ele><time>2026-04-04T14:05:20.488Z</time></trkpt><trkpt lat="44.4765268" lon="7.2898203"><ele>691.0</ele><time>2026-04-04T14:05:22.488Z</time></trkpt><trkpt lat="44.4764889" lon="7.2899085"><ele>691.0</ele><time>2026-04-04T14:05:24.486Z</time></trkpt><trkpt lat="44.4764521" lon="7.2899842"><ele>691.0</ele><time>2026-04-04T14:05:26.488Z</time></trkpt><trkpt lat="44.4764077" lon="7.2900585"><ele>691.0</ele><time>2026-04-04T14:05:29.487Z</time></trkpt><trkpt lat="44.4763575" lon="7.2901739"><ele>691.0</ele><time>2026-04-04T14:05:32.487Z</time></trkpt><trkpt lat="44.4763245" lon="7.2902739"><ele>691.0</ele><time>2026-04-04T14:05:34.487Z</time></trkpt><trkpt lat="44.4762947" lon="7.2903883"><ele>691.0</ele><time>2026-04-04T14:05:36.487Z</time></trkpt><trkpt lat="44.4762723" lon="7.2905023"><ele>690.8333333333334</ele><time>2026-04-04T14:05:38.487Z</time></trkpt><trkpt lat="44.4762473" lon="7.2906106"><ele>690.6666666666667</ele><time>2026-04-04T14:05:40.487Z</time></trkpt><trkpt lat="44.4762236" lon="7.2907133"><ele>690.5</ele><time>2026-04-04T14:05:42.487Z</time></trkpt><trkpt lat="44.4761987" lon="7.290808"><ele>690.3333333333334</ele><time>2026-04-04T14:05:44.487Z</time></trkpt><trkpt lat="44.4761729" lon="7.2909007"><ele>690.1666666666666</ele><time>2026-04-04T14:05:46.488Z</time></trkpt><trkpt lat="44.4761447" lon="7.2910042"><ele>690.0</ele><time>2026-04-04T14:05:48.488Z</time></trkpt><trkpt lat="44.4761155" lon="7.2911283"><ele>690.0</ele><time>2026-04-04T14:05:50.486Z</time></trkpt><trkpt lat="44.476084" lon="7.2912623"><ele>690.0</ele><time>2026-04-04T14:05:52.487Z</time></trkpt><trkpt lat="44.4760529" lon="7.2914059"><ele>690.0</ele><time>2026-04-04T14:05:54.488Z</time></trkpt><trkpt lat="44.4760075" lon="7.2915684"><ele>690.0</ele><time>2026-04-04T14:05:56.487Z</time></trkpt><trkpt lat="44.4759658" lon="7.2917288"><ele>689.8571428571429</ele><time>2026-04-04T14:05:58.487Z</time></trkpt><trkpt lat="44.475943" lon="7.2918153"><ele>689.7142857142857</ele><time>2026-04-04T14:05:59.487Z</time></trkpt><trkpt lat="44.4759213" lon="7.2919002"><ele>689.5714285714286</ele><time>2026-04-04T14:06:00.487Z</time></trkpt><trkpt lat="44.4758967" lon="7.2919856"><ele>689.4285714285714</ele><time>2026-04-04T14:06:01.488Z</time></trkpt><trkpt lat="44.4758735" lon="7.2920762"><ele>689.2857142857143</ele><time>2026-04-04T14:06:02.487Z</time></trkpt><trkpt lat="44.4758468" lon="7.2921666"><ele>689.1428571428571</ele><time>2026-04-04T14:06:03.487Z</time></trkpt><trkpt lat="44.4758239" lon="7.2922523"><ele>689.0</ele><time>2026-04-04T14:06:04.487Z</time></trkpt><trkpt lat="44.4758045" lon="7.2923367"><ele>688.4000000000001</ele><time>2026-04-04T14:06:05.487Z</time></trkpt><trkpt lat="44.4757634" lon="7.2925055"><ele>687.8</ele><time>2026-04-04T14:06:07.488Z</time></trkpt><trkpt lat="44.4757414" lon="7.292593"><ele>687.2</ele><time>2026-04-04T14:06:08.488Z</time></trkpt><trkpt lat="44.4756947" lon="7.2927544"><ele>686.5999999999999</ele><time>2026-04-04T14:06:10.488Z</time></trkpt><trkpt lat="44.4756391" lon="7.2928995"><ele>686.0</ele><time>2026-04-04T14:06:12.487Z</time></trkpt><trkpt lat="44.4755807" lon="7.2930404"><ele>686.0</ele><time>2026-04-04T14:06:14.488Z</time></trkpt><trkpt lat="44.4755208" lon="7.2931746"><ele>686.0</ele><time>2026-04-04T14:06:16.487Z</time></trkpt><trkpt lat="44.4754648" lon="7.2933042"><ele>686.0</ele><time>2026-04-04T14:06:18.488Z</time></trkpt><trkpt lat="44.4754073" lon="7.2934319"><ele>686.0</ele><time>2026-04-04T14:06:20.488Z</time></trkpt><trkpt lat="44.4753507" lon="7.2935659"><ele>686.0</ele><time>2026-04-04T14:06:22.487Z</time></trkpt><trkpt lat="44.4753023" lon="7.2936901"><ele>686.4</ele><time>2026-04-04T14:06:24.487Z</time></trkpt><trkpt lat="44.4752543" lon="7.2938089"><ele>686.8</ele><time>2026-04-04T14:06:26.488Z</time></trkpt><trkpt lat="44.4752067" lon="7.2939291"><ele>687.1999999999999</ele><time>2026-04-04T14:06:28.487Z</time></trkpt><trkpt lat="44.4751528" lon="7.2940509"><ele>687.5999999999999</ele><time>2026-04-04T14:06:30.486Z</time></trkpt><trkpt lat="44.475095" lon="7.2941617"><ele>688.0</ele><time>2026-04-04T14:06:32.488Z</time></trkpt><trkpt lat="44.4750414" lon="7.2942713"><ele>688.0</ele><time>2026-04-04T14:06:34.488Z</time></trkpt><trkpt lat="44.47498" lon="7.2943818"><ele>688.0</ele><time>2026-04-04T14:06:36.488Z</time></trkpt><trkpt lat="44.4749231" lon="7.2944864"><ele>688.0</ele><time>2026-04-04T14:06:38.488Z</time></trkpt><trkpt lat="44.474863" lon="7.294588"><ele>688.0</ele><time>2026-04-04T14:06:40.487Z</time></trkpt><trkpt lat="44.474811" lon="7.2946805"><ele>688.0</ele><time>2026-04-04T14:06:42.486Z</time></trkpt><trkpt lat="44.4747638" lon="7.2947701"><ele>687.8</ele><time>2026-04-04T14:06:44.488Z</time></trkpt><trkpt lat="44.4747094" lon="7.2948634"><ele>687.5999999999999</ele><time>2026-04-04T14:06:46.487Z</time></trkpt><trkpt lat="44.4746468" lon="7.2949729"><ele>687.4000000000001</ele><time>2026-04-04T14:06:48.487Z</time></trkpt><trkpt lat="44.4745857" lon="7.2950966"><ele>687.2</ele><time>2026-04-04T14:06:50.486Z</time></trkpt><trkpt lat="44.4745214" lon="7.2952339"><ele>687.0</ele><time>2026-04-04T14:06:52.487Z</time></trkpt><trkpt lat="44.4744826" lon="7.295306"><ele>687.0</ele><time>2026-04-04T14:06:53.488Z</time></trkpt><trkpt lat="44.4744429" lon="7.2953861"><ele>687.0</ele><time>2026-04-04T14:06:54.488Z</time></trkpt><trkpt lat="44.4744019" lon="7.2954714"><ele>687.0</ele><time>2026-04-04T14:06:55.487Z</time></trkpt><trkpt lat="44.4743586" lon="7.2955575"><ele>687.0</ele><time>2026-04-04T14:06:56.487Z</time></trkpt><trkpt lat="44.4743176" lon="7.2956434"><ele>687.0</ele><time>2026-04-04T14:06:57.486Z</time></trkpt><trkpt lat="44.4742731" lon="7.2957385"><ele>687.0</ele><time>2026-04-04T14:06:58.488Z</time></trkpt><trkpt lat="44.474234" lon="7.2958275"><ele>687.0</ele><time>2026-04-04T14:06:59.488Z</time></trkpt><trkpt lat="44.4741923" lon="7.2959178"><ele>686.8333333333334</ele><time>2026-04-04T14:07:00.487Z</time></trkpt><trkpt lat="44.4741553" lon="7.2960033"><ele>686.6666666666666</ele><time>2026-04-04T14:07:01.487Z</time></trkpt><trkpt lat="44.4741156" lon="7.29609"><ele>686.5</ele><time>2026-04-04T14:07:02.488Z</time></trkpt><trkpt lat="44.4740807" lon="7.296169"><ele>686.3333333333333</ele><time>2026-04-04T14:07:03.486Z</time></trkpt><trkpt lat="44.4740287" lon="7.2963151"><ele>686.1666666666666</ele><time>2026-04-04T14:07:05.488Z</time></trkpt><trkpt lat="44.4740228" lon="7.2964521"><ele>686.0</ele><time>2026-04-04T14:07:07.488Z</time></trkpt><trkpt lat="44.4740357" lon="7.2965711"><ele>686.0</ele><time>2026-04-04T14:07:09.488Z</time></trkpt><trkpt lat="44.474061" lon="7.2966592"><ele>686.0</ele><time>2026-04-04T14:07:11.486Z</time></trkpt><trkpt lat="44.4740787" lon="7.2967673"><ele>686.0</ele><time>2026-04-04T14:07:14.486Z</time></trkpt><trkpt lat="44.4740509" lon="7.2968566"><ele>686.0</ele><time>2026-04-04T14:07:17.486Z</time></trkpt><trkpt lat="44.4740099" lon="7.2969574"><ele>686.0</ele><time>2026-04-04T14:07:21.488Z</time></trkpt><trkpt lat="44.4739565" lon="7.2970193"><ele>686.0</ele><time>2026-04-04T14:07:24.488Z</time></trkpt><trkpt lat="44.4738802" lon="7.2970697"><ele>686.0</ele><time>2026-04-04T14:07:27.486Z</time></trkpt><trkpt lat="44.4738188" lon="7.2971014"><ele>686.0</ele><time>2026-04-04T14:07:29.488Z</time></trkpt><trkpt lat="44.4737553" lon="7.2971251"><ele>686.0</ele><time>2026-04-04T14:07:31.488Z</time></trkpt><trkpt lat="44.4736891" lon="7.2971383"><ele>686.0</ele><time>2026-04-04T14:07:33.487Z</time></trkpt><trkpt lat="44.4736209" lon="7.2971235"><ele>686.0</ele><time>2026-04-04T14:07:35.488Z</time></trkpt><trkpt lat="44.4735567" lon="7.2970981"><ele>686.0</ele><time>2026-04-04T14:07:37.487Z</time></trkpt><trkpt lat="44.4734945" lon="7.2970751"><ele>686.0</ele><time>2026-04-04T14:07:39.487Z</time></trkpt><trkpt lat="44.4734329" lon="7.2970489"><ele>686.5714285714286</ele><time>2026-04-04T14:07:41.487Z</time></trkpt><trkpt lat="44.4733694" lon="7.2970198"><ele>687.1428571428571</ele><time>2026-04-04T14:07:43.487Z</time></trkpt><trkpt lat="44.4733048" lon="7.2969894"><ele>687.7142857142858</ele><time>2026-04-04T14:07:45.488Z</time></trkpt><trkpt lat="44.4732401" lon="7.296957"><ele>688.2857142857142</ele><time>2026-04-04T14:07:47.487Z</time></trkpt><trkpt lat="44.4731742" lon="7.296926"><ele>688.8571428571429</ele><time>2026-04-04T14:07:49.486Z</time></trkpt><trkpt lat="44.4731058" lon="7.2968922"><ele>689.4285714285714</ele><time>2026-04-04T14:07:51.487Z</time></trkpt><trkpt lat="44.473038" lon="7.296854"><ele>690.0</ele><time>2026-04-04T14:07:53.488Z</time></trkpt><trkpt lat="44.472965" lon="7.2968176"><ele>690.3333333333334</ele><time>2026-04-04T14:07:55.488Z</time></trkpt><trkpt lat="44.4728883" lon="7.2967992"><ele>690.6666666666666</ele><time>2026-04-04T14:07:57.488Z</time></trkpt><trkpt lat="44.4728129" lon="7.2968021"><ele>691.0</ele><time>2026-04-04T14:07:59.488Z</time></trkpt><trkpt lat="44.4727405" lon="7.2968331"><ele>691.3333333333333</ele><time>2026-04-04T14:08:01.488Z</time></trkpt><trkpt lat="44.4726693" lon="7.2968826"><ele>691.6666666666666</ele><time>2026-04-04T14:08:03.488Z</time></trkpt><trkpt lat="44.4726008" lon="7.2969583"><ele>692.0</ele><time>2026-04-04T14:08:05.488Z</time></trkpt><trkpt lat="44.4725228" lon="7.29704"><ele>692.0</ele><time>2026-04-04T14:08:07.488Z</time></trkpt><trkpt lat="44.47245" lon="7.2971248"><ele>692.0</ele><time>2026-04-04T14:08:09.486Z</time></trkpt><trkpt lat="44.4723766" lon="7.2972079"><ele>692.0</ele><time>2026-04-04T14:08:11.487Z</time></trkpt><trkpt lat="44.4723093" lon="7.2972889"><ele>692.0</ele><time>2026-04-04T14:08:13.488Z</time></trkpt><trkpt lat="44.4722417" lon="7.297366"><ele>692.0</ele><time>2026-04-04T14:08:15.487Z</time></trkpt><trkpt lat="44.4721691" lon="7.2974533"><ele>692.8333333333333</ele><time>2026-04-04T14:08:18.488Z</time></trkpt><trkpt lat="44.4720844" lon="7.297518"><ele>693.6666666666666</ele><time>2026-04-04T14:08:20.488Z</time></trkpt><trkpt lat="44.4720139" lon="7.2975753"><ele>694.5</ele><time>2026-04-04T14:08:22.413Z</time></trkpt><trkpt lat="44.4719506" lon="7.2976562"><ele>695.3333333333334</ele><time>2026-04-04T14:08:24.487Z</time></trkpt><trkpt lat="44.4718842" lon="7.2977059"><ele>696.1666666666667</ele><time>2026-04-04T14:08:26.487Z</time></trkpt><trkpt lat="44.4718273" lon="7.2977488"><ele>697.0</ele><time>2026-04-04T14:08:28.353Z</time></trkpt><trkpt lat="44.4717598" lon="7.2977758"><ele>697.0</ele><time>2026-04-04T14:08:30.488Z</time></trkpt><trkpt lat="44.4716965" lon="7.2978087"><ele>697.0</ele><time>2026-04-04T14:08:32.487Z</time></trkpt><trkpt lat="44.4716372" lon="7.2978409"><ele>697.0</ele><time>2026-04-04T14:08:34.416Z</time></trkpt><trkpt lat="44.4715753" lon="7.2978605"><ele>697.0</ele><time>2026-04-04T14:08:36.488Z</time></trkpt><trkpt lat="44.4715108" lon="7.2978789"><ele>697.0</ele><time>2026-04-04T14:08:38.45Z</time></trkpt><trkpt lat="44.4714366" lon="7.2978921"><ele>697.0</ele><time>2026-04-04T14:08:40.492Z</time></trkpt><trkpt lat="44.4713585" lon="7.2978945"><ele>697.0</ele><time>2026-04-04T14:08:42.488Z</time></trkpt><trkpt lat="44.4712813" lon="7.2978995"><ele>697.5</ele><time>2026-04-04T14:08:44.487Z</time></trkpt><trkpt lat="44.4712055" lon="7.2979054"><ele>698.0</ele><time>2026-04-04T14:08:46.488Z</time></trkpt><trkpt lat="44.4711301" lon="7.2979228"><ele>698.5</ele><time>2026-04-04T14:08:48.488Z</time></trkpt><trkpt lat="44.471055" lon="7.2979328"><ele>699.0</ele><time>2026-04-04T14:08:50.487Z</time></trkpt><trkpt lat="44.470979" lon="7.2979418"><ele>699.5</ele><time>2026-04-04T14:08:52.487Z</time></trkpt><trkpt lat="44.4709033" lon="7.2979531"><ele>700.0</ele><time>2026-04-04T14:08:54.488Z</time></trkpt><trkpt lat="44.4708285" lon="7.2979609"><ele>700.0</ele><time>2026-04-04T14:08:56.488Z</time></trkpt><trkpt lat="44.4707537" lon="7.2979897"><ele>700.0</ele><time>2026-04-04T14:08:58.487Z</time></trkpt><trkpt lat="44.4706781" lon="7.2980321"><ele>700.0</ele><time>2026-04-04T14:09:00.488Z</time></trkpt><trkpt lat="44.4706033" lon="7.2980796"><ele>700.0</ele><time>2026-04-04T14:09:02.487Z</time></trkpt><trkpt lat="44.4705279" lon="7.2981433"><ele>700.0</ele><time>2026-04-04T14:09:04.487Z</time></trkpt><trkpt lat="44.4704518" lon="7.2982084"><ele>700.0</ele><time>2026-04-04T14:09:06.488Z</time></trkpt><trkpt lat="44.4703595" lon="7.2982734"><ele>699.5</ele><time>2026-04-04T14:09:08.487Z</time></trkpt><trkpt lat="44.4702774" lon="7.2983338"><ele>699.0</ele><time>2026-04-04T14:09:10.487Z</time></trkpt><trkpt lat="44.4701989" lon="7.2984008"><ele>698.5</ele><time>2026-04-04T14:09:12.487Z</time></trkpt><trkpt lat="44.4701196" lon="7.2984577"><ele>698.0</ele><time>2026-04-04T14:09:14.488Z</time></trkpt><trkpt lat="44.4700464" lon="7.2985131"><ele>697.5</ele><time>2026-04-04T14:09:16.487Z</time></trkpt><trkpt lat="44.4699782" lon="7.2985656"><ele>697.0</ele><time>2026-04-04T14:09:18.487Z</time></trkpt><trkpt lat="44.4699073" lon="7.2986163"><ele>697.0</ele><time>2026-04-04T14:09:20.488Z</time></trkpt><trkpt lat="44.4698331" lon="7.2986627"><ele>697.0</ele><time>2026-04-04T14:09:22.488Z</time></trkpt><trkpt lat="44.4697581" lon="7.2987041"><ele>697.0</ele><time>2026-04-04T14:09:24.488Z</time></trkpt><trkpt lat="44.469684" lon="7.2987422"><ele>697.0</ele><time>2026-04-04T14:09:26.488Z</time></trkpt><trkpt lat="44.4696057" lon="7.2987713"><ele>697.0</ele><time>2026-04-04T14:09:28.486Z</time></trkpt><trkpt lat="44.4695231" lon="7.2987865"><ele>697.0</ele><time>2026-04-04T14:09:30.488Z</time></trkpt><trkpt lat="44.4694404" lon="7.2987823"><ele>696.4000000000001</ele><time>2026-04-04T14:09:32.486Z</time></trkpt><trkpt lat="44.4693553" lon="7.2987775"><ele>695.8000000000001</ele><time>2026-04-04T14:09:34.487Z</time></trkpt><trkpt lat="44.4692669" lon="7.2987793"><ele>695.2</ele><time>2026-04-04T14:09:36.487Z</time></trkpt><trkpt lat="44.4691681" lon="7.298804"><ele>694.6</ele><time>2026-04-04T14:09:38.487Z</time></trkpt><trkpt lat="44.4690718" lon="7.2988636"><ele>694.0</ele><time>2026-04-04T14:09:40.487Z</time></trkpt><trkpt lat="44.4689786" lon="7.2989561"><ele>694.0</ele><time>2026-04-04T14:09:42.488Z</time></trkpt><trkpt lat="44.4688839" lon="7.2990718"><ele>694.0</ele><time>2026-04-04T14:09:44.488Z</time></trkpt><trkpt lat="44.4687887" lon="7.2991872"><ele>694.0</ele><time>2026-04-04T14:09:46.487Z</time></trkpt><trkpt lat="44.4686944" lon="7.2993007"><ele>694.0</ele><time>2026-04-04T14:09:48.487Z</time></trkpt><trkpt lat="44.4686457" lon="7.2993597"><ele>694.0</ele><time>2026-04-04T14:09:49.486Z</time></trkpt><trkpt lat="44.4685574" lon="7.299482"><ele>694.1428571428572</ele><time>2026-04-04T14:09:51.487Z</time></trkpt><trkpt lat="44.4685175" lon="7.2995511"><ele>694.2857142857142</ele><time>2026-04-04T14:09:52.487Z</time></trkpt><trkpt lat="44.4684816" lon="7.2996269"><ele>694.4285714285714</ele><time>2026-04-04T14:09:53.487Z</time></trkpt><trkpt lat="44.4684508" lon="7.2997046"><ele>694.5714285714287</ele><time>2026-04-04T14:09:54.486Z</time></trkpt><trkpt lat="44.4684265" lon="7.2997898"><ele>694.7142857142858</ele><time>2026-04-04T14:09:55.487Z</time></trkpt><trkpt lat="44.4684058" lon="7.2998764"><ele>694.8571428571429</ele><time>2026-04-04T14:09:56.487Z</time></trkpt><trkpt lat="44.468382" lon="7.2999601"><ele>695.0</ele><time>2026-04-04T14:09:57.487Z</time></trkpt><trkpt lat="44.4683618" lon="7.3000463"><ele>694.5714285714287</ele><time>2026-04-04T14:09:58.486Z</time></trkpt><trkpt lat="44.468339" lon="7.3001329"><ele>694.1428571428571</ele><time>2026-04-04T14:09:59.486Z</time></trkpt><trkpt lat="44.4683233" lon="7.3002209"><ele>693.7142857142858</ele><time>2026-04-04T14:10:00.487Z</time></trkpt><trkpt lat="44.4683017" lon="7.3003049"><ele>693.2857142857143</ele><time>2026-04-04T14:10:01.486Z</time></trkpt><trkpt lat="44.4682824" lon="7.3003937"><ele>692.8571428571429</ele><time>2026-04-04T14:10:02.487Z</time></trkpt><trkpt lat="44.4682653" lon="7.3004843"><ele>692.4285714285714</ele><time>2026-04-04T14:10:03.487Z</time></trkpt><trkpt lat="44.4682464" lon="7.3005707"><ele>692.0</ele><time>2026-04-04T14:10:04.486Z</time></trkpt><trkpt lat="44.4682293" lon="7.3006563"><ele>691.0</ele><time>2026-04-04T14:10:05.486Z</time></trkpt><trkpt lat="44.4682097" lon="7.3007414"><ele>690.0</ele><time>2026-04-04T14:10:06.485Z</time></trkpt><trkpt lat="44.4681773" lon="7.3009073"><ele>689.0</ele><time>2026-04-04T14:10:08.487Z</time></trkpt><trkpt lat="44.4681467" lon="7.3010737"><ele>688.0</ele><time>2026-04-04T14:10:10.486Z</time></trkpt><trkpt lat="44.4681107" lon="7.3012283"><ele>687.0</ele><time>2026-04-04T14:10:12.487Z</time></trkpt><trkpt lat="44.4680766" lon="7.3013755"><ele>687.0</ele><time>2026-04-04T14:10:14.486Z</time></trkpt><trkpt lat="44.4680404" lon="7.3015289"><ele>687.0</ele><time>2026-04-04T14:10:16.487Z</time></trkpt><trkpt lat="44.468012" lon="7.3016763"><ele>687.0</ele><time>2026-04-04T14:10:18.485Z</time></trkpt><trkpt lat="44.4679691" lon="7.301814"><ele>687.0</ele><time>2026-04-04T14:10:20.487Z</time></trkpt><trkpt lat="44.4679117" lon="7.3019441"><ele>687.0</ele><time>2026-04-04T14:10:22.487Z</time></trkpt><trkpt lat="44.4678492" lon="7.3020631"><ele>687.0</ele><time>2026-04-04T14:10:24.487Z</time></trkpt><trkpt lat="44.4677863" lon="7.3021815"><ele>687.0</ele><time>2026-04-04T14:10:26.486Z</time></trkpt><trkpt lat="44.4677259" lon="7.3022934"><ele>687.0</ele><time>2026-04-04T14:10:28.486Z</time></trkpt><trkpt lat="44.4676664" lon="7.302405"><ele>687.0</ele><time>2026-04-04T14:10:30.486Z</time></trkpt><trkpt lat="44.4676116" lon="7.3025111"><ele>687.0</ele><time>2026-04-04T14:10:32.487Z</time></trkpt><trkpt lat="44.4675519" lon="7.3026151"><ele>687.1666666666666</ele><time>2026-04-04T14:10:34.486Z</time></trkpt><trkpt lat="44.4675008" lon="7.3027068"><ele>687.3333333333334</ele><time>2026-04-04T14:10:36.486Z</time></trkpt><trkpt lat="44.4674529" lon="7.3028044"><ele>687.5</ele><time>2026-04-04T14:10:38.486Z</time></trkpt><trkpt lat="44.4673994" lon="7.3029051"><ele>687.6666666666667</ele><time>2026-04-04T14:10:40.486Z</time></trkpt><trkpt lat="44.4673481" lon="7.3030041"><ele>687.8333333333334</ele><time>2026-04-04T14:10:42.486Z</time></trkpt><trkpt lat="44.4672926" lon="7.3030963"><ele>688.0</ele><time>2026-04-04T14:10:44.486Z</time></trkpt><trkpt lat="44.4672445" lon="7.3032037"><ele>688.0</ele><time>2026-04-04T14:10:46.486Z</time></trkpt><trkpt lat="44.4671906" lon="7.3033152"><ele>688.0</ele><time>2026-04-04T14:10:48.486Z</time></trkpt><trkpt lat="44.4671397" lon="7.303427"><ele>688.0</ele><time>2026-04-04T14:10:50.487Z</time></trkpt><trkpt lat="44.4670873" lon="7.3035468"><ele>688.0</ele><time>2026-04-04T14:10:52.487Z</time></trkpt><trkpt lat="44.4670343" lon="7.3036742"><ele>688.0</ele><time>2026-04-04T14:10:54.486Z</time></trkpt><trkpt lat="44.4669833" lon="7.3038083"><ele>687.75</ele><time>2026-04-04T14:10:56.487Z</time></trkpt><trkpt lat="44.4669417" lon="7.3039477"><ele>687.5</ele><time>2026-04-04T14:10:58.487Z</time></trkpt><trkpt lat="44.4669023" lon="7.3040945"><ele>687.25</ele><time>2026-04-04T14:11:00.485Z</time></trkpt><trkpt lat="44.4668769" lon="7.3042463"><ele>687.0</ele><time>2026-04-04T14:11:02.487Z</time></trkpt><trkpt lat="44.4668627" lon="7.3044161"><ele>687.0</ele><time>2026-04-04T14:11:04.486Z</time></trkpt><trkpt lat="44.4668625" lon="7.304588"><ele>687.0</ele><time>2026-04-04T14:11:06.486Z</time></trkpt><trkpt lat="44.4668663" lon="7.3047604"><ele>687.0</ele><time>2026-04-04T14:11:08.486Z</time></trkpt><trkpt lat="44.4668671" lon="7.3048511"><ele>687.0</ele><time>2026-04-04T14:11:09.487Z</time></trkpt><trkpt lat="44.4668686" lon="7.3050249"><ele>687.0</ele><time>2026-04-04T14:11:11.487Z</time></trkpt><trkpt lat="44.466856" lon="7.3051959"><ele>686.25</ele><time>2026-04-04T14:11:13.486Z</time></trkpt><trkpt lat="44.4668404" lon="7.3053603"><ele>685.5</ele><time>2026-04-04T14:11:15.486Z</time></trkpt><trkpt lat="44.4668169" lon="7.30552"><ele>684.75</ele><time>2026-04-04T14:11:17.486Z</time></trkpt><trkpt lat="44.4667889" lon="7.3056735"><ele>684.0</ele><time>2026-04-04T14:11:19.485Z</time></trkpt><trkpt lat="44.466763" lon="7.3058267"><ele>683.6</ele><time>2026-04-04T14:11:21.487Z</time></trkpt><trkpt lat="44.4667407" lon="7.3059815"><ele>683.2</ele><time>2026-04-04T14:11:23.487Z</time></trkpt><trkpt lat="44.4667179" lon="7.3061344"><ele>682.8000000000001</ele><time>2026-04-04T14:11:25.487Z</time></trkpt><trkpt lat="44.4666934" lon="7.3062839"><ele>682.4000000000001</ele><time>2026-04-04T14:11:27.487Z</time></trkpt><trkpt lat="44.466673" lon="7.3064356"><ele>682.0</ele><time>2026-04-04T14:11:29.487Z</time></trkpt><trkpt lat="44.4666592" lon="7.3065841"><ele>681.8</ele><time>2026-04-04T14:11:31.486Z</time></trkpt><trkpt lat="44.4666561" lon="7.3067319"><ele>681.6</ele><time>2026-04-04T14:11:33.485Z</time></trkpt><trkpt lat="44.4666627" lon="7.3068948"><ele>681.4</ele><time>2026-04-04T14:11:35.487Z</time></trkpt><trkpt lat="44.4666727" lon="7.3070707"><ele>681.1999999999999</ele><time>2026-04-04T14:11:37.487Z</time></trkpt><trkpt lat="44.4666844" lon="7.3071583"><ele>681.0</ele><time>2026-04-04T14:11:38.486Z</time></trkpt><trkpt lat="44.4667042" lon="7.3073302"><ele>680.4</ele><time>2026-04-04T14:11:40.486Z</time></trkpt><trkpt lat="44.4667038" lon="7.3074197"><ele>679.8</ele><time>2026-04-04T14:11:41.487Z</time></trkpt><trkpt lat="44.4666935" lon="7.307591"><ele>679.1999999999999</ele><time>2026-04-04T14:11:43.486Z</time></trkpt><trkpt lat="44.4666733" lon="7.3077446"><ele>678.5999999999999</ele><time>2026-04-04T14:11:45.487Z</time></trkpt><trkpt lat="44.4666402" lon="7.3078791"><ele>678.0</ele><time>2026-04-04T14:11:47.487Z</time></trkpt><trkpt lat="44.4666096" lon="7.3080045"><ele>677.4</ele><time>2026-04-04T14:11:49.487Z</time></trkpt><trkpt lat="44.4665833" lon="7.3081325"><ele>676.8</ele><time>2026-04-04T14:11:51.487Z</time></trkpt><trkpt lat="44.4665556" lon="7.308275"><ele>676.2</ele><time>2026-04-04T14:11:53.486Z</time></trkpt><trkpt lat="44.4665263" lon="7.3084186"><ele>675.6</ele><time>2026-04-04T14:11:55.487Z</time></trkpt><trkpt lat="44.4664985" lon="7.3085619"><ele>675.0</ele><time>2026-04-04T14:11:57.487Z</time></trkpt><trkpt lat="44.4664754" lon="7.308717"><ele>675.0</ele><time>2026-04-04T14:11:59.485Z</time></trkpt><trkpt lat="44.4664531" lon="7.3088659"><ele>675.0</ele><time>2026-04-04T14:12:01.487Z</time></trkpt><trkpt lat="44.466437" lon="7.3090081"><ele>675.0</ele><time>2026-04-04T14:12:03.486Z</time></trkpt><trkpt lat="44.4664231" lon="7.3091515"><ele>675.0</ele><time>2026-04-04T14:12:05.487Z</time></trkpt><trkpt lat="44.4663992" lon="7.3093027"><ele>675.0</ele><time>2026-04-04T14:12:07.486Z</time></trkpt><trkpt lat="44.4663774" lon="7.3094482"><ele>675.0</ele><time>2026-04-04T14:12:09.486Z</time></trkpt><trkpt lat="44.4663637" lon="7.3095838"><ele>675.0</ele><time>2026-04-04T14:12:11.487Z</time></trkpt><trkpt lat="44.466346" lon="7.3097181"><ele>675.0</ele><time>2026-04-04T14:12:13.486Z</time></trkpt><trkpt lat="44.4663253" lon="7.3098375"><ele>675.0</ele><time>2026-04-04T14:12:15.486Z</time></trkpt><trkpt lat="44.4663011" lon="7.3099697"><ele>675.0</ele><time>2026-04-04T14:12:17.486Z</time></trkpt><trkpt lat="44.4662768" lon="7.3101027"><ele>675.0</ele><time>2026-04-04T14:12:19.487Z</time></trkpt><trkpt lat="44.466251" lon="7.3102407"><ele>675.0</ele><time>2026-04-04T14:12:21.487Z</time></trkpt><trkpt lat="44.4662188" lon="7.3103819"><ele>675.0</ele><time>2026-04-04T14:12:23.487Z</time></trkpt><trkpt lat="44.4661882" lon="7.3105183"><ele>675.0</ele><time>2026-04-04T14:12:25.486Z</time></trkpt><trkpt lat="44.4661525" lon="7.3106539"><ele>675.0</ele><time>2026-04-04T14:12:27.486Z</time></trkpt><trkpt lat="44.466116" lon="7.3107887"><ele>674.4</ele><time>2026-04-04T14:12:29.487Z</time></trkpt><trkpt lat="44.4660828" lon="7.3109303"><ele>673.8</ele><time>2026-04-04T14:12:31.485Z</time></trkpt><trkpt lat="44.4660618" lon="7.3110633"><ele>673.2</ele><time>2026-04-04T14:12:33.486Z</time></trkpt><trkpt lat="44.466047" lon="7.3112168"><ele>672.6</ele><time>2026-04-04T14:12:35.485Z</time></trkpt><trkpt lat="44.4660413" lon="7.3113759"><ele>672.0</ele><time>2026-04-04T14:12:37.487Z</time></trkpt><trkpt lat="44.4660407" lon="7.3115449"><ele>672.0</ele><time>2026-04-04T14:12:39.486Z</time></trkpt><trkpt lat="44.4660444" lon="7.3117159"><ele>672.0</ele><time>2026-04-04T14:12:41.486Z</time></trkpt><trkpt lat="44.4660461" lon="7.3118071"><ele>672.0</ele><time>2026-04-04T14:12:42.487Z</time></trkpt><trkpt lat="44.4660479" lon="7.3119014"><ele>672.0</ele><time>2026-04-04T14:12:43.486Z</time></trkpt><trkpt lat="44.4660528" lon="7.3119963"><ele>672.0</ele><time>2026-04-04T14:12:44.487Z</time></trkpt><trkpt lat="44.4660561" lon="7.3120919"><ele>672.0</ele><time>2026-04-04T14:12:45.487Z</time></trkpt><trkpt lat="44.4660581" lon="7.3121875"><ele>671.5714285714286</ele><time>2026-04-04T14:12:46.487Z</time></trkpt><trkpt lat="44.4660607" lon="7.312286"><ele>671.1428571428571</ele><time>2026-04-04T14:12:47.486Z</time></trkpt><trkpt lat="44.4660665" lon="7.3123825"><ele>670.7142857142858</ele><time>2026-04-04T14:12:48.486Z</time></trkpt><trkpt lat="44.4660732" lon="7.3124865"><ele>670.2857142857142</ele><time>2026-04-04T14:12:49.487Z</time></trkpt><trkpt lat="44.4660792" lon="7.3125846"><ele>669.8571428571429</ele><time>2026-04-04T14:12:50.487Z</time></trkpt><trkpt lat="44.4660843" lon="7.3126848"><ele>669.4285714285714</ele><time>2026-04-04T14:12:51.486Z</time></trkpt><trkpt lat="44.4660905" lon="7.3127825"><ele>669.0</ele><time>2026-04-04T14:12:52.486Z</time></trkpt><trkpt lat="44.4660985" lon="7.3128782"><ele>669.0</ele><time>2026-04-04T14:12:53.487Z</time></trkpt><trkpt lat="44.4661062" lon="7.3129812"><ele>669.0</ele><time>2026-04-04T14:12:54.487Z</time></trkpt><trkpt lat="44.466112" lon="7.3130798"><ele>669.0</ele><time>2026-04-04T14:12:55.487Z</time></trkpt><trkpt lat="44.4661167" lon="7.3131782"><ele>669.0</ele><time>2026-04-04T14:12:56.487Z</time></trkpt><trkpt lat="44.4661242" lon="7.3132776"><ele>669.0</ele><time>2026-04-04T14:12:57.487Z</time></trkpt><trkpt lat="44.4661265" lon="7.3133743"><ele>669.0</ele><time>2026-04-04T14:12:58.486Z</time></trkpt><trkpt lat="44.4661201" lon="7.3134687"><ele>669.0</ele><time>2026-04-04T14:12:59.487Z</time></trkpt><trkpt lat="44.466112" lon="7.3135625"><ele>669.0</ele><time>2026-04-04T14:13:00.487Z</time></trkpt><trkpt lat="44.466105" lon="7.3136512"><ele>669.0</ele><time>2026-04-04T14:13:01.487Z</time></trkpt><trkpt lat="44.4660932" lon="7.3138229"><ele>669.0</ele><time>2026-04-04T14:13:03.486Z</time></trkpt><trkpt lat="44.4660622" lon="7.3139698"><ele>669.0</ele><time>2026-04-04T14:13:05.487Z</time></trkpt><trkpt lat="44.46604" lon="7.3141088"><ele>669.0</ele><time>2026-04-04T14:13:07.487Z</time></trkpt><trkpt lat="44.4660245" lon="7.3142517"><ele>669.0</ele><time>2026-04-04T14:13:09.486Z</time></trkpt><trkpt lat="44.4660232" lon="7.314399"><ele>669.0</ele><time>2026-04-04T14:13:11.487Z</time></trkpt><trkpt lat="44.4660282" lon="7.3145387"><ele>669.0</ele><time>2026-04-04T14:13:13.487Z</time></trkpt><trkpt lat="44.4660325" lon="7.3146717"><ele>669.0</ele><time>2026-04-04T14:13:15.487Z</time></trkpt><trkpt lat="44.4660366" lon="7.3147974"><ele>669.0</ele><time>2026-04-04T14:13:17.486Z</time></trkpt><trkpt lat="44.4660409" lon="7.314929"><ele>668.4000000000001</ele><time>2026-04-04T14:13:19.486Z</time></trkpt><trkpt lat="44.4660394" lon="7.3150587"><ele>667.8</ele><time>2026-04-04T14:13:21.487Z</time></trkpt><trkpt lat="44.4660333" lon="7.3151993"><ele>667.2</ele><time>2026-04-04T14:13:23.486Z</time></trkpt><trkpt lat="44.4660296" lon="7.3153334"><ele>666.5999999999999</ele><time>2026-04-04T14:13:25.486Z</time></trkpt><trkpt lat="44.4660225" lon="7.315473"><ele>666.0</ele><time>2026-04-04T14:13:27.487Z</time></trkpt><trkpt lat="44.4660178" lon="7.3156162"><ele>665.5999999999999</ele><time>2026-04-04T14:13:29.486Z</time></trkpt><trkpt lat="44.4660103" lon="7.3157561"><ele>665.2</ele><time>2026-04-04T14:13:31.486Z</time></trkpt><trkpt lat="44.4660082" lon="7.3158874"><ele>664.8</ele><time>2026-04-04T14:13:33.486Z</time></trkpt><trkpt lat="44.4660015" lon="7.3160164"><ele>664.4000000000001</ele><time>2026-04-04T14:13:35.485Z</time></trkpt><trkpt lat="44.4659951" lon="7.3161389"><ele>664.0</ele><time>2026-04-04T14:13:37.487Z</time></trkpt><trkpt lat="44.46598" lon="7.3162589"><ele>664.0</ele><time>2026-04-04T14:13:39.487Z</time></trkpt><trkpt lat="44.4659487" lon="7.3163707"><ele>664.0</ele><time>2026-04-04T14:13:41.487Z</time></trkpt><trkpt lat="44.4659094" lon="7.316473"><ele>664.0</ele><time>2026-04-04T14:13:43.487Z</time></trkpt><trkpt lat="44.4658716" lon="7.3165697"><ele>664.0</ele><time>2026-04-04T14:13:45.486Z</time></trkpt><trkpt lat="44.4658402" lon="7.3166614"><ele>664.0</ele><time>2026-04-04T14:13:47.487Z</time></trkpt><trkpt lat="44.4658082" lon="7.3167567"><ele>664.0</ele><time>2026-04-04T14:13:49.486Z</time></trkpt><trkpt lat="44.4657738" lon="7.3168584"><ele>664.0</ele><time>2026-04-04T14:13:51.486Z</time></trkpt><trkpt lat="44.4657448" lon="7.3169772"><ele>664.0</ele><time>2026-04-04T14:13:53.486Z</time></trkpt><trkpt lat="44.4656962" lon="7.3171016"><ele>664.0</ele><time>2026-04-04T14:13:55.485Z</time></trkpt><trkpt lat="44.4656225" lon="7.3172136"><ele>664.0</ele><time>2026-04-04T14:13:57.486Z</time></trkpt><trkpt lat="44.4655509" lon="7.3173297"><ele>664.0</ele><time>2026-04-04T14:13:59.486Z</time></trkpt><trkpt lat="44.4654724" lon="7.3174527"><ele>663.6</ele><time>2026-04-04T14:14:01.487Z</time></trkpt><trkpt lat="44.4654122" lon="7.3175968"><ele>663.2</ele><time>2026-04-04T14:14:03.487Z</time></trkpt><trkpt lat="44.4653715" lon="7.3177356"><ele>662.8000000000001</ele><time>2026-04-04T14:14:05.487Z</time></trkpt><trkpt lat="44.4653324" lon="7.3178787"><ele>662.4000000000001</ele><time>2026-04-04T14:14:07.486Z</time></trkpt><trkpt lat="44.4652856" lon="7.3180105"><ele>662.0</ele><time>2026-04-04T14:14:09.487Z</time></trkpt><trkpt lat="44.4652315" lon="7.3181406"><ele>661.4000000000001</ele><time>2026-04-04T14:14:11.486Z</time></trkpt><trkpt lat="44.4651731" lon="7.3182657"><ele>660.8000000000001</ele><time>2026-04-04T14:14:13.486Z</time></trkpt><trkpt lat="44.4651079" lon="7.3184027"><ele>660.2</ele><time>2026-04-04T14:14:15.487Z</time></trkpt><trkpt lat="44.4650598" lon="7.3185491"><ele>659.6</ele><time>2026-04-04T14:14:17.486Z</time></trkpt><trkpt lat="44.465056" lon="7.3186985"><ele>659.0</ele><time>2026-04-04T14:14:19.487Z</time></trkpt><trkpt lat="44.4650749" lon="7.3188494"><ele>658.8000000000001</ele><time>2026-04-04T14:14:21.487Z</time></trkpt><trkpt lat="44.4650939" lon="7.3190018"><ele>658.6</ele><time>2026-04-04T14:14:23.487Z</time></trkpt><trkpt lat="44.4651132" lon="7.3191452"><ele>658.4</ele><time>2026-04-04T14:14:25.486Z</time></trkpt><trkpt lat="44.4651338" lon="7.3192902"><ele>658.2</ele><time>2026-04-04T14:14:27.485Z</time></trkpt><trkpt lat="44.4651453" lon="7.3194321"><ele>658.0</ele><time>2026-04-04T14:14:29.486Z</time></trkpt><trkpt lat="44.4651635" lon="7.3195694"><ele>658.0</ele><time>2026-04-04T14:14:31.485Z</time></trkpt><trkpt lat="44.4651791" lon="7.319693"><ele>658.0</ele><time>2026-04-04T14:14:33.485Z</time></trkpt><trkpt lat="44.465193" lon="7.3198211"><ele>658.0</ele><time>2026-04-04T14:14:35.485Z</time></trkpt><trkpt lat="44.4652043" lon="7.3199487"><ele>658.0</ele><time>2026-04-04T14:14:37.486Z</time></trkpt><trkpt lat="44.4652088" lon="7.3200817"><ele>658.0</ele><time>2026-04-04T14:14:39.486Z</time></trkpt><trkpt lat="44.4652153" lon="7.3202125"><ele>658.0</ele><time>2026-04-04T14:14:41.485Z</time></trkpt><trkpt lat="44.4652213" lon="7.3203449"><ele>658.0</ele><time>2026-04-04T14:14:43.485Z</time></trkpt><trkpt lat="44.465231" lon="7.3204867"><ele>658.0</ele><time>2026-04-04T14:14:45.485Z</time></trkpt><trkpt lat="44.4652323" lon="7.3206279"><ele>658.0</ele><time>2026-04-04T14:14:47.485Z</time></trkpt><trkpt lat="44.4652285" lon="7.3207676"><ele>658.0</ele><time>2026-04-04T14:14:49.484Z</time></trkpt><trkpt lat="44.465224" lon="7.3209085"><ele>658.0</ele><time>2026-04-04T14:14:51.486Z</time></trkpt><trkpt lat="44.4652137" lon="7.3210617"><ele>658.0</ele><time>2026-04-04T14:14:53.485Z</time></trkpt><trkpt lat="44.4652077" lon="7.3212229"><ele>658.0</ele><time>2026-04-04T14:14:55.486Z</time></trkpt><trkpt lat="44.4652039" lon="7.3213871"><ele>658.0</ele><time>2026-04-04T14:14:57.486Z</time></trkpt><trkpt lat="44.4651962" lon="7.3215482"><ele>658.0</ele><time>2026-04-04T14:14:59.486Z</time></trkpt><trkpt lat="44.4651885" lon="7.3217099"><ele>658.0</ele><time>2026-04-04T14:15:01.486Z</time></trkpt><trkpt lat="44.4651782" lon="7.3218779"><ele>658.0</ele><time>2026-04-04T14:15:03.486Z</time></trkpt><trkpt lat="44.4651642" lon="7.3220507"><ele>658.0</ele><time>2026-04-04T14:15:05.486Z</time></trkpt><trkpt lat="44.4651465" lon="7.3222194"><ele>657.2</ele><time>2026-04-04T14:15:07.485Z</time></trkpt><trkpt lat="44.4651234" lon="7.3223816"><ele>656.4</ele><time>2026-04-04T14:15:09.486Z</time></trkpt><trkpt lat="44.4650874" lon="7.3225283"><ele>655.6</ele><time>2026-04-04T14:15:11.486Z</time></trkpt><trkpt lat="44.4650423" lon="7.3226682"><ele>654.8000000000001</ele><time>2026-04-04T14:15:13.486Z</time></trkpt><trkpt lat="44.465" lon="7.3228109"><ele>654.0</ele><time>2026-04-04T14:15:15.486Z</time></trkpt><trkpt lat="44.4649595" lon="7.3229528"><ele>653.5</ele><time>2026-04-04T14:15:17.486Z</time></trkpt><trkpt lat="44.4649234" lon="7.3230999"><ele>653.0</ele><time>2026-04-04T14:15:19.486Z</time></trkpt><trkpt lat="44.4648955" lon="7.3232501"><ele>652.5</ele><time>2026-04-04T14:15:21.486Z</time></trkpt><trkpt lat="44.4648615" lon="7.3234067"><ele>652.0</ele><time>2026-04-04T14:15:23.486Z</time></trkpt><trkpt lat="44.464829" lon="7.3235572"><ele>652.0</ele><time>2026-04-04T14:15:25.485Z</time></trkpt><trkpt lat="44.4647897" lon="7.323707"><ele>652.0</ele><time>2026-04-04T14:15:27.486Z</time></trkpt><trkpt lat="44.464747" lon="7.3238503"><ele>652.0</ele><time>2026-04-04T14:15:29.485Z</time></trkpt><trkpt lat="44.4646951" lon="7.3239857"><ele>652.0</ele><time>2026-04-04T14:15:31.484Z</time></trkpt><trkpt lat="44.4646478" lon="7.3241316"><ele>652.0</ele><time>2026-04-04T14:15:33.485Z</time></trkpt><trkpt lat="44.4645993" lon="7.3242809"><ele>651.75</ele><time>2026-04-04T14:15:35.486Z</time></trkpt><trkpt lat="44.4645568" lon="7.3244331"><ele>651.5</ele><time>2026-04-04T14:15:37.486Z</time></trkpt><trkpt lat="44.4645166" lon="7.3245859"><ele>651.25</ele><time>2026-04-04T14:15:39.485Z</time></trkpt><trkpt lat="44.464482" lon="7.324735"><ele>651.0</ele><time>2026-04-04T14:15:41.484Z</time></trkpt><trkpt lat="44.464443" lon="7.3248818"><ele>651.0</ele><time>2026-04-04T14:15:43.485Z</time></trkpt><trkpt lat="44.4643899" lon="7.3250186"><ele>651.0</ele><time>2026-04-04T14:15:45.485Z</time></trkpt><trkpt lat="44.4643225" lon="7.3251467"><ele>651.0</ele><time>2026-04-04T14:15:47.485Z</time></trkpt><trkpt lat="44.4642411" lon="7.3252802"><ele>651.0</ele><time>2026-04-04T14:15:49.485Z</time></trkpt><trkpt lat="44.4641622" lon="7.325417"><ele>651.0</ele><time>2026-04-04T14:15:51.486Z</time></trkpt><trkpt lat="44.46413" lon="7.3254981"><ele>651.0</ele><time>2026-04-04T14:15:52.485Z</time></trkpt><trkpt lat="44.4641063" lon="7.3255814"><ele>651.0</ele><time>2026-04-04T14:15:53.484Z</time></trkpt><trkpt lat="44.4640846" lon="7.325749"><ele>651.0</ele><time>2026-04-04T14:15:55.486Z</time></trkpt><trkpt lat="44.4640956" lon="7.3259078"><ele>651.0</ele><time>2026-04-04T14:15:57.484Z</time></trkpt><trkpt lat="44.4641356" lon="7.326038"><ele>650.4</ele><time>2026-04-04T14:15:59.486Z</time></trkpt><trkpt lat="44.4642151" lon="7.3261136"><ele>649.8</ele><time>2026-04-04T14:16:01.486Z</time></trkpt><trkpt lat="44.4643142" lon="7.3261332"><ele>649.1999999999999</ele><time>2026-04-04T14:16:03.485Z</time></trkpt><trkpt lat="44.4644175" lon="7.3261509"><ele>648.5999999999999</ele><time>2026-04-04T14:16:05.486Z</time></trkpt><trkpt lat="44.4645037" lon="7.3261956"><ele>648.0</ele><time>2026-04-04T14:16:07.485Z</time></trkpt><trkpt lat="44.464562" lon="7.3263184"><ele>648.0</ele><time>2026-04-04T14:16:09.484Z</time></trkpt><trkpt lat="44.4645913" lon="7.3264658"><ele>648.0</ele><time>2026-04-04T14:16:11.485Z</time></trkpt><trkpt lat="44.4646041" lon="7.3266166"><ele>648.0</ele><time>2026-04-04T14:16:13.485Z</time></trkpt><trkpt lat="44.464614" lon="7.326773"><ele>648.0</ele><time>2026-04-04T14:16:15.485Z</time></trkpt><trkpt lat="44.4645973" lon="7.3269301"><ele>648.0</ele><time>2026-04-04T14:16:17.485Z</time></trkpt><trkpt lat="44.4645769" lon="7.3270959"><ele>647.4</ele><time>2026-04-04T14:16:19.485Z</time></trkpt><trkpt lat="44.4645564" lon="7.3272676"><ele>646.8</ele><time>2026-04-04T14:16:21.485Z</time></trkpt><trkpt lat="44.4645541" lon="7.3273583"><ele>646.2</ele><time>2026-04-04T14:16:22.486Z</time></trkpt><trkpt lat="44.4645379" lon="7.3275327"><ele>645.6</ele><time>2026-04-04T14:16:24.486Z</time></trkpt><trkpt lat="44.4645287" lon="7.3276206"><ele>645.0</ele><time>2026-04-04T14:16:25.486Z</time></trkpt><trkpt lat="44.4645124" lon="7.3277843"><ele>645.0</ele><time>2026-04-04T14:16:27.486Z</time></trkpt><trkpt lat="44.4645024" lon="7.327953"><ele>645.0</ele><time>2026-04-04T14:16:29.485Z</time></trkpt><trkpt lat="44.4644839" lon="7.328117"><ele>645.0</ele><time>2026-04-04T14:16:31.486Z</time></trkpt><trkpt lat="44.4644573" lon="7.328275"><ele>645.0</ele><time>2026-04-04T14:16:33.485Z</time></trkpt><trkpt lat="44.4644351" lon="7.3284354"><ele>644.8333333333334</ele><time>2026-04-04T14:16:35.484Z</time></trkpt><trkpt lat="44.4644085" lon="7.3286109"><ele>644.6666666666666</ele><time>2026-04-04T14:16:37.486Z</time></trkpt><trkpt lat="44.4643983" lon="7.3287"><ele>644.5</ele><time>2026-04-04T14:16:38.485Z</time></trkpt><trkpt lat="44.4643855" lon="7.328791"><ele>644.3333333333333</ele><time>2026-04-04T14:16:39.485Z</time></trkpt><trkpt lat="44.4643751" lon="7.3288817"><ele>644.1666666666666</ele><time>2026-04-04T14:16:40.486Z</time></trkpt><trkpt lat="44.4643699" lon="7.3289726"><ele>644.0</ele><time>2026-04-04T14:16:41.485Z</time></trkpt><trkpt lat="44.4643705" lon="7.3290663"><ele>643.8571428571429</ele><time>2026-04-04T14:16:42.485Z</time></trkpt><trkpt lat="44.4643773" lon="7.3291618"><ele>643.7142857142858</ele><time>2026-04-04T14:16:43.486Z</time></trkpt><trkpt lat="44.464383" lon="7.3292551"><ele>643.5714285714286</ele><time>2026-04-04T14:16:44.486Z</time></trkpt><trkpt lat="44.4643833" lon="7.3293508"><ele>643.4285714285714</ele><time>2026-04-04T14:16:45.485Z</time></trkpt><trkpt lat="44.4643889" lon="7.3294442"><ele>643.2857142857143</ele><time>2026-04-04T14:16:46.484Z</time></trkpt><trkpt lat="44.4643877" lon="7.3295415"><ele>643.1428571428571</ele><time>2026-04-04T14:16:47.485Z</time></trkpt><trkpt lat="44.4643853" lon="7.3296436"><ele>643.0</ele><time>2026-04-04T14:16:48.485Z</time></trkpt><trkpt lat="44.4643828" lon="7.3297412"><ele>642.4285714285714</ele><time>2026-04-04T14:16:49.485Z</time></trkpt><trkpt lat="44.4643687" lon="7.3298376"><ele>641.8571428571429</ele><time>2026-04-04T14:16:50.486Z</time></trkpt><trkpt lat="44.4643497" lon="7.3299284"><ele>641.2857142857143</ele><time>2026-04-04T14:16:51.485Z</time></trkpt><trkpt lat="44.4643226" lon="7.3300224"><ele>640.7142857142858</ele><time>2026-04-04T14:16:52.485Z</time></trkpt><trkpt lat="44.4642959" lon="7.3301196"><ele>640.1428571428571</ele><time>2026-04-04T14:16:53.485Z</time></trkpt><trkpt lat="44.4642676" lon="7.3302158"><ele>639.5714285714287</ele><time>2026-04-04T14:16:54.485Z</time></trkpt><trkpt lat="44.4642375" lon="7.3303144"><ele>639.0</ele><time>2026-04-04T14:16:55.486Z</time></trkpt><trkpt lat="44.4642056" lon="7.3304097"><ele>639.0000000000001</ele><time>2026-04-04T14:16:56.486Z</time></trkpt><trkpt lat="44.4641698" lon="7.3305009"><ele>639.0</ele><time>2026-04-04T14:16:57.485Z</time></trkpt><trkpt lat="44.4641249" lon="7.3305796"><ele>639.0</ele><time>2026-04-04T14:16:58.486Z</time></trkpt><trkpt lat="44.4640825" lon="7.3306585"><ele>639.0</ele><time>2026-04-04T14:16:59.486Z</time></trkpt><trkpt lat="44.464045" lon="7.3307412"><ele>639.0</ele><time>2026-04-04T14:17:00.485Z</time></trkpt><trkpt lat="44.4640094" lon="7.3308366"><ele>639.0000000000001</ele><time>2026-04-04T14:17:01.484Z</time></trkpt><trkpt lat="44.463984" lon="7.3309381"><ele>639.0</ele><time>2026-04-04T14:17:02.486Z</time></trkpt><trkpt lat="44.4639574" lon="7.3310336"><ele>639.3333333333334</ele><time>2026-04-04T14:17:03.485Z</time></trkpt><trkpt lat="44.4639246" lon="7.3311152"><ele>639.6666666666666</ele><time>2026-04-04T14:17:04.485Z</time></trkpt><trkpt lat="44.4638812" lon="7.3311941"><ele>640.0</ele><time>2026-04-04T14:17:05.486Z</time></trkpt><trkpt lat="44.4638224" lon="7.3312714"><ele>640.3333333333333</ele><time>2026-04-04T14:17:06.486Z</time></trkpt><trkpt lat="44.4637544" lon="7.3313475"><ele>640.6666666666666</ele><time>2026-04-04T14:17:07.485Z</time></trkpt><trkpt lat="44.4636907" lon="7.3314159"><ele>641.0</ele><time>2026-04-04T14:17:08.486Z</time></trkpt><trkpt lat="44.4636331" lon="7.3314777"><ele>641.0</ele><time>2026-04-04T14:17:09.485Z</time></trkpt><trkpt lat="44.463578" lon="7.3315454"><ele>641.0</ele><time>2026-04-04T14:17:10.485Z</time></trkpt><trkpt lat="44.4635317" lon="7.3316142"><ele>641.0</ele><time>2026-04-04T14:17:11.485Z</time></trkpt><trkpt lat="44.4635012" lon="7.3316957"><ele>641.0</ele><time>2026-04-04T14:17:12.485Z</time></trkpt><trkpt lat="44.4634805" lon="7.3317792"><ele>641.0</ele><time>2026-04-04T14:17:13.485Z</time></trkpt><trkpt lat="44.4634785" lon="7.3319295"><ele>641.0</ele><time>2026-04-04T14:17:15.485Z</time></trkpt><trkpt lat="44.4635428" lon="7.3320595"><ele>641.0</ele><time>2026-04-04T14:17:17.485Z</time></trkpt><trkpt lat="44.463627" lon="7.3320608"><ele>641.0</ele><time>2026-04-04T14:17:18.484Z</time></trkpt><trkpt lat="44.4637401" lon="7.332064"><ele>641.0</ele><time>2026-04-04T14:17:20.485Z</time></trkpt><trkpt lat="44.4637957" lon="7.3319798"><ele>641.0</ele><time>2026-04-04T14:17:22.485Z</time></trkpt><trkpt lat="44.4638659" lon="7.3320409"><ele>641.0</ele><time>2026-04-04T14:17:25.485Z</time></trkpt><trkpt lat="44.463832" lon="7.332167"><ele>635.5</ele><time>2026-04-04T14:17:27.486Z</time></trkpt><trkpt lat="44.4638194" lon="7.3323311"><ele>630.0</ele><time>2026-04-04T14:17:29.486Z</time></trkpt><trkpt lat="44.4638647" lon="7.3324898"><ele>624.5</ele><time>2026-04-04T14:17:31.484Z</time></trkpt><trkpt lat="44.4639387" lon="7.3326224"><ele>619.0</ele><time>2026-04-04T14:17:33.485Z</time></trkpt><trkpt lat="44.4639925" lon="7.3327677"><ele>619.0</ele><time>2026-04-04T14:17:35.485Z</time></trkpt><trkpt lat="44.4640044" lon="7.3329017"><ele>619.0</ele><time>2026-04-04T14:17:37.485Z</time></trkpt><trkpt lat="44.4639893" lon="7.3330282"><ele>619.0</ele><time>2026-04-04T14:17:39.486Z</time></trkpt><trkpt lat="44.4639853" lon="7.3331506"><ele>619.0</ele><time>2026-04-04T14:17:41.485Z</time></trkpt><trkpt lat="44.4640126" lon="7.3332552"><ele>619.0</ele><time>2026-04-04T14:17:43.486Z</time></trkpt><trkpt lat="44.4640721" lon="7.333315"><ele>619.0</ele><time>2026-04-04T14:17:45.486Z</time></trkpt><trkpt lat="44.4641475" lon="7.3333585"><ele>619.2</ele><time>2026-04-04T14:17:47.486Z</time></trkpt><trkpt lat="44.4642273" lon="7.3334034"><ele>619.4</ele><time>2026-04-04T14:17:49.486Z</time></trkpt><trkpt lat="44.4642767" lon="7.3334854"><ele>619.6</ele><time>2026-04-04T14:17:51.485Z</time></trkpt><trkpt lat="44.4642861" lon="7.3336066"><ele>619.8</ele><time>2026-04-04T14:17:53.485Z</time></trkpt><trkpt lat="44.4642689" lon="7.3337497"><ele>620.0</ele><time>2026-04-04T14:17:55.485Z</time></trkpt><trkpt lat="44.4642556" lon="7.333901"><ele>620.0</ele><time>2026-04-04T14:17:57.486Z</time></trkpt><trkpt lat="44.4642482" lon="7.3340558"><ele>620.0</ele><time>2026-04-04T14:17:59.486Z</time></trkpt><trkpt lat="44.4642449" lon="7.3342168"><ele>620.0</ele><time>2026-04-04T14:18:01.486Z</time></trkpt><trkpt lat="44.464239" lon="7.3343792"><ele>620.0</ele><time>2026-04-04T14:18:03.485Z</time></trkpt><trkpt lat="44.4642289" lon="7.3345348"><ele>620.0</ele><time>2026-04-04T14:18:05.485Z</time></trkpt><trkpt lat="44.4642175" lon="7.3346806"><ele>620.0</ele><time>2026-04-04T14:18:07.484Z</time></trkpt><trkpt lat="44.4641991" lon="7.3348225"><ele>620.0</ele><time>2026-04-04T14:18:09.486Z</time></trkpt><trkpt lat="44.4641777" lon="7.3349607"><ele>620.0</ele><time>2026-04-04T14:18:11.485Z</time></trkpt><trkpt lat="44.4641643" lon="7.3350855"><ele>620.0</ele><time>2026-04-04T14:18:13.485Z</time></trkpt><trkpt lat="44.4641442" lon="7.3351917"><ele>620.8333333333333</ele><time>2026-04-04T14:18:15.486Z</time></trkpt><trkpt lat="44.4641224" lon="7.335286"><ele>621.6666666666666</ele><time>2026-04-04T14:18:17.485Z</time></trkpt><trkpt lat="44.4640968" lon="7.3353758"><ele>622.5</ele><time>2026-04-04T14:18:19.485Z</time></trkpt><trkpt lat="44.4640719" lon="7.3354631"><ele>623.3333333333334</ele><time>2026-04-04T14:18:21.486Z</time></trkpt><trkpt lat="44.464027" lon="7.3356041"><ele>624.1666666666667</ele><time>2026-04-04T14:18:23.508Z</time></trkpt><trkpt lat="44.4639776" lon="7.3357258"><ele>625.0</ele><time>2026-04-04T14:18:25.486Z</time></trkpt><trkpt lat="44.4639282" lon="7.3358479"><ele>626.4</ele><time>2026-04-04T14:18:27.486Z</time></trkpt><trkpt lat="44.4638819" lon="7.3359993"><ele>627.8</ele><time>2026-04-04T14:18:29.486Z</time></trkpt><trkpt lat="44.4638232" lon="7.3361413"><ele>629.2</ele><time>2026-04-04T14:18:31.485Z</time></trkpt><trkpt lat="44.4637765" lon="7.336279"><ele>630.6</ele><time>2026-04-04T14:18:33.486Z</time></trkpt><trkpt lat="44.4637397" lon="7.3364111"><ele>632.0</ele><time>2026-04-04T14:18:35.485Z</time></trkpt><trkpt lat="44.4637024" lon="7.3365435"><ele>629.6666666666666</ele><time>2026-04-04T14:18:37.486Z</time></trkpt><trkpt lat="44.4636778" lon="7.3366671"><ele>627.3333333333333</ele><time>2026-04-04T14:18:39.485Z</time></trkpt><trkpt lat="44.463648" lon="7.3367858"><ele>625.0</ele><time>2026-04-04T14:18:41.486Z</time></trkpt><trkpt lat="44.4636105" lon="7.3368913"><ele>622.6666666666666</ele><time>2026-04-04T14:18:43.485Z</time></trkpt><trkpt lat="44.4635808" lon="7.337007"><ele>620.3333333333334</ele><time>2026-04-04T14:18:45.486Z</time></trkpt><trkpt lat="44.4635532" lon="7.3371185"><ele>618.0</ele><time>2026-04-04T14:18:47.484Z</time></trkpt><trkpt lat="44.4635213" lon="7.3372112"><ele>619.1428571428572</ele><time>2026-04-04T14:18:49.485Z</time></trkpt><trkpt lat="44.4634961" lon="7.3373028"><ele>620.2857142857143</ele><time>2026-04-04T14:18:51.485Z</time></trkpt><trkpt lat="44.4634654" lon="7.337388"><ele>621.4285714285714</ele><time>2026-04-04T14:18:53.485Z</time></trkpt><trkpt lat="44.4634285" lon="7.3374621"><ele>622.5714285714287</ele><time>2026-04-04T14:18:55.484Z</time></trkpt><trkpt lat="44.4633751" lon="7.3375613"><ele>623.7142857142858</ele><time>2026-04-04T14:18:58.485Z</time></trkpt><trkpt lat="44.4633412" lon="7.3376451"><ele>624.8571428571429</ele><time>2026-04-04T14:19:00.484Z</time></trkpt><trkpt lat="44.4633073" lon="7.3377301"><ele>626.0</ele><time>2026-04-04T14:19:02.484Z</time></trkpt><trkpt lat="44.4632779" lon="7.3378093"><ele>626.0</ele><time>2026-04-04T14:19:04.485Z</time></trkpt><trkpt lat="44.4632511" lon="7.3378906"><ele>626.0</ele><time>2026-04-04T14:19:06.484Z</time></trkpt><trkpt lat="44.4632179" lon="7.3379779"><ele>626.0</ele><time>2026-04-04T14:19:08.485Z</time></trkpt><trkpt lat="44.4631808" lon="7.3380678"><ele>626.0</ele><time>2026-04-04T14:19:10.484Z</time></trkpt><trkpt lat="44.4631513" lon="7.338163"><ele>626.0</ele><time>2026-04-04T14:19:12.484Z</time></trkpt><trkpt lat="44.4631174" lon="7.338258"><ele>626.0</ele><time>2026-04-04T14:19:14.485Z</time></trkpt><trkpt lat="44.4630838" lon="7.3383483"><ele>626.0</ele><time>2026-04-04T14:19:16.485Z</time></trkpt><trkpt lat="44.4630466" lon="7.3384312"><ele>627.3333333333333</ele><time>2026-04-04T14:19:18.484Z</time></trkpt><trkpt lat="44.4630157" lon="7.338516"><ele>628.6666666666666</ele><time>2026-04-04T14:19:20.484Z</time></trkpt><trkpt lat="44.4629942" lon="7.3386045"><ele>630.0</ele><time>2026-04-04T14:19:22.485Z</time></trkpt><trkpt lat="44.4629682" lon="7.3387282"><ele>631.3333333333334</ele><time>2026-04-04T14:19:25.483Z</time></trkpt><trkpt lat="44.4629474" lon="7.3388467"><ele>632.6666666666667</ele><time>2026-04-04T14:19:28.485Z</time></trkpt><trkpt lat="44.4629354" lon="7.3389726"><ele>634.0</ele><time>2026-04-04T14:19:31.484Z</time></trkpt><trkpt lat="44.462924" lon="7.3390982"><ele>631.6666666666667</ele><time>2026-04-04T14:19:34.484Z</time></trkpt><trkpt lat="44.462912" lon="7.3392259"><ele>629.3333333333334</ele><time>2026-04-04T14:19:37.485Z</time></trkpt><trkpt lat="44.4629053" lon="7.3393314"><ele>627.0</ele><time>2026-04-04T14:19:40.485Z</time></trkpt><trkpt lat="44.4628982" lon="7.3394632"><ele>624.6666666666666</ele><time>2026-04-04T14:19:43.485Z</time></trkpt><trkpt lat="44.4628991" lon="7.3395799"><ele>622.3333333333333</ele><time>2026-04-04T14:19:45.483Z</time></trkpt><trkpt lat="44.4628837" lon="7.339698"><ele>620.0</ele><time>2026-04-04T14:19:47.485Z</time></trkpt><trkpt lat="44.4628671" lon="7.339808"><ele>620.0</ele><time>2026-04-04T14:19:49.485Z</time></trkpt><trkpt lat="44.4628316" lon="7.3399083"><ele>620.0</ele><time>2026-04-04T14:19:51.483Z</time></trkpt><trkpt lat="44.4628018" lon="7.3400089"><ele>620.0</ele><time>2026-04-04T14:19:53.485Z</time></trkpt><trkpt lat="44.4627748" lon="7.3401049"><ele>620.0</ele><time>2026-04-04T14:19:55.485Z</time></trkpt><trkpt lat="44.4627478" lon="7.3402001"><ele>620.0</ele><time>2026-04-04T14:19:57.485Z</time></trkpt><trkpt lat="44.4627229" lon="7.3403026"><ele>620.0</ele><time>2026-04-04T14:19:59.484Z</time></trkpt><trkpt lat="44.4627002" lon="7.3404028"><ele>620.0</ele><time>2026-04-04T14:20:01.484Z</time></trkpt><trkpt lat="44.4626741" lon="7.3404966"><ele>620.0</ele><time>2026-04-04T14:20:03.485Z</time></trkpt><trkpt lat="44.4626502" lon="7.3405886"><ele>620.0</ele><time>2026-04-04T14:20:05.485Z</time></trkpt><trkpt lat="44.4626289" lon="7.3406809"><ele>620.0</ele><time>2026-04-04T14:20:07.483Z</time></trkpt><trkpt lat="44.4626034" lon="7.3407765"><ele>620.0</ele><time>2026-04-04T14:20:09.485Z</time></trkpt><trkpt lat="44.4625781" lon="7.3408725"><ele>620.0</ele><time>2026-04-04T14:20:11.485Z</time></trkpt><trkpt lat="44.4625497" lon="7.3409687"><ele>620.0</ele><time>2026-04-04T14:20:13.484Z</time></trkpt><trkpt lat="44.462526" lon="7.3410651"><ele>621.6666666666666</ele><time>2026-04-04T14:20:15.484Z</time></trkpt><trkpt lat="44.4624978" lon="7.3411581"><ele>623.3333333333333</ele><time>2026-04-04T14:20:17.485Z</time></trkpt><trkpt lat="44.4624704" lon="7.3412422"><ele>625.0</ele><time>2026-04-04T14:20:19.485Z</time></trkpt><trkpt lat="44.4624383" lon="7.3413543"><ele>626.6666666666666</ele><time>2026-04-04T14:20:22.485Z</time></trkpt><trkpt lat="44.4624146" lon="7.3414849"><ele>628.3333333333334</ele><time>2026-04-04T14:20:25.485Z</time></trkpt><trkpt lat="44.4624029" lon="7.3415821"><ele>630.0</ele><time>2026-04-04T14:20:27.484Z</time></trkpt><trkpt lat="44.4624001" lon="7.3416852"><ele>630.5</ele><time>2026-04-04T14:20:29.484Z</time></trkpt><trkpt lat="44.4624028" lon="7.3417926"><ele>631.0</ele><time>2026-04-04T14:20:31.484Z</time></trkpt><trkpt lat="44.4624124" lon="7.341904"><ele>631.5</ele><time>2026-04-04T14:20:33.484Z</time></trkpt><trkpt lat="44.4624315" lon="7.3420198"><ele>632.0</ele><time>2026-04-04T14:20:35.484Z</time></trkpt><trkpt lat="44.462451" lon="7.342141"><ele>632.5</ele><time>2026-04-04T14:20:37.485Z</time></trkpt><trkpt lat="44.4624834" lon="7.3422628"><ele>633.0</ele><time>2026-04-04T14:20:39.484Z</time></trkpt><trkpt lat="44.4625111" lon="7.3423844"><ele>633.0</ele><time>2026-04-04T14:20:41.484Z</time></trkpt><trkpt lat="44.4625379" lon="7.3425099"><ele>633.0</ele><time>2026-04-04T14:20:43.485Z</time></trkpt><trkpt lat="44.4625617" lon="7.3426323"><ele>633.0</ele><time>2026-04-04T14:20:45.484Z</time></trkpt><trkpt lat="44.4625824" lon="7.3427536"><ele>633.0</ele><time>2026-04-04T14:20:47.485Z</time></trkpt><trkpt lat="44.4625929" lon="7.3428827"><ele>633.0</ele><time>2026-04-04T14:20:49.484Z</time></trkpt><trkpt lat="44.4626066" lon="7.3430144"><ele>633.0</ele><time>2026-04-04T14:20:51.485Z</time></trkpt><trkpt lat="44.4626178" lon="7.343143"><ele>633.0</ele><time>2026-04-04T14:20:53.485Z</time></trkpt><trkpt lat="44.4626348" lon="7.3432627"><ele>633.0</ele><time>2026-04-04T14:20:55.485Z</time></trkpt><trkpt lat="44.4626407" lon="7.3433849"><ele>633.0</ele><time>2026-04-04T14:20:57.485Z</time></trkpt><trkpt lat="44.4626493" lon="7.3435094"><ele>633.0</ele><time>2026-04-04T14:20:59.485Z</time></trkpt><trkpt lat="44.4626535" lon="7.3436378"><ele>633.0</ele><time>2026-04-04T14:21:01.484Z</time></trkpt><trkpt lat="44.4626524" lon="7.3437653"><ele>632.6666666666666</ele><time>2026-04-04T14:21:03.484Z</time></trkpt><trkpt lat="44.4626474" lon="7.3438923"><ele>632.3333333333334</ele><time>2026-04-04T14:21:05.484Z</time></trkpt><trkpt lat="44.4626446" lon="7.3440114"><ele>632.0</ele><time>2026-04-04T14:21:07.484Z</time></trkpt><trkpt lat="44.46265" lon="7.3441282"><ele>631.6666666666667</ele><time>2026-04-04T14:21:09.484Z</time></trkpt><trkpt lat="44.4626663" lon="7.344245"><ele>631.3333333333334</ele><time>2026-04-04T14:21:11.485Z</time></trkpt><trkpt lat="44.4626903" lon="7.3443642"><ele>631.0</ele><time>2026-04-04T14:21:13.484Z</time></trkpt><trkpt lat="44.4627122" lon="7.3444922"><ele>631.0</ele><time>2026-04-04T14:21:15.485Z</time></trkpt><trkpt lat="44.4627352" lon="7.3446259"><ele>631.0</ele><time>2026-04-04T14:21:17.484Z</time></trkpt><trkpt lat="44.4627658" lon="7.3447615"><ele>631.0</ele><time>2026-04-04T14:21:19.484Z</time></trkpt><trkpt lat="44.4627987" lon="7.3449008"><ele>631.0</ele><time>2026-04-04T14:21:21.484Z</time></trkpt><trkpt lat="44.4628453" lon="7.3450373"><ele>631.0</ele><time>2026-04-04T14:21:23.484Z</time></trkpt><trkpt lat="44.4629015" lon="7.3451673"><ele>631.6</ele><time>2026-04-04T14:21:25.484Z</time></trkpt><trkpt lat="44.4629784" lon="7.3452858"><ele>632.2</ele><time>2026-04-04T14:21:27.483Z</time></trkpt><trkpt lat="44.4630648" lon="7.3453891"><ele>632.8</ele><time>2026-04-04T14:21:29.484Z</time></trkpt><trkpt lat="44.4631536" lon="7.3454785"><ele>633.4</ele><time>2026-04-04T14:21:31.483Z</time></trkpt><trkpt lat="44.4632416" lon="7.3455741"><ele>634.0</ele><time>2026-04-04T14:21:33.484Z</time></trkpt><trkpt lat="44.4633201" lon="7.3456911"><ele>634.0</ele><time>2026-04-04T14:21:35.484Z</time></trkpt><trkpt lat="44.4633928" lon="7.3458245"><ele>634.0</ele><time>2026-04-04T14:21:37.485Z</time></trkpt><trkpt lat="44.4634593" lon="7.3459645"><ele>634.0</ele><time>2026-04-04T14:21:39.484Z</time></trkpt><trkpt lat="44.4635234" lon="7.3461006"><ele>634.0</ele><time>2026-04-04T14:21:41.484Z</time></trkpt><trkpt lat="44.4635851" lon="7.3462254"><ele>634.0</ele><time>2026-04-04T14:21:43.485Z</time></trkpt><trkpt lat="44.4636432" lon="7.3463392"><ele>634.0</ele><time>2026-04-04T14:21:45.485Z</time></trkpt><trkpt lat="44.4637004" lon="7.3464495"><ele>634.0</ele><time>2026-04-04T14:21:47.485Z</time></trkpt><trkpt lat="44.4637546" lon="7.3465496"><ele>634.0</ele><time>2026-04-04T14:21:49.484Z</time></trkpt><trkpt lat="44.4638111" lon="7.3466399"><ele>634.0</ele><time>2026-04-04T14:21:51.485Z</time></trkpt><trkpt lat="44.4638613" lon="7.3467342"><ele>634.0</ele><time>2026-04-04T14:21:53.485Z</time></trkpt><trkpt lat="44.4639118" lon="7.3468266"><ele>634.0</ele><time>2026-04-04T14:21:55.484Z</time></trkpt><trkpt lat="44.4639517" lon="7.3469255"><ele>634.0</ele><time>2026-04-04T14:21:57.484Z</time></trkpt><trkpt lat="44.4639816" lon="7.3470271"><ele>634.0</ele><time>2026-04-04T14:21:59.484Z</time></trkpt><trkpt lat="44.4639958" lon="7.3471336"><ele>634.0</ele><time>2026-04-04T14:22:01.484Z</time></trkpt><trkpt lat="44.4639911" lon="7.3472524"><ele>634.0</ele><time>2026-04-04T14:22:03.484Z</time></trkpt><trkpt lat="44.4639813" lon="7.3473833"><ele>634.1666666666667</ele><time>2026-04-04T14:22:05.485Z</time></trkpt><trkpt lat="44.4639748" lon="7.3475073"><ele>634.3333333333334</ele><time>2026-04-04T14:22:07.485Z</time></trkpt><trkpt lat="44.4639746" lon="7.3476318"><ele>634.5</ele><time>2026-04-04T14:22:09.484Z</time></trkpt><trkpt lat="44.4639841" lon="7.3477519"><ele>634.6666666666666</ele><time>2026-04-04T14:22:11.485Z</time></trkpt><trkpt lat="44.4639855" lon="7.3478611"><ele>634.8333333333333</ele><time>2026-04-04T14:22:13.485Z</time></trkpt><trkpt lat="44.4639948" lon="7.3479645"><ele>635.0</ele><time>2026-04-04T14:22:15.483Z</time></trkpt><trkpt lat="44.4640141" lon="7.3480736"><ele>635.0</ele><time>2026-04-04T14:22:17.485Z</time></trkpt><trkpt lat="44.4640339" lon="7.3481912"><ele>635.0</ele><time>2026-04-04T14:22:19.485Z</time></trkpt><trkpt lat="44.4640593" lon="7.3483107"><ele>635.0</ele><time>2026-04-04T14:22:21.484Z</time></trkpt><trkpt lat="44.4640776" lon="7.3484268"><ele>635.0</ele><time>2026-04-04T14:22:23.485Z</time></trkpt><trkpt lat="44.4640992" lon="7.3485358"><ele>635.0</ele><time>2026-04-04T14:22:25.485Z</time></trkpt><trkpt lat="44.4641197" lon="7.3486468"><ele>635.0</ele><time>2026-04-04T14:22:27.485Z</time></trkpt><trkpt lat="44.4641334" lon="7.3487616"><ele>634.6</ele><time>2026-04-04T14:22:29.484Z</time></trkpt><trkpt lat="44.4641471" lon="7.3488794"><ele>634.2</ele><time>2026-04-04T14:22:31.485Z</time></trkpt><trkpt lat="44.4641494" lon="7.3490056"><ele>633.8</ele><time>2026-04-04T14:22:33.485Z</time></trkpt><trkpt lat="44.4641278" lon="7.3491305"><ele>633.4</ele><time>2026-04-04T14:22:35.485Z</time></trkpt><trkpt lat="44.4641162" lon="7.349264"><ele>633.0</ele><time>2026-04-04T14:22:37.484Z</time></trkpt><trkpt lat="44.4640955" lon="7.3494087"><ele>633.0</ele><time>2026-04-04T14:22:39.485Z</time></trkpt><trkpt lat="44.4640678" lon="7.3495614"><ele>633.0</ele><time>2026-04-04T14:22:41.484Z</time></trkpt><trkpt lat="44.4640421" lon="7.3497295"><ele>633.0</ele><time>2026-04-04T14:22:43.485Z</time></trkpt><trkpt lat="44.4640293" lon="7.3498182"><ele>633.0</ele><time>2026-04-04T14:22:44.485Z</time></trkpt><trkpt lat="44.4640141" lon="7.3499106"><ele>633.0</ele><time>2026-04-04T14:22:45.484Z</time></trkpt><trkpt lat="44.4640036" lon="7.3500035"><ele>633.0</ele><time>2026-04-04T14:22:46.485Z</time></trkpt><trkpt lat="44.4639951" lon="7.3501001"><ele>633.0</ele><time>2026-04-04T14:22:47.485Z</time></trkpt><trkpt lat="44.4639837" lon="7.3501879"><ele>633.0</ele><time>2026-04-04T14:22:48.485Z</time></trkpt><trkpt lat="44.4639766" lon="7.3502786"><ele>633.0</ele><time>2026-04-04T14:22:49.485Z</time></trkpt><trkpt lat="44.4639633" lon="7.3504471"><ele>633.0</ele><time>2026-04-04T14:22:51.484Z</time></trkpt><trkpt lat="44.4639514" lon="7.3506119"><ele>633.0</ele><time>2026-04-04T14:22:53.484Z</time></trkpt><trkpt lat="44.4639416" lon="7.3507777"><ele>632.0</ele><time>2026-04-04T14:22:55.484Z</time></trkpt><trkpt lat="44.4639267" lon="7.350943"><ele>631.0</ele><time>2026-04-04T14:22:57.485Z</time></trkpt><trkpt lat="44.4639168" lon="7.351107"><ele>630.0</ele><time>2026-04-04T14:22:59.485Z</time></trkpt><trkpt lat="44.4639113" lon="7.3512644"><ele>629.0</ele><time>2026-04-04T14:23:01.484Z</time></trkpt><trkpt lat="44.463896" lon="7.3514354"><ele>628.5</ele><time>2026-04-04T14:23:03.484Z</time></trkpt><trkpt lat="44.4638903" lon="7.3516022"><ele>628.0</ele><time>2026-04-04T14:23:05.484Z</time></trkpt><trkpt lat="44.4638895" lon="7.3517703"><ele>627.5</ele><time>2026-04-04T14:23:07.484Z</time></trkpt><trkpt lat="44.463887" lon="7.3519353"><ele>627.0</ele><time>2026-04-04T14:23:09.484Z</time></trkpt><trkpt lat="44.463883" lon="7.3520883"><ele>627.0</ele><time>2026-04-04T14:23:11.484Z</time></trkpt><trkpt lat="44.4638775" lon="7.3522293"><ele>627.0</ele><time>2026-04-04T14:23:13.484Z</time></trkpt><trkpt lat="44.4638642" lon="7.3523776"><ele>627.0</ele><time>2026-04-04T14:23:15.484Z</time></trkpt><trkpt lat="44.4638578" lon="7.3525186"><ele>627.0</ele><time>2026-04-04T14:23:17.484Z</time></trkpt><trkpt lat="44.4638525" lon="7.3526601"><ele>627.0</ele><time>2026-04-04T14:23:19.484Z</time></trkpt><trkpt lat="44.4638516" lon="7.3528057"><ele>627.0</ele><time>2026-04-04T14:23:21.483Z</time></trkpt><trkpt lat="44.463854" lon="7.3529445"><ele>627.0</ele><time>2026-04-04T14:23:23.482Z</time></trkpt><trkpt lat="44.4638674" lon="7.3530767"><ele>627.0</ele><time>2026-04-04T14:23:25.484Z</time></trkpt><trkpt lat="44.4638915" lon="7.3532204"><ele>627.0</ele><time>2026-04-04T14:23:27.484Z</time></trkpt><trkpt lat="44.4639159" lon="7.3533826"><ele>627.0</ele><time>2026-04-04T14:23:29.484Z</time></trkpt><trkpt lat="44.463942" lon="7.3535578"><ele>626.8571428571429</ele><time>2026-04-04T14:23:31.482Z</time></trkpt><trkpt lat="44.4639582" lon="7.3536471"><ele>626.7142857142857</ele><time>2026-04-04T14:23:32.484Z</time></trkpt><trkpt lat="44.4639731" lon="7.3537384"><ele>626.5714285714286</ele><time>2026-04-04T14:23:33.484Z</time></trkpt><trkpt lat="44.463986" lon="7.353833"><ele>626.4285714285714</ele><time>2026-04-04T14:23:34.483Z</time></trkpt><trkpt lat="44.4640038" lon="7.3539275"><ele>626.2857142857143</ele><time>2026-04-04T14:23:35.483Z</time></trkpt><trkpt lat="44.4640184" lon="7.3540164"><ele>626.1428571428571</ele><time>2026-04-04T14:23:36.484Z</time></trkpt><trkpt lat="44.4640366" lon="7.3541119"><ele>626.0</ele><time>2026-04-04T14:23:37.483Z</time></trkpt><trkpt lat="44.4640529" lon="7.3542078"><ele>625.8571428571429</ele><time>2026-04-04T14:23:38.483Z</time></trkpt><trkpt lat="44.4640677" lon="7.354306"><ele>625.7142857142858</ele><time>2026-04-04T14:23:39.483Z</time></trkpt><trkpt lat="44.4640869" lon="7.3544036"><ele>625.5714285714287</ele><time>2026-04-04T14:23:40.483Z</time></trkpt><trkpt lat="44.4641148" lon="7.3545002"><ele>625.4285714285714</ele><time>2026-04-04T14:23:41.483Z</time></trkpt><trkpt lat="44.4641452" lon="7.3545935"><ele>625.2857142857143</ele><time>2026-04-04T14:23:42.483Z</time></trkpt><trkpt lat="44.4641782" lon="7.3546833"><ele>625.1428571428572</ele><time>2026-04-04T14:23:43.484Z</time></trkpt><trkpt lat="44.4642188" lon="7.3547631"><ele>625.0</ele><time>2026-04-04T14:23:44.483Z</time></trkpt><trkpt lat="44.4642568" lon="7.3548424"><ele>624.7142857142858</ele><time>2026-04-04T14:23:45.484Z</time></trkpt><trkpt lat="44.4642956" lon="7.3549249"><ele>624.4285714285714</ele><time>2026-04-04T14:23:46.484Z</time></trkpt><trkpt lat="44.4643331" lon="7.3550041"><ele>624.1428571428571</ele><time>2026-04-04T14:23:47.484Z</time></trkpt><trkpt lat="44.4643717" lon="7.3550831"><ele>623.8571428571429</ele><time>2026-04-04T14:23:48.484Z</time></trkpt><trkpt lat="44.4644075" lon="7.3551633"><ele>623.5714285714286</ele><time>2026-04-04T14:23:49.484Z</time></trkpt><trkpt lat="44.4644431" lon="7.3552432"><ele>623.2857142857143</ele><time>2026-04-04T14:23:50.483Z</time></trkpt><trkpt lat="44.4644752" lon="7.3553302"><ele>623.0</ele><time>2026-04-04T14:23:51.484Z</time></trkpt><trkpt lat="44.4645072" lon="7.3554131"><ele>623.0</ele><time>2026-04-04T14:23:52.482Z</time></trkpt><trkpt lat="44.4645417" lon="7.3554982"><ele>623.0</ele><time>2026-04-04T14:23:53.483Z</time></trkpt><trkpt lat="44.4645718" lon="7.3555832"><ele>623.0</ele><time>2026-04-04T14:23:54.483Z</time></trkpt><trkpt lat="44.4646043" lon="7.3556693"><ele>623.0</ele><time>2026-04-04T14:23:55.484Z</time></trkpt><trkpt lat="44.4646356" lon="7.3557565"><ele>623.0</ele><time>2026-04-04T14:23:56.484Z</time></trkpt><trkpt lat="44.4646652" lon="7.3558408"><ele>623.0</ele><time>2026-04-04T14:23:57.484Z</time></trkpt><trkpt lat="44.4646974" lon="7.355922"><ele>623.0</ele><time>2026-04-04T14:23:58.483Z</time></trkpt><trkpt lat="44.4647325" lon="7.3559995"><ele>623.0</ele><time>2026-04-04T14:23:59.484Z</time></trkpt><trkpt lat="44.4647674" lon="7.3560802"><ele>623.0</ele><time>2026-04-04T14:24:00.483Z</time></trkpt><trkpt lat="44.4648034" lon="7.3561558"><ele>623.0</ele><time>2026-04-04T14:24:01.483Z</time></trkpt><trkpt lat="44.4648675" lon="7.356299"><ele>623.0</ele><time>2026-04-04T14:24:03.483Z</time></trkpt><trkpt lat="44.4649163" lon="7.3564371"><ele>623.0</ele><time>2026-04-04T14:24:05.483Z</time></trkpt><trkpt lat="44.4649696" lon="7.356576"><ele>623.0</ele><time>2026-04-04T14:24:07.483Z</time></trkpt><trkpt lat="44.4650239" lon="7.3567156"><ele>623.0</ele><time>2026-04-04T14:24:09.483Z</time></trkpt><trkpt lat="44.4650767" lon="7.3568495"><ele>623.0</ele><time>2026-04-04T14:24:11.483Z</time></trkpt><trkpt lat="44.4651287" lon="7.3569759"><ele>623.0</ele><time>2026-04-04T14:24:13.482Z</time></trkpt><trkpt lat="44.4651909" lon="7.3570937"><ele>623.0</ele><time>2026-04-04T14:24:15.484Z</time></trkpt><trkpt lat="44.4652509" lon="7.3572041"><ele>624.0</ele><time>2026-04-04T14:24:17.483Z</time></trkpt><trkpt lat="44.4653131" lon="7.3573064"><ele>625.0</ele><time>2026-04-04T14:24:19.484Z</time></trkpt><trkpt lat="44.4653657" lon="7.3574146"><ele>626.0</ele><time>2026-04-04T14:24:21.484Z</time></trkpt><trkpt lat="44.4654159" lon="7.3575256"><ele>627.0</ele><time>2026-04-04T14:24:23.483Z</time></trkpt><trkpt lat="44.4654666" lon="7.3576445"><ele>628.0</ele><time>2026-04-04T14:24:25.482Z</time></trkpt><trkpt lat="44.465526" lon="7.3577582"><ele>628.0</ele><time>2026-04-04T14:24:27.483Z</time></trkpt><trkpt lat="44.4655992" lon="7.3578483"><ele>628.0</ele><time>2026-04-04T14:24:29.483Z</time></trkpt><trkpt lat="44.4656799" lon="7.3579206"><ele>628.0</ele><time>2026-04-04T14:24:31.484Z</time></trkpt><trkpt lat="44.4657567" lon="7.3579939"><ele>628.0</ele><time>2026-04-04T14:24:33.483Z</time></trkpt><trkpt lat="44.4658325" lon="7.3580649"><ele>628.0</ele><time>2026-04-04T14:24:35.482Z</time></trkpt><trkpt lat="44.4659007" lon="7.3581457"><ele>627.7142857142857</ele><time>2026-04-04T14:24:37.484Z</time></trkpt><trkpt lat="44.4659709" lon="7.3582014"><ele>627.4285714285714</ele><time>2026-04-04T14:24:39.483Z</time></trkpt><trkpt lat="44.4660286" lon="7.3582632"><ele>627.1428571428571</ele><time>2026-04-04T14:24:41.482Z</time></trkpt><trkpt lat="44.4660823" lon="7.358322"><ele>626.8571428571429</ele><time>2026-04-04T14:24:43.484Z</time></trkpt><trkpt lat="44.4661407" lon="7.3583613"><ele>626.5714285714286</ele><time>2026-04-04T14:24:45.484Z</time></trkpt><trkpt lat="44.4661966" lon="7.3584131"><ele>626.2857142857142</ele><time>2026-04-04T14:24:47.482Z</time></trkpt><trkpt lat="44.4662592" lon="7.3584724"><ele>626.0</ele><time>2026-04-04T14:24:49.484Z</time></trkpt><trkpt lat="44.4663229" lon="7.3585299"><ele>626.0</ele><time>2026-04-04T14:24:51.484Z</time></trkpt><trkpt lat="44.4663841" lon="7.3585874"><ele>626.0</ele><time>2026-04-04T14:24:53.483Z</time></trkpt><trkpt lat="44.4664482" lon="7.3586392"><ele>626.0</ele><time>2026-04-04T14:24:55.484Z</time></trkpt><trkpt lat="44.4665114" lon="7.3587032"><ele>626.0</ele><time>2026-04-04T14:24:57.484Z</time></trkpt><trkpt lat="44.4665707" lon="7.3587727"><ele>626.0</ele><time>2026-04-04T14:24:59.484Z</time></trkpt><trkpt lat="44.4666321" lon="7.358841"><ele>626.0</ele><time>2026-04-04T14:25:01.484Z</time></trkpt><trkpt lat="44.4666891" lon="7.3589107"><ele>624.0</ele><time>2026-04-04T14:25:03.483Z</time></trkpt><trkpt lat="44.4667526" lon="7.3589847"><ele>622.0</ele><time>2026-04-04T14:25:05.484Z</time></trkpt><trkpt lat="44.4668229" lon="7.3590709"><ele>620.0</ele><time>2026-04-04T14:25:07.484Z</time></trkpt><trkpt lat="44.4669032" lon="7.3591537"><ele>618.0</ele><time>2026-04-04T14:25:09.484Z</time></trkpt><trkpt lat="44.4669784" lon="7.3592359"><ele>616.0</ele><time>2026-04-04T14:25:11.482Z</time></trkpt><trkpt lat="44.4670666" lon="7.3593137"><ele>617.0</ele><time>2026-04-04T14:25:13.484Z</time></trkpt><trkpt lat="44.4671502" lon="7.3593902"><ele>618.0</ele><time>2026-04-04T14:25:15.483Z</time></trkpt><trkpt lat="44.4672273" lon="7.3594764"><ele>619.0</ele><time>2026-04-04T14:25:17.484Z</time></trkpt><trkpt lat="44.4672893" lon="7.3595453"><ele>620.0</ele><time>2026-04-04T14:25:19.484Z</time></trkpt><trkpt lat="44.4673535" lon="7.3596081"><ele>621.0</ele><time>2026-04-04T14:25:21.484Z</time></trkpt><trkpt lat="44.467416" lon="7.3596523"><ele>622.0</ele><time>2026-04-04T14:25:23.484Z</time></trkpt><trkpt lat="44.4674648" lon="7.359731"><ele>622.0</ele><time>2026-04-04T14:25:26.484Z</time></trkpt><trkpt lat="44.4674868" lon="7.3598193"><ele>622.0</ele><time>2026-04-04T14:25:28.484Z</time></trkpt><trkpt lat="44.4674981" lon="7.3599397"><ele>622.0</ele><time>2026-04-04T14:25:30.484Z</time></trkpt><trkpt lat="44.4675203" lon="7.3600877"><ele>622.0</ele><time>2026-04-04T14:25:32.484Z</time></trkpt><trkpt lat="44.4675472" lon="7.3602505"><ele>622.0</ele><time>2026-04-04T14:25:34.484Z</time></trkpt><trkpt lat="44.4675758" lon="7.3604146"><ele>621.0</ele><time>2026-04-04T14:25:36.484Z</time></trkpt><trkpt lat="44.4675986" lon="7.3605783"><ele>620.0</ele><time>2026-04-04T14:25:38.483Z</time></trkpt><trkpt lat="44.4675962" lon="7.3607463"><ele>619.0</ele><time>2026-04-04T14:25:40.482Z</time></trkpt><trkpt lat="44.4675898" lon="7.3609094"><ele>618.0</ele><time>2026-04-04T14:25:42.484Z</time></trkpt><trkpt lat="44.4675791" lon="7.3610714"><ele>618.0</ele><time>2026-04-04T14:25:44.484Z</time></trkpt><trkpt lat="44.467585" lon="7.3612296"><ele>618.0</ele><time>2026-04-04T14:25:46.484Z</time></trkpt><trkpt lat="44.4675935" lon="7.3613735"><ele>618.0</ele><time>2026-04-04T14:25:48.482Z</time></trkpt><trkpt lat="44.4675996" lon="7.3615154"><ele>618.0</ele><time>2026-04-04T14:25:50.483Z</time></trkpt><trkpt lat="44.4676107" lon="7.3616511"><ele>618.0</ele><time>2026-04-04T14:25:52.483Z</time></trkpt><trkpt lat="44.4676116" lon="7.3617949"><ele>618.1999999999999</ele><time>2026-04-04T14:25:54.484Z</time></trkpt><trkpt lat="44.4676114" lon="7.3619343"><ele>618.4</ele><time>2026-04-04T14:25:56.483Z</time></trkpt><trkpt lat="44.4675989" lon="7.3620727"><ele>618.5999999999999</ele><time>2026-04-04T14:25:58.483Z</time></trkpt><trkpt lat="44.4675729" lon="7.362196"><ele>618.8</ele><time>2026-04-04T14:26:00.483Z</time></trkpt><trkpt lat="44.4675401" lon="7.3623129"><ele>619.0</ele><time>2026-04-04T14:26:02.484Z</time></trkpt><trkpt lat="44.4675097" lon="7.3624264"><ele>619.0</ele><time>2026-04-04T14:26:04.483Z</time></trkpt><trkpt lat="44.4674808" lon="7.3625358"><ele>619.0</ele><time>2026-04-04T14:26:06.483Z</time></trkpt><trkpt lat="44.4674317" lon="7.3625911"><ele>619.0</ele><time>2026-04-04T14:26:09.483Z</time></trkpt><trkpt lat="44.4673695" lon="7.3625419"><ele>619.0</ele><time>2026-04-04T14:26:12.483Z</time></trkpt><trkpt lat="44.4672937" lon="7.3625675"><ele>619.0</ele><time>2026-04-04T14:26:14.484Z</time></trkpt><trkpt lat="44.4672223" lon="7.3626216"><ele>619.0</ele><time>2026-04-04T14:26:16.483Z</time></trkpt><trkpt lat="44.4671584" lon="7.3626966"><ele>618.0</ele><time>2026-04-04T14:26:18.484Z</time></trkpt><trkpt lat="44.4670869" lon="7.3627848"><ele>617.0</ele><time>2026-04-04T14:26:20.482Z</time></trkpt><trkpt lat="44.4669967" lon="7.3628528"><ele>616.0</ele><time>2026-04-04T14:26:22.484Z</time></trkpt><trkpt lat="44.4669232" lon="7.362953"><ele>615.0</ele><time>2026-04-04T14:26:24.484Z</time></trkpt><trkpt lat="44.4668663" lon="7.3630717"><ele>614.0</ele><time>2026-04-04T14:26:26.484Z</time></trkpt><trkpt lat="44.4668158" lon="7.3631825"><ele>614.0</ele><time>2026-04-04T14:26:28.484Z</time></trkpt><trkpt lat="44.4667812" lon="7.3633215"><ele>614.0</ele><time>2026-04-04T14:26:30.483Z</time></trkpt><trkpt lat="44.4667404" lon="7.363461"><ele>614.0</ele><time>2026-04-04T14:26:32.483Z</time></trkpt><trkpt lat="44.4666851" lon="7.363574"><ele>614.0</ele><time>2026-04-04T14:26:34.484Z</time></trkpt><trkpt lat="44.4666314" lon="7.3636864"><ele>614.0</ele><time>2026-04-04T14:26:36.483Z</time></trkpt><trkpt lat="44.4665835" lon="7.3637879"><ele>615.2</ele><time>2026-04-04T14:26:38.483Z</time></trkpt><trkpt lat="44.4665252" lon="7.3639012"><ele>616.4</ele><time>2026-04-04T14:26:40.483Z</time></trkpt><trkpt lat="44.466463" lon="7.3640248"><ele>617.6</ele><time>2026-04-04T14:26:42.484Z</time></trkpt><trkpt lat="44.4663966" lon="7.364154"><ele>618.8</ele><time>2026-04-04T14:26:44.484Z</time></trkpt><trkpt lat="44.4663319" lon="7.3642852"><ele>620.0</ele><time>2026-04-04T14:26:46.484Z</time></trkpt><trkpt lat="44.4662754" lon="7.3644001"><ele>616.5</ele><time>2026-04-04T14:26:48.484Z</time></trkpt><trkpt lat="44.4662323" lon="7.3645013"><ele>613.0</ele><time>2026-04-04T14:26:50.483Z</time></trkpt><trkpt lat="44.4661802" lon="7.3645803"><ele>609.5</ele><time>2026-04-04T14:26:52.484Z</time></trkpt><trkpt lat="44.4661248" lon="7.3646474"><ele>606.0</ele><time>2026-04-04T14:26:54.484Z</time></trkpt><trkpt lat="44.4660322" lon="7.3646897"><ele>602.5</ele><time>2026-04-04T14:26:57.484Z</time></trkpt><trkpt lat="44.46595" lon="7.3646633"><ele>599.0</ele><time>2026-04-04T14:26:59.483Z</time></trkpt><trkpt lat="44.4658381" lon="7.3646675"><ele>601.0</ele><time>2026-04-04T14:27:01.484Z</time></trkpt><trkpt lat="44.4657415" lon="7.3647492"><ele>603.0</ele><time>2026-04-04T14:27:03.483Z</time></trkpt><trkpt lat="44.4656623" lon="7.3648378"><ele>605.0</ele><time>2026-04-04T14:27:05.484Z</time></trkpt><trkpt lat="44.4655928" lon="7.3649313"><ele>607.0</ele><time>2026-04-04T14:27:07.484Z</time></trkpt><trkpt lat="44.4655475" lon="7.3650174"><ele>609.0</ele><time>2026-04-04T14:27:09.483Z</time></trkpt><trkpt lat="44.465478" lon="7.3650663"><ele>607.4</ele><time>2026-04-04T14:27:11.484Z</time></trkpt><trkpt lat="44.4653952" lon="7.3650386"><ele>605.8</ele><time>2026-04-04T14:27:13.484Z</time></trkpt><trkpt lat="44.4653047" lon="7.3649951"><ele>604.2</ele><time>2026-04-04T14:27:15.483Z</time></trkpt><trkpt lat="44.4652104" lon="7.3649487"><ele>602.6</ele><time>2026-04-04T14:27:17.482Z</time></trkpt><trkpt lat="44.465109" lon="7.3648986"><ele>601.0</ele><time>2026-04-04T14:27:19.484Z</time></trkpt><trkpt lat="44.4650092" lon="7.3648542"><ele>601.0</ele><time>2026-04-04T14:27:21.484Z</time></trkpt><trkpt lat="44.4649227" lon="7.3647975"><ele>601.0</ele><time>2026-04-04T14:27:23.483Z</time></trkpt><trkpt lat="44.464844" lon="7.3647884"><ele>601.0</ele><time>2026-04-04T14:27:25.483Z</time></trkpt><trkpt lat="44.4647755" lon="7.3648186"><ele>601.0</ele><time>2026-04-04T14:27:27.481Z</time></trkpt><trkpt lat="44.4647041" lon="7.3648488"><ele>601.0</ele><time>2026-04-04T14:27:29.482Z</time></trkpt><trkpt lat="44.464631" lon="7.364876"><ele>601.0</ele><time>2026-04-04T14:27:31.483Z</time></trkpt><trkpt lat="44.4645587" lon="7.3648871"><ele>602.5714285714286</ele><time>2026-04-04T14:27:33.482Z</time></trkpt><trkpt lat="44.464488" lon="7.3648921"><ele>604.1428571428572</ele><time>2026-04-04T14:27:35.482Z</time></trkpt><trkpt lat="44.464416" lon="7.3648913"><ele>605.7142857142858</ele><time>2026-04-04T14:27:37.482Z</time></trkpt><trkpt lat="44.4643422" lon="7.3649056"><ele>607.2857142857142</ele><time>2026-04-04T14:27:39.483Z</time></trkpt><trkpt lat="44.4642778" lon="7.3649577"><ele>608.8571428571429</ele><time>2026-04-04T14:27:41.482Z</time></trkpt><trkpt lat="44.4642227" lon="7.3650287"><ele>610.4285714285714</ele><time>2026-04-04T14:27:43.482Z</time></trkpt><trkpt lat="44.4641659" lon="7.3651113"><ele>612.0</ele><time>2026-04-04T14:27:45.482Z</time></trkpt><trkpt lat="44.4641154" lon="7.3652018"><ele>612.0</ele><time>2026-04-04T14:27:47.483Z</time></trkpt><trkpt lat="44.4640648" lon="7.3652917"><ele>612.0</ele><time>2026-04-04T14:27:49.407Z</time></trkpt><trkpt lat="44.4640094" lon="7.365384"><ele>612.0</ele><time>2026-04-04T14:27:51.483Z</time></trkpt><trkpt lat="44.4639612" lon="7.3654788"><ele>612.0</ele><time>2026-04-04T14:27:53.483Z</time></trkpt><trkpt lat="44.4639158" lon="7.3655752"><ele>612.0</ele><time>2026-04-04T14:27:55.482Z</time></trkpt><trkpt lat="44.4638652" lon="7.365661"><ele>612.0</ele><time>2026-04-04T14:27:57.482Z</time></trkpt><trkpt lat="44.4638171" lon="7.365742"><ele>612.5</ele><time>2026-04-04T14:27:59.482Z</time></trkpt><trkpt lat="44.4637628" lon="7.3658171"><ele>613.0</ele><time>2026-04-04T14:28:01.482Z</time></trkpt><trkpt lat="44.4637059" lon="7.365886"><ele>613.5</ele><time>2026-04-04T14:28:03.483Z</time></trkpt><trkpt lat="44.4636584" lon="7.365968"><ele>614.0</ele><time>2026-04-04T14:28:06.483Z</time></trkpt><trkpt lat="44.4636024" lon="7.3660503"><ele>614.5</ele><time>2026-04-04T14:28:09.483Z</time></trkpt><trkpt lat="44.4635352" lon="7.3661453"><ele>615.0</ele><time>2026-04-04T14:28:12.482Z</time></trkpt><trkpt lat="44.4635002" lon="7.3662309"><ele>615.0</ele><time>2026-04-04T14:28:14.483Z</time></trkpt><trkpt lat="44.4634794" lon="7.3663226"><ele>615.0</ele><time>2026-04-04T14:28:16.483Z</time></trkpt><trkpt lat="44.4634673" lon="7.3664198"><ele>615.0</ele><time>2026-04-04T14:28:18.483Z</time></trkpt><trkpt lat="44.4634557" lon="7.3665187"><ele>615.0</ele><time>2026-04-04T14:28:20.483Z</time></trkpt><trkpt lat="44.4634383" lon="7.366624"><ele>615.0</ele><time>2026-04-04T14:28:22.482Z</time></trkpt><trkpt lat="44.4634272" lon="7.3667254"><ele>615.0</ele><time>2026-04-04T14:28:24.483Z</time></trkpt><trkpt lat="44.4634144" lon="7.3668301"><ele>615.0</ele><time>2026-04-04T14:28:26.482Z</time></trkpt><trkpt lat="44.4633997" lon="7.3669325"><ele>615.0</ele><time>2026-04-04T14:28:28.483Z</time></trkpt><trkpt lat="44.4633892" lon="7.3670262"><ele>615.0</ele><time>2026-04-04T14:28:30.483Z</time></trkpt><trkpt lat="44.4633802" lon="7.367117"><ele>615.0</ele><time>2026-04-04T14:28:32.483Z</time></trkpt><trkpt lat="44.4633659" lon="7.3672434"><ele>615.0</ele><time>2026-04-04T14:28:35.483Z</time></trkpt><trkpt lat="44.4633536" lon="7.3673559"><ele>615.0</ele><time>2026-04-04T14:28:38.483Z</time></trkpt><trkpt lat="44.4633004" lon="7.3674512"><ele>615.0</ele><time>2026-04-04T14:28:41.482Z</time></trkpt><trkpt lat="44.4632453" lon="7.367497"><ele>615.0</ele><time>2026-04-04T14:28:43.422Z</time></trkpt><trkpt lat="44.4632096" lon="7.3675973"><ele>615.0</ele><time>2026-04-04T14:28:45.483Z</time></trkpt><trkpt lat="44.4632109" lon="7.36773"><ele>615.0</ele><time>2026-04-04T14:28:47.482Z</time></trkpt><trkpt lat="44.4631827" lon="7.3678459"><ele>615.0</ele><time>2026-04-04T14:28:49.483Z</time></trkpt><trkpt lat="44.4631334" lon="7.3679397"><ele>615.0</ele><time>2026-04-04T14:28:51.481Z</time></trkpt><trkpt lat="44.4630854" lon="7.3680315"><ele>615.0</ele><time>2026-04-04T14:28:53.483Z</time></trkpt><trkpt lat="44.4630365" lon="7.3681242"><ele>614.8</ele><time>2026-04-04T14:28:55.482Z</time></trkpt><trkpt lat="44.4629862" lon="7.3682245"><ele>614.6</ele><time>2026-04-04T14:28:57.483Z</time></trkpt><trkpt lat="44.4629321" lon="7.3683277"><ele>614.4</ele><time>2026-04-04T14:28:59.483Z</time></trkpt><trkpt lat="44.4628772" lon="7.3684322"><ele>614.2</ele><time>2026-04-04T14:29:01.482Z</time></trkpt><trkpt lat="44.4628221" lon="7.3685391"><ele>614.0</ele><time>2026-04-04T14:29:03.482Z</time></trkpt><trkpt lat="44.4627657" lon="7.3686543"><ele>614.3333333333333</ele><time>2026-04-04T14:29:05.483Z</time></trkpt><trkpt lat="44.4627133" lon="7.3687651"><ele>614.6666666666666</ele><time>2026-04-04T14:29:07.483Z</time></trkpt><trkpt lat="44.4626622" lon="7.3688713"><ele>615.0</ele><time>2026-04-04T14:29:09.483Z</time></trkpt><trkpt lat="44.4626115" lon="7.3689719"><ele>615.3333333333334</ele><time>2026-04-04T14:29:11.482Z</time></trkpt><trkpt lat="44.4625603" lon="7.3690692"><ele>615.6666666666667</ele><time>2026-04-04T14:29:13.483Z</time></trkpt><trkpt lat="44.4625152" lon="7.3691557"><ele>616.0</ele><time>2026-04-04T14:29:15.483Z</time></trkpt><trkpt lat="44.4624748" lon="7.369256"><ele>616.1666666666667</ele><time>2026-04-04T14:29:17.483Z</time></trkpt><trkpt lat="44.4624242" lon="7.3693514"><ele>616.3333333333334</ele><time>2026-04-04T14:29:19.483Z</time></trkpt><trkpt lat="44.462372" lon="7.369448"><ele>616.5</ele><time>2026-04-04T14:29:21.485Z</time></trkpt><trkpt lat="44.4623139" lon="7.3695443"><ele>616.6666666666666</ele><time>2026-04-04T14:29:23.483Z</time></trkpt><trkpt lat="44.4622571" lon="7.3696408"><ele>616.8333333333333</ele><time>2026-04-04T14:29:25.483Z</time></trkpt><trkpt lat="44.4622013" lon="7.3697436"><ele>617.0</ele><time>2026-04-04T14:29:27.483Z</time></trkpt><trkpt lat="44.4621443" lon="7.369854"><ele>616.6</ele><time>2026-04-04T14:29:29.482Z</time></trkpt><trkpt lat="44.462089" lon="7.3699615"><ele>616.2</ele><time>2026-04-04T14:29:31.482Z</time></trkpt><trkpt lat="44.4620351" lon="7.3700649"><ele>615.8</ele><time>2026-04-04T14:29:33.483Z</time></trkpt><trkpt lat="44.4619824" lon="7.3701696"><ele>615.4</ele><time>2026-04-04T14:29:35.481Z</time></trkpt><trkpt lat="44.4619262" lon="7.3702762"><ele>615.0</ele><time>2026-04-04T14:29:37.481Z</time></trkpt><trkpt lat="44.461872" lon="7.3703917"><ele>615.0</ele><time>2026-04-04T14:29:39.483Z</time></trkpt><trkpt lat="44.4618161" lon="7.3705033"><ele>615.0</ele><time>2026-04-04T14:29:41.483Z</time></trkpt><trkpt lat="44.4617647" lon="7.3706096"><ele>615.0</ele><time>2026-04-04T14:29:43.483Z</time></trkpt><trkpt lat="44.4617157" lon="7.3707055"><ele>615.0</ele><time>2026-04-04T14:29:45.482Z</time></trkpt><trkpt lat="44.4616669" lon="7.3707883"><ele>615.0</ele><time>2026-04-04T14:29:47.483Z</time></trkpt><trkpt lat="44.4616263" lon="7.370874"><ele>615.0</ele><time>2026-04-04T14:29:49.483Z</time></trkpt><trkpt lat="44.4615842" lon="7.3709528"><ele>615.0</ele><time>2026-04-04T14:29:51.483Z</time></trkpt><trkpt lat="44.461539" lon="7.3710367"><ele>615.0</ele><time>2026-04-04T14:29:53.482Z</time></trkpt><trkpt lat="44.4614941" lon="7.3711272"><ele>615.0</ele><time>2026-04-04T14:29:55.483Z</time></trkpt><trkpt lat="44.4614459" lon="7.3712189"><ele>615.0</ele><time>2026-04-04T14:29:57.482Z</time></trkpt><trkpt lat="44.4613954" lon="7.3713105"><ele>615.0</ele><time>2026-04-04T14:29:59.482Z</time></trkpt><trkpt lat="44.4613444" lon="7.3714054"><ele>615.0</ele><time>2026-04-04T14:30:01.483Z</time></trkpt><trkpt lat="44.4612913" lon="7.3715009"><ele>615.1666666666666</ele><time>2026-04-04T14:30:03.482Z</time></trkpt><trkpt lat="44.4612407" lon="7.3716003"><ele>615.3333333333334</ele><time>2026-04-04T14:30:05.482Z</time></trkpt><trkpt lat="44.4611904" lon="7.3717001"><ele>615.5</ele><time>2026-04-04T14:30:07.482Z</time></trkpt><trkpt lat="44.4611457" lon="7.3717972"><ele>615.6666666666667</ele><time>2026-04-04T14:30:09.482Z</time></trkpt><trkpt lat="44.4611009" lon="7.3718779"><ele>615.8333333333334</ele><time>2026-04-04T14:30:11.482Z</time></trkpt><trkpt lat="44.461033" lon="7.371868"><ele>616.0</ele><time>2026-04-04T14:30:13.483Z</time></trkpt><trkpt lat="44.4609446" lon="7.3718488"><ele>616.0</ele><time>2026-04-04T14:30:15.483Z</time></trkpt><trkpt lat="44.4608502" lon="7.3718473"><ele>616.0</ele><time>2026-04-04T14:30:17.482Z</time></trkpt><trkpt lat="44.4607685" lon="7.3718473"><ele>616.0</ele><time>2026-04-04T14:30:19.483Z</time></trkpt><trkpt lat="44.4606956" lon="7.3718459"><ele>616.0</ele><time>2026-04-04T14:30:21.483Z</time></trkpt><trkpt lat="44.4606298" lon="7.3718552"><ele>616.0</ele><time>2026-04-04T14:30:23.482Z</time></trkpt><trkpt lat="44.4605657" lon="7.3718585"><ele>616.0</ele><time>2026-04-04T14:30:25.482Z</time></trkpt><trkpt lat="44.4605017" lon="7.3718198"><ele>616.0</ele><time>2026-04-04T14:30:27.483Z</time></trkpt><trkpt lat="44.4604381" lon="7.371755"><ele>616.3333333333334</ele><time>2026-04-04T14:30:29.481Z</time></trkpt><trkpt lat="44.4603609" lon="7.3717211"><ele>616.6666666666667</ele><time>2026-04-04T14:30:31.482Z</time></trkpt><trkpt lat="44.4602777" lon="7.3717353"><ele>617.0</ele><time>2026-04-04T14:30:33.483Z</time></trkpt><trkpt lat="44.460196" lon="7.3717374"><ele>617.3333333333334</ele><time>2026-04-04T14:30:35.483Z</time></trkpt><trkpt lat="44.4601145" lon="7.371738"><ele>617.6666666666666</ele><time>2026-04-04T14:30:37.482Z</time></trkpt><trkpt lat="44.4600329" lon="7.3717387"><ele>618.0</ele><time>2026-04-04T14:30:39.482Z</time></trkpt><trkpt lat="44.4599532" lon="7.3717298"><ele>618.0000000000001</ele><time>2026-04-04T14:30:41.483Z</time></trkpt><trkpt lat="44.459878" lon="7.3717013"><ele>618.0</ele><time>2026-04-04T14:30:43.482Z</time></trkpt><trkpt lat="44.4598145" lon="7.3716582"><ele>618.0</ele><time>2026-04-04T14:30:45.483Z</time></trkpt><trkpt lat="44.4597587" lon="7.3716149"><ele>618.0</ele><time>2026-04-04T14:30:47.482Z</time></trkpt><trkpt lat="44.4596688" lon="7.3716142"><ele>618.0</ele><time>2026-04-04T14:30:50.483Z</time></trkpt><trkpt lat="44.4595992" lon="7.3716489"><ele>618.0000000000001</ele><time>2026-04-04T14:30:53.483Z</time></trkpt><trkpt lat="44.4595798" lon="7.3717398"><ele>618.0</ele><time>2026-04-04T14:32:13.482Z</time></trkpt><trkpt lat="44.4595627" lon="7.371849"><ele>617.8333333333334</ele><time>2026-04-04T14:32:17.482Z</time></trkpt><trkpt lat="44.4595053" lon="7.3719332"><ele>617.6666666666666</ele><time>2026-04-04T14:32:20.481Z</time></trkpt><trkpt lat="44.4594481" lon="7.3719769"><ele>617.5</ele><time>2026-04-04T14:32:22.481Z</time></trkpt><trkpt lat="44.4593746" lon="7.3719996"><ele>617.3333333333333</ele><time>2026-04-04T14:32:24.482Z</time></trkpt><trkpt lat="44.459298" lon="7.3719872"><ele>617.1666666666666</ele><time>2026-04-04T14:32:26.482Z</time></trkpt><trkpt lat="44.4592194" lon="7.3719899"><ele>617.0</ele><time>2026-04-04T14:32:28.482Z</time></trkpt><trkpt lat="44.4591382" lon="7.3719978"><ele>617.0</ele><time>2026-04-04T14:32:30.481Z</time></trkpt><trkpt lat="44.4590645" lon="7.3720053"><ele>617.0</ele><time>2026-04-04T14:32:32.481Z</time></trkpt><trkpt lat="44.4589972" lon="7.3719939"><ele>617.0</ele><time>2026-04-04T14:32:34.482Z</time></trkpt><trkpt lat="44.4589337" lon="7.3719873"><ele>617.0</ele><time>2026-04-04T14:32:36.481Z</time></trkpt><trkpt lat="44.4588471" lon="7.3719828"><ele>617.0</ele><time>2026-04-04T14:32:39.481Z</time></trkpt><trkpt lat="44.4587596" lon="7.3719624"><ele>617.0</ele><time>2026-04-04T14:32:42.481Z</time></trkpt><trkpt lat="44.4586892" lon="7.3719599"><ele>617.1428571428572</ele><time>2026-04-04T14:32:44.481Z</time></trkpt><trkpt lat="44.4586182" lon="7.3719533"><ele>617.2857142857142</ele><time>2026-04-04T14:32:46.48Z</time></trkpt><trkpt lat="44.4585456" lon="7.3719422"><ele>617.4285714285714</ele><time>2026-04-04T14:32:48.48Z</time></trkpt><trkpt lat="44.4584625" lon="7.3719478"><ele>617.5714285714287</ele><time>2026-04-04T14:32:50.481Z</time></trkpt><trkpt lat="44.458381" lon="7.3719601"><ele>617.7142857142858</ele><time>2026-04-04T14:32:52.482Z</time></trkpt><trkpt lat="44.4583094" lon="7.3719706"><ele>617.8571428571429</ele><time>2026-04-04T14:32:54.482Z</time></trkpt><trkpt lat="44.4582464" lon="7.3719749"><ele>618.0</ele><time>2026-04-04T14:32:56.48Z</time></trkpt><trkpt lat="44.4581737" lon="7.3719805"><ele>618.0</ele><time>2026-04-04T14:32:58.481Z</time></trkpt><trkpt lat="44.4580973" lon="7.3719784"><ele>618.0</ele><time>2026-04-04T14:33:00.482Z</time></trkpt><trkpt lat="44.4580194" lon="7.3719946"><ele>618.0</ele><time>2026-04-04T14:33:02.481Z</time></trkpt><trkpt lat="44.45794" lon="7.3720149"><ele>618.0</ele><time>2026-04-04T14:33:04.481Z</time></trkpt><trkpt lat="44.457857" lon="7.372024"><ele>618.0</ele><time>2026-04-04T14:33:06.481Z</time></trkpt><trkpt lat="44.4577739" lon="7.3720312"><ele>618.0</ele><time>2026-04-04T14:33:08.481Z</time></trkpt><trkpt lat="44.4576892" lon="7.3720342"><ele>618.0</ele><time>2026-04-04T14:33:10.48Z</time></trkpt><trkpt lat="44.4576023" lon="7.3720364"><ele>618.0</ele><time>2026-04-04T14:33:12.481Z</time></trkpt><trkpt lat="44.4575153" lon="7.3720377"><ele>618.0</ele><time>2026-04-04T14:33:14.482Z</time></trkpt><trkpt lat="44.4574278" lon="7.3720346"><ele>618.0</ele><time>2026-04-04T14:33:16.482Z</time></trkpt><trkpt lat="44.4573398" lon="7.3720362"><ele>618.0</ele><time>2026-04-04T14:33:18.481Z</time></trkpt><trkpt lat="44.4572538" lon="7.3720377"><ele>618.0</ele><time>2026-04-04T14:33:20.481Z</time></trkpt><trkpt lat="44.4571709" lon="7.3720355"><ele>620.5</ele><time>2026-04-04T14:33:22.482Z</time></trkpt><trkpt lat="44.4570891" lon="7.3720372"><ele>623.0</ele><time>2026-04-04T14:33:24.481Z</time></trkpt><trkpt lat="44.4570097" lon="7.3720179"><ele>625.5</ele><time>2026-04-04T14:33:26.48Z</time></trkpt><trkpt lat="44.4569338" lon="7.3719967"><ele>628.0</ele><time>2026-04-04T14:33:28.48Z</time></trkpt><trkpt lat="44.4568692" lon="7.372035"><ele>630.5</ele><time>2026-04-04T14:33:30.481Z</time></trkpt><trkpt lat="44.4568272" lon="7.3721231"><ele>633.0</ele><time>2026-04-04T14:33:32.486Z</time></trkpt><trkpt lat="44.4568581" lon="7.3722122"><ele>633.0</ele><time>2026-04-04T14:33:34.481Z</time></trkpt><trkpt lat="44.4568958" lon="7.3723222"><ele>633.0</ele><time>2026-04-04T14:33:37.482Z</time></trkpt><trkpt lat="44.456919" lon="7.3724461"><ele>633.0</ele><time>2026-04-04T14:33:40.481Z</time></trkpt><trkpt lat="44.4569217" lon="7.37255"><ele>633.0</ele><time>2026-04-04T14:33:42.482Z</time></trkpt><trkpt lat="44.4569208" lon="7.3726637"><ele>633.0</ele><time>2026-04-04T14:33:44.482Z</time></trkpt><trkpt lat="44.4569261" lon="7.3727731"><ele>633.0</ele><time>2026-04-04T14:33:46.482Z</time></trkpt><trkpt lat="44.4569154" lon="7.3728763"><ele>633.0</ele><time>2026-04-04T14:33:48.482Z</time></trkpt><trkpt lat="44.4569034" lon="7.3729857"><ele>633.0</ele><time>2026-04-04T14:33:50.482Z</time></trkpt><trkpt lat="44.456887" lon="7.3731031"><ele>633.0</ele><time>2026-04-04T14:33:52.513Z</time></trkpt><trkpt lat="44.4568585" lon="7.3732174"><ele>633.0</ele><time>2026-04-04T14:33:54.466Z</time></trkpt><trkpt lat="44.4568204" lon="7.3733426"><ele>633.0</ele><time>2026-04-04T14:33:56.482Z</time></trkpt><trkpt lat="44.4567848" lon="7.3734715"><ele>633.0</ele><time>2026-04-04T14:33:58.481Z</time></trkpt><trkpt lat="44.456757" lon="7.3735888"><ele>631.8</ele><time>2026-04-04T14:34:00.482Z</time></trkpt><trkpt lat="44.4567411" lon="7.3737096"><ele>630.5999999999999</ele><time>2026-04-04T14:34:02.481Z</time></trkpt><trkpt lat="44.4567143" lon="7.3738457"><ele>629.4000000000001</ele><time>2026-04-04T14:34:04.481Z</time></trkpt><trkpt lat="44.4566719" lon="7.3739806"><ele>628.2</ele><time>2026-04-04T14:34:06.481Z</time></trkpt><trkpt lat="44.4566226" lon="7.3741035"><ele>627.0</ele><time>2026-04-04T14:34:08.481Z</time></trkpt><trkpt lat="44.4565642" lon="7.3741976"><ele>626.0</ele><time>2026-04-04T14:34:10.482Z</time></trkpt><trkpt lat="44.4565503" lon="7.3743104"><ele>625.0</ele><time>2026-04-04T14:34:13.481Z</time></trkpt><trkpt lat="44.4566273" lon="7.3743448"><ele>624.0</ele><time>2026-04-04T14:34:16.48Z</time></trkpt><trkpt lat="44.4567112" lon="7.3743447"><ele>623.0</ele><time>2026-04-04T14:34:19.48Z</time></trkpt><trkpt lat="44.4568031" lon="7.3743284"><ele>622.0</ele><time>2026-04-04T14:34:22.481Z</time></trkpt><trkpt lat="44.4568787" lon="7.3743187"><ele>621.0</ele><time>2026-04-04T14:34:24.482Z</time></trkpt><trkpt lat="44.4569612" lon="7.3743072"><ele>621.0</ele><time>2026-04-04T14:34:26.481Z</time></trkpt><trkpt lat="44.4570449" lon="7.3742915"><ele>621.0</ele><time>2026-04-04T14:34:28.481Z</time></trkpt><trkpt lat="44.4571351" lon="7.3742763"><ele>621.0</ele><time>2026-04-04T14:34:30.482Z</time></trkpt><trkpt lat="44.4572302" lon="7.3742597"><ele>621.0</ele><time>2026-04-04T14:34:32.481Z</time></trkpt><trkpt lat="44.4573249" lon="7.3742489"><ele>621.0</ele><time>2026-04-04T14:34:34.482Z</time></trkpt><trkpt lat="44.4574181" lon="7.3742373"><ele>620.1666666666666</ele><time>2026-04-04T14:34:36.481Z</time></trkpt><trkpt lat="44.4575065" lon="7.3742214"><ele>619.3333333333334</ele><time>2026-04-04T14:34:38.482Z</time></trkpt><trkpt lat="44.4575888" lon="7.3742058"><ele>618.5</ele><time>2026-04-04T14:34:40.481Z</time></trkpt><trkpt lat="44.4576632" lon="7.37418"><ele>617.6666666666667</ele><time>2026-04-04T14:34:43.482Z</time></trkpt><trkpt lat="44.457734" lon="7.374174"><ele>616.8333333333334</ele><time>2026-04-04T14:34:46.481Z</time></trkpt><trkpt lat="44.4578004" lon="7.3742037"><ele>616.0</ele><time>2026-04-04T14:34:49.481Z</time></trkpt><trkpt lat="44.457843" lon="7.3741358"><ele>616.0</ele><time>2026-04-04T14:35:02.482Z</time></trkpt><trkpt lat="44.4578237" lon="7.3740417"><ele>616.0</ele><time>2026-04-04T14:35:08.481Z</time></trkpt><trkpt lat="44.4578307" lon="7.3739241"><ele>616.0</ele><time>2026-04-04T14:35:11.481Z</time></trkpt><trkpt lat="44.457892" lon="7.3738852"><ele>616.0</ele><time>2026-04-04T14:35:15.482Z</time></trkpt></trkseg></trk></gpx>